# Wetter Temperatur Luftdruck Luftfeuchtigkeit Sichtweite Windgeschwindigkeit Windrichtung Zeit
1 Clouds 20 1018 60 0 1 0 10:21 08.04.2020
2 Clouds 20 1018 60 0 1 0 09:59 08.04.2020
3 Clouds 18 1018 63 0 1 0 09:41 08.04.2020
4 Clouds 18 1018 63 0 1 0 09:19 08.04.2020
5 Clouds 17 1018 67 0 0.5 0 08:58 08.04.2020
6 Clouds 17 1018 67 0 0.5 0 08:40 08.04.2020
7 Clouds 17 1018 67 0 0.5 0 08:21 08.04.2020
8 Clouds 17 1018 67 10000 2.1 250 07:43 08.04.2020
9 Clouds 17 1018 67 10000 2.1 250 07:22 08.04.2020
10 Clouds 17 1018 67 10000 3.1 270 06:33 08.04.2020
11 Clouds 18 1019 63 10000 1 0 05:30 08.04.2020
12 Clouds 20 1020 56 10000 1.5 230 03:20 08.04.2020
13 Clouds 21 1020 56 10000 2.1 270 02:38 08.04.2020
14 Clouds 23 1020 49 10000 2.1 160 02:18 08.04.2020
15 Clouds 23 1021 46 10000 1.5 90 01:28 08.04.2020
16 Clouds 23 1020 46 10000 1 0 00:50 08.04.2020
17 Clouds 24 1020 47 10000 4.1 20 00:32 08.04.2020
18 Clouds 24 1020 47 10000 3.6 20 23:57 07.04.2020
19 Clouds 25 1019 44 10000 4.1 30 23:38 07.04.2020
20 Clouds 25 1019 44 10000 4.1 30 23:19 07.04.2020
21 Clouds 25 1019 44 10000 4.1 30 23:19 07.04.2020
22 Clouds 26 1019 41 8000 4.6 30 22:56 07.04.2020
23 Clouds 27 1018 39 8000 4.6 20 22:38 07.04.2020
24 Clouds 28 1018 37 8000 4.1 10 22:18 07.04.2020
25 Clouds 29 1018 30 8000 3.1 30 21:43 07.04.2020
26 Clouds 29 1018 30 8000 3.1 30 21:23 07.04.2020
27 Clouds 30 1018 30 8000 2.6 100 20:59 07.04.2020
28 Clouds 30 1017 33 8000 3.1 80 20:41 07.04.2020
29 Clouds 30 1017 33 8000 3.1 80 20:21 07.04.2020
30 Clouds 30 1017 30 8000 2.6 90 19:58 07.04.2020
31 Clouds 31 1017 29 8000 2.6 30 19:38 07.04.2020
32 Clouds 31 1017 29 8000 2.6 30 19:38 07.04.2020
33 Clouds 31 1017 29 8000 2.6 340 19:20 07.04.2020
34 Clouds 31 1017 29 8000 2.6 340 19:20 07.04.2020
35 Clouds 31 1017 29 8000 2.6 340 18:59 07.04.2020
36 Clouds 31 1017 31 8000 1.5 0 18:40 07.04.2020
37 Clouds 32 1017 29 8000 2.1 0 18:21 07.04.2020
38 Clouds 31 1018 33 8000 2.1 0 17:55 07.04.2020
39 Clouds 31 1018 33 8000 2.1 0 17:37 07.04.2020
40 Clouds 31 1018 35 8000 1.5 0 17:19 07.04.2020
41 Clouds 30 1018 35 8000 1.5 0 16:43 07.04.2020
42 Clouds 29 1018 37 8000 2.6 60 16:25 07.04.2020
43 Clouds 28 1019 42 8000 3.1 30 15:44 07.04.2020
44 Clouds 28 1019 42 8000 3.1 30 15:26 07.04.2020
45 Clouds 26 1020 47 8000 3.6 70 14:55 07.04.2020
46 Clouds 26 1020 47 8000 3.6 70 14:37 07.04.2020
47 Clouds 26 1020 47 8000 3.6 70 14:18 07.04.2020
48 Clouds 24 1020 57 8000 4.1 70 13:42 07.04.2020
49 Clouds 24 1021 53 10000 3.6 50 13:19 07.04.2020
50 Clouds 24 1021 53 10000 3.6 50 12:57 07.04.2020
51 Clouds 22 1021 60 8000 2.6 30 12:37 07.04.2020
52 Clear 22 1021 60 8000 1.5 340 12:19 07.04.2020
53 Clear 22 1021 60 8000 1.5 340 11:56 07.04.2020
54 Clear 21 1021 68 8000 1 0 11:38 07.04.2020
55 Clear 20 1021 64 8000 1 0 11:19 07.04.2020
56 Clear 19 1021 72 10000 1 0 10:39 07.04.2020
57 Clear 19 1021 72 10000 1 0 10:20 07.04.2020
58 Clear 18 1021 72 10000 1.5 10 09:54 07.04.2020
59 Clear 17 1021 77 8000 1.5 20 09:36 07.04.2020
60 Clear 16 1021 77 10000 0.5 0 09:18 07.04.2020
61 Clear 16 1021 77 10000 1.5 210 08:39 07.04.2020
62 Clear 16 1021 77 8000 2.6 230 08:20 07.04.2020
63 Clear 16 1021 77 8000 2.6 230 07:44 07.04.2020
64 Clear 16 1021 77 8000 2.6 230 07:44 07.04.2020
65 Clear 16 1021 77 8000 2.6 230 07:26 07.04.2020
66 Clear 16 1021 77 8000 2.6 230 07:26 07.04.2020
67 Clear 16 1021 77 10000 2.1 240 06:52 07.04.2020
68 Clear 15 1021 82 10000 1.5 250 06:26 07.04.2020
69 Clear 15 1021 82 10000 2.1 270 05:54 07.04.2020
70 Clear 16 1020 77 10000 2.6 250 05:25 07.04.2020
71 Clear 18 1021 72 10000 2.1 240 03:36 07.04.2020
72 Clear 19 1021 68 10000 0.5 0 03:18 07.04.2020
73 Clear 20 1022 64 10000 1.5 10 02:36 07.04.2020
74 Clear 20 1021 64 10000 1.5 20 01:34 07.04.2020
75 Clear 21 1021 64 10000 1.5 340 00:54 07.04.2020
76 Clouds 21 1021 64 10000 4.1 30 00:25 07.04.2020
77 Clouds 22 1021 60 10000 4.6 20 23:41 06.04.2020
78 Clouds 22 1021 60 10000 4.6 20 23:21 06.04.2020
79 Clouds 23 1020 56 10000 5.1 360 22:54 06.04.2020
80 Clouds 24 1020 41 10000 1.5 280 22:36 06.04.2020
81 Clouds 24 1020 41 10000 1.5 280 22:36 06.04.2020
82 Clouds 25 1020 41 10000 3.1 240 22:18 06.04.2020
83 Clouds 26 1019 39 10000 3.1 240 21:42 06.04.2020
84 Clouds 26 1019 39 10000 3.1 240 21:20 06.04.2020
85 Clouds 26 1019 39 10000 2.6 270 20:57 06.04.2020
86 Clouds 27 1019 34 10000 3.1 250 20:39 06.04.2020
87 Clouds 27 1019 34 10000 3.1 250 20:21 06.04.2020
88 Clouds 28 1019 34 10000 2.6 290 19:57 06.04.2020
89 Clouds 28 1019 32 10000 1 0 19:38 06.04.2020
90 Clouds 29 1019 30 10000 0.5 0 19:20 06.04.2020
91 Clouds 28 1019 34 10000 2.1 0 18:42 06.04.2020
92 Clouds 28 1019 34 10000 2.1 0 18:23 06.04.2020
93 Clouds 27 1019 34 10000 2.6 0 17:57 06.04.2020
94 Clouds 27 1019 36 10000 1.5 0 17:39 06.04.2020
95 Clouds 28 1020 34 10000 1.5 0 17:18 06.04.2020
96 Clouds 27 1020 36 10000 1.5 0 16:48 06.04.2020
97 Clouds 27 1020 36 10000 1.5 0 16:30 06.04.2020
98 Clouds 25 1021 41 10000 1.5 0 14:49 06.04.2020
99 Clouds 25 1021 41 10000 1.5 0 14:49 06.04.2020
100 Clouds 25 1021 41 10000 1.5 0 14:49 06.04.2020
101 Clouds 25 1021 41 10000 1.5 0 14:49 06.04.2020
102 Clouds 24 1021 50 10000 1.5 0 13:45 06.04.2020
103 Clouds 24 1021 50 10000 1.5 0 13:45 06.04.2020
104 Clouds 23 1022 56 10000 2.1 0 13:22 06.04.2020
105 Clouds 23 1022 56 10000 2.1 0 13:22 06.04.2020
106 Clouds 23 1022 60 10000 1 0 12:46 06.04.2020
107 Clouds 21 1022 64 10000 1.5 0 12:19 06.04.2020
108 Clouds 21 1022 64 10000 1.5 0 11:40 06.04.2020
109 Clouds 21 1022 64 10000 1.5 0 11:40 06.04.2020
110 Clouds 19 1021 72 8000 2.1 360 11:03 06.04.2020
111 Clouds 19 1021 72 8000 2.1 360 11:03 06.04.2020
112 Clouds 19 1021 72 8000 1 0 10:38 06.04.2020
113 Clouds 19 1021 72 8000 1 0 10:38 06.04.2020
114 Clouds 19 1021 72 8000 1 0 10:20 06.04.2020
115 Clouds 19 1021 72 8000 1 0 10:20 06.04.2020
116 Clouds 19 1021 72 8000 1 0 10:20 06.04.2020
117 Clouds 19 1021 72 8000 1 0 10:20 06.04.2020
118 Clouds 19 1021 72 8000 1 0 10:19 06.04.2020
119 Clouds 17 1021 82 8000 0.5 0 09:40 06.04.2020
120 Clouds 17 1021 82 8000 0.5 0 09:40 06.04.2020
121 Clouds 16 1021 82 8000 1.5 270 09:19 06.04.2020
122 Clouds 17 1020 77 8000 1 0 08:43 06.04.2020
123 Clouds 17 1020 77 8000 1 0 08:43 06.04.2020
124 Clouds 17 1020 77 8000 1 0 08:43 06.04.2020
125 Clouds 17 1020 77 8000 1 0 08:43 06.04.2020
126 Clouds 17 1020 77 8000 1 0 08:43 06.04.2020
127 Clouds 17 1020 77 8000 1 0 08:23 06.04.2020
128 Clouds 17 1019 77 8000 2.1 120 07:22 06.04.2020
129 Clouds 17 1019 77 8000 2.1 120 07:22 06.04.2020
130 Clouds 17 1019 77 8000 2.1 120 07:22 06.04.2020
131 Clouds 17 1019 77 8000 2.1 120 07:22 06.04.2020
132 Clouds 17 1019 77 8000 2.1 120 07:22 06.04.2020
133 Clouds 16 1019 82 8000 1 0 06:27 06.04.2020
134 Clouds 16 1019 82 8000 1.5 240 05:51 06.04.2020
135 Clouds 16 1020 82 10000 2.1 270 03:56 06.04.2020
136 Clouds 17 1020 72 10000 2.6 260 02:52 06.04.2020
137 Clouds 17 1021 72 10000 2.1 260 01:55 06.04.2020
138 Clouds 18 1021 68 10000 2.6 260 00:55 06.04.2020
139 Clouds 18 1021 68 10000 2.6 250 00:28 06.04.2020
140 Clouds 18 1021 68 10000 2.6 250 00:28 06.04.2020
141 Clouds 19 1020 63 10000 2.6 290 23:52 05.04.2020
142 Clouds 19 1020 63 10000 3.1 300 23:33 05.04.2020
143 Clouds 20 1020 60 10000 4.1 310 22:58 05.04.2020
144 Clouds 20 1020 60 10000 4.1 310 22:40 05.04.2020
145 Clouds 20 1019 60 10000 4.6 300 22:22 05.04.2020
146 Clouds 21 1019 56 10000 5.7 290 21:59 05.04.2020
147 Clouds 21 1019 56 10000 5.7 290 21:41 05.04.2020
148 Clouds 21 1019 56 10000 5.7 290 21:41 05.04.2020
149 Clouds 22 1018 53 10000 5.7 280 21:22 05.04.2020
150 Clouds 22 1018 53 10000 5.7 280 21:22 05.04.2020
151 Clouds 24 1017 47 10000 4.1 290 20:22 05.04.2020
152 Clouds 25 1017 41 10000 5.1 270 19:43 05.04.2020
153 Clouds 25 1017 41 10000 3.6 290 19:22 05.04.2020
154 Clouds 25 1017 41 10000 3.1 300 18:48 05.04.2020
155 Clouds 26 1017 39 10000 4.6 290 18:18 05.04.2020
156 Clouds 26 1017 39 10000 3.6 300 17:46 05.04.2020
157 Clouds 26 1017 39 10000 3.6 300 17:44 05.04.2020
158 Clouds 26 1017 39 10000 3.6 300 17:44 05.04.2020
159 Clouds 26 1017 39 10000 3.6 300 17:44 05.04.2020
160 Clouds 26 1017 39 10000 3.6 300 17:44 05.04.2020
161 Clouds 25 1017 38 10000 4.6 290 17:21 05.04.2020
162 Clouds 25 1017 38 10000 4.6 290 17:21 05.04.2020
163 Clouds 25 1017 38 10000 4.6 290 17:21 05.04.2020
164 Clouds 26 1017 39 10000 3.6 310 16:47 05.04.2020
165 Clouds 26 1017 39 10000 3.6 310 16:47 05.04.2020
166 Clouds 25 1017 38 10000 4.6 300 16:19 05.04.2020
167 Clouds 25 1017 38 10000 3.6 300 15:45 05.04.2020
168 Clouds 25 1017 38 10000 3.6 300 15:45 05.04.2020
169 Clouds 25 1017 41 10000 3.6 270 15:25 05.04.2020
170 Clouds 25 1017 41 10000 3.6 270 15:25 05.04.2020
171 Clouds 24 1017 47 10000 2.6 340 14:48 05.04.2020
172 Clouds 24 1017 47 10000 2.6 340 14:48 05.04.2020
173 Clouds 24 1017 47 10000 2.6 340 14:48 05.04.2020
174 Clouds 24 1017 47 10000 2.6 340 14:48 05.04.2020
175 Clouds 24 1017 47 10000 2.6 340 14:48 05.04.2020
176 Clouds 23 1018 53 10000 1.5 0 13:59 05.04.2020
177 Clouds 23 1018 53 10000 1.5 0 13:40 05.04.2020
178 Clouds 22 1018 56 10000 2.1 0 13:40 05.04.2020
179 Clouds 20 1019 68 10000 1 0 12:00 05.04.2020
180 Clouds 20 1019 68 10000 1 0 12:00 05.04.2020
181 Clouds 20 1019 68 10000 1 0 12:00 05.04.2020
182 Clouds 19 1018 68 10000 1 0 11:39 05.04.2020
183 Clouds 19 1018 68 10000 1 0 11:19 05.04.2020
184 Clouds 18 1018 68 10000 1.5 250 10:47 05.04.2020
185 Clouds 18 1018 68 10000 1.5 250 10:47 05.04.2020
186 Clouds 16 1019 77 10000 2.1 250 10:22 05.04.2020
187 Clouds 16 1019 77 10000 2.1 250 10:22 05.04.2020
188 Clouds 15 1018 82 10000 1.5 250 09:53 05.04.2020
189 Clouds 14 1018 82 10000 1.5 260 09:26 05.04.2020
190 Clouds 14 1018 82 10000 1.5 260 09:26 05.04.2020
191 Clouds 14 1018 82 10000 1.5 260 09:26 05.04.2020
192 Clouds 14 1018 82 10000 1.5 260 09:25 05.04.2020
193 Clouds 14 1018 82 10000 1.5 260 09:25 05.04.2020
194 Clouds 15 1016 77 10000 1.5 350 08:18 05.04.2020
195 Clouds 14 1016 82 8000 1.5 240 05:37 05.04.2020
196 Clouds 14 1016 82 8000 1.5 240 05:37 05.04.2020
197 Clouds 14 1016 82 8000 1.5 240 05:37 05.04.2020
198 Clouds 14 1015 82 8000 1.5 240 04:29 05.04.2020
199 Clouds 14 1015 82 8000 1.5 240 04:29 05.04.2020
200 Clouds 15 1016 77 8000 1.5 250 03:27 05.04.2020
201 Clouds 16 1016 72 10000 2.1 240 02:18 05.04.2020
202 Clouds 16 1015 67 10000 1 0 01:42 05.04.2020
203 Clouds 18 1015 63 10000 1.5 20 01:18 05.04.2020
204 Clouds 18 1015 63 10000 1.5 20 01:18 05.04.2020
205 Clouds 19 1016 59 10000 1 0 00:37 05.04.2020
206 Clouds 19 1016 59 10000 1 0 00:18 05.04.2020
207 Clouds 19 1016 55 10000 2.1 20 23:41 04.04.2020
208 Clouds 20 1016 52 10000 3.1 350 23:21 04.04.2020
209 Clouds 20 1015 52 10000 3.1 340 22:57 04.04.2020
210 Clouds 21 1015 49 10000 4.1 320 22:39 04.04.2020
211 Clouds 21 1015 49 10000 4.1 320 22:19 04.04.2020
212 Clouds 22 1014 43 10000 3.1 290 21:56 04.04.2020
213 Clouds 23 1014 31 10000 2.1 320 21:38 04.04.2020
214 Clouds 23 1014 31 10000 2.1 320 21:18 04.04.2020
215 Clouds 24 1013 31 10000 1.5 310 20:43 04.04.2020
216 Clouds 24 1013 29 10000 1.5 300 20:23 04.04.2020
217 Clouds 24 1013 31 10000 2.1 310 19:59 04.04.2020
218 Clouds 24 1013 31 10000 2.1 310 19:59 04.04.2020
219 Clouds 24 1013 31 10000 2.1 310 19:40 04.04.2020
220 Clouds 25 1012 27 10000 1.5 0 19:20 04.04.2020
221 Clouds 25 1012 29 10000 2.6 270 18:59 04.04.2020
222 Clouds 25 1012 29 10000 2.6 270 18:59 04.04.2020
223 Clouds 25 1012 29 10000 2.1 260 18:39 04.04.2020
224 Clouds 25 1012 29 10000 2.1 260 18:21 04.04.2020
225 Clouds 24 1012 31 10000 1 0 17:58 04.04.2020
226 Clouds 25 1012 31 10000 2.1 180 17:38 04.04.2020
227 Clouds 25 1012 31 10000 2.1 180 17:19 04.04.2020
228 Clouds 24 1012 31 10000 1.5 0 16:45 04.04.2020
229 Clouds 23 1012 35 10000 2.6 310 16:27 04.04.2020
230 Clouds 23 1013 38 10000 2.1 0 15:59 04.04.2020
231 Clouds 22 1013 37 10000 3.6 290 15:39 04.04.2020
232 Clouds 22 1013 37 10000 3.6 290 15:19 04.04.2020
233 Clouds 22 1013 37 10000 3.6 290 15:19 04.04.2020
234 Clouds 22 1013 37 10000 4.1 290 14:54 04.04.2020
235 Clouds 20 1013 40 10000 3.6 330 14:36 04.04.2020
236 Clouds 20 1013 40 10000 3.6 330 14:18 04.04.2020
237 Clouds 20 1013 42 10000 3.1 360 13:42 04.04.2020
238 Clouds 20 1013 42 10000 2.6 360 13:21 04.04.2020
239 Clouds 20 1013 42 10000 2.6 360 13:21 04.04.2020
240 Clouds 19 1013 45 10000 2.6 350 12:58 04.04.2020
241 Clouds 19 1013 48 10000 1 0 12:39 04.04.2020
242 Clouds 19 1013 48 10000 1 0 12:20 04.04.2020
243 Clouds 17 1013 55 10000 2.1 260 11:42 04.04.2020
244 Clouds 17 1013 55 10000 2.1 260 11:23 04.04.2020
245 Clouds 16 1012 59 10000 2.6 280 10:59 04.04.2020
246 Clouds 16 1012 59 10000 2.6 280 10:40 04.04.2020
247 Clouds 15 1012 58 10000 3.1 260 10:22 04.04.2020
248 Clouds 15 1012 58 10000 2.1 250 09:56 04.04.2020
249 Clouds 14 1011 62 10000 2.6 240 09:38 04.04.2020
250 Clouds 14 1011 62 10000 2.6 240 09:20 04.04.2020
251 Clouds 14 1011 62 10000 3.6 240 08:43 04.04.2020
252 Clouds 15 1010 58 10000 4.1 230 08:23 04.04.2020
253 Clouds 15 1010 62 10000 3.6 230 07:57 04.04.2020
254 Clouds 15 1010 62 10000 3.1 230 07:38 04.04.2020
255 Clouds 15 1010 62 10000 3.1 230 07:20 04.04.2020
256 Clouds 16 1009 59 10000 2.1 230 06:29 04.04.2020
257 Clouds 16 1009 59 10000 2.6 250 05:52 04.04.2020
258 Clouds 16 1009 59 10000 2.6 260 05:32 04.04.2020
259 Clouds 17 1009 55 10000 3.1 270 04:34 04.04.2020
260 Clouds 17 1009 55 10000 3.6 280 03:56 04.04.2020
261 Clouds 19 1009 48 10000 3.1 300 03:29 04.04.2020
262 Clouds 19 1009 48 10000 2.1 130 02:45 04.04.2020
263 Clouds 18 1010 55 10000 1 0 02:25 04.04.2020
264 Clouds 19 1010 48 10000 2.1 140 01:27 04.04.2020
265 Clouds 19 1011 48 10000 3.1 210 00:58 04.04.2020
266 Clouds 19 1011 48 10000 2.1 250 00:31 04.04.2020
267 Clouds 19 1011 48 10000 3.1 250 23:57 03.04.2020
268 Clouds 20 1011 40 10000 4.1 250 23:38 03.04.2020
269 Clouds 20 1011 40 10000 4.1 250 23:19 03.04.2020
270 Clouds 20 1011 40 10000 4.1 250 23:19 03.04.2020
271 Clouds 21 1010 35 10000 3.6 270 22:40 03.04.2020
272 Clouds 22 1010 28 10000 4.1 280 22:19 03.04.2020
273 Clouds 22 1010 28 10000 4.1 280 22:19 03.04.2020
274 Clouds 22 1009 26 10000 2.1 250 21:57 03.04.2020
275 Clouds 23 1009 23 10000 2.1 250 21:38 03.04.2020
276 Clouds 23 1009 17 10000 2.1 250 21:20 03.04.2020
277 Clouds 24 1009 17 10000 2.6 230 20:55 03.04.2020
278 Clouds 25 1009 17 10000 2.6 270 20:36 03.04.2020
279 Clouds 25 1009 17 10000 2.6 270 20:18 03.04.2020
280 Clouds 25 1009 15 10000 1 0 19:55 03.04.2020
281 Clouds 25 1008 14 10000 1 0 19:36 03.04.2020
282 Clouds 25 1008 14 10000 1 0 19:18 03.04.2020
283 Clouds 26 1008 14 10000 0.5 0 18:56 03.04.2020
284 Clouds 26 1008 14 10000 1.5 0 18:38 03.04.2020
285 Clouds 26 1008 14 10000 1.5 0 18:20 03.04.2020
286 Clouds 26 1008 15 10000 2.1 0 17:40 03.04.2020
287 Clouds 26 1009 16 10000 1.5 0 17:19 03.04.2020
288 Clouds 26 1008 15 10000 2.1 0 17:19 03.04.2020
289 Clouds 26 1009 16 10000 1.5 0 16:55 03.04.2020
290 Clouds 24 1009 16 10000 3.1 80 16:36 03.04.2020
291 Clouds 24 1009 16 10000 3.1 80 16:18 03.04.2020
292 Clouds 25 1009 20 10000 2.1 0 15:41 03.04.2020
293 Clouds 24 1010 25 10000 2.1 0 15:22 03.04.2020
294 Clouds 23 1011 28 10000 3.6 40 14:58 03.04.2020
295 Clouds 21 1011 21 0 3.86 50 14:40 03.04.2020
296 Clouds 20 1012 37 10000 2.6 60 14:21 03.04.2020
297 Clouds 20 1012 37 10000 2.6 60 13:46 03.04.2020
298 Clouds 20 1012 37 10000 2.6 60 13:27 03.04.2020
299 Clouds 19 1012 42 10000 4.1 60 12:57 03.04.2020
300 Clouds 19 1012 42 10000 5.7 80 12:39 03.04.2020
301 Clouds 19 1012 42 10000 5.7 80 12:18 03.04.2020
302 Clouds 17 1012 51 10000 3.6 70 11:55 03.04.2020
303 Clouds 15 1013 58 10000 4.1 70 11:37 03.04.2020
304 Clouds 14 1013 62 10000 4.1 80 11:18 03.04.2020
305 Clouds 14 1013 62 10000 4.1 80 10:56 03.04.2020
306 Clouds 13 1013 66 10000 4.6 80 10:37 03.04.2020
307 Clouds 13 1013 66 10000 4.6 80 10:37 03.04.2020
308 Clouds 13 1013 66 10000 4.6 80 10:18 03.04.2020
309 Clouds 13 1013 66 10000 4.6 80 10:18 03.04.2020
310 Clouds 12 1012 71 10000 4.6 90 09:54 03.04.2020
311 Clouds 11 1012 71 10000 3.1 80 09:36 03.04.2020
312 Clouds 11 1012 71 10000 3.1 80 09:36 03.04.2020
313 Clouds 11 1012 71 10000 3.1 80 09:18 03.04.2020
314 Clouds 10 1013 76 10000 3.1 80 08:41 03.04.2020
315 Clouds 10 1012 76 10000 3.1 100 08:22 03.04.2020
316 Clouds 10 1012 76 10000 3.6 100 07:50 03.04.2020
317 Clouds 11 1012 71 10000 4.6 90 07:32 03.04.2020
318 Clouds 11 1012 71 10000 5.1 90 06:55 03.04.2020
319 Clouds 11 1012 71 10000 4.1 90 06:25 03.04.2020
320 Clouds 11 1013 71 10000 3.6 90 05:42 03.04.2020
321 Clouds 13 1014 62 10000 3.6 80 03:52 03.04.2020
322 Clouds 13 1015 62 10000 4.1 70 03:31 03.04.2020
323 Clear 14 1015 58 10000 5.1 60 02:30 03.04.2020
324 Clear 14 1015 58 10000 6.2 50 01:24 03.04.2020
325 Clear 15 1016 54 10000 6.7 50 00:43 03.04.2020
326 Clear 16 1016 51 10000 5.7 30 00:23 03.04.2020
327 Clouds 16 1016 55 10000 4.1 30 23:43 02.04.2020
328 Clouds 16 1016 55 10000 4.1 30 23:43 02.04.2020
329 Clouds 17 1016 48 10000 4.6 20 23:24 02.04.2020
330 Clouds 18 1016 45 10000 4.6 20 22:59 02.04.2020
331 Clouds 18 1016 45 10000 4.6 20 22:41 02.04.2020
332 Clouds 18 1016 45 10000 4.6 20 22:41 02.04.2020
333 Clouds 18 1015 42 10000 4.6 30 22:20 02.04.2020
334 Clouds 19 1014 37 10000 3.6 50 21:55 02.04.2020
335 Clouds 19 1014 37 10000 3.1 60 21:36 02.04.2020
336 Clouds 19 1014 37 10000 3.1 60 21:18 02.04.2020
337 Clouds 20 1014 34 10000 2.6 30 20:42 02.04.2020
338 Clouds 21 1014 32 8000 4.1 70 20:23 02.04.2020
339 Clouds 21 1014 32 8000 2.6 40 19:55 02.04.2020
340 Clouds 21 1014 32 8000 3.1 40 19:37 02.04.2020
341 Clouds 21 1014 32 8000 3.1 40 19:18 02.04.2020
342 Clouds 21 1015 35 8000 3.1 0 18:41 02.04.2020
343 Clouds 21 1015 35 8000 3.1 0 18:21 02.04.2020
344 Clouds 22 1015 35 8000 2.1 0 17:57 02.04.2020
345 Clouds 21 1015 35 8000 2.6 0 17:39 02.04.2020
346 Clouds 21 1015 35 8000 2.6 0 17:20 02.04.2020
347 Clouds 22 1015 35 8000 1.5 0 16:56 02.04.2020
348 Clouds 20 1016 37 8000 2.1 0 16:38 02.04.2020
349 Clouds 20 1016 37 8000 2.1 0 16:20 02.04.2020
350 Clouds 21 1016 37 8000 2.1 0 15:54 02.04.2020
351 Clouds 20 1016 42 8000 1.5 0 15:36 02.04.2020
352 Clouds 20 1016 42 8000 1.5 0 15:18 02.04.2020
353 Clouds 18 1017 45 8000 3.6 340 14:40 02.04.2020
354 Clouds 18 1017 45 8000 3.6 340 14:21 02.04.2020
355 Clouds 18 1017 48 8000 3.1 350 13:58 02.04.2020
356 Clouds 18 1017 48 8000 3.1 350 13:39 02.04.2020
357 Clouds 17 1017 48 8000 2.6 40 13:21 02.04.2020
358 Clouds 17 1017 48 8000 1.5 0 12:56 02.04.2020
359 Clouds 17 1017 51 8000 1.5 290 12:38 02.04.2020
360 Clouds 17 1017 51 8000 1.5 290 12:19 02.04.2020
361 Clouds 16 1017 55 8000 1.5 0 11:57 02.04.2020
362 Clouds 15 1017 62 8000 1.5 0 11:38 02.04.2020
363 Clouds 15 1017 62 8000 1.5 0 11:38 02.04.2020
364 Clouds 15 1017 62 8000 1.5 0 11:19 02.04.2020
365 Clouds 15 1017 62 8000 1.5 0 11:19 02.04.2020
366 Clouds 14 1017 62 8000 1 0 10:55 02.04.2020
367 Clouds 14 1017 62 8000 1 0 10:55 02.04.2020
368 Clouds 13 1017 71 8000 1 0 10:37 02.04.2020
369 Clouds 13 1017 71 8000 1 0 10:18 02.04.2020
370 Clouds 13 1017 71 8000 1.5 30 09:43 02.04.2020
371 Clouds 13 1016 66 8000 1.5 350 09:25 02.04.2020
372 Clouds 13 1016 71 8000 2.1 350 08:58 02.04.2020
373 Clouds 13 1016 71 8000 2.1 350 08:40 02.04.2020
374 Clouds 13 1016 71 8000 1 0 08:22 02.04.2020
375 Clouds 13 1016 71 8000 2.1 330 07:44 02.04.2020
376 Clouds 13 1016 71 8000 2.1 330 07:20 02.04.2020
377 Clouds 13 1016 71 8000 2.6 330 06:58 02.04.2020
378 Clouds 13 1016 71 8000 2.6 330 06:21 02.04.2020
379 Clouds 13 1016 71 8000 3.1 300 05:44 02.04.2020
380 Clouds 13 1016 71 8000 2.6 330 03:57 02.04.2020
381 Clouds 15 1017 62 10000 3.1 330 01:34 02.04.2020
382 Clouds 15 1017 62 10000 3.1 340 00:46 02.04.2020
383 Clouds 15 1017 62 10000 3.1 290 00:26 02.04.2020
384 Clouds 16 1017 63 10000 3.6 330 23:41 01.04.2020
385 Clouds 16 1017 63 10000 3.6 330 23:20 01.04.2020
386 Clouds 16 1017 63 10000 4.1 300 22:59 01.04.2020
387 Clouds 16 1017 63 10000 4.1 300 22:39 01.04.2020
388 Clouds 16 1016 63 10000 5.7 290 22:21 01.04.2020
389 Clouds 17 1016 59 10000 4.6 280 21:42 01.04.2020
390 Clouds 17 1016 59 10000 5.1 290 21:22 01.04.2020
391 Clouds 17 1016 59 10000 5.1 290 21:22 01.04.2020
392 Clouds 17 1016 59 10000 5.1 290 21:21 01.04.2020
393 Clouds 17 1016 59 10000 5.1 290 21:21 01.04.2020
394 Clouds 17 1016 59 10000 5.1 290 21:20 01.04.2020
395 Clouds 18 1016 55 10000 6.2 290 20:57 01.04.2020
396 Clouds 19 1015 52 10000 5.7 290 20:39 01.04.2020
397 Clouds 19 1015 52 10000 5.7 290 20:20 01.04.2020
398 Clouds 19 1015 52 10000 5.7 290 20:20 01.04.2020
399 Clouds 20 1015 49 10000 6.2 300 19:59 01.04.2020
400 Clouds 20 1015 49 10000 6.2 300 19:40 01.04.2020
401 Clouds 21 1015 46 10000 6.7 280 19:20 01.04.2020
402 Clouds 22 1015 46 10000 6.2 290 18:44 01.04.2020
403 Clouds 22 1015 43 10000 5.7 290 18:25 01.04.2020
404 Clouds 22 1015 40 10000 4.6 300 17:58 01.04.2020
405 Clouds 22 1015 40 10000 5.7 270 17:38 01.04.2020
406 Clouds 22 1015 40 10000 5.7 270 17:19 01.04.2020
407 Clouds 22 1015 40 10000 4.6 260 16:58 01.04.2020
408 Clouds 22 1015 40 10000 4.6 260 16:58 01.04.2020
409 Clouds 22 1015 40 10000 4.6 260 16:39 01.04.2020
410 Clouds 21 1015 46 10000 5.1 280 16:21 01.04.2020
411 Clouds 20 1015 49 10000 4.6 290 15:57 01.04.2020
412 Clouds 20 1016 49 10000 3.6 270 15:38 01.04.2020
413 Clouds 20 1016 49 10000 3.6 270 15:19 01.04.2020
414 Clouds 20 1016 49 10000 1.5 270 14:55 01.04.2020
415 Clouds 20 1016 49 10000 1.5 270 14:55 01.04.2020
416 Clouds 19 1016 48 10000 2.6 280 14:37 01.04.2020
417 Clouds 19 1016 48 10000 2.6 280 14:19 01.04.2020
418 Clouds 19 1016 52 10000 1 0 13:56 01.04.2020
419 Clouds 18 1016 55 10000 1 0 13:37 01.04.2020
420 Clouds 18 1016 55 10000 1 0 13:18 01.04.2020
421 Clouds 18 1017 55 10000 2.1 330 12:42 01.04.2020
422 Clouds 18 1017 59 10000 1 0 12:24 01.04.2020
423 Clouds 17 1017 63 10000 1.5 360 11:59 01.04.2020
424 Clouds 16 1017 67 10000 1.5 20 11:39 01.04.2020
425 Clouds 16 1017 67 10000 1.5 20 11:20 01.04.2020
426 Clouds 15 1017 77 10000 2.1 40 10:56 01.04.2020
427 Clouds 15 1017 77 10000 1.5 60 10:37 01.04.2020
428 Clouds 15 1017 77 10000 1.5 60 10:18 01.04.2020
429 Clouds 13 1017 82 10000 1.5 90 09:40 01.04.2020
430 Clouds 12 1016 87 10000 2.1 90 09:22 01.04.2020
431 Clouds 11 1016 87 10000 1.5 90 08:59 01.04.2020
432 Clouds 11 1016 87 10000 1.5 90 08:40 01.04.2020
433 Clouds 11 1016 87 8000 1 0 08:18 01.04.2020
434 Clouds 11 1015 87 8000 1 0 07:42 01.04.2020
435 Clouds 11 1015 87 8000 1 0 07:42 01.04.2020
436 Clouds 12 1015 81 8000 0.5 0 07:20 01.04.2020
437 Clouds 12 1015 81 8000 1.5 300 06:47 01.04.2020
438 Clouds 12 1015 81 8000 1.5 280 06:22 01.04.2020
439 Clouds 13 1015 82 8000 1 0 05:53 01.04.2020
440 Clouds 13 1015 82 8000 0.5 0 04:30 01.04.2020
441 Clouds 13 1016 82 8000 1.5 250 03:28 01.04.2020
442 Clouds 14 1016 82 8000 2.1 260 02:49 01.04.2020
443 Clouds 15 1016 72 8000 4.6 270 01:54 01.04.2020
444 Clouds 15 1016 72 8000 3.6 270 01:29 01.04.2020
445 Clouds 15 1016 72 8000 2.6 280 00:58 01.04.2020
446 Clouds 15 1015 72 8000 3.1 270 00:40 01.04.2020
447 Clouds 15 1015 72 8000 3.1 270 00:18 01.04.2020
448 Clouds 15 1015 72 8000 3.1 260 23:41 31.03.2020
449 Clouds 16 1015 67 8000 4.1 270 23:23 31.03.2020
450 Clouds 17 1014 59 8000 4.1 270 22:43 31.03.2020
451 Clouds 17 1014 59 8000 4.1 270 22:23 31.03.2020
452 Clouds 17 1014 59 8000 4.1 270 22:23 31.03.2020
453 Clouds 17 1014 59 8000 6.2 270 21:59 31.03.2020
454 Clouds 17 1014 59 8000 6.2 270 21:59 31.03.2020
455 Clouds 18 1013 55 8000 6.7 280 21:41 31.03.2020
456 Clouds 18 1013 55 8000 6.7 280 21:22 31.03.2020
457 Clouds 18 1013 55 8000 6.7 290 20:58 31.03.2020
458 Clouds 19 1012 55 8000 5.7 290 20:38 31.03.2020
459 Clouds 19 1012 55 8000 6.2 300 20:20 31.03.2020
460 Clouds 19 1012 55 8000 6.2 300 19:59 31.03.2020
461 Clouds 20 1012 56 8000 8.2 280 19:40 31.03.2020
462 Clouds 20 1012 56 8000 8.2 280 19:21 31.03.2020
463 Clouds 20 1012 56 8000 8.2 300 18:55 31.03.2020
464 Clouds 21 1011 52 8000 6.7 300 18:37 31.03.2020
465 Clouds 21 1011 52 8000 6.7 300 18:18 31.03.2020
466 Clouds 22 1010 49 8000 6.7 310 17:54 31.03.2020
467 Clouds 24 1010 36 8000 6.7 280 17:36 31.03.2020
468 Clouds 24 1010 36 8000 6.7 280 17:18 31.03.2020
469 Clouds 23 1011 35 8000 8.2 280 16:38 31.03.2020
470 Clouds 23 1011 35 8000 8.2 280 16:19 31.03.2020
471 Clouds 23 1011 40 8000 8.7 280 15:57 31.03.2020
472 Clouds 23 1011 40 8000 7.7 280 15:37 31.03.2020
473 Clouds 23 1011 40 8000 7.7 280 15:19 31.03.2020
474 Clouds 22 1011 46 10000 6.7 280 14:56 31.03.2020
475 Clouds 22 1011 49 10000 7.2 270 14:38 31.03.2020
476 Clouds 22 1011 49 10000 7.2 270 14:18 31.03.2020
477 Clouds 22 1011 46 10000 4.1 250 13:42 31.03.2020
478 Clouds 22 1011 46 10000 4.1 250 13:19 31.03.2020
479 Clouds 20 1012 49 10000 5.1 230 12:55 31.03.2020
480 Clouds 19 1012 55 10000 3.1 270 12:37 31.03.2020
481 Clouds 19 1012 55 10000 3.1 270 12:18 31.03.2020
482 Clouds 17 1011 63 10000 2.1 130 11:38 31.03.2020
483 Clouds 17 1011 63 10000 2.1 130 11:19 31.03.2020
484 Clouds 16 1011 72 10000 3.1 130 10:57 31.03.2020
485 Clouds 16 1011 72 10000 3.1 160 10:39 31.03.2020
486 Clouds 16 1011 72 10000 3.1 160 10:21 31.03.2020
487 Clouds 16 1011 72 10000 3.1 160 10:21 31.03.2020
488 Clouds 15 1011 72 10000 2.6 140 09:56 31.03.2020
489 Clouds 14 1011 76 10000 2.6 160 09:37 31.03.2020
490 Clouds 14 1011 76 10000 2.6 160 09:37 31.03.2020
491 Clouds 14 1011 76 10000 2.6 160 09:19 31.03.2020
492 Clouds 14 1011 82 10000 2.6 250 08:55 31.03.2020
493 Clouds 14 1011 82 10000 2.1 250 08:37 31.03.2020
494 Clouds 14 1011 82 10000 2.1 250 08:18 31.03.2020
495 Clouds 14 1010 82 10000 1.5 220 07:44 31.03.2020
496 Clear 14 1010 82 10000 1 0 07:25 31.03.2020
497 Clear 14 1010 82 10000 2.6 280 06:58 31.03.2020
498 Clear 14 1010 76 10000 2.6 320 06:39 31.03.2020
499 Clear 14 1010 76 10000 1.5 20 05:42 31.03.2020
500 Clear 13 1010 82 10000 2.1 120 05:23 31.03.2020
501 Clear 14 1011 76 10000 1.5 120 02:53 31.03.2020
502 Clear 14 1011 71 10000 2.6 300 01:47 31.03.2020
503 Clear 14 1011 76 10000 1.5 300 01:19 31.03.2020
504 Clear 14 1011 76 10000 2.1 260 00:43 31.03.2020
505 Clear 15 1011 72 10000 2.6 270 00:20 31.03.2020
506 Clear 16 1011 63 10000 4.6 280 23:40 30.03.2020
507 Clouds 16 1011 63 10000 2.6 270 23:20 30.03.2020
508 Clouds 17 1011 55 10000 3.1 270 22:57 30.03.2020
509 Clouds 18 1011 52 10000 4.6 280 22:38 30.03.2020
510 -273 0 0 0 0 0 22:19 30.03.2020
511 Clouds 19 1011 48 10000 4.6 280 21:57 30.03.2020
512 Clouds 20 1010 45 10000 5.1 290 21:38 30.03.2020
513 Clouds 20 1010 45 10000 5.1 290 21:20 30.03.2020
514 Clouds 21 1010 43 10000 6.2 280 20:57 30.03.2020
515 Clouds 22 1010 37 10000 5.1 300 20:38 30.03.2020
516 Clouds 22 1010 37 10000 5.1 300 20:19 30.03.2020
517 Clouds 22 1010 37 10000 5.1 300 20:19 30.03.2020
518 Clouds 23 1010 31 10000 5.7 280 19:41 30.03.2020
519 Clouds 24 1010 23 10000 6.2 270 19:22 30.03.2020
520 Clouds 24 1010 23 10000 5.1 270 18:59 30.03.2020
521 Clouds 24 1010 23 10000 5.1 270 18:41 30.03.2020
522 Clouds 24 1010 27 10000 5.1 280 18:22 30.03.2020
523 Clouds 23 1011 35 10000 5.1 280 17:57 30.03.2020
524 Clouds 24 1011 36 10000 5.1 280 17:39 30.03.2020
525 Clouds 24 1011 36 10000 5.1 280 17:39 30.03.2020
526 Clouds 24 1011 36 10000 5.1 280 17:19 30.03.2020
527 Clouds 23 1011 35 10000 5.7 280 16:57 30.03.2020
528 Clouds 22 1011 37 10000 4.1 270 16:38 30.03.2020
529 Clouds 22 1011 37 10000 4.1 270 16:20 30.03.2020
530 Clouds 23 1012 35 10000 4.1 260 15:55 30.03.2020
531 Clouds 22 1012 40 10000 3.1 290 15:36 30.03.2020
532 Clouds 22 1012 40 10000 3.1 290 15:18 30.03.2020
533 Clouds 21 1013 43 10000 3.6 260 14:55 30.03.2020
534 Clouds 20 1013 49 10000 4.1 300 14:36 30.03.2020
535 Clouds 20 1013 49 10000 4.1 300 14:18 30.03.2020
536 Clouds 20 1013 49 10000 3.6 300 13:43 30.03.2020
537 Clouds 18 1014 55 10000 3.6 300 13:21 30.03.2020
538 Clouds 18 1014 59 10000 2.6 290 12:58 30.03.2020
539 Clouds 18 1014 59 10000 2.6 290 12:40 30.03.2020
540 Clouds 17 1014 67 10000 1.5 0 12:19 30.03.2020
541 Clouds 16 1014 67 10000 1 0 11:56 30.03.2020
542 Clouds 16 1014 67 10000 1 0 11:38 30.03.2020
543 Clouds 16 1014 67 10000 1 0 11:20 30.03.2020
544 Clouds 16 1014 67 10000 0.5 0 10:40 30.03.2020
545 Clouds 14 1014 76 10000 1 0 10:22 30.03.2020
546 Clouds 13 1014 76 10000 2.6 170 09:56 30.03.2020
547 Clouds 12 1014 81 10000 2.6 180 09:38 30.03.2020
548 Clouds 12 1014 81 10000 2.6 180 09:19 30.03.2020
549 Clouds 11 1014 87 10000 1.5 170 08:42 30.03.2020
550 Clouds 11 1014 87 10000 2.6 180 08:22 30.03.2020
551 Clouds 11 1014 87 10000 1.5 210 07:49 30.03.2020
552 Clouds 11 1014 87 10000 2.6 220 07:31 30.03.2020
553 Clouds 11 1014 87 10000 3.1 220 06:56 30.03.2020
554 Clouds 11 1015 87 10000 2.6 210 06:32 30.03.2020
555 Clouds 10 1015 87 10000 1.5 250 05:53 30.03.2020
556 Clouds 10 1015 87 10000 2.1 250 05:22 30.03.2020
557 Clouds 11 1015 81 10000 2.6 260 04:23 30.03.2020
558 Clouds 11 1015 81 10000 2.1 270 03:44 30.03.2020
559 Clouds 13 1016 76 10000 3.6 230 02:39 30.03.2020
560 Clouds 14 1017 71 10000 3.6 230 01:44 30.03.2020
561 Clouds 15 1017 62 10000 2.6 250 00:49 30.03.2020
562 Clouds 16 1017 59 10000 3.6 20 00:22 30.03.2020
563 Clouds 17 1017 55 10000 4.6 20 23:42 29.03.2020
564 Clouds 18 1017 52 10000 3.6 10 23:23 29.03.2020
565 Clouds 19 1016 48 10000 1.5 190 22:57 29.03.2020
566 Clouds 19 1016 48 10000 1.5 170 22:38 29.03.2020
567 Clouds 19 1016 48 10000 1.5 170 22:19 29.03.2020
568 Clouds 19 1016 42 10000 1.5 240 21:55 29.03.2020
569 Clouds 20 1016 37 10000 2.1 320 21:36 29.03.2020
570 Clouds 20 1016 37 10000 2.1 320 21:18 29.03.2020
571 Clouds 20 1016 40 10000 1.5 340 20:54 29.03.2020
572 Clouds 21 1016 40 10000 2.1 40 20:36 29.03.2020
573 Clouds 21 1016 40 10000 2.1 40 20:18 29.03.2020
574 Clouds 21 1016 43 10000 2.1 60 19:42 29.03.2020
575 Clouds 21 1016 43 10000 2.1 60 19:24 29.03.2020
576 Clouds 21 1016 43 10000 2.1 340 18:57 29.03.2020
577 Clouds 21 1016 43 10000 2.6 10 18:39 29.03.2020
578 Clouds 21 1016 43 10000 2.6 10 18:20 29.03.2020
579 Clouds 22 1016 43 10000 2.6 0 17:57 29.03.2020
580 Clouds 21 1016 46 10000 1.5 0 17:39 29.03.2020
581 Clouds 21 1016 46 10000 1.5 0 17:20 29.03.2020
582 Clouds 20 1016 45 10000 1 0 16:57 29.03.2020
583 Clouds 20 1017 45 10000 1.5 300 16:39 29.03.2020
584 Clouds 20 1017 45 10000 1.5 300 16:39 29.03.2020
585 Clouds 20 1017 45 10000 1.5 300 16:20 29.03.2020
586 Clouds 21 1017 46 10000 1.5 0 15:43 29.03.2020
587 Clouds 20 1017 52 10000 2.1 0 15:25 29.03.2020
588 Clouds 18 1018 55 10000 1.5 0 14:59 29.03.2020
589 Clouds 19 1018 52 10000 1.5 0 14:40 29.03.2020
590 Clouds 19 1018 52 10000 1.5 0 14:21 29.03.2020
591 Clouds 18 1018 55 10000 1.5 0 13:59 29.03.2020
592 Clouds 17 1018 59 10000 1 0 13:41 29.03.2020
593 Clouds 17 1018 59 10000 1 0 13:21 29.03.2020
594 Clouds 16 1019 63 10000 1.5 0 12:57 29.03.2020
595 Clouds 16 1019 63 10000 1 0 12:38 29.03.2020
596 Clouds 16 1019 63 10000 1 0 12:19 29.03.2020
597 Clouds 15 1019 72 10000 0.5 0 11:57 29.03.2020
598 Clouds 15 1019 72 10000 0.5 0 11:57 29.03.2020
599 Clouds 14 1019 67 10000 0.5 0 11:37 29.03.2020
600 Clouds 14 1019 67 10000 0.5 0 11:19 29.03.2020
601 Clouds 12 1018 76 10000 2.6 220 10:39 29.03.2020
602 Clouds 12 1018 76 10000 2.6 220 10:19 29.03.2020
603 Clouds 12 1018 76 10000 2.1 220 09:54 29.03.2020
604 Clouds 11 1018 81 10000 1.5 170 09:36 29.03.2020
605 Clouds 11 1018 81 10000 1.5 170 09:18 29.03.2020
606 Clouds 10 1018 87 10000 1 0 08:41 29.03.2020
607 Clouds 9 1017 87 10000 1 0 08:22 29.03.2020
608 Clouds 10 1017 81 10000 1 0 07:45 29.03.2020
609 Clouds 11 1017 81 10000 2.1 210 07:22 29.03.2020
610 Clouds 11 1017 81 10000 1.5 70 05:59 29.03.2020
611 Clouds 12 1017 81 10000 1.5 350 04:56 29.03.2020
612 Clouds 13 1018 76 10000 3.6 90 03:37 29.03.2020
613 Clouds 13 1018 71 10000 3.1 80 01:57 29.03.2020
614 Clouds 14 1018 67 10000 2.6 60 01:37 29.03.2020
615 Clouds 14 1018 67 10000 2.6 60 01:19 29.03.2020
616 Clouds 15 1018 67 10000 3.6 50 00:34 29.03.2020
617 Clouds 15 1018 67 10000 2.6 40 23:57 28.03.2020
618 Clouds 15 1018 72 10000 0.5 0 23:39 28.03.2020
619 Clouds 15 1018 72 10000 0.5 0 23:39 28.03.2020
620 Clouds 15 1018 72 10000 0.5 0 23:20 28.03.2020
621 Clouds 15 1018 72 10000 1.5 280 22:41 28.03.2020
622 Clouds 16 1017 67 10000 2.6 190 22:22 28.03.2020
623 Clouds 16 1017 67 10000 2.1 200 21:56 28.03.2020
624 Clouds 16 1017 63 10000 2.1 180 21:38 28.03.2020
625 Clouds 16 1017 63 10000 2.1 180 21:19 28.03.2020
626 Clouds 16 1016 63 10000 2.6 170 20:54 28.03.2020
627 Clouds 17 1016 59 10000 2.6 170 20:36 28.03.2020
628 Clouds 17 1016 59 10000 2.6 170 20:36 28.03.2020
629 Clouds 17 1016 59 10000 2.6 170 20:18 28.03.2020
630 Clouds 17 1016 59 10000 3.1 180 19:54 28.03.2020
631 Clouds 17 1015 59 10000 4.1 160 19:36 28.03.2020
632 Clouds 17 1015 59 10000 4.1 160 19:18 28.03.2020
633 Clouds 17 1015 63 10000 3.1 180 18:39 28.03.2020
634 Clouds 17 1015 63 10000 3.1 180 18:20 28.03.2020
635 Clouds 17 1015 63 10000 3.6 170 17:40 28.03.2020
636 Clouds 17 1015 63 10000 3.6 170 17:22 28.03.2020
637 Clouds 17 1014 59 10000 3.1 170 16:59 28.03.2020
638 Clouds 17 1014 59 10000 3.1 170 16:38 28.03.2020
639 Clouds 17 1014 59 10000 3.1 170 16:18 28.03.2020
640 Clouds 16 1015 63 10000 3.6 180 15:40 28.03.2020
641 Clouds 16 1015 63 10000 3.6 160 15:19 28.03.2020
642 Clouds 16 1015 63 10000 3.6 160 15:19 28.03.2020
643 Clouds 16 1015 63 10000 3.1 180 14:57 28.03.2020
644 Clouds 16 1015 67 10000 3.6 170 14:39 28.03.2020
645 Clouds 16 1015 67 10000 3.6 170 14:20 28.03.2020
646 Clouds 16 1015 67 10000 3.6 170 14:20 28.03.2020
647 Clouds 16 1015 67 10000 3.6 170 14:20 28.03.2020
648 Clouds 16 1015 63 10000 2.6 170 13:42 28.03.2020
649 Clouds 16 1016 67 10000 3.1 170 13:23 28.03.2020
650 Clouds 16 1016 59 10000 1 0 12:41 28.03.2020
651 Clouds 16 1016 59 10000 1 0 12:22 28.03.2020
652 Clouds 17 1016 63 10000 1 0 11:43 28.03.2020
653 Clouds 15 1016 72 8000 1.5 360 11:23 28.03.2020
654 Clouds 14 1015 76 8000 2.1 50 10:58 28.03.2020
655 Clouds 13 1015 82 8000 1.5 30 10:38 28.03.2020
656 Clouds 13 1015 82 8000 1.5 30 10:18 28.03.2020
657 Clouds 13 1015 82 8000 2.6 360 09:43 28.03.2020
658 Clouds 13 1014 82 8000 2.6 10 09:23 28.03.2020
659 Clouds 13 1014 82 8000 1.5 360 08:55 28.03.2020
660 Clouds 13 1013 76 8000 1.5 350 08:37 28.03.2020
661 Clouds 13 1013 76 8000 1.5 350 08:18 28.03.2020
662 Clouds 13 1013 76 8000 2.1 330 07:42 28.03.2020
663 Clouds 13 1013 82 8000 2.1 340 06:58 28.03.2020
664 Clouds 13 1013 82 8000 1.5 260 06:35 28.03.2020
665 Clouds 14 1013 76 6000 1.5 20 05:43 28.03.2020
666 Clouds 14 1012 76 6000 1.5 40 05:21 28.03.2020
667 Clouds 13 1013 82 6000 1.5 50 04:41 28.03.2020
668 Clouds 13 1013 82 6000 1 0 03:42 28.03.2020
669 Clouds 14 1014 76 6000 3.6 60 01:57 28.03.2020
670 Clouds 14 1014 76 6000 4.1 50 01:26 28.03.2020
671 Clouds 15 1014 77 6000 2.6 60 00:59 28.03.2020
672 Clouds 14 1014 76 6000 2.1 30 00:36 28.03.2020
673 Clouds 15 1013 72 6000 2.6 30 23:56 27.03.2020
674 Clouds 14 1013 76 6000 2.6 10 23:38 27.03.2020
675 Clouds 14 1013 76 6000 2.6 10 23:38 27.03.2020
676 Clouds 14 1013 76 6000 2.6 10 23:19 27.03.2020
677 Clouds 15 1013 72 6000 4.1 10 22:56 27.03.2020
678 Rain 15 1013 77 5000 4.6 40 22:37 27.03.2020
679 Rain 15 1013 77 5000 4.6 40 22:19 27.03.2020
680 Rain 15 1012 82 5000 3.1 60 21:43 27.03.2020
681 Clouds 15 1012 82 5000 3.1 50 21:24 27.03.2020
682 Rain 16 1011 72 5000 1.5 80 20:59 27.03.2020
683 Rain 16 1011 72 5000 1.5 80 20:41 27.03.2020
684 Rain 16 1011 72 6000 3.1 120 20:20 27.03.2020
685 Rain 17 1011 67 6000 3.1 130 19:57 27.03.2020
686 Rain 17 1011 67 6000 3.1 130 19:39 27.03.2020
687 Rain 17 1010 67 6000 3.1 160 19:39 27.03.2020
688 Rain 17 1010 67 6000 3.1 160 19:20 27.03.2020
689 Clouds 18 1010 59 8000 1.5 320 18:44 27.03.2020
690 Clouds 19 1010 52 8000 3.6 310 18:24 27.03.2020
691 Clouds 19 1010 55 8000 3.6 300 17:58 27.03.2020
692 Clouds 19 1009 55 8000 3.6 230 17:39 27.03.2020
693 Clouds 19 1009 55 8000 3.6 230 17:19 27.03.2020
694 Clouds 20 1009 52 8000 2.6 250 16:44 27.03.2020
695 Clouds 20 1010 49 8000 2.1 260 16:25 27.03.2020
696 Clouds 19 1010 55 8000 1 0 15:55 27.03.2020
697 Clouds 19 1010 59 8000 2.6 330 15:37 27.03.2020
698 Clouds 19 1010 59 8000 2.6 330 15:19 27.03.2020
699 Clouds 19 1011 59 8000 2.6 300 14:43 27.03.2020
700 Clouds 18 1011 63 8000 2.6 320 14:24 27.03.2020
701 Clouds 18 1011 63 8000 2.6 320 13:55 27.03.2020
702 Clouds 17 1011 67 8000 2.6 310 13:36 27.03.2020
703 Clouds 17 1011 67 8000 2.6 310 13:18 27.03.2020
704 Clouds 17 1011 67 8000 2.6 310 13:18 27.03.2020
705 Clouds 16 1011 72 8000 3.1 300 12:42 27.03.2020
706 Clouds 16 1011 77 8000 3.1 290 12:19 27.03.2020
707 Clouds 16 1012 82 8000 3.1 270 11:55 27.03.2020
708 Clouds 15 1012 82 6000 3.1 270 11:36 27.03.2020
709 Clouds 15 1012 82 6000 3.1 270 11:18 27.03.2020
710 Clouds 14 1011 87 6000 2.6 290 10:42 27.03.2020
711 Clouds 14 1011 87 6000 2.6 290 10:22 27.03.2020
712 Clouds 13 1011 93 6000 2.6 250 09:59 27.03.2020
713 Clouds 13 1011 93 6000 2.6 250 09:40 27.03.2020
714 Clouds 13 1011 93 6000 3.6 240 09:22 27.03.2020
715 Clouds 13 1011 93 6000 3.1 240 08:59 27.03.2020
716 Clouds 12 1011 93 6000 3.6 240 08:40 27.03.2020
717 Clouds 12 1011 93 6000 3.6 240 08:22 27.03.2020
718 Clouds 12 1010 93 800 3.6 230 07:57 27.03.2020
719 Clouds 12 1010 93 800 2.6 240 07:38 27.03.2020
720 Clouds 12 1010 93 800 2.6 240 07:20 27.03.2020
721 Clouds 13 1010 87 8000 3.1 230 06:39 27.03.2020
722 Clouds 13 1010 93 8000 3.1 220 05:45 27.03.2020
723 Clouds 13 1010 93 7000 1.5 290 03:26 27.03.2020
724 Clouds 14 1011 87 7000 4.1 230 01:55 27.03.2020
725 Clouds 15 1012 82 7000 3.1 220 00:58 27.03.2020
726 Clouds 15 1011 82 7000 3.1 220 00:38 27.03.2020
727 Clouds 15 1011 82 7000 3.1 220 00:19 27.03.2020
728 Rain 15 1012 82 6000 2.1 320 23:37 26.03.2020
729 Rain 15 1012 82 6000 2.1 320 23:18 26.03.2020
730 Rain 17 1012 72 6000 3.6 230 22:56 26.03.2020
731 Rain 17 1011 67 6000 4.1 320 22:36 26.03.2020
732 Rain 17 1011 67 6000 4.1 320 22:18 26.03.2020
733 Clouds 20 1010 52 10000 4.6 350 21:40 26.03.2020
734 Clouds 21 1009 46 10000 3.1 40 21:21 26.03.2020
735 Clouds 21 1009 46 10000 3.1 40 21:21 26.03.2020
736 Clouds 21 1009 43 10000 2.6 80 20:58 26.03.2020
737 Clouds 22 1009 43 10000 1.5 70 20:39 26.03.2020
738 Clouds 22 1009 43 10000 1.5 70 20:21 26.03.2020
739 Clouds 23 1009 35 10000 1 0 19:57 26.03.2020
740 Clouds 24 1009 33 10000 0.5 0 19:39 26.03.2020
741 Clouds 24 1009 33 10000 0.5 0 19:20 26.03.2020
742 Clouds 23 1009 35 10000 2.1 340 18:58 26.03.2020
743 Clouds 24 1009 36 10000 1.5 0 18:39 26.03.2020
744 Clouds 24 1009 36 10000 1.5 0 18:21 26.03.2020
745 Clouds 23 1009 38 10000 3.6 40 17:44 26.03.2020
746 Clouds 25 1010 33 10000 1.5 0 17:19 26.03.2020
747 Clouds 24 1010 38 10000 2.1 0 16:47 26.03.2020
748 Clouds 24 1010 36 10000 3.1 80 16:28 26.03.2020
749 Clouds 23 1011 38 10000 2.1 30 15:59 26.03.2020
750 Clouds 23 1011 38 10000 2.1 30 15:41 26.03.2020
751 Clouds 23 1011 40 10000 2.6 20 15:22 26.03.2020
752 Clouds 23 1012 43 10000 2.6 70 14:58 26.03.2020
753 Clouds 22 1012 46 10000 3.6 50 14:39 26.03.2020
754 Clouds 22 1012 46 10000 3.6 50 14:19 26.03.2020
755 Clouds 21 1013 49 10000 4.1 50 13:44 26.03.2020
756 Clouds 21 1013 49 10000 4.1 50 13:24 26.03.2020
757 Clouds 20 1013 56 10000 4.6 40 12:58 26.03.2020
758 Clouds 20 1014 56 10000 2.6 50 12:38 26.03.2020
759 Clouds 20 1014 56 10000 2.6 50 12:20 26.03.2020
760 Clouds 19 1014 59 10000 2.6 80 11:45 26.03.2020
761 Clouds 18 1014 68 8000 1.5 0 11:22 26.03.2020
762 Clear 17 1014 72 8000 1.5 0 10:56 26.03.2020
763 Clear 16 1014 77 8000 1.5 100 10:37 26.03.2020
764 Clear 16 1014 77 8000 1.5 100 10:19 26.03.2020
765 Clear 16 1014 77 7000 1 0 09:44 26.03.2020
766 Clear 14 1014 82 7000 1 0 09:20 26.03.2020
767 Clear 13 1014 87 7000 1 0 08:55 26.03.2020
768 Clear 11 1014 93 8000 1.5 160 08:37 26.03.2020
769 Clear 11 1014 93 8000 1.5 160 08:18 26.03.2020
770 Clear 10 1014 93 8000 0.5 0 07:44 26.03.2020
771 Clear 10 1013 93 8000 1.5 240 07:21 26.03.2020
772 Clear 10 1013 93 8000 2.1 260 06:56 26.03.2020
773 Clear 11 1013 93 8000 3.1 240 05:59 26.03.2020
774 Clear 13 1013 82 8000 3.1 230 04:33 26.03.2020
775 Clouds 13 1013 87 8000 2.1 230 03:44 26.03.2020
776 Clouds 13 1014 82 8000 2.1 80 02:55 26.03.2020
777 Clouds 14 1014 76 8000 1.5 70 01:50 26.03.2020
778 Clouds 15 1014 77 8000 1.5 10 00:53 26.03.2020
779 Clouds 16 1014 72 8000 2.1 350 00:20 26.03.2020
780 Clouds 17 1014 63 8000 3.6 120 23:40 25.03.2020
781 Clouds 17 1014 63 8000 3.6 120 23:20 25.03.2020
782 Clouds 17 1014 63 8000 4.1 80 22:41 25.03.2020
783 Clouds 17 1014 63 8000 4.1 80 22:21 25.03.2020
784 Clouds 18 1014 59 8000 3.6 80 21:56 25.03.2020
785 Clouds 18 1014 55 8000 3.1 80 21:38 25.03.2020
786 Clouds 18 1014 55 8000 3.1 80 21:19 25.03.2020
787 Clouds 18 1014 55 8000 2.1 70 20:55 25.03.2020
788 Clouds 19 1014 48 8000 1.5 50 20:37 25.03.2020
789 Clouds 19 1014 48 8000 1.5 50 20:18 25.03.2020
790 Clouds 20 1014 49 10000 2.6 70 19:43 25.03.2020
791 Clouds 20 1014 45 10000 2.6 60 19:23 25.03.2020
792 Clouds 20 1014 45 10000 2.1 100 18:57 25.03.2020
793 Clouds 21 1014 43 10000 3.1 50 18:39 25.03.2020
794 Clouds 21 1014 43 10000 3.1 50 18:21 25.03.2020
795 Clouds 21 1013 46 10000 1.5 0 17:55 25.03.2020
796 Clouds 21 1013 46 10000 2.1 0 17:37 25.03.2020
797 Clouds 21 1013 46 10000 2.1 0 17:18 25.03.2020
798 Clouds 21 1013 40 10000 3.1 0 16:43 25.03.2020
799 Clouds 20 1013 45 10000 2.6 0 16:24 25.03.2020
800 Clouds 20 1014 45 10000 3.1 10 15:57 25.03.2020
801 Clouds 19 1014 48 10000 2.6 30 15:38 25.03.2020
802 Clouds 19 1014 48 10000 2.6 30 15:19 25.03.2020
803 Clouds 19 1014 48 10000 2.6 30 15:19 25.03.2020
804 Clouds 19 1014 48 10000 2.6 50 14:42 25.03.2020
805 Clouds 18 1014 55 10000 2.6 0 14:22 25.03.2020
806 Clouds 18 1015 55 10000 2.6 0 13:56 25.03.2020
807 Clouds 17 1015 59 10000 2.6 50 13:38 25.03.2020
808 Clouds 17 1015 59 10000 2.6 50 13:19 25.03.2020
809 Clouds 16 1016 63 10000 1.5 0 12:37 25.03.2020
810 Clouds 16 1016 63 10000 1.5 0 12:19 25.03.2020
811 Clouds 16 1016 63 10000 2.6 50 11:55 25.03.2020
812 Clear 15 1015 67 10000 2.1 0 11:36 25.03.2020
813 Clear 15 1015 67 10000 2.1 0 11:18 25.03.2020
814 Clear 15 1015 67 10000 1 0 10:55 25.03.2020
815 Clear 14 1015 71 10000 1.5 90 10:36 25.03.2020
816 Clear 14 1015 71 10000 1.5 90 10:18 25.03.2020
817 Clouds 13 1015 76 10000 2.6 110 09:42 25.03.2020
818 Clouds 11 1015 93 10000 1.5 100 09:22 25.03.2020
819 Clouds 10 1014 93 10000 1.5 50 08:55 25.03.2020
820 Clouds 9 1014 93 10000 1 0 08:37 25.03.2020
821 Clouds 9 1014 93 10000 1 0 08:18 25.03.2020
822 Clouds 8 1014 93 10000 1.5 150 07:39 25.03.2020
823 Clouds 8 1014 93 10000 1.5 150 07:20 25.03.2020
824 Clouds 8 1014 93 10000 1.5 150 07:20 25.03.2020
825 Clouds 8 1014 100 10000 1 0 06:46 25.03.2020
826 Clouds 9 1014 93 10000 1 0 06:25 25.03.2020
827 Clouds 9 1014 93 10000 0.5 0 05:50 25.03.2020
828 Clouds 9 1014 93 10000 1 0 04:59 25.03.2020
829 Clouds 10 1014 87 10000 0.5 0 04:39 25.03.2020
830 Clouds 10 1014 93 10000 1 0 03:35 25.03.2020
831 Clouds 10 1014 93 10000 0.5 0 01:58 25.03.2020
832 Clouds 10 1014 93 10000 1.5 320 01:21 25.03.2020
833 Clouds 10 1014 93 10000 1.5 280 00:48 25.03.2020
834 Clouds 10 1014 93 10000 2.1 280 00:19 25.03.2020
835 Clouds 10 1014 87 10000 2.1 270 23:45 24.03.2020
836 Clouds 11 1013 87 8000 2.1 220 23:25 24.03.2020
837 Clouds 10 1013 93 8000 1.5 260 22:56 24.03.2020
838 Clouds 11 1013 87 8000 2.1 230 22:37 24.03.2020
839 Clouds 11 1013 87 8000 2.1 230 22:19 24.03.2020
840 Clouds 12 1013 81 8000 2.6 220 21:55 24.03.2020
841 Clouds 12 1012 81 8000 1.5 220 21:37 24.03.2020
842 Clouds 12 1012 81 8000 1.5 220 21:18 24.03.2020
843 Clouds 12 1012 81 8000 1.5 220 21:18 24.03.2020
844 Clouds 12 1012 81 8000 2.1 220 20:43 24.03.2020
845 Clouds 11 1012 87 6000 1 0 20:24 24.03.2020
846 Clouds 12 1011 81 6000 3.1 210 19:59 24.03.2020
847 Clouds 12 1011 81 6000 3.1 210 19:41 24.03.2020
848 Rain 11 1011 87 6000 3.1 220 19:19 24.03.2020
849 Rain 11 1011 87 6000 3.6 230 18:55 24.03.2020
850 Rain 11 1011 87 6000 1 0 18:36 24.03.2020
851 Rain 11 1011 87 6000 1 0 18:18 24.03.2020
852 Rain 11 1010 81 4000 4.6 330 17:42 24.03.2020
853 Rain 11 1010 81 4000 4.6 330 17:22 24.03.2020
854 Rain 12 1010 76 6000 5.7 340 16:58 24.03.2020
855 Clouds 13 1010 71 6000 5.1 330 16:39 24.03.2020
856 Clouds 13 1010 71 6000 5.1 330 16:21 24.03.2020
857 Clouds 14 1009 67 8000 4.6 300 15:57 24.03.2020
858 Clouds 16 1009 55 8000 3.6 260 15:37 24.03.2020
859 Clouds 16 1009 55 8000 3.6 260 15:19 24.03.2020
860 Clouds 17 1009 51 8000 3.6 270 14:42 24.03.2020
861 Clouds 17 1009 51 8000 1.5 0 14:19 24.03.2020
862 Clouds 16 1010 59 8000 2.6 270 13:43 24.03.2020
863 Clouds 15 1010 62 8000 3.6 290 13:24 24.03.2020
864 Clouds 15 1010 62 8000 3.1 300 12:55 24.03.2020
865 Clouds 15 1010 62 7000 3.1 270 12:37 24.03.2020
866 Clouds 15 1010 62 7000 3.1 270 12:18 24.03.2020
867 Clouds 13 1010 82 7000 1 0 11:39 24.03.2020
868 Clouds 13 1010 82 7000 1 0 11:20 24.03.2020
869 Clouds 12 1010 87 7000 2.6 220 10:43 24.03.2020
870 Clouds 11 1010 93 7000 3.6 250 10:20 24.03.2020
871 Clouds 11 1010 93 7000 4.1 270 09:59 24.03.2020
872 Clouds 11 1010 93 7000 4.1 270 09:40 24.03.2020
873 Clouds 11 1009 93 7000 3.1 250 09:22 24.03.2020
874 Rain 10 1008 93 5000 3.1 250 08:39 24.03.2020
875 Rain 10 1008 93 5000 3.1 250 08:20 24.03.2020
876 Rain 10 1008 93 5000 4.1 270 07:48 24.03.2020
877 Rain 10 1008 93 5000 4.6 270 07:24 24.03.2020
878 Clouds 10 1008 100 6000 4.6 270 06:53 24.03.2020
879 Clouds 10 1007 100 6000 4.1 260 06:27 24.03.2020
880 Rain 10 1007 93 5000 4.1 250 05:22 24.03.2020
881 Rain 10 1007 87 5000 3.1 240 04:27 24.03.2020
882 Rain 10 1008 87 5000 3.6 230 03:18 24.03.2020
883 Rain 11 1008 93 5000 5.1 250 01:47 24.03.2020
884 Rain 11 1008 87 5000 3.6 230 00:48 24.03.2020
885 Rain 11 1009 87 4000 3.6 230 00:25 24.03.2020
886 Rain 11 1009 87 5000 1 0 23:45 23.03.2020
887 Rain 11 1008 87 5000 1.5 270 23:26 23.03.2020
888 Rain 11 1008 87 5000 1.5 290 22:56 23.03.2020
889 Rain 11 1008 87 5000 1.5 290 22:56 23.03.2020
890 Rain 11 1008 87 5000 1 0 22:37 23.03.2020
891 Rain 11 1008 87 5000 1 0 22:19 23.03.2020
892 Rain 11 1007 87 4000 2.1 270 21:44 23.03.2020
893 Rain 12 1007 81 4000 3.6 170 21:21 23.03.2020
894 Rain 12 1007 81 4000 5.1 170 20:58 23.03.2020
895 Rain 12 1007 81 4000 5.1 180 20:40 23.03.2020
896 Rain 12 1007 81 4000 5.1 180 20:22 23.03.2020
897 Rain 12 1007 87 4000 3.1 200 19:46 23.03.2020
898 Rain 13 1006 82 3000 5.7 180 19:28 23.03.2020
899 Rain 13 1006 76 3000 4.6 170 18:59 23.03.2020
900 Rain 14 1005 76 6000 4.6 190 18:41 23.03.2020
901 Rain 14 1005 76 6000 4.6 190 18:22 23.03.2020
902 Rain 15 1005 67 8000 3.1 250 17:56 23.03.2020
903 Clouds 18 1005 45 10000 2.1 220 17:37 23.03.2020
904 Clouds 18 1005 45 10000 2.1 220 17:18 23.03.2020
905 Clouds 18 1005 48 10000 2.6 200 16:43 23.03.2020
906 Clouds 18 1005 48 10000 2.6 200 16:24 23.03.2020
907 Clouds 18 1005 45 10000 1.5 150 15:42 23.03.2020
908 Clouds 18 1005 45 10000 1.5 150 15:42 23.03.2020
909 Clouds 18 1006 48 10000 2.1 120 15:20 23.03.2020
910 Clouds 18 1006 48 10000 1.5 110 14:55 23.03.2020
911 Clouds 17 1007 51 10000 2.1 60 14:36 23.03.2020
912 Clouds 17 1007 51 10000 2.1 60 14:18 23.03.2020
913 Clouds 18 1007 52 10000 2.6 40 13:41 23.03.2020
914 Clouds 18 1007 52 10000 2.6 350 13:22 23.03.2020
915 Clouds 18 1008 52 10000 2.1 0 12:55 23.03.2020
916 Clouds 17 1008 55 10000 2.1 0 12:37 23.03.2020
917 Clouds 17 1008 55 10000 2.1 0 12:19 23.03.2020
918 Clouds 15 1008 62 10000 2.1 90 11:42 23.03.2020
919 Clouds 15 1008 62 10000 2.1 90 11:21 23.03.2020
920 Clouds 15 1008 67 10000 1 0 10:58 23.03.2020
921 Clouds 14 1008 71 8000 1 0 10:39 23.03.2020
922 Clouds 14 1008 71 8000 1 0 10:21 23.03.2020
923 Clouds 13 1008 71 8000 1.5 140 09:48 23.03.2020
924 Clouds 12 1008 76 8000 1 0 09:21 23.03.2020
925 Clouds 12 1008 76 8000 1 0 09:21 23.03.2020
926 Clouds 11 1008 81 8000 1 0 08:58 23.03.2020
927 Clouds 11 1008 81 8000 1 0 08:58 23.03.2020
928 Clouds 9 1008 87 8000 0.5 0 08:37 23.03.2020
929 Clouds 9 1008 87 8000 0.5 0 08:18 23.03.2020
930 Clouds 8 1008 87 8000 0.5 0 07:47 23.03.2020
931 Clouds 9 1008 81 8000 1 0 07:29 23.03.2020
932 Clouds 9 1008 81 8000 0.5 0 06:52 23.03.2020
933 Clouds 9 1008 81 8000 0.5 0 06:20 23.03.2020
934 Clouds 10 1009 81 8000 1 0 05:29 23.03.2020
935 Clouds 12 1009 71 10000 1.5 20 03:45 23.03.2020
936 Clouds 12 1010 71 10000 2.6 50 02:37 23.03.2020
937 Clouds 13 1010 66 10000 4.6 50 01:34 23.03.2020
938 Clouds 14 1010 62 10000 5.1 50 00:40 23.03.2020
939 Clouds 14 1011 62 10000 4.6 30 23:53 22.03.2020
940 Clouds 14 1011 62 10000 5.1 20 23:27 22.03.2020
941 Clouds 15 1010 58 10000 4.6 10 22:56 22.03.2020
942 Clouds 16 1010 51 10000 4.1 360 22:36 22.03.2020
943 Clouds 16 1010 51 10000 4.1 360 22:18 22.03.2020
944 Clouds 17 1010 48 10000 3.1 330 21:39 22.03.2020
945 Clouds 17 1010 48 10000 3.1 330 21:20 22.03.2020
946 Clouds 17 1010 48 10000 2.6 310 20:56 22.03.2020
947 Clouds 17 1010 45 10000 3.1 280 20:38 22.03.2020
948 Clouds 17 1010 45 10000 3.1 280 20:20 22.03.2020
949 Clouds 19 1010 37 10000 1 0 19:55 22.03.2020
950 Clouds 19 1010 37 10000 1 0 19:37 22.03.2020
951 Clouds 19 1010 37 10000 1 0 19:18 22.03.2020
952 Clouds 19 1010 37 10000 1.5 0 18:55 22.03.2020
953 Clouds 20 1010 34 10000 1.5 0 18:37 22.03.2020
954 Clouds 20 1010 34 10000 1.5 0 18:18 22.03.2020
955 Clouds 20 1010 34 10000 1 0 17:55 22.03.2020
956 Clouds 21 1010 35 10000 1.5 0 17:36 22.03.2020
957 Clouds 21 1010 35 10000 1.5 0 17:18 22.03.2020
958 Clouds 20 1010 37 10000 2.1 0 16:41 22.03.2020
959 Clouds 20 1010 37 10000 1 0 16:22 22.03.2020
960 Clouds 20 1011 37 10000 2.6 0 15:59 22.03.2020
961 Clouds 19 1011 37 10000 2.6 0 15:39 22.03.2020
962 Clouds 18 1011 42 10000 2.6 280 14:47 22.03.2020
963 Clouds 18 1012 42 10000 2.1 0 14:20 22.03.2020
964 Clouds 18 1012 45 10000 2.1 0 13:58 22.03.2020
965 Clouds 17 1013 45 10000 1.5 0 13:40 22.03.2020
966 Clouds 17 1013 45 10000 1.5 0 13:19 22.03.2020
967 Clouds 17 1013 51 10000 1 0 12:44 22.03.2020
968 Clouds 16 1013 51 10000 1.5 0 12:44 22.03.2020
969 Clouds 16 1013 51 10000 1.5 0 12:22 22.03.2020
970 Clouds 16 1013 51 10000 1.5 0 12:22 22.03.2020
971 Clouds 15 1014 58 10000 1.5 0 11:58 22.03.2020
972 Clouds 14 1014 62 10000 1.5 120 11:39 22.03.2020
973 Clouds 14 1014 62 10000 1.5 120 11:20 22.03.2020
974 Clear 13 1014 71 10000 1.5 150 10:43 22.03.2020
975 Clouds 13 1014 71 10000 1 0 10:24 22.03.2020
976 Clouds 13 1014 71 10000 0.5 0 09:55 22.03.2020
977 Clouds 10 1014 81 10000 2.1 150 09:36 22.03.2020
978 Clouds 10 1014 81 10000 2.1 150 09:18 22.03.2020
979 Clouds 10 1014 87 10000 0.5 0 08:41 22.03.2020
980 Clouds 7 1014 93 8000 0.5 0 08:21 22.03.2020
981 Clear 7 1014 87 8000 1.5 100 07:50 22.03.2020
982 Clear 7 1014 87 8000 2.1 90 07:19 22.03.2020
983 Clouds 8 1014 87 8000 0.5 0 05:56 22.03.2020
984 Clouds 8 1014 87 8000 0.5 0 04:58 22.03.2020
985 Clouds 10 1016 76 8000 2.6 220 02:50 22.03.2020
986 Clouds 11 1017 71 8000 2.6 230 01:22 22.03.2020
987 Clouds 11 1017 71 8000 2.6 230 01:22 22.03.2020
988 Clouds 10 1017 76 8000 2.6 240 00:39 22.03.2020
989 Clouds 10 1017 76 8000 2.6 240 00:21 22.03.2020
990 Clouds 11 1017 66 8000 2.1 290 23:41 21.03.2020
991 Clouds 11 1017 66 8000 2.1 290 23:41 21.03.2020
992 Clouds 11 1017 66 8000 2.1 290 23:19 21.03.2020
993 Clouds 13 1017 62 8000 3.1 300 22:38 21.03.2020
994 Clouds 13 1017 62 8000 3.1 300 22:20 21.03.2020
995 Clouds 13 1017 58 8000 3.1 290 21:59 21.03.2020
996 Clouds 13 1017 58 8000 3.1 290 21:40 21.03.2020
997 Clouds 14 1017 54 8000 3.6 300 21:22 21.03.2020
998 Clouds 14 1016 58 8000 2.1 250 20:46 21.03.2020
999 Clouds 15 1016 54 8000 1.5 280 20:23 21.03.2020
1000 Clouds 16 1016 51 8000 2.1 260 19:57 21.03.2020
1001 Clouds 16 1016 51 8000 3.1 250 19:39 21.03.2020
1002 Clouds 16 1016 51 8000 3.1 250 19:21 21.03.2020
1003 Clouds 16 1016 48 8000 3.1 250 18:54 21.03.2020
1004 Clouds 17 1016 48 8000 3.1 230 18:36 21.03.2020
1005 Clouds 17 1016 48 8000 3.1 230 18:18 21.03.2020
1006 Clouds 17 1016 45 8000 3.1 0 17:43 21.03.2020
1007 Clouds 17 1016 45 8000 3.1 0 17:23 21.03.2020
1008 Clouds 16 1016 51 8000 3.6 260 16:57 21.03.2020
1009 Clouds 16 1016 59 8000 2.6 260 16:38 21.03.2020
1010 Clouds 16 1016 59 8000 2.6 260 16:18 21.03.2020
1011 Clouds 16 1016 59 8000 2.6 260 16:18 21.03.2020
1012 Clouds 16 1017 59 8000 3.1 280 15:42 21.03.2020
1013 Clouds 16 1017 59 8000 2.6 270 15:23 21.03.2020
1014 Clouds 15 1018 62 8000 2.6 0 14:58 21.03.2020
1015 Clouds 15 1018 62 8000 2.6 0 14:40 21.03.2020
1016 Clouds 15 1018 62 8000 1.5 0 14:20 21.03.2020
1017 Clouds 15 1018 67 8000 1 0 13:59 21.03.2020
1018 Clouds 15 1018 67 8000 1 0 13:40 21.03.2020
1019 Clouds 13 1019 76 8000 1 0 13:22 21.03.2020
1020 Clouds 11 1019 87 8000 1.5 310 12:59 21.03.2020
1021 Clouds 13 1019 71 8000 1 0 12:38 21.03.2020
1022 Clouds 13 1019 71 8000 1 0 12:19 21.03.2020
1023 Clouds 12 1019 76 8000 2.1 0 11:56 21.03.2020
1024 Clouds 13 1019 66 8000 2.1 340 11:38 21.03.2020
1025 Clouds 13 1019 66 8000 2.1 340 11:19 21.03.2020
1026 Clouds 12 1019 76 6000 2.1 0 10:57 21.03.2020
1027 Clouds 11 1018 87 6000 1 0 10:38 21.03.2020
1028 Clouds 11 1018 87 6000 1 0 10:19 21.03.2020
1029 Clouds 11 1018 87 6000 1 0 09:56 21.03.2020
1030 Drizzle 10 1018 93 5000 1 0 09:37 21.03.2020
1031 Drizzle 10 1018 93 5000 1 0 09:19 21.03.2020
1032 Drizzle 10 1018 87 5000 1 0 08:43 21.03.2020
1033 Drizzle 9 1018 93 5000 2.1 250 08:24 21.03.2020
1034 Clouds 11 1017 81 8000 2.6 360 07:45 21.03.2020
1035 Clouds 11 1017 81 8000 2.6 360 07:27 21.03.2020
1036 Clouds 11 1017 81 8000 2.6 280 06:48 21.03.2020
1037 Clouds 12 1017 81 8000 1.5 330 06:28 21.03.2020
1038 Clouds 12 1017 81 8000 1.5 340 05:46 21.03.2020
1039 Clouds 12 1017 81 8000 2.1 290 04:47 21.03.2020
1040 Clouds 12 1018 87 8000 2.6 330 02:55 21.03.2020
1041 Clouds 12 1018 87 8000 3.1 330 02:33 21.03.2020
1042 Clouds 12 1019 87 8000 3.6 330 01:33 21.03.2020
1043 Clouds 13 1019 82 8000 3.1 330 00:56 21.03.2020
1044 Clouds 13 1019 87 8000 2.6 330 00:37 21.03.2020
1045 Clouds 13 1019 87 8000 4.1 340 23:53 20.03.2020
1046 Clouds 14 1019 82 8000 2.6 320 23:28 20.03.2020
1047 Clouds 14 1018 82 8000 3.6 330 22:59 20.03.2020
1048 Clouds 14 1018 82 8000 3.6 330 22:59 20.03.2020
1049 Clouds 14 1018 82 8000 3.1 340 22:40 20.03.2020
1050 Clouds 14 1018 82 8000 3.1 340 22:21 20.03.2020
1051 Clouds 14 1018 82 8000 4.1 320 21:56 20.03.2020
1052 Clouds 15 1017 82 8000 4.1 330 21:38 20.03.2020
1053 Clouds 15 1017 82 8000 4.1 330 21:18 20.03.2020
1054 Clouds 15 1016 82 5000 4.6 320 20:56 20.03.2020
1055 Rain 15 1016 82 5000 4.6 320 20:38 20.03.2020
1056 Rain 15 1016 82 5000 4.6 320 20:18 20.03.2020
1057 Rain 15 1014 71 0 5.92 302 19:44 20.03.2020
1058 Clouds 18 1015 63 8000 4.6 320 19:19 20.03.2020
1059 Clouds 18 1015 63 8000 4.6 320 18:55 20.03.2020
1060 Clouds 18 1015 63 8000 4.6 320 18:37 20.03.2020
1061 Clouds 18 1015 63 8000 4.6 320 18:19 20.03.2020
1062 Clouds 18 1014 63 8000 4.6 310 17:39 20.03.2020
1063 Clouds 18 1014 63 8000 4.6 310 17:21 20.03.2020
1064 Clouds 18 1014 63 8000 4.6 310 17:21 20.03.2020
1065 Clouds 19 1014 59 8000 4.1 290 16:58 20.03.2020
1066 Clouds 19 1014 63 8000 4.6 300 16:39 20.03.2020
1067 Clouds 19 1014 63 8000 4.6 300 16:18 20.03.2020
1068 Clouds 19 1015 59 8000 4.6 300 15:42 20.03.2020
1069 Clouds 19 1015 59 8000 3.6 0 15:22 20.03.2020
1070 Clouds 20 1015 60 8000 2.1 300 14:56 20.03.2020
1071 -273 0 0 0 0 0 14:37 20.03.2020
1072 Clouds 19 1015 63 8000 1.5 0 14:18 20.03.2020
1073 Clouds 18 1015 63 8000 1.5 0 13:43 20.03.2020
1074 Clouds 18 1015 63 8000 2.6 190 13:19 20.03.2020
1075 Clouds 16 1016 77 8000 2.6 180 12:41 20.03.2020
1076 Clouds 16 1016 77 8000 2.6 180 12:23 20.03.2020
1077 Clouds 15 1016 77 8000 2.6 210 11:58 20.03.2020
1078 Clouds 14 1016 82 8000 2.1 220 11:38 20.03.2020
1079 Clouds 14 1016 82 8000 2.1 220 11:19 20.03.2020
1080 Clouds 14 1016 76 8000 2.6 220 10:42 20.03.2020
1081 Clouds 13 1016 82 8000 2.1 200 10:21 20.03.2020
1082 Clouds 13 1015 82 8000 2.6 210 09:59 20.03.2020
1083 Clouds 13 1015 82 8000 2.6 210 09:59 20.03.2020
1084 Clouds 13 1015 82 8000 2.6 210 09:41 20.03.2020
1085 Clouds 12 1015 81 8000 3.1 210 09:19 20.03.2020
1086 Clouds 12 1014 81 8000 3.1 200 08:43 20.03.2020
1087 Clouds 11 1014 87 8000 3.6 220 08:22 20.03.2020
1088 Clouds 11 1014 87 8000 3.6 220 08:22 20.03.2020
1089 Clouds 10 1014 87 8000 3.6 230 07:55 20.03.2020
1090 Clouds 10 1014 87 8000 3.1 220 07:37 20.03.2020
1091 Clouds 10 1014 87 8000 3.1 220 07:18 20.03.2020
1092 Clouds 9 1013 93 8000 2.1 250 06:41 20.03.2020
1093 Clouds 10 1012 87 8000 3.6 250 04:52 20.03.2020
1094 Clouds 11 1012 87 8000 2.1 240 03:40 20.03.2020
1095 Clouds 12 1013 81 8000 1.5 150 02:20 20.03.2020
1096 Clouds 12 1014 81 8000 2.1 110 00:59 20.03.2020
1097 Clouds 12 1014 87 7000 2.1 90 00:31 20.03.2020
1098 Clouds 12 1014 81 7000 2.1 90 23:49 19.03.2020
1099 Clouds 12 1014 81 7000 1.5 30 23:30 19.03.2020
1100 Clouds 12 1013 81 7000 1.5 40 22:57 19.03.2020
1101 Clouds 12 1013 81 7000 3.6 80 22:38 19.03.2020
1102 Clouds 12 1013 81 7000 3.6 80 22:20 19.03.2020
1103 Clouds 12 1013 81 7000 3.1 60 21:42 19.03.2020
1104 Clouds 12 1012 81 7000 4.6 110 21:20 19.03.2020
1105 Clouds 12 1012 81 6000 2.1 70 20:59 19.03.2020
1106 Clouds 12 1012 81 6000 2.1 70 20:41 19.03.2020
1107 Rain 13 1011 76 6000 6.7 140 20:23 19.03.2020
1108 Rain 12 1012 81 6000 5.1 90 19:55 19.03.2020
1109 Clouds 15 1012 62 8000 3.6 90 19:37 19.03.2020
1110 Clouds 15 1012 62 8000 3.6 90 19:19 19.03.2020
1111 Clouds 15 1012 67 8000 3.1 60 18:55 19.03.2020
1112 Clouds 16 1012 67 8000 2.1 30 18:37 19.03.2020
1113 Clouds 16 1012 67 8000 2.1 30 18:37 19.03.2020
1114 Clouds 16 1012 67 8000 2.1 30 18:19 19.03.2020
1115 Clouds 15 1011 72 8000 2.6 350 17:41 19.03.2020
1116 Clouds 15 1011 72 8000 2.6 350 17:19 19.03.2020
1117 Clouds 15 1010 72 8000 5.7 200 16:44 19.03.2020
1118 Clouds 15 1010 72 8000 5.7 200 16:24 19.03.2020
1119 Rain 15 1011 72 6000 2.6 140 15:46 19.03.2020
1120 Rain 13 1012 82 6000 1.5 0 15:28 19.03.2020
1121 Rain 13 1012 82 6000 3.6 180 14:59 19.03.2020
1122 Rain 13 1012 82 6000 3.6 180 14:40 19.03.2020
1123 Rain 13 1012 76 8000 1 0 14:20 19.03.2020
1124 Rain 13 1012 71 8000 2.1 90 13:41 19.03.2020
1125 Clouds 12 1012 71 8000 2.6 40 13:19 19.03.2020
1126 Clouds 14 1012 62 8000 1.5 0 12:56 19.03.2020
1127 Clouds 14 1012 62 8000 1.5 0 12:38 19.03.2020
1128 Clouds 14 1012 62 8000 1.5 0 12:19 19.03.2020
1129 Clouds 13 1011 66 8000 0.5 0 11:42 19.03.2020
1130 Clouds 13 1011 66 8000 0.5 0 11:23 19.03.2020
1131 Clouds 12 1011 66 8000 1 0 10:57 19.03.2020
1132 Drizzle 12 1011 66 8000 1.5 0 10:37 19.03.2020
1133 Drizzle 12 1011 66 8000 1.5 0 10:18 19.03.2020
1134 Clouds 11 1011 71 8000 1.5 230 09:44 19.03.2020
1135 Clouds 11 1011 71 8000 1.5 240 09:26 19.03.2020
1136 Clouds 10 1010 76 8000 1.5 250 08:57 19.03.2020
1137 Clouds 9 1010 81 8000 1.5 290 08:38 19.03.2020
1138 Clouds 9 1010 81 8000 1.5 290 08:18 19.03.2020
1139 Clouds 10 1010 76 8000 2.6 250 07:43 19.03.2020
1140 Clouds 9 1010 76 8000 1.5 260 07:22 19.03.2020
1141 Clouds 10 1011 71 8000 3.1 230 06:29 19.03.2020
1142 Clouds 11 1011 71 8000 3.6 230 05:25 19.03.2020
1143 Clouds 11 1011 66 8000 3.6 240 04:51 19.03.2020
1144 Clouds 11 1011 66 8000 4.1 240 04:22 19.03.2020
1145 Clouds 14 1012 58 8000 1 0 02:33 19.03.2020
1146 Clouds 14 1012 62 8000 3.1 50 00:55 19.03.2020
1147 Clouds 14 1012 62 8000 4.1 30 00:20 19.03.2020
1148 Clouds 14 1012 58 8000 2.1 20 23:45 18.03.2020
1149 Clouds 14 1012 54 8000 3.1 30 23:26 18.03.2020
1150 Clouds 15 1012 51 8000 4.6 40 22:43 18.03.2020
1151 Clouds 15 1012 47 8000 2.1 70 22:24 18.03.2020
1152 Clouds 15 1012 47 8000 2.6 80 21:59 18.03.2020
1153 Clouds 15 1012 47 8000 2.6 80 21:40 18.03.2020
1154 Clouds 16 1012 44 9000 3.1 80 21:21 18.03.2020
1155 Clouds 16 1012 44 9000 3.1 80 21:21 18.03.2020
1156 Clouds 17 1012 42 9000 4.6 70 20:56 18.03.2020
1157 Clouds 17 1011 42 9000 4.1 70 20:38 18.03.2020
1158 Clouds 17 1011 42 9000 4.1 70 20:19 18.03.2020
1159 Clouds 18 1011 39 9000 4.6 70 19:42 18.03.2020
1160 Clouds 18 1011 39 9000 5.1 80 19:21 18.03.2020
1161 Clouds 18 1011 42 9000 4.1 80 18:59 18.03.2020
1162 Clouds 18 1011 42 9000 3.1 350 18:40 18.03.2020
1163 Clouds 18 1011 42 9000 3.1 350 18:19 18.03.2020
1164 Clouds 18 1011 42 9000 1.5 360 17:57 18.03.2020
1165 Clouds 18 1011 42 9000 3.1 340 17:39 18.03.2020
1166 Clouds 18 1011 42 9000 3.1 340 17:19 18.03.2020
1167 Clouds 18 1011 42 9000 4.1 350 16:43 18.03.2020
1168 Clouds 18 1011 42 10000 2.6 330 16:21 18.03.2020
1169 Clouds 19 1011 39 10000 2.6 0 15:59 18.03.2020
1170 Clouds 18 1011 45 10000 2.6 360 15:39 18.03.2020
1171 Clouds 18 1011 45 10000 2.6 360 15:20 18.03.2020
1172 Clouds 17 1011 45 10000 3.6 330 14:44 18.03.2020
1173 Clouds 18 1012 45 10000 3.6 330 14:21 18.03.2020
1174 Clouds 17 1012 45 10000 3.6 300 13:42 18.03.2020
1175 Clouds 18 1012 45 10000 1 0 13:20 18.03.2020
1176 Clouds 17 1013 51 10000 1.5 0 12:58 18.03.2020
1177 Clouds 17 1013 48 10000 1.5 0 12:39 18.03.2020
1178 Clouds 17 1013 48 10000 1.5 0 12:19 18.03.2020
1179 Clouds 13 1014 62 10000 2.1 20 11:39 18.03.2020
1180 Clouds 13 1014 62 10000 2.1 20 11:19 18.03.2020
1181 Clouds 14 1013 62 10000 1 0 10:58 18.03.2020
1182 Clouds 14 1013 62 10000 1 0 10:38 18.03.2020
1183 Clouds 14 1013 62 10000 1 0 10:19 18.03.2020
1184 Clouds 14 1013 67 10000 1 0 09:43 18.03.2020
1185 Clouds 12 1013 71 10000 2.1 100 09:24 18.03.2020
1186 Clouds 11 1013 76 10000 1 0 08:55 18.03.2020
1187 Rain 11 1013 71 0 1.5 30 08:37 18.03.2020
1188 Clouds 11 1013 71 0 1.5 30 08:19 18.03.2020
1189 Clouds 8 1012 86 0 1.12 90 07:43 18.03.2020
1190 Clouds 11 1013 71 0 2.1 60 07:25 18.03.2020
1191 Clouds 11 1013 71 10000 1.12 90 06:44 18.03.2020
1192 Clouds 12 1013 66 10000 2.6 160 05:56 18.03.2020
1193 Clouds 12 1013 71 10000 3.1 160 05:34 18.03.2020
1194 Clouds 11 1013 76 10000 0.5 0 04:24 18.03.2020
1195 Clouds 12 1014 76 10000 3.1 270 02:42 18.03.2020
1196 Clouds 12 1014 71 10000 3.1 280 01:47 18.03.2020
1197 Clouds 12 1014 71 10000 3.1 290 01:21 18.03.2020
1198 Clouds 12 1015 66 10000 4.6 290 00:23 18.03.2020
1199 Clouds 13 1015 62 10000 5.1 280 23:47 17.03.2020
1200 Clouds 13 1015 62 10000 4.1 300 23:26 17.03.2020
1201 Clouds 14 1015 54 10000 4.1 320 22:48 17.03.2020
1202 Clouds 14 1015 54 10000 4.1 320 22:29 17.03.2020
1203 Clouds 14 1014 54 10000 4.6 320 21:59 17.03.2020
1204 Clouds 15 1014 51 10000 5.1 340 21:39 17.03.2020
1205 Clouds 15 1014 51 10000 5.1 340 21:20 17.03.2020
1206 Clouds 17 1013 36 10000 2.6 260 20:39 17.03.2020
1207 Clouds 17 1013 36 10000 2.6 260 20:39 17.03.2020
1208 Clouds 17 1013 36 10000 2.6 260 20:21 17.03.2020
1209 Clouds 17 1013 36 10000 3.6 270 19:56 17.03.2020
1210 Clouds 18 1013 34 10000 3.1 280 19:38 17.03.2020
1211 Clouds 18 1013 34 10000 3.1 280 19:18 17.03.2020
1212 Clouds 18 1013 34 10000 3.6 270 18:55 17.03.2020
1213 Clouds 18 1013 34 10000 2.6 330 18:37 17.03.2020
1214 Clouds 18 1013 34 10000 2.6 330 18:19 17.03.2020
1215 Clouds 19 1013 34 10000 2.1 0 17:40 17.03.2020
1216 Clouds 19 1013 34 10000 2.1 0 17:21 17.03.2020
1217 Clouds 18 1013 36 10000 2.1 0 16:45 17.03.2020
1218 Clouds 19 1014 37 10000 2.6 0 16:20 17.03.2020
1219 Clouds 18 1014 36 10000 2.1 0 15:58 17.03.2020
1220 Clouds 18 1014 36 10000 1.5 0 15:39 17.03.2020
1221 Clouds 18 1014 36 10000 1.5 0 15:18 17.03.2020
1222 Clouds 17 1015 39 10000 2.1 0 14:41 17.03.2020
1223 Clouds 17 1015 39 10000 2.1 0 14:21 17.03.2020
1224 Clouds 16 1016 41 10000 1.5 0 13:43 17.03.2020
1225 Clouds 16 1016 41 10000 2.1 0 13:25 17.03.2020
1226 Clouds 15 1017 44 10000 2.1 0 12:54 17.03.2020
1227 Clouds 15 1017 44 10000 2.1 30 12:36 17.03.2020
1228 Clouds 15 1017 44 10000 2.1 30 12:18 17.03.2020
1229 Clouds 14 1018 47 10000 3.1 80 11:42 17.03.2020
1230 Clouds 13 1018 54 10000 2.6 80 11:24 17.03.2020
1231 Clouds 12 1018 58 10000 2.6 70 10:57 17.03.2020
1232 Clouds 12 1018 58 10000 2.6 70 10:57 17.03.2020
1233 Clouds 12 1018 58 10000 2.6 110 10:37 17.03.2020
1234 Clouds 12 1018 58 10000 2.6 110 10:18 17.03.2020
1235 Clouds 12 1018 58 10000 3.1 110 09:55 17.03.2020
1236 Clouds 11 1018 57 10000 3.1 50 09:36 17.03.2020
1237 Clouds 11 1018 57 10000 3.1 50 09:18 17.03.2020
1238 Clouds 11 1018 57 10000 3.1 60 08:42 17.03.2020
1239 Clouds 11 1018 62 10000 3.1 70 08:21 17.03.2020
1240 Clouds 11 1018 62 10000 3.6 40 07:49 17.03.2020
1241 Clouds 11 1018 62 10000 4.1 50 07:24 17.03.2020
1242 Clouds 11 1017 62 10000 4.1 40 06:53 17.03.2020
1243 Clouds 11 1017 57 10000 3.6 30 06:27 17.03.2020
1244 Clouds 11 1017 57 10000 3.6 40 05:38 17.03.2020
1245 Clouds 11 1018 62 10000 3.6 30 03:36 17.03.2020
1246 Clouds 11 1019 66 10000 3.6 30 02:38 17.03.2020
1247 Clouds 12 1019 62 10000 4.1 40 01:41 17.03.2020
1248 Clouds 12 1019 62 10000 4.6 30 01:18 17.03.2020
1249 Clouds 12 1019 62 10000 5.1 40 00:19 17.03.2020
1250 Clouds 13 1019 58 10000 5.1 50 23:44 16.03.2020
1251 Clouds 13 1019 58 10000 6.7 40 23:23 16.03.2020
1252 Clouds 13 1019 58 10000 6.2 40 22:39 16.03.2020
1253 Clouds 13 1019 58 10000 6.2 40 22:20 16.03.2020
1254 Clouds 14 1019 58 10000 4.6 40 21:55 16.03.2020
1255 Clouds 14 1018 58 10000 5.7 20 21:36 16.03.2020
1256 Clouds 14 1018 58 10000 5.7 20 21:18 16.03.2020
1257 Clouds 14 1018 62 10000 5.7 20 20:42 16.03.2020
1258 Clouds 15 1017 58 10000 6.2 20 20:24 16.03.2020
1259 Clouds 17 1016 51 10000 5.1 360 19:47 16.03.2020
1260 Clouds 18 1016 48 10000 4.6 360 19:25 16.03.2020
1261 Clouds 18 1016 52 10000 3.6 350 19:00 16.03.2020
1262 Clouds 19 1016 48 10000 3.1 340 18:40 16.03.2020
1263 Clouds 19 1016 52 10000 2.6 350 18:20 16.03.2020
1264 Clouds 19 1016 52 10000 2.6 350 17:46 16.03.2020
1265 Clouds 20 1016 49 10000 4.1 10 17:26 16.03.2020
1266 Clouds 20 1016 52 10000 2.6 10 16:58 16.03.2020
1267 Clouds 20 1016 49 10000 2.1 0 16:40 16.03.2020
1268 Clouds 20 1016 49 10000 2.1 0 16:40 16.03.2020
1269 Clouds 20 1016 49 10000 2.1 0 16:21 16.03.2020
1270 Clouds 19 1017 52 10000 3.1 10 15:43 16.03.2020
1271 Clouds 18 1017 55 10000 3.6 10 15:24 16.03.2020
1272 Clouds 18 1017 59 10000 3.6 30 14:48 16.03.2020
1273 Clouds 17 1018 59 10000 2.6 40 14:24 16.03.2020
1274 Clouds 17 1018 59 10000 3.1 50 13:53 16.03.2020
1275 Clouds 16 1019 67 8000 3.6 30 13:29 16.03.2020
1276 Clouds 16 1019 67 8000 3.6 30 12:58 16.03.2020
1277 Clouds 16 1019 67 8000 3.6 40 12:39 16.03.2020
1278 Clouds 16 1019 67 8000 3.6 40 12:20 16.03.2020
1279 Clouds 16 1019 67 8000 3.6 40 12:20 16.03.2020
1280 Clouds 15 1019 72 8000 2.6 20 11:44 16.03.2020
1281 Clouds 15 1019 72 8000 2.6 360 11:26 16.03.2020
1282 Clouds 15 1019 67 8000 2.1 50 10:45 16.03.2020
1283 Clouds 15 1019 67 8000 2.1 50 10:25 16.03.2020
1284 Clouds 15 1018 72 8000 1 0 09:59 16.03.2020
1285 Clouds 14 1018 76 8000 1.5 80 09:38 16.03.2020
1286 Clouds 14 1018 76 8000 1.5 80 09:19 16.03.2020
1287 Clouds 14 1018 76 8000 2.1 80 08:43 16.03.2020
1288 Clouds 14 1017 76 8000 2.1 80 08:23 16.03.2020
1289 Clouds 14 1017 76 8000 2.6 90 07:44 16.03.2020
1290 Clouds 14 1017 76 8000 2.6 70 07:21 16.03.2020
1291 Clouds 15 1016 67 8000 2.6 60 06:46 16.03.2020
1292 Clouds 14 1016 71 8000 3.1 70 06:22 16.03.2020
1293 Clouds 14 1016 76 8000 3.1 50 04:26 16.03.2020
1294 Clouds 14 1016 67 8000 1 0 01:49 16.03.2020
1295 Clouds 14 1016 71 8000 1 0 00:48 16.03.2020
1296 Clouds 14 1016 71 8000 1.5 100 00:28 16.03.2020
1297 Clouds 15 1017 67 8000 1.5 100 23:41 15.03.2020
1298 Clouds 15 1017 67 8000 1.5 100 23:19 15.03.2020
1299 Clouds 16 1017 63 8000 1.5 130 22:42 15.03.2020
1300 Clouds 16 1017 63 8000 1.5 130 22:42 15.03.2020
1301 Clouds 16 1017 63 8000 2.1 150 22:22 15.03.2020
1302 Clouds 16 1017 63 8000 2.1 160 21:40 15.03.2020
1303 Clouds 16 1016 63 8000 2.6 170 21:22 15.03.2020
1304 Clouds 16 1016 63 8000 1.5 160 20:58 15.03.2020
1305 Clouds 16 1016 63 8000 1.5 160 20:58 15.03.2020
1306 Clouds 16 1016 63 8000 1.5 160 20:40 15.03.2020
1307 Clouds 17 1016 59 8000 2.1 220 20:20 15.03.2020
1308 Clouds 17 1016 59 8000 1.5 190 19:56 15.03.2020
1309 Clouds 17 1016 63 8000 1 0 19:38 15.03.2020
1310 Clouds 17 1016 63 8000 1 0 19:19 15.03.2020
1311 Clouds 17 1015 63 8000 1 0 18:55 15.03.2020
1312 Clouds 17 1015 63 8000 1 0 18:36 15.03.2020
1313 Clouds 17 1015 63 8000 1 0 18:18 15.03.2020
1314 Clouds 17 1015 63 8000 1 0 17:40 15.03.2020
1315 Clouds 17 1015 63 8000 1 0 17:20 15.03.2020
1316 Clouds 17 1016 63 8000 1.5 340 16:56 15.03.2020
1317 Clouds 16 1016 67 8000 1.5 350 16:37 15.03.2020
1318 Clouds 16 1016 67 8000 1.5 350 16:18 15.03.2020
1319 Clouds 15 1017 72 6000 2.6 270 15:43 15.03.2020
1320 Clouds 15 1017 72 6000 2.6 270 15:25 15.03.2020
1321 Clouds 15 1017 77 6000 2.6 250 14:47 15.03.2020
1322 Clouds 15 1017 77 8000 2.1 230 14:28 15.03.2020
1323 Clouds 14 1017 82 8000 2.1 250 13:59 15.03.2020
1324 Clouds 14 1017 82 5000 2.6 270 13:40 15.03.2020
1325 Clouds 14 1017 82 5000 2.6 270 13:21 15.03.2020
1326 Clouds 13 1018 87 5000 2.6 310 12:58 15.03.2020
1327 Clouds 13 1018 87 5000 2.6 300 12:38 15.03.2020
1328 Clouds 13 1018 87 5000 2.6 300 12:20 15.03.2020
1329 Clouds 13 1018 87 5000 2.6 280 11:42 15.03.2020
1330 Clouds 12 1018 93 5000 3.1 260 11:22 15.03.2020
1331 Clouds 12 1018 87 5000 3.6 260 10:57 15.03.2020
1332 Clouds 12 1017 87 5000 3.6 240 10:38 15.03.2020
1333 Clouds 12 1017 87 5000 3.6 240 10:20 15.03.2020
1334 Mist 12 1017 87 4500 4.6 270 09:41 15.03.2020
1335 Clouds 12 1017 87 4500 4.6 260 09:22 15.03.2020
1336 Clouds 12 1016 87 6000 4.1 240 08:55 15.03.2020
1337 Clouds 11 1016 93 6000 4.6 250 08:36 15.03.2020
1338 Clouds 11 1016 93 6000 4.6 250 08:18 15.03.2020
1339 Clouds 12 1016 81 8000 4.6 240 07:44 15.03.2020
1340 Clouds 12 1015 81 8000 4.6 240 06:55 15.03.2020
1341 Clouds 12 1015 81 8000 4.1 240 06:34 15.03.2020
1342 Clouds 12 1015 81 8000 3.1 240 05:43 15.03.2020
1343 Clouds 13 1014 76 8000 2.6 250 04:47 15.03.2020
1344 Clouds 13 1015 76 8000 3.1 260 04:28 15.03.2020
1345 Clouds 13 1015 76 8000 3.6 260 03:54 15.03.2020
1346 Clouds 14 1015 76 8000 4.6 240 02:47 15.03.2020
1347 Clouds 15 1016 72 8000 4.1 250 01:40 15.03.2020
1348 Clouds 17 1016 59 8000 3.1 260 00:47 15.03.2020
1349 Clouds 20 1016 40 8000 2.1 60 00:27 15.03.2020
1350 Clouds 21 1016 37 8000 4.1 130 23:56 14.03.2020
1351 Clouds 21 1017 40 8000 4.1 160 23:37 14.03.2020
1352 Clouds 21 1017 40 8000 4.1 160 23:18 14.03.2020
1353 Clouds 22 1017 35 8000 7.2 110 22:44 14.03.2020
1354 Clouds 21 1016 37 8000 5.7 100 22:26 14.03.2020
1355 Clouds 21 1016 40 8000 4.6 80 21:57 14.03.2020
1356 Clouds 20 1016 56 8000 2.1 30 21:36 14.03.2020
1357 Clouds 20 1016 56 8000 2.1 30 21:18 14.03.2020
1358 Clouds 20 1016 56 8000 0.5 0 20:59 14.03.2020
1359 Clouds 20 1016 56 8000 0.5 0 20:40 14.03.2020
1360 Clouds 20 1016 56 8000 3.1 260 20:19 14.03.2020
1361 Clouds 21 1016 52 8000 1 0 19:44 14.03.2020
1362 Clouds 21 1016 52 8000 3.1 240 19:25 14.03.2020
1363 Clouds 21 1016 49 8000 3.1 240 18:56 14.03.2020
1364 Clouds 21 1016 49 8000 2.6 180 18:37 14.03.2020
1365 Clouds 21 1016 49 8000 2.6 180 18:19 14.03.2020
1366 Clouds 21 1016 52 8000 3.1 260 17:39 14.03.2020
1367 Clouds 21 1016 52 8000 3.1 260 17:20 14.03.2020
1368 Clouds 22 1016 49 8000 4.1 220 16:41 14.03.2020
1369 Clouds 22 1016 49 8000 4.1 220 16:23 14.03.2020
1370 Clouds 22 1016 49 8000 2.6 260 15:58 14.03.2020
1371 Clouds 22 1016 49 8000 3.1 280 15:27 14.03.2020
1372 Clouds 21 1016 52 8000 2.1 350 14:58 14.03.2020
1373 Clouds 20 1017 60 8000 2.6 0 14:37 14.03.2020
1374 Clouds 20 1017 60 8000 2.6 0 14:18 14.03.2020
1375 Clouds 20 1017 56 8000 2.6 0 13:42 14.03.2020
1376 Clouds 20 1018 60 8000 2.1 270 13:23 14.03.2020
1377 Clouds 18 1018 63 8000 2.6 290 12:55 14.03.2020
1378 Clouds 18 1018 68 8000 2.1 0 12:37 14.03.2020
1379 Clouds 18 1018 68 8000 2.1 0 12:19 14.03.2020
1380 Clouds 16 1019 72 7000 2.1 0 11:40 14.03.2020
1381 Clouds 16 1019 72 7000 2.1 0 11:20 14.03.2020
1382 Clouds 14 1019 82 7000 2.6 220 10:46 14.03.2020
1383 Clouds 14 1019 82 7000 2.6 230 10:27 14.03.2020
1384 Clouds 13 1019 82 7000 2.6 230 09:58 14.03.2020
1385 Clouds 12 1019 87 7000 3.1 250 09:39 14.03.2020
1386 Clouds 12 1019 87 7000 3.1 250 09:20 14.03.2020
1387 Clouds 11 1019 93 10000 2.6 260 08:45 14.03.2020
1388 Clouds 11 1018 87 10000 2.6 260 08:45 14.03.2020
1389 Clouds 11 1018 87 10000 2.6 260 08:23 14.03.2020
1390 Clouds 11 1018 87 10000 2.1 250 07:39 14.03.2020
1391 Clouds 11 1018 87 10000 2.1 250 07:20 14.03.2020
1392 Clouds 11 1017 87 10000 1 0 06:41 14.03.2020
1393 Clouds 12 1017 87 0 3.1 230 05:56 14.03.2020
1394 Clouds 11 1017 87 10000 2.1 260 04:51 14.03.2020
1395 Clouds 13 1018 82 10000 3.1 250 03:25 14.03.2020
1396 Clouds 14 1018 76 10000 2.1 240 02:28 14.03.2020
1397 Clouds 14 1019 76 10000 3.6 240 01:27 14.03.2020
1398 Clouds 15 1019 72 10000 3.1 250 00:20 14.03.2020
1399 Clouds 18 1019 59 10000 1.5 30 23:32 13.03.2020
1400 Clouds 18 1019 59 10000 1.5 40 22:57 13.03.2020
1401 Clouds 19 1019 55 10000 3.6 350 22:38 13.03.2020
1402 Clouds 19 1019 55 10000 3.6 350 22:19 13.03.2020
1403 Clouds 21 1018 49 10000 4.1 340 21:39 13.03.2020
1404 Clouds 21 1018 49 10000 4.1 340 21:18 13.03.2020
1405 Clouds 23 1017 40 10000 4.6 340 20:41 13.03.2020
1406 Clouds 24 1017 36 10000 4.6 330 20:22 13.03.2020
1407 Clouds 24 1016 33 10000 4.1 330 19:49 13.03.2020
1408 Clouds 26 1016 27 10000 4.1 340 19:31 13.03.2020
1409 Clouds 26 1016 27 10000 4.1 320 18:59 13.03.2020
1410 Clouds 28 1016 23 10000 2.1 0 18:39 13.03.2020
1411 Clouds 28 1016 23 10000 2.1 0 18:21 13.03.2020
1412 Clouds 27 1016 26 10000 2.6 330 17:42 13.03.2020
1413 Clouds 27 1016 26 10000 2.6 330 17:21 13.03.2020
1414 Clouds 28 1016 26 10000 2.6 0 16:56 13.03.2020
1415 Clouds 27 1016 28 10000 3.1 0 16:37 13.03.2020
1416 Clouds 27 1016 28 10000 3.1 0 16:19 13.03.2020
1417 Clouds 26 1016 27 10000 3.1 320 15:41 13.03.2020
1418 Clouds 26 1017 29 10000 2.6 330 15:21 13.03.2020
1419 Clouds 26 1017 31 10000 2.1 0 14:44 13.03.2020
1420 Clouds 24 1018 36 10000 3.1 310 14:23 13.03.2020
1421 Clouds 24 1019 38 10000 3.1 290 13:59 13.03.2020
1422 Clouds 24 1019 38 10000 3.1 290 13:40 13.03.2020
1423 -273 0 0 0 0 0 13:21 13.03.2020
1424 Clouds 22 1019 40 10000 3.1 300 12:56 13.03.2020
1425 Clouds 21 1019 46 10000 2.6 300 12:38 13.03.2020
1426 Clouds 21 1019 46 10000 2.6 300 12:19 13.03.2020
1427 Clouds 20 1020 52 10000 2.6 300 11:45 13.03.2020
1428 Clouds 19 1020 52 10000 2.1 280 11:26 13.03.2020
1429 Clouds 17 1019 63 10000 2.1 280 10:58 13.03.2020
1430 Clouds 16 1019 67 10000 2.6 290 10:39 13.03.2020
1431 Clouds 16 1019 67 10000 2.6 290 10:21 13.03.2020
1432 Clouds 14 1019 71 10000 2.6 250 09:44 13.03.2020
1433 Clouds 14 1019 71 10000 2.6 250 09:25 13.03.2020
1434 Clouds 14 1019 62 10000 2.1 260 08:48 13.03.2020
1435 Clouds 13 1019 58 10000 1.5 270 08:24 13.03.2020
1436 Clouds 12 1019 62 10000 2.1 250 07:59 13.03.2020
1437 Clouds 14 1018 54 10000 0.5 0 07:38 13.03.2020
1438 Clouds 14 1018 54 10000 0.5 0 07:20 13.03.2020
1439 Clouds 14 1018 54 10000 1.5 270 06:45 13.03.2020
1440 Clouds 13 1018 58 10000 2.1 270 06:18 13.03.2020
1441 Clouds 16 1018 51 10000 0.5 0 05:43 13.03.2020
1442 Clouds 16 1018 55 10000 1.5 270 04:39 13.03.2020
1443 Clouds 17 1019 51 10000 2.6 300 03:50 13.03.2020
1444 Clouds 19 1019 45 10000 4.6 230 01:48 13.03.2020
1445 Clouds 18 1020 48 10000 3.6 240 01:19 13.03.2020
1446 Clouds 19 1020 48 10000 3.6 250 00:56 13.03.2020
1447 Clouds 20 1020 45 10000 3.1 230 00:37 13.03.2020
1448 Clouds 20 1020 45 10000 3.1 230 00:18 13.03.2020
1449 Clouds 22 1020 46 10000 2.6 20 23:29 12.03.2020
1450 Clouds 23 1020 43 10000 2.1 20 22:58 12.03.2020
1451 Clouds 23 1020 35 10000 2.1 280 22:40 12.03.2020
1452 Clouds 23 1020 35 10000 2.1 280 22:22 12.03.2020
1453 Clouds 24 1020 27 10000 2.6 20 21:46 12.03.2020
1454 Clouds 24 1019 25 10000 3.1 200 21:28 12.03.2020
1455 Clouds 24 1018 27 10000 5.1 170 20:59 12.03.2020
1456 Clouds 24 1018 27 10000 5.1 170 20:40 12.03.2020
1457 Clouds 25 1018 23 10000 4.6 160 20:19 12.03.2020
1458 Clouds 26 1018 21 10000 0.5 0 19:42 12.03.2020
1459 Clouds 27 1018 19 10000 4.6 220 19:21 12.03.2020
1460 Clouds 28 1018 25 10000 4.6 180 18:45 12.03.2020
1461 Clouds 29 1017 12 10000 2.1 0 18:25 12.03.2020
1462 Clouds 29 1017 11 10000 2.1 0 17:57 12.03.2020
1463 Clouds 29 1017 11 10000 1.5 0 17:39 12.03.2020
1464 Clouds 29 1017 11 10000 1.5 0 17:20 12.03.2020
1465 Clouds 29 1017 11 10000 2.6 0 16:56 12.03.2020
1466 Clouds 29 1017 12 10000 1.5 340 16:38 12.03.2020
1467 Clouds 29 1017 12 10000 1.5 340 16:19 12.03.2020
1468 Clouds 30 1017 13 10000 2.6 0 15:45 12.03.2020
1469 Clouds 30 1018 15 10000 3.6 340 15:27 12.03.2020
1470 Clouds 30 1018 16 10000 3.1 350 14:42 12.03.2020
1471 Clouds 29 1019 17 10000 2.6 350 14:24 12.03.2020
1472 Clouds 29 1020 17 10000 2.6 0 13:57 12.03.2020
1473 Clouds 27 1020 19 10000 2.6 330 13:37 12.03.2020
1474 Clouds 27 1020 19 10000 2.6 330 13:19 12.03.2020
1475 Clouds 27 1021 19 8000 2.1 350 12:41 12.03.2020
1476 Clouds 26 1021 19 8000 1.5 350 12:22 12.03.2020
1477 Clouds 25 1021 22 6000 1.5 340 11:57 12.03.2020
1478 Clouds 24 1021 23 6000 1.5 0 11:38 12.03.2020
1479 Clouds 24 1021 23 6000 1.5 0 11:20 12.03.2020
1480 Clouds 22 1021 28 6000 1.5 20 10:59 12.03.2020
1481 Clouds 22 1021 24 10000 0.5 0 10:40 12.03.2020
1482 Clouds 22 1021 24 10000 0.5 0 10:22 12.03.2020
1483 Clouds 21 1021 19 10000 0.5 0 09:46 12.03.2020
1484 Clouds 19 1021 29 10000 0.5 0 09:27 12.03.2020
1485 Clouds 15 1020 19 10000 0.43 187 08:45 12.03.2020
1486 Clouds 14 1020 35 10000 1 0 08:20 12.03.2020
1487 Clouds 14 1020 33 10000 0.5 0 07:59 12.03.2020
1488 Clouds 14 1020 33 10000 0.5 0 07:40 12.03.2020
1489 -273 0 0 0 0 0 07:21 12.03.2020
1490 Clear 15 1019 33 10000 0.5 0 05:55 12.03.2020
1491 Clouds 17 1019 33 10000 1.5 20 05:26 12.03.2020
1492 Clouds 18 1021 29 10000 1 0 02:43 12.03.2020
1493 Clouds 19 1022 28 10000 0.5 0 01:36 12.03.2020
1494 Clouds 19 1022 28 10000 0.5 0 01:18 12.03.2020
1495 Clouds 19 1022 29 10000 0.5 0 00:40 12.03.2020
1496 Clouds 20 1022 24 10000 1 0 23:51 11.03.2020
1497 Clouds 21 1022 22 10000 2.1 240 23:26 11.03.2020
1498 Clouds 23 1022 24 10000 2.6 210 22:55 11.03.2020
1499 Clouds 23 1022 24 10000 1.5 260 22:37 11.03.2020
1500 Clouds 23 1022 24 10000 1.5 260 22:37 11.03.2020
1501 Clouds 23 1022 24 10000 1.5 260 22:18 11.03.2020
1502 Clouds 24 1021 19 10000 2.6 300 21:41 11.03.2020
1503 Clouds 25 1021 17 10000 3.1 310 21:23 11.03.2020
1504 Clouds 26 1020 15 10000 3.1 310 20:59 11.03.2020
1505 Clouds 27 1020 14 10000 3.6 330 20:40 11.03.2020
1506 Clouds 27 1020 14 10000 3.6 330 20:20 11.03.2020
1507 Clouds 28 1019 13 10000 3.6 330 19:57 11.03.2020
1508 Clouds 30 1019 12 10000 3.1 290 19:38 11.03.2020
1509 Clouds 30 1019 12 10000 3.1 290 19:38 11.03.2020
1510 Clouds 30 1019 12 10000 3.1 290 19:20 11.03.2020
1511 Clouds 31 1019 11 10000 2.1 310 18:43 11.03.2020
1512 Clouds 31 1019 11 10000 2.6 330 18:24 11.03.2020
1513 Clouds 31 1019 10 10000 1.5 0 17:59 11.03.2020
1514 Clouds 32 1019 11 10000 2.1 0 17:39 11.03.2020
1515 Clouds 32 1019 11 10000 2.1 0 17:21 11.03.2020
1516 Clouds 31 1019 12 10000 3.1 300 16:47 11.03.2020
1517 Clouds 31 1019 11 10000 2.6 350 16:24 11.03.2020
1518 Clouds 31 1019 11 10000 3.6 330 15:59 11.03.2020
1519 Clouds 31 1019 11 10000 3.6 330 15:59 11.03.2020
1520 Clouds 31 1019 11 10000 3.6 330 15:41 11.03.2020
1521 Clouds 31 1019 11 10000 4.1 310 15:22 11.03.2020
1522 Clouds 31 1020 11 10000 3.6 310 14:44 11.03.2020
1523 Clear 31 1020 12 10000 2.1 0 14:23 11.03.2020
1524 Clear 29 1021 10 0 3.35 5 13:57 11.03.2020
1525 Clear 29 1021 10 0 3.35 5 13:38 11.03.2020
1526 Clear 29 1021 10 0 3.35 5 13:20 11.03.2020
1527 Clear 29 1021 10 0 3.26 3 12:40 11.03.2020
1528 Clear 25 1021 22 10000 2.1 90 12:20 11.03.2020
1529 Clear 25 1021 22 10000 2.1 90 11:56 11.03.2020
1530 Clear 25 1021 22 10000 2.1 90 11:37 11.03.2020
1531 Clear 25 1021 22 10000 2.1 90 11:19 11.03.2020
1532 Clear 23 1021 27 10000 1.5 70 10:42 11.03.2020
1533 Clear 21 1021 30 10000 1.5 80 10:19 11.03.2020
1534 Clear 19 1021 32 10000 2.1 90 09:43 11.03.2020
1535 Clear 17 1021 33 10000 2.1 100 09:25 11.03.2020
1536 Clear 14 1021 41 10000 2.6 90 08:58 11.03.2020
1537 Clear 13 1021 14 10000 3.1 100 08:40 11.03.2020
1538 Clear 13 1021 33 10000 3.1 100 08:19 11.03.2020
1539 Clear 12 1021 33 10000 2.6 90 07:43 11.03.2020
1540 Clear 15 1020 33 10000 1 0 07:19 11.03.2020
1541 Clear 15 1020 33 10000 1 0 06:44 11.03.2020
1542 Clear 15 1020 33 10000 1 0 05:36 11.03.2020
1543 Clear 15 1020 38 10000 1 0 04:31 11.03.2020
1544 Clear 17 1021 42 10000 1.5 250 02:24 11.03.2020
1545 Clear 16 1021 44 10000 2.6 250 01:30 11.03.2020
1546 Clear 19 1021 39 10000 1.5 230 00:47 11.03.2020
1547 Clear 20 1021 37 10000 3.1 220 00:18 11.03.2020
1548 Clear 21 1021 37 10000 0.5 0 23:40 10.03.2020
1549 Clear 21 1021 37 10000 0.5 0 23:21 10.03.2020
1550 Clear 22 1020 35 10000 3.6 40 22:39 10.03.2020
1551 Clear 22 1020 35 10000 3.6 40 22:20 10.03.2020
1552 Clear 23 1020 33 10000 2.6 360 21:57 10.03.2020
1553 Clear 24 1020 31 10000 4.6 360 21:39 10.03.2020
1554 Clear 24 1020 31 10000 4.6 360 21:20 10.03.2020
1555 Clear 25 1019 16 0 1 0 20:59 10.03.2020
1556 Clear 27 1019 12 10000 1.5 330 20:41 10.03.2020
1557 Clear 27 1019 12 10000 1.5 330 20:18 10.03.2020
1558 Clear 29 1019 12 10000 1 0 19:57 10.03.2020
1559 Clear 29 1019 12 10000 1 0 19:57 10.03.2020
1560 Clear 30 1019 11 10000 1 0 19:37 10.03.2020
1561 Clear 30 1019 11 10000 1 0 19:19 10.03.2020
1562 Clear 30 1019 10 10000 2.6 20 18:44 10.03.2020
1563 Clear 30 1019 11 10000 2.6 20 18:26 10.03.2020
1564 Clear 31 1019 10 10000 2.1 0 17:57 10.03.2020
1565 Clear 31 1019 11 10000 2.6 60 17:39 10.03.2020
1566 Clear 31 1019 11 10000 2.6 60 17:21 10.03.2020
1567 Clear 30 1019 13 10000 3.1 340 16:39 10.03.2020
1568 Clear 30 1019 13 10000 3.1 340 16:19 10.03.2020
1569 Clear 31 1019 11 10000 2.1 0 15:56 10.03.2020
1570 Clear 29 1020 13 10000 3.1 50 15:37 10.03.2020
1571 Clear 29 1020 13 10000 3.1 50 15:19 10.03.2020
1572 Clear 28 1021 15 10000 3.1 30 14:41 10.03.2020
1573 Clear 28 1021 15 10000 3.1 30 14:20 10.03.2020
1574 Clear 27 1021 14 10000 2.1 70 13:58 10.03.2020
1575 Clear 26 1022 14 10000 2.6 50 13:38 10.03.2020
1576 Clear 26 1022 14 10000 2.6 50 13:20 10.03.2020
1577 Clear 25 1022 14 10000 3.1 40 12:42 10.03.2020
1578 Clear 23 1023 14 10000 2.1 70 12:19 10.03.2020
1579 Clear 23 1023 14 10000 2.1 70 11:58 10.03.2020
1580 Clear 23 1023 14 10000 2.1 70 11:58 10.03.2020
1581 Clear 21 1023 22 10000 2.6 100 11:40 10.03.2020
1582 Clear 21 1023 22 10000 2.6 100 11:40 10.03.2020
1583 Clear 21 1023 22 10000 2.6 100 11:22 10.03.2020
1584 Clear 17 1023 29 10000 3.6 100 10:43 10.03.2020
1585 Clear 17 1023 29 10000 3.6 100 10:23 10.03.2020
1586 Clear 16 1023 31 10000 3.6 80 09:57 10.03.2020
1587 Clear 16 1022 22 10000 3.1 60 09:39 10.03.2020
1588 Clear 16 1022 22 10000 3.1 60 09:19 10.03.2020
1589 Clear 12 1022 22 10000 2.1 70 08:51 10.03.2020
1590 Clear 11 1022 22 10000 3.1 90 08:32 10.03.2020
1591 Clear 11 1022 43 10000 2.6 80 07:50 10.03.2020
1592 Clear 11 1022 37 10000 3.6 110 07:31 10.03.2020
1593 Clear 11 1022 37 10000 2.6 90 06:45 10.03.2020
1594 Clear 11 1022 37 10000 2.1 80 06:27 10.03.2020
1595 Clear 11 1022 37 10000 1.5 70 05:41 10.03.2020
1596 Clear 13 1022 45 10000 0.5 0 04:40 10.03.2020
1597 Clear 14 1023 45 10000 1.5 70 03:41 10.03.2020
1598 Clear 14 1023 41 10000 2.1 90 02:26 10.03.2020
1599 Clear 17 1024 36 10000 1.5 90 01:22 10.03.2020
1600 Clear 16 1024 44 10000 2.1 100 00:42 10.03.2020
1601 Clear 18 1024 48 10000 2.6 70 00:22 10.03.2020
1602 Clear 20 1024 45 10000 4.1 60 23:40 09.03.2020
1603 Clear 20 1024 45 10000 4.1 60 23:21 09.03.2020
1604 Clear 21 1023 35 10000 5.7 50 22:41 09.03.2020
1605 Clear 21 1023 35 10000 5.7 50 22:22 09.03.2020
1606 Clear 23 1023 15 10000 4.1 30 21:57 09.03.2020
1607 Clear 22 1023 15 10000 2.1 50 21:39 09.03.2020
1608 Clear 22 1023 15 10000 2.1 50 21:20 09.03.2020
1609 Clear 24 1022 14 10000 2.1 40 20:56 09.03.2020
1610 Clear 25 1022 12 10000 3.6 40 20:37 09.03.2020
1611 Clear 25 1022 12 10000 3.6 40 20:19 09.03.2020
1612 Clear 26 1022 11 10000 4.1 40 19:44 09.03.2020
1613 Clear 27 1022 10 10000 4.6 40 19:25 09.03.2020
1614 Clear 28 1022 9 10000 4.6 30 18:58 09.03.2020
1615 Clear 28 1022 11 10000 4.6 40 18:38 09.03.2020
1616 Clear 28 1022 11 10000 4.6 40 18:19 09.03.2020
1617 Clear 28 1022 12 10000 5.1 30 17:57 09.03.2020
1618 Clear 29 1023 13 10000 5.1 40 17:38 09.03.2020
1619 Clear 29 1023 13 10000 5.1 40 17:20 09.03.2020
1620 Clear 29 1023 13 10000 4.1 40 16:58 09.03.2020
1621 Clear 29 1023 16 10000 4.6 30 16:39 09.03.2020
1622 Clear 29 1023 16 10000 4.6 30 16:20 09.03.2020
1623 Clear 29 1023 16 10000 4.1 30 15:57 09.03.2020
1624 Clear 29 1023 16 10000 4.1 30 15:38 09.03.2020
1625 Clear 29 1023 13 10000 3.6 50 15:19 09.03.2020
1626 Clear 28 1024 13 10000 3.1 40 14:54 09.03.2020
1627 Clear 28 1024 13 10000 3.1 40 14:36 09.03.2020
1628 Clear 28 1024 13 10000 3.1 40 14:36 09.03.2020
1629 Clear 28 1025 20 10000 3.1 30 14:18 09.03.2020
1630 Clear 26 1025 24 10000 3.6 50 13:40 09.03.2020
1631 Clear 25 1025 29 10000 2.1 0 13:22 09.03.2020
1632 Clear 23 1026 31 10000 3.1 30 12:59 09.03.2020
1633 Clear 23 1026 31 10000 3.1 30 12:41 09.03.2020
1634 Clear 22 1026 33 10000 2.6 30 12:20 09.03.2020
1635 Clear 21 1026 35 10000 2.6 40 11:41 09.03.2020
1636 Clear 20 1026 37 10000 2.6 50 11:21 09.03.2020
1637 Clear 19 1026 37 10000 2.1 70 10:58 09.03.2020
1638 Clear 19 1026 37 10000 2.1 70 10:40 09.03.2020
1639 Clear 17 1026 39 10000 2.1 80 10:20 09.03.2020
1640 Clear 15 1025 41 10000 2.6 90 09:44 09.03.2020
1641 Clear 14 1025 47 10000 2.1 90 09:24 09.03.2020
1642 Clear 12 1025 54 10000 2.1 90 08:59 09.03.2020
1643 Clear 12 1025 54 10000 2.1 90 08:41 09.03.2020
1644 Clear 10 1025 61 8000 2.1 90 08:23 09.03.2020
1645 Clear 12 1025 58 8000 2.1 110 07:40 09.03.2020
1646 Clear 11 1025 62 8000 1 0 07:21 09.03.2020
1647 Clear 11 1024 57 8000 1.5 150 06:43 09.03.2020
1648 Clear 13 1024 50 8000 1 0 06:23 09.03.2020
1649 Clear 12 1024 58 8000 0.5 0 05:47 09.03.2020
1650 Clear 13 1024 58 8000 0.5 0 05:18 09.03.2020
1651 Clear 13 1024 58 8000 0.5 0 04:40 09.03.2020
1652 Clear 13 1025 58 8000 2.1 220 04:21 09.03.2020
1653 Clear 14 1025 50 8000 2.1 250 02:58 09.03.2020
1654 Clouds 16 1025 41 8000 2.6 240 01:18 09.03.2020
1655 Clouds 15 1026 47 8000 2.1 230 00:37 09.03.2020
1656 Clouds 18 1026 39 8000 1 0 00:19 09.03.2020
1657 Clouds 18 1026 39 8000 1 0 23:42 08.03.2020
1658 Clouds 19 1025 37 8000 3.1 70 23:21 08.03.2020
1659 Clouds 19 1025 39 8000 2.6 30 22:55 08.03.2020
1660 Clouds 19 1025 39 8000 2.6 30 22:37 08.03.2020
1661 Clouds 21 1025 35 8000 3.6 30 22:18 08.03.2020
1662 Clouds 22 1024 33 8000 3.1 20 21:42 08.03.2020
1663 Clouds 22 1023 33 10000 4.6 360 21:23 08.03.2020
1664 Clouds 24 1022 15 10000 1.5 30 20:59 08.03.2020
1665 Clouds 24 1022 15 10000 1.5 30 20:39 08.03.2020
1666 Clouds 24 1022 15 10000 1.5 30 20:39 08.03.2020
1667 Clouds 24 1022 15 10000 1.5 270 20:20 08.03.2020
1668 Clouds 27 1022 12 10000 1.5 340 19:41 08.03.2020
1669 Clouds 28 1021 12 10000 1.5 30 19:20 08.03.2020
1670 Clouds 28 1021 12 10000 2.1 310 18:58 08.03.2020
1671 Clouds 29 1021 11 10000 1.5 270 18:39 08.03.2020
1672 Clouds 29 1021 11 10000 1.5 270 18:20 08.03.2020
1673 Clouds 29 1021 10 10000 1.5 0 17:41 08.03.2020
1674 Clouds 29 1021 9 10000 3.1 300 17:22 08.03.2020
1675 Clouds 29 1021 9 10000 3.1 300 16:59 08.03.2020
1676 Clouds 29 1021 9 10000 3.1 300 16:41 08.03.2020
1677 Clouds 29 1021 11 10000 2.6 310 16:22 08.03.2020
1678 Clouds 29 1021 12 10000 2.6 300 15:55 08.03.2020
1679 Clouds 29 1022 13 10000 1.5 0 15:37 08.03.2020
1680 Clouds 29 1022 13 10000 1.5 0 15:18 08.03.2020
1681 Clouds 27 1022 14 10000 2.1 330 14:38 08.03.2020
1682 Clouds 27 1022 14 10000 2.1 330 14:20 08.03.2020
1683 Clouds 26 1023 15 10000 2.1 0 13:55 08.03.2020
1684 Clouds 25 1023 16 10000 2.1 60 13:36 08.03.2020
1685 Clouds 25 1023 16 10000 2.1 60 13:18 08.03.2020
1686 Clouds 24 1023 19 10000 1.5 0 12:37 08.03.2020
1687 Clouds 20 1023 24 10000 2.1 80 12:18 08.03.2020
1688 Clouds 20 1023 24 10000 2.1 80 11:42 08.03.2020
1689 Clouds 20 1023 24 10000 2.1 80 11:23 08.03.2020
1690 Clear 18 1023 28 10000 2.1 110 10:57 08.03.2020
1691 Clear 18 1023 28 10000 2.1 110 10:57 08.03.2020
1692 Clear 16 1023 28 10000 1.5 110 10:39 08.03.2020
1693 Clear 16 1023 28 10000 1.5 110 10:21 08.03.2020
1694 Clear 15 1023 33 10000 2.1 110 09:40 08.03.2020
1695 Clear 14 1022 28 10000 2.6 70 09:22 08.03.2020
1696 Clear 11 1022 40 10000 2.1 90 08:48 08.03.2020
1697 Clear 9 1021 45 10000 2.1 90 08:22 08.03.2020
1698 Clear 9 1021 45 10000 3.6 90 07:50 08.03.2020
1699 Clear 9 1021 49 10000 2.6 80 07:28 08.03.2020
1700 Clear 10 1020 46 10000 2.6 90 06:46 08.03.2020
1701 Clear 10 1020 46 10000 2.6 90 06:27 08.03.2020
1702 Clear 10 1020 46 10000 3.1 100 05:47 08.03.2020
1703 Clear 12 1020 50 10000 3.1 90 03:52 08.03.2020
1704 Clear 13 1021 47 10000 3.6 100 02:59 08.03.2020
1705 Clear 14 1021 47 10000 3.1 90 01:38 08.03.2020
1706 Clear 14 1021 47 10000 3.1 90 01:19 08.03.2020
1707 Clear 15 1021 51 10000 2.1 60 00:41 08.03.2020
1708 Clear 17 1021 48 10000 3.6 80 23:59 07.03.2020
1709 Clear 17 1021 48 10000 3.6 80 23:41 07.03.2020
1710 Clear 18 1021 45 10000 3.6 70 23:19 07.03.2020
1711 Clear 20 1021 37 10000 3.1 30 22:38 07.03.2020
1712 Clear 20 1021 37 10000 3.1 30 22:19 07.03.2020
1713 Clear 21 1020 28 10000 4.6 30 21:45 07.03.2020
1714 Clear 21 1020 18 10000 3.1 30 21:24 07.03.2020
1715 Clear 22 1019 17 10000 3.1 40 20:41 07.03.2020
1716 Clear 23 1019 16 10000 3.1 30 20:22 07.03.2020
1717 Clear 24 1019 15 10000 3.6 30 19:55 07.03.2020
1718 Clear 24 1019 15 10000 3.6 30 19:36 07.03.2020
1719 Clear 25 1019 14 10000 4.6 40 19:18 07.03.2020
1720 Clear 26 1019 13 10000 4.1 30 18:39 07.03.2020
1721 Clear 26 1018 14 10000 4.6 40 18:21 07.03.2020
1722 Clear 26 1018 14 10000 5.1 40 17:42 07.03.2020
1723 Clear 27 1018 13 10000 5.1 10 17:20 07.03.2020
1724 Clear 27 1019 14 10000 3.6 20 16:59 07.03.2020
1725 Clear 27 1019 14 10000 3.6 20 16:40 07.03.2020
1726 Clear 26 1019 15 10000 3.1 50 16:22 07.03.2020
1727 Clear 26 1019 13 10000 2.1 20 15:55 07.03.2020
1728 Clear 26 1019 19 10000 3.1 50 15:37 07.03.2020
1729 Clear 26 1019 19 10000 3.1 50 15:19 07.03.2020
1730 Clear 25 1020 22 10000 2.1 50 14:45 07.03.2020
1731 Clear 25 1021 25 10000 2.1 0 14:24 07.03.2020
1732 Clear 23 1021 28 10000 3.1 0 13:57 07.03.2020
1733 Clear 23 1021 28 10000 3.1 0 13:38 07.03.2020
1734 Clear 22 1021 33 10000 2.6 60 13:18 07.03.2020
1735 Clear 20 1022 34 10000 2.1 0 12:41 07.03.2020
1736 Clear 19 1022 42 10000 2.1 40 12:20 07.03.2020
1737 Clear 17 1022 45 10000 2.6 30 11:57 07.03.2020
1738 Clear 17 1022 45 10000 2.6 30 11:38 07.03.2020
1739 Clear 16 1022 51 10000 2.6 60 11:19 07.03.2020
1740 Clear 14 1022 54 10000 3.6 100 10:40 07.03.2020
1741 Clear 14 1022 54 10000 3.6 100 10:20 07.03.2020
1742 Clear 12 1022 62 10000 4.1 100 09:56 07.03.2020
1743 Clear 12 1022 62 10000 4.1 100 09:37 07.03.2020
1744 Clear 11 1022 66 10000 4.1 110 09:18 07.03.2020
1745 Clear 10 1021 71 10000 4.1 100 08:44 07.03.2020
1746 Clear 9 1021 70 10000 3.1 100 08:21 07.03.2020
1747 Clear 9 1021 70 10000 2.1 110 07:49 07.03.2020
1748 Clear 9 1021 70 10000 2.1 110 07:23 07.03.2020
1749 Clear 10 1021 71 10000 3.6 80 06:55 07.03.2020
1750 Clear 10 1021 71 10000 3.6 80 06:29 07.03.2020
1751 Clear 10 1021 71 10000 3.6 80 05:52 07.03.2020
1752 Clear 11 1021 66 10000 3.1 90 04:42 07.03.2020
1753 Clear 12 1023 66 10000 4.1 60 02:47 07.03.2020
1754 Clear 12 1023 66 10000 4.1 60 02:24 07.03.2020
1755 Clear 13 1023 62 10000 3.6 70 01:26 07.03.2020
1756 Clear 13 1023 62 10000 4.6 60 00:38 07.03.2020
1757 Clear 14 1023 58 10000 5.1 50 00:20 07.03.2020
1758 Clear 14 1023 58 10000 6.2 50 23:44 06.03.2020
1759 Clear 15 1023 54 10000 4.6 60 23:25 06.03.2020
1760 Clear 15 1023 54 10000 6.2 50 22:48 06.03.2020
1761 Clear 15 1022 54 10000 6.2 40 22:21 06.03.2020
1762 Clear 17 1022 48 10000 7.2 40 21:55 06.03.2020
1763 Clear 17 1022 48 10000 7.2 40 21:37 06.03.2020
1764 Clear 18 1022 39 10000 6.7 30 21:18 06.03.2020
1765 Clear 20 1021 32 10000 4.6 40 20:37 06.03.2020
1766 Clear 20 1021 30 10000 5.1 40 20:19 06.03.2020
1767 Clouds 21 1021 30 10000 4.6 40 19:45 06.03.2020
1768 Clouds 22 1021 30 10000 5.1 40 19:26 06.03.2020
1769 Clouds 22 1020 30 10000 5.1 50 18:44 06.03.2020
1770 Clouds 22 1020 33 10000 5.7 40 18:22 06.03.2020
1771 Clouds 23 1020 33 10000 5.1 20 17:59 06.03.2020
1772 Clouds 23 1020 35 10000 6.2 50 17:41 06.03.2020
1773 Clouds 23 1020 35 10000 6.2 50 17:22 06.03.2020
1774 Clouds 22 1020 35 10000 5.7 70 16:58 06.03.2020
1775 Clouds 22 1021 35 10000 6.2 60 16:40 06.03.2020
1776 Clouds 22 1021 35 10000 6.2 60 16:19 06.03.2020
1777 Clouds 22 1021 37 10000 5.7 80 15:44 06.03.2020
1778 Clouds 21 1022 43 10000 5.1 50 15:24 06.03.2020
1779 Clouds 21 1022 46 10000 5.7 80 14:45 06.03.2020
1780 Clouds 19 1023 48 10000 6.2 60 14:24 06.03.2020
1781 Clouds 19 1023 48 10000 6.2 60 13:59 06.03.2020
1782 Clouds 19 1023 48 10000 6.2 60 13:40 06.03.2020
1783 Clouds 19 1024 48 10000 5.7 70 13:21 06.03.2020
1784 Clouds 19 1024 48 10000 5.1 60 12:55 06.03.2020
1785 Clouds 19 1024 48 10000 5.1 60 12:36 06.03.2020
1786 Clouds 17 1025 55 10000 5.7 60 12:18 06.03.2020
1787 Clouds 16 1025 59 10000 5.1 40 11:56 06.03.2020
1788 Clouds 15 1025 62 10000 6.2 40 11:37 06.03.2020
1789 Clouds 15 1025 62 10000 6.2 40 11:19 06.03.2020
1790 Clouds 15 1024 62 10000 6.7 40 10:37 06.03.2020
1791 Clouds 14 1024 67 10000 6.7 40 10:19 06.03.2020
1792 Clouds 13 1024 71 10000 7.2 40 09:43 06.03.2020
1793 Clouds 13 1024 76 10000 6.2 50 09:24 06.03.2020
1794 Clouds 13 1023 76 10000 4.6 50 08:58 06.03.2020
1795 Clouds 13 1023 76 10000 4.6 50 08:40 06.03.2020
1796 Clouds 13 1023 76 10000 6.2 40 08:22 06.03.2020
1797 Clouds 13 1023 82 10000 5.1 50 07:47 06.03.2020
1798 Clouds 13 1023 82 10000 5.1 40 07:25 06.03.2020
1799 Clouds 13 1023 87 10000 7.2 40 06:51 06.03.2020
1800 Clouds 14 1023 82 10000 5.7 50 06:32 06.03.2020
1801 Clouds 15 1023 77 10000 3.6 60 05:39 06.03.2020
1802 Clouds 15 1023 77 10000 4.6 50 05:20 06.03.2020
1803 Clouds 15 1023 77 10000 3.6 50 04:41 06.03.2020
1804 Clouds 15 1024 72 10000 5.1 40 01:45 06.03.2020
1805 Clouds 15 1024 72 10000 5.1 40 01:26 06.03.2020
1806 Clouds 15 1024 72 10000 5.1 50 00:57 06.03.2020
1807 Clouds 15 1024 72 10000 3.1 70 00:31 06.03.2020
1808 Clouds 16 1024 67 10000 3.6 50 23:44 05.03.2020
1809 Clouds 16 1024 67 10000 5.1 30 23:25 05.03.2020
1810 Clouds 16 1024 67 10000 4.1 30 22:56 05.03.2020
1811 Clouds 16 1024 67 10000 4.1 30 22:37 05.03.2020
1812 Clouds 17 1023 63 10000 6.2 40 22:18 05.03.2020
1813 Clouds 18 1023 59 10000 4.6 360 21:55 05.03.2020
1814 Clouds 18 1023 59 10000 4.6 360 21:37 05.03.2020
1815 Clouds 19 1022 55 10000 4.6 360 21:19 05.03.2020
1816 Clouds 20 1022 52 10000 4.6 360 20:43 05.03.2020
1817 -273 0 0 0 0 0 20:21 05.03.2020
1818 Clouds 22 1021 43 10000 3.6 10 19:59 05.03.2020
1819 Clouds 22 1021 43 10000 3.6 10 19:40 05.03.2020
1820 Clouds 22 1021 46 10000 3.6 340 19:21 05.03.2020
1821 Clouds 23 1021 40 10000 2.6 330 18:58 05.03.2020
1822 Clouds 23 1021 40 10000 2.6 330 18:37 05.03.2020
1823 Clouds 24 1021 38 10000 1.5 10 18:19 05.03.2020
1824 Clouds 24 1021 41 10000 2.1 360 17:57 05.03.2020
1825 Clouds 24 1021 41 10000 2.1 360 17:39 05.03.2020
1826 Clouds 24 1021 38 10000 2.1 0 17:21 05.03.2020
1827 Clouds 23 1021 40 10000 3.1 330 16:42 05.03.2020
1828 Clouds 23 1021 43 10000 3.6 350 16:24 05.03.2020
1829 Clouds 23 1021 43 10000 3.6 330 15:58 05.03.2020
1830 Clouds 23 1021 43 10000 3.6 330 15:58 05.03.2020
1831 Clouds 23 1021 43 10000 3.6 330 15:38 05.03.2020
1832 Clouds 23 1021 40 10000 3.6 320 15:20 05.03.2020
1833 Clouds 23 1022 43 10000 2.1 300 14:42 05.03.2020
1834 Clouds 21 1022 46 10000 3.1 0 14:23 05.03.2020
1835 Clouds 21 1023 49 10000 2.6 330 13:58 05.03.2020
1836 Clouds 21 1023 49 10000 2.6 330 13:40 05.03.2020
1837 Clouds 20 1023 52 10000 3.1 300 13:20 05.03.2020
1838 Clouds 19 1023 55 10000 4.6 270 12:55 05.03.2020
1839 Clouds 19 1023 55 10000 4.6 270 12:37 05.03.2020
1840 Clouds 18 1023 59 10000 5.1 280 12:18 05.03.2020
1841 Clouds 18 1023 59 10000 4.6 290 11:56 05.03.2020
1842 Clouds 18 1023 59 10000 4.6 290 11:36 05.03.2020
1843 Clouds 18 1022 63 10000 3.6 280 11:18 05.03.2020
1844 Clouds 17 1022 63 10000 3.6 260 10:55 05.03.2020
1845 Clouds 17 1022 63 10000 3.6 260 10:37 05.03.2020
1846 Clouds 16 1022 63 10000 3.6 260 10:19 05.03.2020
1847 Clouds 15 1021 67 10000 3.6 260 09:41 05.03.2020
1848 Clouds 14 1021 58 10000 2.1 270 09:22 05.03.2020
1849 Clouds 13 1020 58 10000 2.1 240 08:43 05.03.2020
1850 Clouds 12 1020 62 10000 2.1 270 08:25 05.03.2020
1851 Clear 12 1020 66 10000 1.5 280 07:45 05.03.2020
1852 Clear 13 1020 62 10000 0.5 0 07:22 05.03.2020
1853 Clear 14 1019 58 10000 0.5 0 06:46 05.03.2020
1854 Clear 14 1019 67 10000 1 0 06:21 05.03.2020
1855 Clear 14 1019 62 10000 1.5 220 05:39 05.03.2020
1856 Clear 16 1020 63 10000 0.5 0 04:26 05.03.2020
1857 Clear 16 1020 63 10000 1 0 03:59 05.03.2020
1858 Clear 16 1021 59 10000 1 0 03:19 05.03.2020
1859 Clear 17 1021 59 10000 1.5 270 01:29 05.03.2020
1860 Clear 19 1021 52 10000 2.6 100 00:58 05.03.2020
1861 Clear 19 1021 55 10000 2.6 110 00:23 05.03.2020
1862 Clear 20 1022 52 10000 1.5 130 23:41 04.03.2020
1863 Clear 20 1022 52 10000 1.5 120 23:22 04.03.2020
1864 Clear 21 1021 52 10000 3.1 110 22:57 04.03.2020
1865 Clear 21 1021 52 10000 3.1 110 22:38 04.03.2020
1866 Clear 22 1021 46 10000 2.6 60 22:19 04.03.2020
1867 Clear 23 1021 43 10000 3.6 30 21:57 04.03.2020
1868 Clear 23 1021 43 10000 3.6 30 21:38 04.03.2020
1869 Clear 25 1021 36 10000 3.6 360 21:19 04.03.2020
1870 Clear 27 1020 21 10000 1 0 20:41 04.03.2020
1871 Clear 28 1020 20 10000 1.5 350 20:23 04.03.2020
1872 Clear 30 1020 19 10000 2.1 340 19:59 04.03.2020
1873 Clear 30 1020 19 10000 2.1 340 19:41 04.03.2020
1874 Clear 31 1020 18 10000 1.5 0 19:22 04.03.2020
1875 Clear 32 1020 17 10000 2.1 350 18:42 04.03.2020
1876 Clear 32 1019 18 10000 2.6 10 18:24 04.03.2020
1877 Clear 32 1019 18 10000 1 0 17:59 04.03.2020
1878 Clear 32 1019 18 10000 1 0 17:40 04.03.2020
1879 Clear 32 1020 18 10000 2.1 0 17:21 04.03.2020
1880 Clear 32 1020 19 10000 2.1 0 16:58 04.03.2020
1881 Clear 32 1020 19 10000 2.1 0 16:38 04.03.2020
1882 Clear 32 1020 18 10000 2.1 340 16:20 04.03.2020
1883 Clear 32 1020 18 10000 1.5 310 15:55 04.03.2020
1884 Clear 32 1020 18 10000 1.5 310 15:36 04.03.2020
1885 Clear 31 1021 20 10000 2.6 330 15:18 04.03.2020
1886 Clear 30 1021 22 10000 2.6 0 14:41 04.03.2020
1887 Clear 31 1022 20 10000 1 0 14:21 04.03.2020
1888 Clear 29 1022 23 10000 2.6 0 13:58 04.03.2020
1889 Clear 29 1022 23 10000 2.6 0 13:58 04.03.2020
1890 Clear 29 1022 23 10000 2.6 0 13:39 04.03.2020
1891 Clear 28 1023 24 10000 3.6 60 13:21 04.03.2020
1892 Clear 26 1023 26 10000 2.6 50 12:56 04.03.2020
1893 Clear 26 1023 26 10000 2.6 50 12:56 04.03.2020
1894 Clear 26 1023 26 10000 2.6 50 12:37 04.03.2020
1895 Clear 25 1023 27 10000 1.5 0 12:19 04.03.2020
1896 Clear 24 1023 31 10000 2.1 20 11:42 04.03.2020
1897 Clear 24 1023 31 10000 2.1 20 11:42 04.03.2020
1898 Clear 22 1023 33 10000 2.1 40 11:23 04.03.2020
1899 Clear 21 1023 35 10000 1.5 60 10:59 04.03.2020
1900 Clear 21 1023 35 10000 1.5 60 10:59 04.03.2020
1901 Clear 21 1023 35 10000 1.5 60 10:41 04.03.2020
1902 Clear 18 1023 42 10000 1.5 70 10:22 04.03.2020
1903 Clear 17 1023 45 10000 2.1 90 09:44 04.03.2020
1904 Clear 15 1023 51 10000 1.5 90 09:21 04.03.2020
1905 Clear 12 1023 58 10000 2.1 80 08:56 04.03.2020
1906 Clear 12 1023 58 10000 2.1 80 08:37 04.03.2020
1907 Clear 12 1023 58 10000 2.1 60 08:19 04.03.2020
1908 Clear 12 1023 62 10000 2.6 70 07:39 04.03.2020
1909 Clear 13 1023 58 10000 3.1 110 07:20 04.03.2020
1910 Clear 13 1023 58 10000 3.1 110 06:47 04.03.2020
1911 Clear 13 1023 58 10000 3.1 110 06:47 04.03.2020
1912 Clear 13 1023 58 10000 3.1 80 06:24 04.03.2020
1913 Clear 14 1023 54 10000 2.1 60 05:54 04.03.2020
1914 Clear 14 1023 54 10000 3.6 110 04:40 04.03.2020
1915 Clear 15 1024 54 10000 2.6 70 03:46 04.03.2020
1916 Clear 15 1024 54 10000 2.1 80 03:27 04.03.2020
1917 Clear 15 1024 51 10000 2.6 100 02:58 04.03.2020
1918 Clear 15 1024 54 10000 2.6 100 02:22 04.03.2020
1919 Clouds 16 1024 51 10000 2.6 100 01:56 04.03.2020
1920 Clear 18 1025 45 10000 2.1 70 00:53 04.03.2020
1921 Clear 18 1025 45 10000 2.1 80 00:27 04.03.2020
1922 Clear 18 1024 45 10000 2.6 90 23:59 03.03.2020
1923 Clear 18 1024 45 10000 2.6 90 23:40 03.03.2020
1924 Clear 20 1024 40 10000 3.1 60 23:22 03.03.2020
1925 Clear 21 1024 37 10000 4.1 60 22:41 03.03.2020
1926 Clear 23 1024 35 10000 4.6 40 22:20 03.03.2020
1927 Clear 23 1024 35 10000 4.6 40 21:58 03.03.2020
1928 Clear 23 1024 35 10000 4.6 40 21:39 03.03.2020
1929 Clear 24 1024 31 10000 3.6 40 21:20 03.03.2020
1930 Clear 24 1023 31 10000 3.6 50 20:55 03.03.2020
1931 Clear 24 1023 31 10000 3.6 50 20:37 03.03.2020
1932 Clear 25 1023 29 10000 3.6 40 20:18 03.03.2020
1933 Clear 25 1023 29 10000 3.6 40 20:18 03.03.2020
1934 Clear 25 1023 29 10000 3.6 40 20:18 03.03.2020
1935 Clear 26 1023 27 10000 4.1 40 19:54 03.03.2020
1936 Clear 26 1023 27 10000 4.1 40 19:36 03.03.2020
1937 Clear 27 1022 24 10000 4.6 30 19:18 03.03.2020
1938 Clear 28 1022 24 10000 5.1 30 18:55 03.03.2020
1939 Clear 28 1022 24 10000 5.1 30 18:36 03.03.2020
1940 Clear 28 1022 26 10000 4.6 30 18:18 03.03.2020
1941 Clear 28 1022 26 10000 4.6 30 17:40 03.03.2020
1942 Clear 28 1022 26 10000 4.1 30 17:21 03.03.2020
1943 Clear 28 1022 26 10000 4.6 20 16:59 03.03.2020
1944 Clear 28 1022 26 10000 4.6 20 16:38 03.03.2020
1945 Clear 28 1022 26 10000 3.1 20 16:20 03.03.2020
1946 Clear 28 1023 28 10000 3.6 10 15:57 03.03.2020
1947 Clear 28 1023 28 10000 3.6 10 15:39 03.03.2020
1948 Clear 28 1023 30 10000 3.1 70 15:19 03.03.2020
1949 Clear 27 1023 32 10000 3.6 60 14:41 03.03.2020
1950 Clouds 27 1024 30 10000 4.1 50 14:20 03.03.2020
1951 Clouds 26 1025 31 10000 2.6 40 13:58 03.03.2020
1952 Clouds 26 1025 31 10000 2.6 40 13:40 03.03.2020
1953 Clouds 23 1025 43 10000 3.6 50 13:20 03.03.2020
1954 Clouds 23 1025 43 10000 3.6 50 12:47 03.03.2020
1955 Clouds 22 1025 43 10000 3.6 50 12:26 03.03.2020
1956 Clouds 21 1025 49 10000 3.6 60 11:58 03.03.2020
1957 Clouds 21 1025 49 10000 3.6 60 11:37 03.03.2020
1958 Clouds 19 1025 55 10000 3.6 50 11:18 03.03.2020
1959 Clouds 19 1025 55 10000 3.6 50 11:18 03.03.2020
1960 Clouds 17 1026 63 10000 3.6 70 10:56 03.03.2020
1961 Clouds 17 1026 63 10000 3.6 70 10:37 03.03.2020
1962 Clouds 16 1025 67 10000 3.6 90 10:18 03.03.2020
1963 Clouds 15 1025 72 10000 2.6 90 09:44 03.03.2020
1964 Clouds 14 1025 76 10000 2.6 100 09:22 03.03.2020
1965 Clouds 13 1025 82 10000 2.6 110 08:57 03.03.2020
1966 Clouds 13 1025 82 10000 2.6 110 08:39 03.03.2020
1967 Clear 11 1024 87 10000 2.1 90 08:20 03.03.2020
1968 Clear 12 1024 81 8000 1.5 60 07:43 03.03.2020
1969 Clear 12 1024 81 8000 1.5 90 07:20 03.03.2020
1970 Clear 12 1023 81 8000 2.1 80 06:43 03.03.2020
1971 Clear 12 1023 81 8000 2.1 80 06:22 03.03.2020
1972 Clear 12 1024 81 8000 1.5 80 05:47 03.03.2020
1973 Clear 13 1024 76 8000 2.6 90 05:18 03.03.2020
1974 Clear 14 1024 71 8000 2.1 90 04:24 03.03.2020
1975 Clouds 16 1024 67 8000 2.6 50 01:40 03.03.2020
1976 Clouds 17 1024 63 10000 3.6 50 00:49 03.03.2020
1977 Clouds 17 1024 59 10000 3.1 60 00:26 03.03.2020
1978 Clouds 18 1024 52 10000 2.6 70 23:57 02.03.2020
1979 Clouds 18 1024 52 10000 2.6 70 23:38 02.03.2020
1980 Clear 18 1024 52 10000 2.6 70 23:19 02.03.2020
1981 Clear 19 1024 52 10000 3.6 70 22:54 02.03.2020
1982 Clear 19 1024 52 10000 3.6 70 22:36 02.03.2020
1983 Clear 20 1024 49 10000 3.6 30 22:18 02.03.2020
1984 Clear 21 1024 43 10000 3.6 20 21:41 02.03.2020
1985 Clear 21 1023 43 10000 2.6 10 21:23 02.03.2020
1986 Clear 22 1023 35 10000 2.1 10 20:58 02.03.2020
1987 Clear 22 1023 35 10000 2.1 10 20:39 02.03.2020
1988 Clouds 23 1022 33 8000 2.6 330 20:20 02.03.2020
1989 Clouds 23 1022 38 8000 2.6 330 19:55 02.03.2020
1990 Clouds 23 1022 38 8000 2.6 330 19:37 02.03.2020
1991 Clouds 24 1022 38 8000 2.1 350 19:18 02.03.2020
1992 Clouds 25 1022 36 8000 1.5 0 18:44 02.03.2020
1993 Clouds 25 1022 36 8000 1.5 0 18:20 02.03.2020
1994 Clouds 24 1022 41 8000 3.1 330 17:59 02.03.2020
1995 Clouds 24 1022 41 8000 3.1 330 17:40 02.03.2020
1996 Clouds 25 1022 41 8000 2.6 330 17:21 02.03.2020
1997 Clouds 25 1022 41 8000 2.6 330 17:21 02.03.2020
1998 Clouds 24 1022 47 8000 2.1 0 16:55 02.03.2020
1999 Clouds 24 1022 47 8000 2.1 0 16:37 02.03.2020
2000 Clouds 24 1022 44 8000 2.6 330 16:19 02.03.2020
2001 Clouds 23 1022 49 8000 1.5 0 15:43 02.03.2020
2002 Clouds 23 1023 49 8000 1.5 60 15:20 02.03.2020
2003 Clouds 23 1023 49 8000 1.5 60 15:20 02.03.2020
2004 Clouds 22 1023 53 8000 2.1 0 14:55 02.03.2020
2005 Clouds 22 1024 53 8000 2.1 0 14:36 02.03.2020
2006 Clouds 22 1024 53 8000 2.1 0 14:18 02.03.2020
2007 Clouds 20 1024 60 8000 2.6 10 13:39 02.03.2020
2008 Clouds 19 1024 63 8000 5.1 330 13:19 02.03.2020
2009 Clouds 19 1024 68 8000 3.6 330 12:54 02.03.2020
2010 Clouds 19 1024 68 8000 3.6 330 12:36 02.03.2020
2011 Clouds 19 1023 63 10000 2.6 330 12:18 02.03.2020
2012 Clouds 19 1024 59 10000 2.6 330 11:37 02.03.2020
2013 Clouds 18 1023 63 10000 1.5 140 11:18 02.03.2020
2014 Clouds 17 1023 72 8000 3.6 140 10:55 02.03.2020
2015 Clouds 17 1023 72 8000 3.6 140 10:36 02.03.2020
2016 Clouds 16 1023 82 5000 1.5 100 10:18 02.03.2020
2017 Clouds 14 1023 87 5000 2.1 30 09:44 02.03.2020
2018 Clouds 14 1023 87 5000 2.1 30 09:25 02.03.2020
2019 Clouds 14 1023 82 8000 1.5 350 08:47 02.03.2020
2020 Clouds 13 1022 87 8000 1.5 250 08:22 02.03.2020
2021 Clouds 14 1022 82 8000 3.6 190 07:44 02.03.2020
2022 Clouds 14 1022 82 8000 3.6 190 07:44 02.03.2020
2023 Clouds 13 1023 87 5000 2.1 220 07:20 02.03.2020
2024 Clouds 13 1023 87 5000 3.1 230 06:49 02.03.2020
2025 Clouds 13 1023 87 10000 4.6 210 05:57 02.03.2020
2026 Clouds 12 1022 87 10000 3.1 250 04:51 02.03.2020
2027 Clouds 15 1021 82 10000 2.6 220 03:23 02.03.2020
2028 Clouds 14 1021 82 10000 3.6 220 02:49 02.03.2020
2029 Clouds 14 1022 76 10000 3.1 240 01:54 02.03.2020
2030 Clouds 15 1022 72 10000 3.6 230 01:32 02.03.2020
2031 Clouds 15 1022 67 10000 1.5 280 00:24 02.03.2020
2032 Clouds 17 1022 63 10000 1 0 23:59 01.03.2020
2033 Clouds 17 1022 63 10000 1 0 23:40 01.03.2020
2034 Clear 18 1022 59 10000 1 0 23:20 01.03.2020
2035 Clear 19 1022 55 10000 2.1 40 22:43 01.03.2020
2036 Clear 20 1022 52 10000 2.6 20 22:21 01.03.2020
2037 Clear 20 1022 52 10000 2.6 20 22:21 01.03.2020
2038 Clear 21 1021 46 10000 3.1 20 21:57 01.03.2020
2039 Clear 21 1021 46 10000 3.1 20 21:57 01.03.2020
2040 Clear 21 1021 46 10000 3.1 20 21:38 01.03.2020
2041 Clear 22 1021 35 10000 1.5 10 21:19 01.03.2020
2042 Clear 22 1021 37 10000 2.6 350 20:44 01.03.2020
2043 Clear 23 1020 35 10000 2.1 10 20:25 01.03.2020
2044 Clouds 23 1020 35 10000 2.1 10 20:25 01.03.2020
2045 Clouds 23 1020 35 10000 2.1 10 19:59 01.03.2020
2046 Clouds 23 1020 35 10000 2.1 10 19:59 01.03.2020
2047 Clouds 23 1020 35 10000 2.1 10 19:40 01.03.2020
2048 Clouds 24 1020 33 10000 1.5 350 19:21 01.03.2020
2049 Clouds 25 1019 33 10000 1 0 18:41 01.03.2020
2050 Clouds 25 1020 33 10000 2.1 20 18:21 01.03.2020
2051 Clouds 25 1020 33 10000 2.1 20 18:21 01.03.2020
2052 Clouds 25 1019 31 10000 2.6 360 17:58 01.03.2020
2053 Clouds 25 1019 31 10000 2.6 360 17:40 01.03.2020
2054 Clouds 25 1019 31 10000 2.6 330 17:22 01.03.2020
2055 Clouds 25 1019 33 10000 2.1 340 16:59 01.03.2020
2056 Clouds 25 1019 33 10000 2.1 340 16:39 01.03.2020
2057 Clouds 25 1019 33 10000 2.1 340 16:39 01.03.2020
2058 Clouds 24 1019 36 10000 2.6 350 16:19 01.03.2020
2059 Clouds 25 1020 36 10000 2.1 340 15:58 01.03.2020
2060 Clouds 25 1020 36 10000 2.1 340 15:40 01.03.2020
2061 Clouds 24 1020 36 10000 1.5 360 15:20 01.03.2020
2062 Clouds 24 1021 41 10000 1.5 0 14:57 01.03.2020
2063 Clouds 24 1021 41 10000 1.5 0 14:39 01.03.2020
2064 Clouds 22 1021 46 10000 1.5 0 14:21 01.03.2020
2065 Clouds 21 1021 49 10000 2.1 140 13:56 01.03.2020
2066 Clouds 21 1021 49 10000 2.1 140 13:38 01.03.2020
2067 Clouds 21 1022 49 8000 2.1 30 13:19 01.03.2020
2068 Clouds 19 1023 55 8000 2.6 340 12:43 01.03.2020
2069 Clouds 18 1023 59 8000 2.6 340 12:23 01.03.2020
2070 Clouds 18 1023 59 8000 1.5 0 11:58 01.03.2020
2071 Clouds 18 1023 59 8000 1.5 0 11:39 01.03.2020
2072 Clear 17 1023 59 8000 1.5 70 11:19 01.03.2020
2073 Clear 15 1023 72 8000 2.6 360 10:55 01.03.2020
2074 Clear 15 1023 72 8000 2.6 360 10:36 01.03.2020
2075 Clear 15 1023 72 8000 2.6 360 10:36 01.03.2020
2076 Clear 14 1022 71 8000 3.1 360 10:18 01.03.2020
2077 Clear 13 1023 76 8000 3.6 360 09:41 01.03.2020
2078 Clear 13 1023 76 8000 2.6 140 09:22 01.03.2020
2079 Clear 11 1022 87 8000 4.6 160 08:46 01.03.2020
2080 Clear 11 1023 87 8000 3.1 160 08:27 01.03.2020
2081 Clouds 10 1024 93 8000 2.1 180 07:47 01.03.2020
2082 Clouds 10 1024 87 8000 1.5 280 07:28 01.03.2020
2083 Clouds 11 1023 81 8000 1 0 06:58 01.03.2020
2084 Clouds 11 1023 87 8000 2.1 300 06:40 01.03.2020
2085 Clouds 11 1022 81 8000 2.1 270 04:47 01.03.2020
2086 Clouds 12 1023 81 8000 3.6 230 02:58 01.03.2020
2087 Clear 13 1023 76 8000 3.6 230 02:18 01.03.2020
2088 Clear 13 1023 76 8000 3.6 220 01:36 01.03.2020
2089 Clear 14 1023 67 8000 2.1 220 00:49 01.03.2020
2090 Clear 15 1023 62 8000 2.6 210 00:25 01.03.2020
2091 Clear 16 1023 63 8000 1 0 23:58 29.02.2020
2092 Clear 16 1023 63 8000 1 0 23:40 29.02.2020
2093 Clear 15 1023 58 8000 1 0 23:21 29.02.2020
2094 Clear 17 1023 55 8000 0.5 0 22:37 29.02.2020
2095 Clear 17 1023 55 8000 1.5 280 22:19 29.02.2020
2096 Clear 17 1023 55 8000 1.5 240 21:39 29.02.2020
2097 Clear 18 1023 52 10000 2.1 240 21:19 29.02.2020
2098 Clear 20 1022 45 10000 2.6 210 20:41 29.02.2020
2099 Clear 20 1022 45 10000 2.6 230 20:20 29.02.2020
2100 Clear 20 1022 45 10000 2.6 240 19:55 29.02.2020
2101 Clear 20 1022 45 10000 2.6 240 19:36 29.02.2020
2102 Clear 21 1021 43 10000 2.1 240 19:18 29.02.2020
2103 Clear 22 1021 43 10000 1.5 0 18:42 29.02.2020
2104 Clear 22 1021 43 10000 2.6 230 18:22 29.02.2020
2105 Clear 22 1021 43 10000 1.5 0 17:56 29.02.2020
2106 Clear 22 1021 43 10000 1.5 0 17:37 29.02.2020
2107 Clear 22 1021 43 10000 1 0 17:19 29.02.2020
2108 Clear 21 1022 46 10000 3.1 300 16:44 29.02.2020
2109 Clear 22 1022 46 10000 2.6 350 16:19 29.02.2020
2110 Clear 21 1022 49 10000 2.1 0 15:56 29.02.2020
2111 Clear 21 1022 49 10000 2.1 0 15:36 29.02.2020
2112 Clear 20 1022 49 10000 2.6 0 15:18 29.02.2020
2113 Clouds 20 1023 52 8000 1 0 14:39 29.02.2020
2114 Clouds 18 1023 55 8000 2.1 250 14:21 29.02.2020
2115 Clouds 17 1024 63 8000 2.1 0 13:45 29.02.2020
2116 Clouds 17 1024 63 8000 2.1 0 13:45 29.02.2020
2117 Clouds 17 1024 63 8000 2.1 0 13:27 29.02.2020
2118 Clouds 16 1024 67 8000 2.6 300 12:57 29.02.2020
2119 Clouds 16 1024 67 8000 2.6 300 12:38 29.02.2020
2120 Clouds 15 1024 72 8000 2.1 320 12:20 29.02.2020
2121 Clouds 15 1024 72 6000 2.6 300 11:45 29.02.2020
2122 Clouds 14 1024 76 6000 3.1 320 11:26 29.02.2020
2123 Mist 14 1024 82 4000 2.6 300 10:51 29.02.2020
2124 Mist 12 1024 87 3000 2.1 290 10:31 29.02.2020
2125 Mist 12 1023 87 3000 2.6 260 09:56 29.02.2020
2126 Mist 12 1023 87 3000 2.6 260 09:56 29.02.2020
2127 Mist 12 1023 87 3000 2.6 260 09:37 29.02.2020
2128 Mist 12 1023 87 3000 3.6 260 09:18 29.02.2020
2129 Mist 11 1023 87 3000 6.2 270 08:40 29.02.2020
2130 Clouds 12 1022 87 5000 5.1 260 08:20 29.02.2020
2131 Clouds 10 1022 87 5000 5.1 260 07:51 29.02.2020
2132 Clouds 10 1022 87 5000 5.1 260 07:22 29.02.2020
2133 Clouds 11 1021 62 10000 3.1 270 06:54 29.02.2020
2134 Clouds 12 1021 54 10000 3.6 260 06:29 29.02.2020
2135 Clouds 11 1021 57 10000 2.1 260 05:50 29.02.2020
2136 Clouds 12 1021 50 10000 2.6 250 05:31 29.02.2020
2137 Clouds 15 1021 43 10000 1 0 03:59 29.02.2020
2138 Clouds 15 1021 38 10000 1 0 03:24 29.02.2020
2139 Clouds 15 1021 43 10000 2.6 100 02:57 29.02.2020
2140 Clouds 17 1022 41 10000 0.5 0 01:58 29.02.2020
2141 Clouds 17 1022 33 10000 0.5 0 00:51 29.02.2020
2142 Clouds 18 1022 31 10000 1 0 00:27 29.02.2020
2143 Clouds 18 1022 31 10000 0.5 0 23:41 28.02.2020
2144 Clouds 19 1022 43 10000 1 0 23:22 28.02.2020
2145 Clouds 21 1022 26 10000 2.6 120 22:43 28.02.2020
2146 Clouds 21 1022 26 10000 3.1 100 22:22 28.02.2020
2147 Clouds 23 1021 23 10000 1 0 21:42 28.02.2020
2148 Clouds 23 1021 23 10000 1.5 340 21:22 28.02.2020
2149 Clouds 24 1021 22 10000 2.6 330 20:58 28.02.2020
2150 Clouds 24 1021 22 10000 2.6 330 20:39 28.02.2020
2151 Clouds 25 1020 20 10000 3.6 300 20:20 28.02.2020
2152 Clouds 26 1020 21 10000 3.1 320 19:57 28.02.2020
2153 Clouds 26 1020 21 10000 3.1 320 19:57 28.02.2020
2154 Clouds 26 1020 21 10000 3.1 320 19:38 28.02.2020
2155 Clouds 27 1019 21 10000 3.6 280 19:20 28.02.2020
2156 Clouds 28 1019 15 10000 4.6 300 18:46 28.02.2020
2157 Clouds 28 1019 15 10000 4.1 290 18:25 28.02.2020
2158 Clouds 28 1019 15 10000 4.6 290 17:57 28.02.2020
2159 Clouds 28 1019 15 10000 4.6 290 17:38 28.02.2020
2160 Clouds 30 1019 13 10000 4.6 290 17:20 28.02.2020
2161 Clouds 30 1019 13 10000 2.6 310 16:38 28.02.2020
2162 Clouds 31 1019 12 10000 4.6 300 16:19 28.02.2020
2163 Clouds 30 1019 12 10000 3.6 300 15:56 28.02.2020
2164 Clouds 30 1019 12 10000 3.6 300 15:38 28.02.2020
2165 Clouds 30 1019 12 10000 4.1 310 15:18 28.02.2020
2166 Clouds 29 1020 16 10000 3.1 310 14:45 28.02.2020
2167 Clear 29 1020 17 10000 2.1 20 14:20 28.02.2020
2168 Clear 28 1021 18 10000 1.5 0 13:59 28.02.2020
2169 Clear 28 1021 18 10000 1.5 0 13:40 28.02.2020
2170 Clear 27 1021 19 10000 1.5 0 13:20 28.02.2020
2171 Clear 26 1022 22 10000 2.1 340 12:46 28.02.2020
2172 Clear 26 1022 21 10000 1.5 330 12:28 28.02.2020
2173 Clear 25 1022 22 10000 1 0 11:59 28.02.2020
2174 Clear 25 1022 22 10000 1 0 11:40 28.02.2020
2175 Clear 24 1022 25 10000 0.5 0 11:21 28.02.2020
2176 Clear 19 1022 32 10000 1.5 70 10:43 28.02.2020
2177 Clear 19 1022 32 10000 1.5 70 10:24 28.02.2020
2178 Clear 17 1021 36 8000 1 0 09:55 28.02.2020
2179 Clear 17 1021 36 8000 1 0 09:36 28.02.2020
2180 Clear 14 1021 41 8000 1.5 110 09:18 28.02.2020
2181 Clear 11 1021 50 8000 2.1 80 08:42 28.02.2020
2182 Clear 10 1021 53 8000 2.6 90 08:20 28.02.2020
2183 Clear 11 1021 50 8000 2.1 90 07:45 28.02.2020
2184 Clear 11 1021 50 8000 1.5 80 07:25 28.02.2020
2185 Clear 11 1020 50 8000 2.1 80 06:50 28.02.2020
2186 Clear 12 1020 46 8000 1.5 80 06:30 28.02.2020
2187 Clear 13 1021 43 8000 1 0 05:29 28.02.2020
2188 Clear 14 1021 36 8000 2.1 90 04:31 28.02.2020
2189 Clear 16 1021 36 8000 1.5 140 02:48 28.02.2020
2190 Clear 15 1022 36 8000 0.5 0 02:28 28.02.2020
2191 Clear 17 1021 37 8000 1.5 140 01:46 28.02.2020
2192 Clear 17 1022 33 10000 0.5 0 00:31 28.02.2020
2193 Clear 20 1022 38 10000 2.1 110 23:45 27.02.2020
2194 Clear 20 1022 38 10000 2.1 110 23:22 27.02.2020
2195 Clear 20 1022 28 10000 1.5 80 22:56 27.02.2020
2196 Clear 20 1022 28 10000 1.5 80 22:38 27.02.2020
2197 Clear 19 1022 29 10000 2.1 100 22:20 27.02.2020
2198 Clear 22 1021 24 10000 1 0 21:41 27.02.2020
2199 Clear 21 1021 28 10000 0.5 0 21:23 27.02.2020
2200 Clear 23 1021 25 10000 1 0 20:59 27.02.2020
2201 Clear 23 1021 25 10000 1 0 20:41 27.02.2020
2202 Clear 24 1021 23 10000 1.5 300 20:21 27.02.2020
2203 Clear 26 1020 19 10000 1.5 340 19:57 27.02.2020
2204 Clear 26 1020 19 10000 1.5 340 19:38 27.02.2020
2205 Clear 27 1020 18 10000 1.5 310 19:19 27.02.2020
2206 Clear 28 1020 18 10000 2.6 320 18:43 27.02.2020
2207 Clear 28 1020 18 10000 2.6 330 18:24 27.02.2020
2208 Clear 29 1020 20 10000 1 0 17:59 27.02.2020
2209 Clear 29 1020 20 10000 1 0 17:40 27.02.2020
2210 Clear 29 1020 20 10000 1 0 17:20 27.02.2020
2211 Clear 29 1020 20 10000 1 0 16:59 27.02.2020
2212 Clear 29 1020 20 10000 1 0 16:40 27.02.2020
2213 Clear 28 1020 18 10000 1.5 0 16:20 27.02.2020
2214 Clear 28 1020 20 10000 2.1 0 15:58 27.02.2020
2215 Clear 28 1020 20 10000 2.1 0 15:37 27.02.2020
2216 Clear 27 1021 19 10000 2.6 60 15:19 27.02.2020
2217 Clear 26 1021 22 10000 2.6 40 14:56 27.02.2020
2218 Clear 25 1022 22 10000 2.6 20 14:37 27.02.2020
2219 Clear 25 1022 22 10000 2.6 20 14:19 27.02.2020
2220 Clear 25 1022 23 10000 2.1 360 13:42 27.02.2020
2221 Clear 22 1022 30 10000 2.1 340 13:21 27.02.2020
2222 Clear 22 1022 30 10000 2.1 340 13:21 27.02.2020
2223 Clear 22 1022 33 10000 2.1 330 12:55 27.02.2020
2224 Clear 22 1022 33 10000 2.1 330 12:37 27.02.2020
2225 Clear 20 1023 37 10000 1.5 360 12:18 27.02.2020
2226 Clear 19 1023 39 10000 1 0 11:41 27.02.2020
2227 Clear 18 1023 45 10000 2.1 60 11:21 27.02.2020
2228 Clear 18 1023 45 10000 2.1 60 11:21 27.02.2020
2229 Clear 17 1023 51 10000 1 0 10:44 27.02.2020
2230 Clear 15 1023 58 10000 2.1 110 10:23 27.02.2020
2231 Clear 14 1022 58 10000 3.1 100 09:49 27.02.2020
2232 Clear 12 1022 58 10000 1.5 90 09:29 27.02.2020
2233 Clear 10 1021 76 10000 1.5 40 08:58 27.02.2020
2234 Clear 10 1021 76 10000 1.5 40 08:40 27.02.2020
2235 Clear 10 1021 76 10000 1.5 40 08:22 27.02.2020
2236 Clear 9 1021 81 10000 1.5 80 07:44 27.02.2020
2237 Clear 10 1021 76 10000 0.5 0 07:25 27.02.2020
2238 Clear 10 1021 81 10000 1 0 06:46 27.02.2020
2239 Clear 10 1021 76 10000 2.1 240 05:35 27.02.2020
2240 Clear 12 1021 58 10000 0.5 0 03:38 27.02.2020
2241 Clear 13 1022 66 10000 1.5 60 02:20 27.02.2020
2242 Clear 15 1022 62 10000 2.6 90 00:45 27.02.2020
2243 Clear 16 1022 59 10000 3.1 70 00:26 27.02.2020
2244 Clear 16 1022 55 10000 3.1 70 23:40 26.02.2020
2245 Clear 16 1022 55 10000 3.1 70 23:40 26.02.2020
2246 Clear 18 1022 48 10000 3.6 60 23:19 26.02.2020
2247 Clear 18 1022 48 10000 4.6 50 22:57 26.02.2020
2248 Clear 18 1022 48 10000 4.6 50 22:39 26.02.2020
2249 Clear 19 1022 37 10000 4.1 30 22:19 26.02.2020
2250 Clear 19 1021 29 10000 2.6 60 21:55 26.02.2020
2251 Clear 18 1021 31 10000 2.6 90 21:36 26.02.2020
2252 Clear 18 1021 31 10000 2.6 90 21:18 26.02.2020
2253 Clear 21 1021 40 10000 2.1 40 20:54 26.02.2020
2254 Clear 21 1021 40 10000 2.1 40 20:54 26.02.2020
2255 Clear 21 1021 40 10000 2.1 40 20:36 26.02.2020
2256 Clear 22 1021 24 10000 2.6 30 20:18 26.02.2020
2257 Clear 23 1021 23 10000 3.6 30 19:44 26.02.2020
2258 Clear 24 1020 22 10000 4.1 30 19:20 26.02.2020
2259 Clear 24 1021 24 10000 4.1 40 18:58 26.02.2020
2260 Clear 24 1021 24 10000 4.1 40 18:40 26.02.2020
2261 Clear 25 1020 20 10000 3.6 50 18:22 26.02.2020
2262 Clear 25 1020 20 10000 3.6 50 18:22 26.02.2020
2263 Clear 24 1021 24 10000 3.6 40 17:42 26.02.2020
2264 Clear 24 1021 24 10000 3.6 40 17:42 26.02.2020
2265 Clear 25 1021 22 10000 4.1 50 17:24 26.02.2020
2266 Clear 25 1021 22 10000 4.6 30 16:57 26.02.2020
2267 Clear 25 1021 22 10000 4.6 30 16:39 26.02.2020
2268 -273 0 0 0 0 0 16:21 26.02.2020
2269 Clear 25 1021 23 10000 4.6 30 15:48 26.02.2020
2270 Clear 24 1021 25 10000 2.1 0 15:29 26.02.2020
2271 Clear 25 1021 25 10000 2.6 0 14:59 26.02.2020
2272 Clear 25 1021 25 10000 2.6 0 14:41 26.02.2020
2273 Clear 23 1022 28 10000 2.6 0 14:22 26.02.2020
2274 Clear 21 1023 32 10000 3.1 40 13:43 26.02.2020
2275 Clear 20 1023 34 10000 3.1 40 13:22 26.02.2020
2276 Clear 20 1023 40 10000 2.6 0 12:42 26.02.2020
2277 Clear 19 1023 37 10000 2.1 40 12:22 26.02.2020
2278 Clear 15 1024 58 10000 2.6 90 11:59 26.02.2020
2279 Clear 15 1024 58 10000 2.6 90 11:40 26.02.2020
2280 Clear 15 1024 58 10000 2.6 90 11:22 26.02.2020
2281 Clear 14 1024 62 8000 3.1 110 10:43 26.02.2020
2282 Clear 13 1025 66 8000 2.1 70 10:24 26.02.2020
2283 Clear 12 1024 71 8000 2.1 80 09:59 26.02.2020
2284 Clear 12 1024 71 8000 2.1 80 09:40 26.02.2020
2285 Clear 12 1024 71 8000 2.6 30 09:21 26.02.2020
2286 Clear 9 1023 81 8000 2.1 100 08:54 26.02.2020
2287 Clear 9 1023 81 8000 2.1 100 08:36 26.02.2020
2288 Clear 9 1023 81 8000 2.1 100 08:18 26.02.2020
2289 Clear 10 1023 81 8000 1 0 07:41 26.02.2020
2290 Clear 10 1023 81 8000 1 0 07:21 26.02.2020
2291 Clear 10 1023 81 8000 1 0 06:48 26.02.2020
2292 Clear 11 1023 76 8000 1.5 50 06:27 26.02.2020
2293 Clear 11 1023 76 8000 1 0 05:48 26.02.2020
2294 Clear 11 1023 76 8000 2.1 40 05:19 26.02.2020
2295 Clear 12 1024 71 10000 1.5 90 03:34 26.02.2020
2296 Clear 13 1025 71 10000 2.1 80 01:59 26.02.2020
2297 Clear 14 1025 67 10000 2.1 80 01:26 26.02.2020
2298 Clear 14 1025 67 10000 2.6 80 00:46 26.02.2020
2299 Clear 14 1025 67 10000 2.6 80 00:46 26.02.2020
2300 Clear 15 1025 62 10000 3.1 70 00:21 26.02.2020
2301 Clear 16 1025 59 10000 4.1 50 23:42 25.02.2020
2302 Clear 16 1025 59 10000 3.6 50 23:24 25.02.2020
2303 Clear 17 1025 55 10000 4.1 40 22:57 25.02.2020
2304 Clear 17 1025 55 10000 4.1 40 22:39 25.02.2020
2305 Clear 17 1024 55 10000 4.6 40 22:19 25.02.2020
2306 Clear 19 1024 45 10000 6.2 20 21:38 25.02.2020
2307 Clear 21 1023 22 10000 3.1 20 21:20 25.02.2020
2308 Clear 21 1023 16 10000 3.1 20 20:57 25.02.2020
2309 Clear 21 1023 16 10000 3.1 20 20:39 25.02.2020
2310 Clear 22 1023 15 10000 3.1 20 20:20 25.02.2020
2311 Clear 23 1022 15 10000 3.6 20 19:56 25.02.2020
2312 Clear 23 1022 15 10000 3.6 20 19:38 25.02.2020
2313 Clear 25 1022 13 10000 2.6 360 19:19 25.02.2020
2314 Clear 25 1022 13 10000 2.6 10 18:41 25.02.2020
2315 Clear 26 1022 12 10000 1.5 0 18:21 25.02.2020
2316 Clear 26 1022 12 10000 1.5 0 18:21 25.02.2020
2317 Clear 26 1023 12 10000 2.1 320 17:56 25.02.2020
2318 Clear 26 1023 12 10000 2.1 320 17:37 25.02.2020
2319 Clear 26 1023 11 10000 2.6 340 17:19 25.02.2020
2320 Clear 26 1023 11 10000 2.6 340 17:19 25.02.2020
2321 Clear 27 1023 12 10000 2.1 10 16:57 25.02.2020
2322 Clear 27 1023 12 10000 2.1 10 16:38 25.02.2020
2323 Clear 26 1024 13 10000 2.1 10 16:20 25.02.2020
2324 Clear 26 1024 14 10000 3.1 330 15:55 25.02.2020
2325 Clear 26 1024 14 10000 3.1 330 15:36 25.02.2020
2326 Clear 26 1025 13 10000 3.1 300 15:18 25.02.2020
2327 Clear 25 1025 16 10000 2.6 10 14:54 25.02.2020
2328 Clear 25 1025 16 10000 2.6 10 14:36 25.02.2020
2329 Clear 24 1026 17 10000 3.6 350 14:18 25.02.2020
2330 Clear 24 1026 17 10000 3.6 350 14:18 25.02.2020
2331 Clear 24 1026 20 10000 3.1 340 13:42 25.02.2020
2332 -273 0 0 0 0 0 13:21 25.02.2020
2333 Clear 23 1026 25 10000 1 0 12:59 25.02.2020
2334 Clear 23 1026 25 10000 1 0 12:39 25.02.2020
2335 Clear 22 1027 28 10000 1.5 10 12:20 25.02.2020
2336 Clear 21 1027 30 10000 1 0 11:56 25.02.2020
2337 Clear 21 1027 30 10000 1 0 11:38 25.02.2020
2338 Clear 19 1027 34 10000 1.5 100 11:18 25.02.2020
2339 Clear 19 1027 34 10000 1.5 100 11:18 25.02.2020
2340 Clear 18 1027 34 10000 1 0 10:42 25.02.2020
2341 Clear 16 1027 38 10000 0.5 0 10:23 25.02.2020
2342 Clear 14 1027 44 10000 1.5 20 09:57 25.02.2020
2343 Clear 14 1027 44 10000 1.5 20 09:39 25.02.2020
2344 Clear 13 1026 47 10000 1 0 09:18 25.02.2020
2345 Clear 11 1026 50 10000 2.6 110 08:42 25.02.2020
2346 Clear 10 1026 53 10000 2.6 120 08:24 25.02.2020
2347 Clouds 10 1026 57 10000 2.1 80 07:49 25.02.2020
2348 Clouds 11 1026 53 10000 1 0 07:24 25.02.2020
2349 Clouds 11 1026 53 10000 1 0 06:56 25.02.2020
2350 Clouds 14 1026 44 10000 1 0 05:54 25.02.2020
2351 Clouds 13 1026 47 10000 1.5 160 05:19 25.02.2020
2352 Clouds 15 1027 41 10000 2.6 250 02:37 25.02.2020
2353 Clouds 17 1028 36 10000 2.6 250 00:58 25.02.2020
2354 Clouds 20 1028 28 10000 4.1 210 00:32 25.02.2020
2355 Clouds 20 1028 28 10000 4.1 210 23:48 24.02.2020
2356 Clouds 20 1028 30 10000 4.6 220 23:29 24.02.2020
2357 Clouds 20 1028 30 10000 4.6 220 22:59 24.02.2020
2358 Clouds 20 1028 30 10000 4.6 220 22:37 24.02.2020
2359 Clouds 20 1027 30 10000 2.6 240 22:18 24.02.2020
2360 Clouds 20 1027 30 10000 2.1 280 21:55 24.02.2020
2361 Clouds 23 1027 25 10000 2.1 320 21:36 24.02.2020
2362 Clouds 20 1027 30 10000 2.1 280 21:36 24.02.2020
2363 Clouds 23 1027 25 10000 2.1 320 21:18 24.02.2020
2364 Clouds 23 1026 23 10000 2.1 290 20:42 24.02.2020
2365 Clouds 23 1026 23 8000 2.6 280 20:21 24.02.2020
2366 Clouds 25 1026 20 8000 3.1 290 19:59 24.02.2020
2367 Clouds 25 1026 20 8000 3.1 290 19:41 24.02.2020
2368 Clouds 27 1026 17 8000 2.1 310 19:23 24.02.2020
2369 Clouds 27 1026 17 8000 3.1 300 18:59 24.02.2020
2370 Clouds 27 1026 17 8000 3.1 300 18:41 24.02.2020
2371 Clouds 28 1026 17 8000 3.6 290 18:22 24.02.2020
2372 Clouds 29 1026 17 10000 3.1 290 17:55 24.02.2020
2373 Clouds 29 1026 17 10000 3.1 290 17:36 24.02.2020
2374 Clouds 29 1026 11 10000 2.6 300 17:18 24.02.2020
2375 Clouds 29 1026 11 10000 3.1 300 16:54 24.02.2020
2376 Clouds 29 1026 11 10000 3.1 300 16:36 24.02.2020
2377 Clouds 29 1026 11 10000 3.6 280 16:18 24.02.2020
2378 Clouds 28 1026 11 10000 1.5 0 15:54 24.02.2020
2379 Clouds 28 1026 11 10000 1.5 0 15:36 24.02.2020
2380 Clouds 28 1027 11 10000 2.6 310 15:18 24.02.2020
2381 Clouds 28 1027 11 10000 2.6 310 14:40 24.02.2020
2382 Clouds 28 1028 11 10000 2.6 0 14:21 24.02.2020
2383 Clouds 28 1028 12 10000 2.6 0 14:21 24.02.2020
2384 Clouds 28 1028 18 10000 2.6 330 13:58 24.02.2020
2385 Clouds 28 1028 18 10000 2.6 330 13:39 24.02.2020
2386 Clouds 28 1028 18 10000 2.6 330 13:39 24.02.2020
2387 Clouds 27 1028 21 10000 3.1 350 13:20 24.02.2020
2388 Clouds 27 1029 19 10000 2.1 350 12:57 24.02.2020
2389 Clouds 27 1029 19 10000 2.1 350 12:38 24.02.2020
2390 Clouds 28 1029 17 10000 0.5 0 12:20 24.02.2020
2391 Clouds 25 1029 20 10000 1 0 11:46 24.02.2020
2392 Clouds 23 1029 13 10000 1.5 150 11:28 24.02.2020
2393 Clouds 20 1029 28 10000 1.5 80 10:47 24.02.2020
2394 Clouds 18 1029 15 10000 2.1 110 10:29 24.02.2020
2395 Clouds 16 1029 15 10000 1.5 110 09:54 24.02.2020
2396 Clouds 16 1029 15 10000 1.5 110 09:36 24.02.2020
2397 Clouds 13 1028 15 10000 1.5 80 09:18 24.02.2020
2398 Clouds 11 1028 15 10000 1.5 100 08:46 24.02.2020
2399 Clouds 11 1028 40 10000 1.5 80 08:27 24.02.2020
2400 Clouds 14 1028 33 10000 1 0 07:46 24.02.2020
2401 Clouds 12 1028 40 10000 1.5 140 07:27 24.02.2020
2402 Clouds 15 1028 30 10000 2.1 150 06:37 24.02.2020
2403 Clouds 12 1027 40 10000 1.5 70 06:18 24.02.2020
2404 Clouds 13 1027 37 10000 0.5 0 05:30 24.02.2020
2405 Clouds 16 1027 29 10000 1 0 04:25 24.02.2020
2406 Clouds 16 1027 31 10000 2.6 180 02:55 24.02.2020
2407 Clear 16 1028 31 10000 0.5 0 01:46 24.02.2020
2408 Clear 18 1028 27 10000 1 0 00:59 24.02.2020
2409 Clear 18 1027 28 10000 1 0 00:36 24.02.2020
2410 Clear 18 1027 28 10000 1 0 00:18 24.02.2020
2411 Clear 18 1027 27 10000 1.5 290 23:41 23.02.2020
2412 Clear 21 1027 22 10000 1 0 23:20 23.02.2020
2413 Clear 21 1027 22 10000 3.1 140 22:57 23.02.2020
2414 Clear 21 1027 22 10000 3.1 140 22:39 23.02.2020
2415 Clear 20 1026 22 10000 2.6 110 22:19 23.02.2020
2416 Clear 20 1026 22 10000 2.6 100 21:45 23.02.2020
2417 Clear 21 1026 21 10000 2.1 70 21:20 23.02.2020
2418 Clear 24 1026 17 10000 1 0 20:57 23.02.2020
2419 Clear 24 1026 17 10000 1 0 20:57 23.02.2020
2420 Clear 24 1026 17 10000 1 0 20:39 23.02.2020
2421 Clear 25 1025 17 10000 2.1 20 20:20 23.02.2020
2422 Clear 26 1025 15 10000 2.1 350 19:57 23.02.2020
2423 Clear 26 1025 15 10000 2.1 350 19:38 23.02.2020
2424 Clouds 28 1025 15 10000 2.1 350 19:18 23.02.2020
2425 Clouds 28 1025 15 10000 2.1 350 19:18 23.02.2020
2426 Clouds 28 1025 15 10000 2.6 350 18:56 23.02.2020
2427 Clouds 28 1025 15 10000 2.6 350 18:37 23.02.2020
2428 Clouds 29 1024 15 10000 1.5 0 18:18 23.02.2020
2429 Clouds 30 1024 15 10000 1.5 70 17:56 23.02.2020
2430 Clouds 30 1024 15 10000 1.5 70 17:37 23.02.2020
2431 Clouds 29 1024 14 10000 2.1 350 17:19 23.02.2020
2432 Clouds 29 1024 14 10000 2.6 50 16:46 23.02.2020
2433 Clouds 29 1025 9 10000 2.6 0 16:27 23.02.2020
2434 Clouds 29 1025 9 10000 2.6 30 15:58 23.02.2020
2435 Clouds 29 1025 9 10000 2.6 30 15:38 23.02.2020
2436 Clear 28 1025 15 10000 2.1 0 15:20 23.02.2020
2437 Clear 29 1026 9 10000 2.6 0 14:57 23.02.2020
2438 Clear 29 1026 9 10000 2.6 0 14:38 23.02.2020
2439 Clear 29 1026 9 10000 2.6 0 14:38 23.02.2020
2440 Clear 27 1026 18 10000 2.6 10 14:20 23.02.2020
2441 Clear 27 1026 19 10000 1.5 0 13:57 23.02.2020
2442 Clear 27 1026 19 10000 1.5 0 13:38 23.02.2020
2443 Clear 26 1027 21 10000 2.1 60 13:20 23.02.2020
2444 Clear 26 1027 19 10000 2.1 30 12:42 23.02.2020
2445 Clear 24 1028 12 10000 1.5 60 12:21 23.02.2020
2446 Clear 23 1028 12 10000 1.5 80 11:55 23.02.2020
2447 Clear 23 1028 12 10000 1.5 80 11:37 23.02.2020
2448 Clear 21 1028 26 10000 2.1 80 11:18 23.02.2020
2449 Clear 20 1028 18 10000 1 0 10:42 23.02.2020
2450 Clear 17 1028 33 10000 1.5 50 10:23 23.02.2020
2451 Clear 16 1027 18 10000 1.5 90 09:59 23.02.2020
2452 Clear 16 1027 18 10000 1.5 90 09:39 23.02.2020
2453 Clear 13 1026 43 10000 1.5 100 09:21 23.02.2020
2454 Clear 11 1026 18 10000 1.5 120 08:51 23.02.2020
2455 Clear 11 1026 18 8000 1 0 08:30 23.02.2020
2456 Clouds 11 1025 26 8000 0.5 0 07:54 23.02.2020
2457 Clouds 11 1025 26 8000 0.5 0 07:35 23.02.2020
2458 Clouds 11 1025 26 8000 1.5 90 06:39 23.02.2020
2459 Clouds 11 1024 50 8000 2.1 90 05:47 23.02.2020
2460 Clouds 13 1024 23 8000 1 0 04:35 23.02.2020
2461 Clouds 16 1024 36 8000 1.5 170 02:59 23.02.2020
2462 Clouds 16 1024 36 8000 1.5 170 02:59 23.02.2020
2463 Clouds 15 1024 33 8000 1.5 180 02:26 23.02.2020
2464 Clouds 15 1024 33 8000 1 0 01:24 23.02.2020
2465 Clouds 15 1024 22 8000 1.5 250 00:46 23.02.2020
2466 Clouds 16 1024 36 8000 1.5 260 00:24 23.02.2020
2467 Clouds 17 1024 36 8000 1.5 270 23:45 22.02.2020
2468 Clouds 17 1024 36 8000 1.5 270 23:45 22.02.2020
2469 Clouds 19 1024 22 8000 1 0 23:26 22.02.2020
2470 Clouds 19 1024 25 8000 2.6 110 22:56 22.02.2020
2471 Clouds 19 1024 25 8000 2.6 110 22:36 22.02.2020
2472 Clouds 18 1024 27 8000 3.1 100 22:18 22.02.2020
2473 Clouds 20 1024 24 8000 2.6 80 21:40 22.02.2020
2474 Clouds 21 1023 22 8000 2.6 70 21:21 22.02.2020
2475 Clouds 23 1023 30 8000 2.6 40 20:44 22.02.2020
2476 Clouds 24 1023 19 10000 1.5 30 20:24 22.02.2020
2477 Clear 25 1022 17 10000 1.5 300 19:55 22.02.2020
2478 Clear 25 1022 17 10000 1.5 300 19:36 22.02.2020
2479 Clear 27 1022 13 10000 1 0 19:18 22.02.2020
2480 Clear 27 1022 13 10000 1.5 50 18:39 22.02.2020
2481 Clear 28 1021 13 10000 2.1 10 18:21 22.02.2020
2482 Clear 28 1021 13 10000 2.1 10 18:21 22.02.2020
2483 Clear 28 1021 13 10000 2.1 10 18:21 22.02.2020
2484 Clear 28 1021 13 10000 1.5 0 17:57 22.02.2020
2485 Clear 28 1021 13 10000 1.5 0 17:38 22.02.2020
2486 Clear 28 1021 14 10000 1.5 330 17:19 22.02.2020
2487 Clear 28 1022 14 10000 1.5 350 16:56 22.02.2020
2488 Clear 28 1022 14 10000 1.5 350 16:38 22.02.2020
2489 Clear 28 1022 14 10000 2.6 290 16:19 22.02.2020
2490 Clear 28 1022 15 10000 2.6 40 15:43 22.02.2020
2491 Clear 27 1022 15 10000 3.6 10 15:24 22.02.2020
2492 Clear 27 1023 15 10000 2.6 10 14:43 22.02.2020
2493 Clear 27 1023 15 10000 2.1 330 14:23 22.02.2020
2494 Clear 26 1024 19 10000 2.1 360 13:57 22.02.2020
2495 Clear 26 1024 19 10000 2.1 360 13:39 22.02.2020
2496 Clear 25 1024 20 10000 2.1 10 13:18 22.02.2020
2497 Clear 25 1024 20 10000 1.5 20 12:42 22.02.2020
2498 Clear 23 1025 25 8000 1.5 40 12:23 22.02.2020
2499 Clear 22 1025 28 8000 1.5 70 11:47 22.02.2020
2500 Clear 21 1025 35 8000 1.5 70 11:28 22.02.2020
2501 Clear 19 1024 39 8000 1 0 10:57 22.02.2020
2502 Clear 19 1024 39 8000 1 0 10:39 22.02.2020
2503 Clear 18 1024 36 8000 1 0 10:19 22.02.2020
2504 Clear 16 1024 41 8000 0.5 0 09:57 22.02.2020
2505 Clear 16 1024 41 8000 0.5 0 09:38 22.02.2020
2506 Clear 12 1024 58 8000 1.5 90 09:20 22.02.2020
2507 Clear 10 1024 61 8000 1.5 100 08:46 22.02.2020
2508 Clear 11 1023 57 8000 1 0 08:27 22.02.2020
2509 Clear 11 1023 57 8000 1 0 07:48 22.02.2020
2510 Clear 10 1023 57 8000 1 0 07:19 22.02.2020
2511 Clear 10 1023 57 8000 1.5 100 06:47 22.02.2020
2512 Clear 11 1022 53 10000 2.1 90 06:27 22.02.2020
2513 Clear 13 1022 50 10000 1 0 04:32 22.02.2020
2514 Clear 14 1022 41 10000 2.6 230 03:21 22.02.2020
2515 Clear 13 1021 50 10000 1 0 02:28 22.02.2020
2516 Clear 14 1022 47 10000 1 0 01:43 22.02.2020
2517 Clear 16 1022 41 10000 0.5 0 01:24 22.02.2020
2518 Clear 17 1022 39 10000 2.6 160 00:43 22.02.2020
2519 Clear 17 1022 42 10000 1 0 00:24 22.02.2020
2520 Clear 19 1022 37 10000 2.6 30 23:45 21.02.2020
2521 Clear 19 1022 37 10000 3.1 30 23:21 21.02.2020
2522 Clear 19 1021 32 10000 3.1 70 22:45 21.02.2020
2523 Clear 20 1021 32 8000 4.1 40 22:27 21.02.2020
2524 Clear 21 1021 26 8000 1.5 10 21:59 21.02.2020
2525 Clear 21 1021 26 8000 1.5 10 21:40 21.02.2020
2526 Clear 21 1020 33 8000 1.5 60 21:22 21.02.2020
2527 Clear 22 1020 33 8000 2.1 40 20:48 21.02.2020
2528 Clear 23 1020 23 8000 3.1 40 20:29 21.02.2020
2529 Clear 24 1019 22 10000 4.1 40 19:41 21.02.2020
2530 Clear 25 1019 20 10000 5.1 40 19:23 21.02.2020
2531 Clear 26 1019 19 10000 5.1 30 18:55 21.02.2020
2532 Clear 26 1019 19 10000 5.1 30 18:37 21.02.2020
2533 Clear 26 1019 19 10000 4.6 50 18:19 21.02.2020
2534 Clear 27 1019 22 10000 4.1 40 17:40 21.02.2020
2535 Clear 27 1019 14 10000 4.6 40 17:21 21.02.2020
2536 Clear 27 1019 14 10000 3.6 30 16:57 21.02.2020
2537 Clear 27 1019 14 10000 3.6 30 16:39 21.02.2020
2538 Clear 27 1019 14 10000 3.6 30 16:39 21.02.2020
2539 Clear 27 1019 14 10000 4.6 50 16:20 21.02.2020
2540 Clear 27 1019 14 10000 4.6 50 16:20 21.02.2020
2541 Clear 27 1019 14 10000 5.7 50 15:44 21.02.2020
2542 Clear 27 1019 18 10000 2.1 0 15:19 21.02.2020
2543 Clear 26 1020 19 10000 3.6 0 14:56 21.02.2020
2544 Clear 26 1020 19 10000 3.6 0 14:38 21.02.2020
2545 Clear 26 1020 19 10000 2.6 10 14:19 21.02.2020
2546 Clear 25 1021 23 10000 2.6 350 13:42 21.02.2020
2547 Clear 24 1021 33 10000 2.1 10 13:23 21.02.2020
2548 Clear 23 1021 35 10000 2.1 10 12:50 21.02.2020
2549 Clear 22 1021 43 10000 1 0 12:28 21.02.2020
2550 Clear 20 1021 49 10000 2.1 50 11:59 21.02.2020
2551 Clear 20 1021 49 10000 2.1 50 11:40 21.02.2020
2552 Clear 19 1021 52 10000 2.6 70 11:21 21.02.2020
2553 Clear 17 1021 55 10000 2.6 90 10:55 21.02.2020
2554 Clear 17 1021 55 10000 2.6 90 10:36 21.02.2020
2555 Clear 14 1021 67 10000 2.1 70 10:18 21.02.2020
2556 Clear 14 1021 67 10000 2.1 70 10:18 21.02.2020
2557 Clear 13 1021 66 10000 2.1 80 09:42 21.02.2020
2558 Clear 10 1020 81 10000 2.1 70 09:24 21.02.2020
2559 Clear 8 1020 87 10000 2.1 80 08:58 21.02.2020
2560 Clear 8 1020 87 10000 2.1 80 08:39 21.02.2020
2561 Clouds 9 1020 81 10000 2.6 60 08:21 21.02.2020
2562 Clouds 9 1020 81 10000 1.5 90 07:57 21.02.2020
2563 Clouds 9 1020 81 10000 1.5 90 07:39 21.02.2020
2564 Clouds 11 1019 76 10000 1.5 160 07:18 21.02.2020
2565 Clouds 10 1019 81 10000 0.5 0 06:42 21.02.2020
2566 Clouds 10 1019 81 10000 0.5 0 06:24 21.02.2020
2567 Clouds 10 1019 81 10000 0.5 0 06:24 21.02.2020
2568 Clouds 10 1019 81 10000 1 0 05:42 21.02.2020
2569 Clear 11 1019 76 10000 0.5 0 04:30 21.02.2020
2570 Clear 11 1020 76 10000 1 0 03:57 21.02.2020
2571 Clear 12 1020 76 10000 1 0 03:22 21.02.2020
2572 Clouds 14 1020 71 10000 2.1 160 01:50 21.02.2020
2573 Clouds 14 1020 67 10000 1 0 01:23 21.02.2020
2574 Clouds 15 1020 62 10000 1 0 00:40 21.02.2020
2575 Clouds 16 1020 63 10000 2.6 220 00:21 21.02.2020
2576 Clouds 16 1020 63 10000 4.1 210 23:43 20.02.2020
2577 Clouds 15 1020 67 10000 3.6 230 23:22 20.02.2020
2578 Clouds 15 1020 67 10000 3.1 240 22:55 20.02.2020
2579 Clouds 15 1020 67 10000 3.1 240 22:37 20.02.2020
2580 Clouds 15 1020 67 8000 2.6 250 22:18 20.02.2020
2581 Clouds 16 1019 67 8000 3.1 260 21:54 20.02.2020
2582 Clouds 16 1019 67 8000 3.1 260 21:36 20.02.2020
2583 Clouds 17 1019 63 8000 3.6 270 21:18 20.02.2020
2584 Clouds 18 1019 59 8000 3.6 250 20:54 20.02.2020
2585 Clouds 18 1019 59 8000 3.6 250 20:36 20.02.2020
2586 Clouds 18 1019 59 8000 4.1 270 20:18 20.02.2020
2587 Clouds 19 1018 52 8000 4.1 250 19:42 20.02.2020
2588 Clouds 20 1018 45 8000 4.6 260 19:24 20.02.2020
2589 Clouds 20 1018 45 8000 4.6 260 19:24 20.02.2020
2590 Clouds 22 1018 43 8000 3.6 300 18:58 20.02.2020
2591 Clouds 22 1018 43 8000 3.6 300 18:37 20.02.2020
2592 Clouds 23 1017 35 8000 3.6 200 18:19 20.02.2020
2593 Clouds 22 1017 37 8000 6.7 300 17:40 20.02.2020
2594 Clouds 23 1017 40 8000 5.7 280 17:22 20.02.2020
2595 Clouds 23 1017 40 8000 5.7 280 16:58 20.02.2020
2596 Clouds 23 1017 40 8000 5.7 280 16:39 20.02.2020
2597 Clouds 22 1017 43 8000 5.7 290 16:19 20.02.2020
2598 Clouds 23 1017 40 8000 5.1 290 15:57 20.02.2020
2599 Clouds 23 1017 40 8000 5.1 290 15:39 20.02.2020
2600 Clouds 24 1018 33 8000 2.6 300 15:20 20.02.2020
2601 -273 0 0 0 0 0 14:54 20.02.2020
2602 Clouds 23 1018 40 8000 2.6 300 14:36 20.02.2020
2603 Clouds 23 1018 40 8000 2.6 300 14:36 20.02.2020
2604 Clouds 22 1018 46 8000 2.1 350 14:18 20.02.2020
2605 Clouds 21 1019 49 8000 2.6 330 13:42 20.02.2020
2606 Clouds 21 1019 52 8000 2.6 20 13:19 20.02.2020
2607 Clouds 20 1020 56 8000 2.1 90 12:43 20.02.2020
2608 Clouds 18 1020 59 8000 2.6 100 12:22 20.02.2020
2609 Clouds 17 1020 63 8000 3.1 70 11:59 20.02.2020
2610 Clouds 17 1020 63 8000 3.1 70 11:41 20.02.2020
2611 Clouds 17 1020 63 8000 3.1 70 11:41 20.02.2020
2612 Clouds 15 1020 72 8000 2.6 50 11:22 20.02.2020
2613 Clouds 15 1021 67 8000 1 0 10:57 20.02.2020
2614 Clouds 15 1021 67 8000 1 0 10:38 20.02.2020
2615 Clouds 15 1021 67 8000 1.5 0 10:20 20.02.2020
2616 Clouds 15 1020 67 8000 1.5 160 09:44 20.02.2020
2617 Clouds 12 1020 81 8000 3.6 180 09:24 20.02.2020
2618 Clouds 11 1020 87 8000 2.1 150 08:57 20.02.2020
2619 Clouds 11 1020 87 8000 2.1 150 08:57 20.02.2020
2620 Clouds 11 1020 87 8000 2.1 150 08:37 20.02.2020
2621 Clouds 11 1020 87 8000 3.1 230 08:19 20.02.2020
2622 Clouds 9 1020 93 8000 2.1 250 07:44 20.02.2020
2623 Clouds 9 1020 93 8000 2.1 250 07:44 20.02.2020
2624 Clouds 9 1019 87 10000 3.1 240 07:20 20.02.2020
2625 Clouds 9 1019 87 10000 3.1 240 06:44 20.02.2020
2626 Clouds 10 1020 79 0 2.16 289 06:20 20.02.2020
2627 Clouds 10 1020 79 0 2.16 289 05:43 20.02.2020
2628 Clouds 11 1019 76 0 0.45 197 04:50 20.02.2020
2629 Clouds 11 1019 76 0 0.45 197 03:57 20.02.2020
2630 Clouds 11 1019 76 0 0.45 197 02:59 20.02.2020
2631 Clouds 12 1020 73 0 0.32 320 01:34 20.02.2020
2632 Clear 13 1020 72 0 0.9 85 00:56 20.02.2020
2633 Clear 13 1020 72 0 0.9 85 00:26 20.02.2020
2634 Clear 13 1020 72 0 0.9 85 23:49 19.02.2020
2635 Clear 13 1020 72 0 0.9 85 23:22 19.02.2020
2636 Rain 14 1020 65 0 0.8 14 22:44 19.02.2020
2637 Rain 14 1020 65 0 0.8 14 22:26 19.02.2020
2638 Clouds 19 1020 55 10000 2.6 180 21:59 19.02.2020
2639 Clouds 19 1020 55 10000 2.6 180 21:40 19.02.2020
2640 Clouds 19 1020 55 10000 2.6 180 21:19 19.02.2020
2641 Clouds 19 1020 55 10000 2.6 180 20:58 19.02.2020
2642 Clouds 19 1020 55 10000 2.6 180 20:39 19.02.2020
2643 Clouds 19 1020 55 10000 3.1 170 20:20 19.02.2020
2644 Clouds 19 1020 55 10000 3.1 170 19:58 19.02.2020
2645 Clouds 19 1020 55 10000 3.1 170 19:38 19.02.2020
2646 Clouds 20 1020 52 10000 3.1 180 19:20 19.02.2020
2647 Clouds 20 1020 52 10000 2.6 170 18:58 19.02.2020
2648 Clouds 20 1020 52 10000 2.6 170 18:40 19.02.2020
2649 Clouds 20 1020 52 10000 2.6 160 18:21 19.02.2020
2650 Clouds 20 1020 52 10000 2.1 140 17:56 19.02.2020
2651 Clouds 20 1020 52 10000 2.1 140 17:38 19.02.2020
2652 Clouds 20 1020 52 10000 1 0 17:18 19.02.2020
2653 Clouds 20 1020 52 10000 1.5 0 16:42 19.02.2020
2654 Clouds 19 1020 55 10000 1.5 0 16:18 19.02.2020
2655 Clouds 19 1020 55 10000 1.5 0 16:18 19.02.2020
2656 Clouds 19 1021 55 10000 1 0 15:54 19.02.2020
2657 Clouds 19 1021 55 6000 1.5 0 15:36 19.02.2020
2658 Clouds 19 1021 55 10000 1 0 15:36 19.02.2020
2659 Clouds 19 1021 55 6000 1.5 0 15:18 19.02.2020
2660 Clouds 19 1022 55 6000 2.6 0 14:40 19.02.2020
2661 Clouds 19 1022 59 6000 1.5 0 14:22 19.02.2020
2662 Clouds 17 1023 63 8000 1 0 13:43 19.02.2020
2663 Clouds 17 1023 67 8000 1.5 0 13:23 19.02.2020
2664 Clouds 17 1024 67 6000 1 0 12:58 19.02.2020
2665 Clouds 17 1024 67 6000 1 0 12:37 19.02.2020
2666 Clouds 14 1024 76 6000 2.1 100 12:18 19.02.2020
2667 Clouds 14 1024 76 6000 1.5 90 11:39 19.02.2020
2668 Clouds 13 1024 82 6000 1 0 11:20 19.02.2020
2669 Clouds 13 1024 82 6000 2.6 40 10:59 19.02.2020
2670 Clouds 13 1024 82 6000 2.6 40 10:38 19.02.2020
2671 Clouds 13 1024 82 6000 1.5 10 10:20 19.02.2020
2672 Clouds 12 1024 87 6000 1 0 09:59 19.02.2020
2673 Clouds 12 1024 87 6000 1 0 09:39 19.02.2020
2674 Clouds 12 1024 87 6000 1 0 09:20 19.02.2020
2675 Clouds 12 1024 87 6000 1 0 08:48 19.02.2020
2676 Clouds 11 1024 87 8000 2.1 250 08:24 19.02.2020
2677 Clouds 11 1024 87 8000 2.1 270 07:57 19.02.2020
2678 Clouds 11 1024 87 8000 2.1 270 07:38 19.02.2020
2679 Clouds 11 1024 87 8000 2.1 240 07:18 19.02.2020
2680 Clouds 11 1024 93 8000 0.5 0 06:42 19.02.2020
2681 Clouds 10 1024 93 8000 0.5 0 05:26 19.02.2020
2682 Clouds 11 1025 87 8000 1 0 03:52 19.02.2020
2683 Clouds 12 1026 81 8000 1.5 300 02:35 19.02.2020
2684 Clear 12 1026 81 8000 0.5 0 01:38 19.02.2020
2685 Clear 14 1026 76 10000 1.5 140 01:20 19.02.2020
2686 Clear 14 1026 76 10000 1.5 60 00:39 19.02.2020
2687 Clear 15 1026 72 10000 3.1 40 23:59 18.02.2020
2688 Clear 15 1026 72 10000 3.1 40 23:39 18.02.2020
2689 Clear 16 1026 72 10000 2.6 20 23:19 18.02.2020
2690 Clear 16 1026 72 10000 2.6 20 23:19 18.02.2020
2691 Clear 16 1026 72 10000 2.6 20 23:19 18.02.2020
2692 Clear 16 1026 72 10000 2.6 20 23:19 18.02.2020
2693 Clear 16 1026 72 10000 2.6 20 23:19 18.02.2020
2694 Clear 17 1026 67 10000 2.1 40 22:55 18.02.2020
2695 Clear 17 1026 67 10000 2.1 40 22:36 18.02.2020
2696 Clear 18 1025 59 10000 2.6 30 22:18 18.02.2020
2697 Clear 19 1025 52 10000 3.1 20 21:39 18.02.2020
2698 Clear 20 1025 45 10000 3.6 20 21:21 18.02.2020
2699 Clear 21 1025 43 10000 3.6 20 21:00 18.02.2020
2700 Clear 21 1025 43 10000 3.6 20 20:40 18.02.2020
2701 Clear 21 1025 43 10000 3.6 20 20:40 18.02.2020
2702 Clear 22 1025 37 10000 3.1 360 20:22 18.02.2020
2703 Clear 22 1024 37 10000 3.6 340 19:58 18.02.2020
2704 Clear 22 1024 37 10000 3.6 340 19:40 18.02.2020
2705 Clear 24 1024 27 8000 2.1 20 19:19 18.02.2020
2706 Clear 25 1024 25 8000 2.1 10 18:42 18.02.2020
2707 Clear 25 1024 27 8000 2.1 340 18:21 18.02.2020
2708 Clear 26 1024 26 8000 2.1 340 17:58 18.02.2020
2709 Clear 26 1024 26 8000 2.1 340 17:40 18.02.2020
2710 Clear 26 1024 26 8000 2.1 340 17:40 18.02.2020
2711 Clear 25 1024 27 8000 2.6 340 17:19 18.02.2020
2712 Clear 25 1024 29 8000 3.1 330 16:40 18.02.2020
2713 Clear 25 1025 31 8000 1.5 0 16:21 18.02.2020
2714 Clear 24 1025 36 8000 2.1 310 15:55 18.02.2020
2715 Clear 24 1025 36 8000 2.1 310 15:36 18.02.2020
2716 Clear 23 1025 38 10000 1.5 0 15:18 18.02.2020
2717 Clear 22 1026 40 10000 3.1 330 14:54 18.02.2020
2718 Clear 21 1026 40 10000 3.1 10 14:36 18.02.2020
2719 Clear 21 1026 40 10000 3.1 10 14:18 18.02.2020
2720 Clear 20 1026 45 10000 3.1 320 13:41 18.02.2020
2721 Clear 20 1027 49 10000 2.6 310 13:21 18.02.2020
2722 Clear 18 1028 52 10000 2.2 355 12:47 18.02.2020
2723 Clear 15 1028 62 10000 1.5 340 12:29 18.02.2020
2724 Clear 15 1028 62 10000 1.5 340 11:59 18.02.2020
2725 Clear 15 1028 62 10000 1.5 340 11:59 18.02.2020
2726 Clear 15 1028 62 10000 1.5 340 11:41 18.02.2020
2727 Clear 15 1028 62 10000 1.5 0 11:22 18.02.2020
2728 Clear 15 1028 62 10000 0.5 0 10:45 18.02.2020
2729 Clear 14 1027 67 10000 0.5 0 10:24 18.02.2020
2730 Clear 10 1027 81 10000 2.1 220 09:57 18.02.2020
2731 Clear 10 1027 81 10000 2.1 220 09:39 18.02.2020
2732 Clear 10 1027 81 10000 2.1 220 09:39 18.02.2020
2733 Clear 10 1027 81 10000 2.1 220 09:39 18.02.2020
2734 Clear 10 1027 81 10000 2.1 220 09:20 18.02.2020
2735 Clear 10 1027 81 10000 2.1 220 09:20 18.02.2020
2736 Clear 9 1027 87 10000 2.6 230 08:58 18.02.2020
2737 Clear 9 1027 87 10000 2.6 230 08:39 18.02.2020
2738 Clear 8 1026 87 10000 2.1 240 08:19 18.02.2020
2739 Clear 8 1026 81 10000 3.1 250 07:51 18.02.2020
2740 Clear 8 1026 81 10000 2.6 250 07:26 18.02.2020
2741 Clear 8 1026 75 10000 2.6 250 06:55 18.02.2020
2742 Clear 8 1025 75 10000 2.6 250 06:29 18.02.2020
2743 Clear 11 1025 66 10000 2.1 290 05:49 18.02.2020
2744 Clear 11 1025 66 10000 0.5 0 05:22 18.02.2020
2745 Clear 13 1026 58 10000 1 0 03:55 18.02.2020
2746 Clear 13 1026 62 10000 1.09 103 02:58 18.02.2020
2747 Clear 16 1027 51 10000 1.5 70 01:27 18.02.2020
2748 Clear 17 1027 48 10000 1.5 60 00:44 18.02.2020
2749 Clear 16 1027 51 10000 1.5 90 00:19 18.02.2020
2750 Clear 17 1027 51 10000 0.5 0 23:44 17.02.2020
2751 Clear 17 1027 51 10000 1 0 23:24 17.02.2020
2752 Clear 18 1027 48 10000 4.1 80 22:58 17.02.2020
2753 Clear 18 1027 48 10000 4.1 80 22:40 17.02.2020
2754 Clear 19 1027 45 10000 3.1 70 22:19 17.02.2020
2755 Clear 20 1026 42 10000 3.1 30 21:39 17.02.2020
2756 Clear 20 1026 42 10000 3.1 30 21:39 17.02.2020
2757 Clear 21 1026 40 10000 4.1 20 21:19 17.02.2020
2758 Clear 22 1026 35 10000 4.6 20 20:57 17.02.2020
2759 Clear 22 1026 35 10000 4.6 20 20:38 17.02.2020
2760 Clear 23 1026 28 10000 4.6 20 20:19 17.02.2020
2761 Clear 24 1025 25 10000 5.7 20 19:43 17.02.2020
2762 Clear 25 1025 23 10000 5.7 20 19:22 17.02.2020
2763 Clear 27 1025 22 10000 4.1 20 18:59 17.02.2020
2764 Clear 27 1025 22 10000 4.1 20 18:37 17.02.2020
2765 Clear 27 1025 18 10000 3.6 30 18:19 17.02.2020
2766 Clear 27 1025 18 10000 3.1 20 17:54 17.02.2020
2767 Clear 27 1025 18 10000 3.1 20 17:36 17.02.2020
2768 Clear 28 1025 18 10000 3.6 20 17:18 17.02.2020
2769 Clear 28 1024 17 10000 2.1 0 16:43 17.02.2020
2770 Clear 28 1025 18 10000 2.1 0 16:22 17.02.2020
2771 Clear 28 1025 18 10000 2.6 360 15:57 17.02.2020
2772 Clear 28 1025 18 10000 2.6 360 15:39 17.02.2020
2773 Clear 28 1025 18 10000 2.6 360 15:39 17.02.2020
2774 Clear 27 1025 19 10000 2.6 0 15:21 17.02.2020
2775 Clear 26 1026 21 10000 3.6 40 14:44 17.02.2020
2776 Clear 27 1026 21 10000 3.1 40 14:25 17.02.2020
2777 Clear 25 1027 23 10000 2.1 30 13:58 17.02.2020
2778 Clear 25 1027 23 10000 2.1 30 13:39 17.02.2020
2779 Clear 25 1028 23 10000 1.5 0 13:19 17.02.2020
2780 Clear 24 1028 25 10000 1.5 340 12:47 17.02.2020
2781 Clear 24 1028 25 10000 1.5 340 12:47 17.02.2020
2782 Clear 23 1028 27 10000 1.5 0 12:26 17.02.2020
2783 Clear 21 1028 32 10000 1.5 30 11:59 17.02.2020
2784 Clear 20 1028 34 10000 1.5 90 11:40 17.02.2020
2785 Clear 20 1028 34 10000 1.5 90 11:21 17.02.2020
2786 Clear 18 1028 39 10000 1.5 70 10:56 17.02.2020
2787 Clear 18 1028 39 10000 1.5 70 10:37 17.02.2020
2788 Clear 17 1028 39 10000 1 0 10:19 17.02.2020
2789 Clear 14 1028 47 10000 1 0 09:42 17.02.2020
2790 Clear 14 1028 47 10000 1 0 09:42 17.02.2020
2791 Clear 12 1027 50 10000 2.1 70 09:23 17.02.2020
2792 Clear 10 1027 53 10000 2.1 90 08:59 17.02.2020
2793 Clear 10 1027 53 10000 2.1 90 08:41 17.02.2020
2794 -273 0 0 0 0 0 08:21 17.02.2020
2795 Clear 11 1027 50 10000 1 0 07:54 17.02.2020
2796 Clear 10 1027 53 10000 1.5 140 07:25 17.02.2020
2797 Clear 11 1027 50 10000 1 0 06:53 17.02.2020
2798 Clear 12 1027 42 10000 1.5 150 06:33 17.02.2020
2799 Clear 13 1027 42 10000 2.1 170 05:59 17.02.2020
2800 Clear 13 1027 42 10000 2.1 170 05:38 17.02.2020
2801 Clear 14 1027 41 10000 1 0 03:22 17.02.2020
2802 Clear 14 1028 44 10000 0.5 0 01:59 17.02.2020
2803 Clear 16 1027 38 10000 1 0 00:51 17.02.2020
2804 Clear 16 1027 38 10000 1.5 70 00:22 17.02.2020
2805 Clear 16 1027 38 10000 1.5 90 23:54 16.02.2020
2806 Clear 18 1027 34 10000 1.5 80 23:33 16.02.2020
2807 Clear 17 1027 33 10000 2.1 120 22:58 16.02.2020
2808 Clear 17 1027 33 10000 2.1 120 22:39 16.02.2020
2809 Clear 17 1027 33 10000 2.1 120 22:39 16.02.2020
2810 Clear 18 1027 31 10000 3.1 100 22:21 16.02.2020
2811 Clear 18 1027 31 10000 3.1 100 22:21 16.02.2020
2812 Clear 20 1027 28 10000 2.6 90 21:58 16.02.2020
2813 Clear 20 1027 28 10000 2.6 90 21:40 16.02.2020
2814 Clear 22 1027 24 10000 2.6 50 21:22 16.02.2020
2815 Clear 23 1026 23 10000 1.5 30 20:58 16.02.2020
2816 Clear 23 1026 23 10000 1.5 30 20:39 16.02.2020
2817 Clear 24 1026 21 10000 2.1 360 20:21 16.02.2020
2818 Clear 25 1026 21 10000 2.1 350 19:58 16.02.2020
2819 Clear 25 1026 21 10000 2.1 350 19:38 16.02.2020
2820 Clear 26 1026 21 10000 3.6 350 19:19 16.02.2020
2821 Clear 26 1026 21 10000 3.6 350 19:19 16.02.2020
2822 Clear 27 1025 21 10000 3.6 350 18:44 16.02.2020
2823 Clear 27 1025 21 10000 3.6 350 18:25 16.02.2020
2824 Clear 28 1025 21 10000 3.6 350 17:57 16.02.2020
2825 Clear 28 1025 21 10000 3.6 350 17:39 16.02.2020
2826 Clear 28 1025 17 10000 3.6 350 17:19 16.02.2020
2827 Clear 28 1025 18 10000 3.6 340 16:55 16.02.2020
2828 Clear 28 1025 18 10000 3.6 340 16:36 16.02.2020
2829 Clear 28 1025 20 10000 3.1 320 16:18 16.02.2020
2830 Clear 28 1025 20 10000 2.1 0 15:41 16.02.2020
2831 Clear 28 1025 18 10000 1 0 15:22 16.02.2020
2832 Clear 27 1026 19 10000 1 0 14:45 16.02.2020
2833 Clear 27 1026 21 10000 1 0 14:24 16.02.2020
2834 Clouds 26 1027 24 10000 1 0 13:59 16.02.2020
2835 Clouds 26 1027 24 10000 1 0 13:41 16.02.2020
2836 Clouds 25 1027 23 8000 1 0 13:23 16.02.2020
2837 Clouds 23 1028 28 8000 1.5 10 12:40 16.02.2020
2838 Clouds 22 1028 30 8000 2.1 20 12:20 16.02.2020
2839 Clouds 21 1027 32 8000 1.5 30 11:54 16.02.2020
2840 Clouds 21 1027 32 8000 1.5 30 11:36 16.02.2020
2841 Clouds 19 1027 37 8000 1.5 20 11:18 16.02.2020
2842 Clouds 17 1027 42 8000 1.5 60 10:55 16.02.2020
2843 Clouds 17 1027 42 8000 1.5 60 10:37 16.02.2020
2844 Clouds 15 1027 47 8000 1.5 70 10:18 16.02.2020
2845 Clouds 12 1027 54 8000 1.5 70 09:39 16.02.2020
2846 Clouds 11 1027 57 8000 2.1 110 09:20 16.02.2020
2847 Clouds 8 1026 65 8000 2.1 80 08:58 16.02.2020
2848 Clouds 8 1026 65 8000 2.1 80 08:40 16.02.2020
2849 Clouds 8 1026 70 8000 2.1 60 08:19 16.02.2020
2850 Clouds 8 1026 70 8000 1 0 07:43 16.02.2020
2851 Clouds 8 1026 70 8000 2.1 80 07:23 16.02.2020
2852 Clouds 9 1026 70 8000 1.5 90 06:31 16.02.2020
2853 Clouds 10 1026 71 8000 1 0 04:37 16.02.2020
2854 Clouds 11 1026 66 8000 1.5 80 03:22 16.02.2020
2855 Clouds 14 1026 58 8000 0.5 0 02:24 16.02.2020
2856 Clouds 14 1026 58 8000 1 0 01:39 16.02.2020
2857 Clouds 14 1026 58 7000 3.1 170 01:20 16.02.2020
2858 Clouds 13 1026 58 7000 1.5 150 00:51 16.02.2020
2859 Clouds 12 1027 66 7000 1 0 00:27 16.02.2020
2860 Clouds 14 1027 58 7000 0.5 0 23:44 15.02.2020
2861 Clouds 14 1027 58 10000 0.5 0 23:25 15.02.2020
2862 Clouds 14 1026 58 10000 1 0 22:59 15.02.2020
2863 Clouds 14 1026 58 10000 1 0 22:40 15.02.2020
2864 Clouds 14 1026 58 10000 1 0 22:19 15.02.2020
2865 Clouds 16 1026 51 10000 0.5 0 21:56 15.02.2020
2866 Clouds 16 1026 51 10000 0.5 0 21:37 15.02.2020
2867 Clouds 18 1025 48 10000 1 0 21:19 15.02.2020
2868 Clouds 18 1025 48 10000 1 0 20:39 15.02.2020
2869 Clouds 18 1025 48 10000 1 0 20:20 15.02.2020
2870 Clouds 19 1025 48 10000 1 0 19:44 15.02.2020
2871 Clouds 20 1025 45 10000 2.1 200 19:22 15.02.2020
2872 Clouds 20 1024 45 10000 2.1 240 18:43 15.02.2020
2873 Clouds 21 1024 43 8000 2.1 270 18:23 15.02.2020
2874 Clouds 21 1024 43 8000 1.5 260 17:58 15.02.2020
2875 Clouds 21 1024 43 8000 1.5 260 17:38 15.02.2020
2876 Clouds 21 1024 43 8000 1 0 17:20 15.02.2020
2877 Clouds 21 1024 40 8000 1 0 16:43 15.02.2020
2878 Clouds 21 1024 40 8000 2.1 320 16:24 15.02.2020
2879 Clouds 21 1024 40 8000 2.1 310 15:58 15.02.2020
2880 Clouds 21 1024 40 8000 2.1 310 15:40 15.02.2020
2881 Clouds 21 1024 37 8000 1.5 310 15:22 15.02.2020
2882 Clouds 21 1025 40 8000 1 0 14:44 15.02.2020
2883 Clouds 21 1025 40 8000 1 0 14:19 15.02.2020
2884 Clouds 20 1025 40 8000 1.5 340 13:56 15.02.2020
2885 Clouds 20 1025 40 8000 1.5 340 13:37 15.02.2020
2886 Clouds 20 1025 40 8000 1 0 13:19 15.02.2020
2887 Clouds 19 1026 42 8000 1.5 340 12:42 15.02.2020
2888 Clouds 18 1025 45 8000 1.5 50 12:22 15.02.2020
2889 Clouds 17 1026 45 8000 1.5 80 11:49 15.02.2020
2890 Clouds 17 1026 45 8000 1.5 80 11:49 15.02.2020
2891 Clouds 16 1025 48 8000 1 0 11:30 15.02.2020
2892 Clouds 15 1025 51 8000 1.5 130 10:56 15.02.2020
2893 Clouds 15 1025 51 8000 1.5 130 10:37 15.02.2020
2894 Clouds 15 1025 51 8000 1.5 130 10:37 15.02.2020
2895 Clouds 13 1025 50 8000 2.1 120 10:18 15.02.2020
2896 Clouds 11 1025 57 8000 2.1 110 09:41 15.02.2020
2897 Clouds 10 1024 61 8000 2.6 100 09:23 15.02.2020
2898 Clouds 10 1023 66 8000 1.5 60 08:44 15.02.2020
2899 Clouds 10 1023 66 8000 1.5 10 08:25 15.02.2020
2900 Clouds 9 1023 70 8000 1.5 80 07:59 15.02.2020
2901 Clouds 9 1023 70 8000 1.5 80 07:38 15.02.2020
2902 Clouds 11 1023 66 8000 1.5 40 06:59 15.02.2020
2903 Clouds 11 1023 66 8000 1.5 40 06:36 15.02.2020
2904 Clouds 11 1022 71 8000 3.1 100 05:46 15.02.2020
2905 Clouds 11 1023 66 8000 1.5 100 04:46 15.02.2020
2906 Clouds 12 1023 66 8000 0.5 0 03:43 15.02.2020
2907 Clouds 12 1023 66 8000 1 0 02:52 15.02.2020
2908 Clouds 13 1023 66 8000 1 0 02:23 15.02.2020
2909 Clouds 14 1023 62 8000 0.5 0 01:40 15.02.2020
2910 Clouds 14 1023 67 8000 0.91 203 00:43 15.02.2020
2911 Clouds 15 1023 58 8000 2.1 180 00:24 15.02.2020
2912 Clouds 14 1024 71 8000 0.5 0 23:42 14.02.2020
2913 Clouds 16 1024 63 8000 2.6 220 23:20 14.02.2020
2914 Clouds 15 1024 67 8000 3.1 240 22:45 14.02.2020
2915 Clouds 15 1024 54 8000 4.1 240 22:24 14.02.2020
2916 Clouds 17 1024 45 8000 4.1 240 21:54 14.02.2020
2917 Clouds 17 1024 45 8000 4.1 240 21:36 14.02.2020
2918 Clouds 18 1024 36 8000 3.6 240 21:18 14.02.2020
2919 Clouds 17 1024 33 8000 2.6 240 20:42 14.02.2020
2920 Clouds 18 1023 34 8000 3.1 260 20:19 14.02.2020
2921 Clouds 20 1023 30 8000 3.1 250 19:56 14.02.2020
2922 Clouds 20 1023 30 8000 3.1 250 19:38 14.02.2020
2923 Clouds 22 1023 28 8000 4.1 260 19:18 14.02.2020
2924 Clouds 23 1022 28 8000 4.1 260 18:55 14.02.2020
2925 Clouds 23 1022 28 8000 4.1 260 18:37 14.02.2020
2926 Clouds 23 1022 27 8000 4.6 270 18:18 14.02.2020
2927 Clouds 24 1021 25 8000 4.6 280 17:41 14.02.2020
2928 Clouds 24 1021 23 8000 2.1 290 17:19 14.02.2020
2929 Clouds 24 1021 25 8000 2.6 310 16:57 14.02.2020
2930 Clouds 24 1021 25 8000 2.6 310 16:38 14.02.2020
2931 Clouds 24 1021 25 8000 2.1 310 16:19 14.02.2020
2932 Clouds 24 1021 25 8000 2.1 310 15:54 14.02.2020
2933 Clouds 24 1021 25 8000 2.1 310 15:36 14.02.2020
2934 Clouds 24 1022 25 8000 2.6 270 15:18 14.02.2020
2935 Clouds 23 1022 27 8000 2.1 300 14:42 14.02.2020
2936 Clouds 21 1022 32 8000 1 0 14:22 14.02.2020
2937 Clouds 21 1023 32 8000 1 0 13:59 14.02.2020
2938 Clouds 21 1023 32 8000 1 0 13:39 14.02.2020
2939 Clouds 21 1023 35 8000 1 0 13:20 14.02.2020
2940 Clouds 21 1023 35 8000 1 0 13:20 14.02.2020
2941 Clouds 20 1023 34 8000 1.5 30 12:57 14.02.2020
2942 Clouds 20 1023 34 8000 1.5 30 12:38 14.02.2020
2943 Clouds 20 1023 34 8000 1.5 60 12:20 14.02.2020
2944 Clouds 19 1024 34 0 2.1 80 11:58 14.02.2020
2945 Clouds 19 1024 34 0 2.1 80 11:39 14.02.2020
2946 Clouds 18 1024 36 8000 2.1 70 11:20 14.02.2020
2947 Clouds 16 1024 41 8000 1.5 80 10:44 14.02.2020
2948 Clouds 15 1024 47 8000 1 0 10:25 14.02.2020
2949 Clouds 12 1024 58 8000 1.5 50 09:56 14.02.2020
2950 Clouds 12 1024 58 8000 1.5 50 09:37 14.02.2020
2951 Clouds 9 1023 61 8000 1.5 160 09:19 14.02.2020
2952 Clouds 9 1023 61 8000 1 0 08:40 14.02.2020
2953 Clouds 9 1023 61 8000 2.6 90 08:22 14.02.2020
2954 Clouds 10 1023 57 10000 1.5 70 07:50 14.02.2020
2955 Clouds 9 1023 61 10000 1 0 07:31 14.02.2020
2956 Clouds 10 1022 57 10000 1 0 06:54 14.02.2020
2957 Clouds 10 1022 57 10000 1.5 170 06:22 14.02.2020
2958 Clouds 10 1022 61 10000 1 0 05:44 14.02.2020
2959 Clouds 12 1023 58 10000 1.5 240 03:52 14.02.2020
2960 Clouds 12 1023 58 10000 1.5 240 03:52 14.02.2020
2961 Clouds 12 1023 58 10000 2.1 250 03:24 14.02.2020
2962 Clouds 12 1023 62 10000 1 0 02:19 14.02.2020
2963 Clouds 14 1024 58 10000 2.1 130 01:21 14.02.2020
2964 Clouds 15 1024 58 10000 1.5 100 00:37 14.02.2020
2965 Clouds 15 1024 58 10000 2.1 90 00:18 14.02.2020
2966 Clouds 16 1024 55 10000 0.5 0 23:41 13.02.2020
2967 Clouds 17 1024 55 10000 2.1 30 23:19 13.02.2020
2968 Clouds 18 1024 48 10000 3.1 20 22:41 13.02.2020
2969 Clouds 17 1024 36 10000 1.5 310 22:20 13.02.2020
2970 Clouds 18 1023 34 10000 0.5 0 21:59 13.02.2020
2971 Clouds 20 1023 30 10000 1.5 340 21:40 13.02.2020
2972 Clouds 20 1023 30 10000 1.5 340 21:21 13.02.2020
2973 Clouds 21 1023 26 10000 2.1 330 20:43 13.02.2020
2974 Clouds 21 1023 26 10000 2.1 320 20:23 13.02.2020
2975 Clouds 22 1023 25 10000 1.5 310 19:59 13.02.2020
2976 Clouds 22 1023 25 10000 1.5 310 19:40 13.02.2020
2977 Clouds 23 1022 23 10000 1 0 19:22 13.02.2020
2978 Clouds 23 1022 23 10000 1.5 0 18:59 13.02.2020
2979 Clouds 23 1022 23 10000 1.5 0 18:41 13.02.2020
2980 Clouds 23 1022 25 10000 1.5 350 18:22 13.02.2020
2981 Clouds 24 1022 25 10000 1.5 0 17:58 13.02.2020
2982 Clouds 24 1022 25 10000 1.5 0 17:38 13.02.2020
2983 Clouds 25 1022 20 10000 1 0 17:20 13.02.2020
2984 Clouds 24 1022 19 10000 2.1 320 16:56 13.02.2020
2985 Clouds 24 1022 19 10000 2.1 320 16:36 13.02.2020
2986 Clouds 24 1022 19 10000 2.1 320 16:36 13.02.2020
2987 Clouds 24 1023 22 10000 2.1 0 16:18 13.02.2020
2988 Clouds 23 1023 25 10000 1.5 0 15:55 13.02.2020
2989 Clouds 23 1023 25 10000 1.5 0 15:36 13.02.2020
2990 Clouds 24 1023 23 10000 2.1 0 15:18 13.02.2020
2991 Clouds 23 1024 25 10000 2.1 0 14:55 13.02.2020
2992 Clouds 23 1024 25 10000 2.1 0 14:37 13.02.2020
2993 Clouds 22 1024 28 10000 1.5 0 14:18 13.02.2020
2994 Clouds 22 1025 28 10000 1.5 0 13:41 13.02.2020
2995 Clouds 21 1025 30 10000 2.1 40 13:18 13.02.2020
2996 Clouds 20 1026 32 10000 2.1 40 12:48 13.02.2020
2997 Clouds 19 1026 34 10000 2.1 0 12:30 13.02.2020
2998 Clouds 19 1026 34 10000 1.5 90 11:59 13.02.2020
2999 Clouds 19 1026 34 10000 1.5 90 11:41 13.02.2020
3000 Clouds 18 1026 36 10000 1.5 110 11:19 13.02.2020
3001 Clouds 16 1025 41 10000 1 0 10:44 13.02.2020
3002 Clouds 13 1025 47 10000 1 0 10:26 13.02.2020
3003 Clouds 12 1025 50 10000 1.5 70 09:50 13.02.2020
3004 Clouds 11 1025 53 8000 1.5 100 09:26 13.02.2020
3005 Clouds 9 1025 57 8000 2.1 130 08:48 13.02.2020
3006 Clouds 9 1024 61 8000 3.6 100 08:20 13.02.2020
3007 Clouds 10 1024 57 8000 1 0 07:57 13.02.2020
3008 Clouds 10 1024 57 8000 1 0 07:38 13.02.2020
3009 Clouds 11 1024 53 8000 0.5 0 07:19 13.02.2020
3010 Clouds 10 1024 57 8000 1.5 80 06:44 13.02.2020
3011 Clouds 10 1024 57 8000 1.5 110 05:59 13.02.2020
3012 Clouds 10 1024 53 8000 1 0 05:25 13.02.2020
3013 Clouds 11 1024 50 8000 1.5 90 04:25 13.02.2020
3014 Clouds 13 1025 55 8000 2.1 140 03:47 13.02.2020
3015 Clouds 11 1025 50 8000 1.5 100 03:18 13.02.2020
3016 Clouds 14 1025 41 8000 1 0 02:45 13.02.2020
3017 Clouds 14 1025 41 8000 3.6 180 02:19 13.02.2020
3018 Clouds 14 1026 41 8000 1.5 190 01:27 13.02.2020
3019 Clouds 16 1026 38 8000 1.5 150 00:32 13.02.2020
3020 Clouds 16 1026 38 8000 2.6 180 23:58 12.02.2020
3021 Clouds 16 1026 38 8000 2.6 180 23:38 12.02.2020
3022 Clouds 16 1026 41 8000 1 0 23:19 12.02.2020
3023 Clouds 17 1026 39 8000 1.5 210 22:44 12.02.2020
3024 Clouds 17 1026 36 8000 1 0 22:24 12.02.2020
3025 Clouds 19 1025 34 8000 2.1 340 21:58 12.02.2020
3026 Clouds 19 1025 34 8000 2.1 340 21:39 12.02.2020
3027 Clouds 20 1025 30 8000 3.1 320 21:19 12.02.2020
3028 Clouds 21 1025 28 8000 2.6 330 20:56 12.02.2020
3029 Clouds 21 1025 28 8000 2.6 330 20:37 12.02.2020
3030 Clear 20 1025 18 8000 1.5 300 20:18 12.02.2020
3031 Clear 20 1025 18 8000 1.5 300 20:18 12.02.2020
3032 Clear 21 1024 26 8000 2.1 270 19:44 12.02.2020
3033 Clear 23 1024 18 8000 3.6 270 19:23 12.02.2020
3034 Clear 24 1024 18 8000 3.1 290 18:55 12.02.2020
3035 Clear 24 1024 18 8000 3.1 290 18:37 12.02.2020
3036 Clear 24 1023 18 8000 2.6 0 18:18 12.02.2020
3037 Clear 25 1023 18 8000 3.1 330 17:42 12.02.2020
3038 Clear 25 1023 12 8000 3.1 320 17:20 12.02.2020
3039 Clear 25 1023 12 8000 2.6 310 16:58 12.02.2020
3040 Clear 25 1023 12 8000 2.6 310 16:37 12.02.2020
3041 Clear 25 1023 12 8000 3.1 340 16:18 12.02.2020
3042 Clear 24 1023 12 8000 2.1 0 15:41 12.02.2020
3043 Clear 25 1024 20 8000 2.1 0 15:20 12.02.2020
3044 Clear 24 1025 12 8000 2.1 0 14:56 12.02.2020
3045 Clear 24 1025 12 8000 2.1 0 14:38 12.02.2020
3046 Clouds 24 1025 16 8000 1 0 14:19 12.02.2020
3047 Clouds 23 1025 25 8000 1 0 13:56 12.02.2020
3048 Clouds 23 1025 25 8000 1 0 13:37 12.02.2020
3049 Clouds 23 1026 25 8000 2.1 300 13:18 12.02.2020
3050 Clouds 23 1026 31 8000 1 0 12:55 12.02.2020
3051 Clouds 21 1026 32 8000 1.5 200 12:36 12.02.2020
3052 Clouds 21 1026 32 8000 1.5 200 12:18 12.02.2020
3053 Clouds 20 1026 37 8000 0.5 0 11:42 12.02.2020
3054 Clouds 18 1026 39 8000 1 0 11:21 12.02.2020
3055 Clouds 16 1026 48 8000 1 0 10:59 12.02.2020
3056 Clouds 16 1026 48 8000 1 0 10:41 12.02.2020
3057 Clouds 15 1026 51 8000 0.5 0 10:21 12.02.2020
3058 Clouds 13 1026 54 8000 1 0 09:58 12.02.2020
3059 Clouds 13 1026 54 8000 1 0 09:40 12.02.2020
3060 Clouds 12 1026 54 10000 1 0 09:19 12.02.2020
3061 Clouds 12 1025 54 10000 1 0 08:57 12.02.2020
3062 Clouds 12 1025 54 10000 1 0 08:37 12.02.2020
3063 Clouds 12 1025 50 10000 1 0 08:19 12.02.2020
3064 Clouds 14 1025 44 10000 1 0 07:43 12.02.2020
3065 Clouds 14 1025 47 10000 1.5 150 07:22 12.02.2020
3066 Clouds 13 1025 47 10000 1.5 250 06:52 12.02.2020
3067 Clouds 14 1025 47 10000 2.1 180 06:20 12.02.2020
3068 Clouds 13 1025 50 10000 1.5 210 05:36 12.02.2020
3069 Clouds 13 1025 50 10000 0.5 0 04:56 12.02.2020
3070 Clouds 13 1025 50 10000 0.5 0 04:38 12.02.2020
3071 Clouds 15 1026 44 10000 0.5 0 03:31 12.02.2020
3072 Clouds 14 1026 44 10000 1 0 02:58 12.02.2020
3073 Clouds 14 1026 44 10000 2.1 250 02:28 12.02.2020
3074 Clouds 15 1027 41 10000 2.1 280 01:42 12.02.2020
3075 Clear 17 1027 39 10000 0.5 0 00:45 12.02.2020
3076 Clear 16 1027 41 10000 1.5 240 00:25 12.02.2020
3077 Clear 18 1027 36 10000 1.5 180 23:55 11.02.2020
3078 Clear 18 1027 36 10000 1.5 180 23:55 11.02.2020
3079 Clear 18 1027 36 10000 1.5 180 23:37 11.02.2020
3080 Clear 19 1027 32 10000 2.6 130 23:18 11.02.2020
3081 Clear 19 1027 32 10000 1 0 22:42 11.02.2020
3082 Clear 19 1027 29 10000 1.5 50 22:21 11.02.2020
3083 Clear 20 1027 30 10000 0.5 0 21:58 11.02.2020
3084 Clear 20 1027 30 10000 0.5 0 21:39 11.02.2020
3085 Clear 22 1026 26 10000 3.1 350 21:19 11.02.2020
3086 Clear 22 1026 26 10000 1 0 20:59 11.02.2020
3087 Clear 22 1026 26 10000 1 0 20:39 11.02.2020
3088 Clear 22 1026 26 10000 1 0 20:39 11.02.2020
3089 Clear 23 1026 23 10000 1.5 340 20:20 11.02.2020
3090 Clear 23 1026 23 10000 2.1 330 19:58 11.02.2020
3091 Clear 23 1026 23 10000 2.1 330 19:40 11.02.2020
3092 Clear 24 1026 22 10000 3.1 330 19:22 11.02.2020
3093 Clear 25 1026 20 10000 2.6 330 18:46 11.02.2020
3094 Clear 26 1026 19 10000 2.6 340 18:28 11.02.2020
3095 Clear 26 1026 21 10000 2.6 320 17:59 11.02.2020
3096 Clear 26 1026 21 10000 2.6 320 17:40 11.02.2020
3097 Clear 27 1026 22 10000 2.1 0 17:21 11.02.2020
3098 Clear 27 1026 22 10000 1.5 0 16:59 11.02.2020
3099 Clear 27 1026 22 10000 1.5 0 16:40 11.02.2020
3100 Clear 26 1026 22 10000 2.1 0 16:22 11.02.2020
3101 Clear 25 1027 23 10000 3.1 330 15:58 11.02.2020
3102 Clear 25 1027 23 10000 3.1 330 15:39 11.02.2020
3103 Clear 25 1027 23 10000 3.1 10 15:21 11.02.2020
3104 Clear 25 1028 20 10000 3.1 10 14:42 11.02.2020
3105 Clear 24 1029 25 10000 2.1 330 14:19 11.02.2020
3106 Clear 24 1029 29 10000 2.1 350 13:58 11.02.2020
3107 Clear 24 1029 29 10000 2.1 350 13:39 11.02.2020
3108 Clear 24 1030 33 10000 1.5 0 13:20 11.02.2020
3109 Clear 23 1030 35 10000 1 0 12:55 11.02.2020
3110 Clear 23 1030 35 10000 1 0 12:36 11.02.2020
3111 Clear 22 1030 37 10000 1 0 12:18 11.02.2020
3112 Clear 20 1030 37 10000 1 0 11:41 11.02.2020
3113 Clear 21 1030 35 10000 0.5 0 11:20 11.02.2020
3114 Clear 18 1030 36 10000 1.5 160 10:55 11.02.2020
3115 Clear 18 1030 36 10000 1.5 160 10:36 11.02.2020
3116 Clear 15 1030 47 10000 1 0 10:18 11.02.2020
3117 Clear 9 1029 61 10000 1 0 09:44 11.02.2020
3118 Clear 9 1029 61 10000 1 0 09:22 11.02.2020
3119 Clear 9 1029 61 10000 1 0 08:56 11.02.2020
3120 Clear 9 1029 61 10000 1 0 08:38 11.02.2020
3121 Clear 9 1029 61 10000 1 0 08:19 11.02.2020
3122 Clear 10 1029 57 10000 1 0 07:45 11.02.2020
3123 Clear 10 1029 57 10000 2.1 140 07:24 11.02.2020
3124 Clear 9 1028 66 10000 1.5 90 06:42 11.02.2020
3125 Clear 10 1028 66 10000 0.5 0 06:20 11.02.2020
3126 Clear 10 1028 61 10000 0.5 0 05:47 11.02.2020
3127 Clear 12 1028 50 10000 1.5 170 05:21 11.02.2020
3128 Clear 12 1028 54 10000 1.5 170 04:36 11.02.2020
3129 Clear 11 1029 66 10000 2.1 100 02:41 11.02.2020
3130 Clear 12 1029 62 10000 1.5 80 02:22 11.02.2020
3131 Clear 15 1029 51 10000 1 0 01:34 11.02.2020
3132 Clear 15 1029 58 10000 1.5 220 00:38 11.02.2020
3133 Clear 17 1030 51 10000 3.1 210 23:53 10.02.2020
3134 Clear 18 1030 42 10000 1.5 250 23:33 10.02.2020
3135 Clear 18 1030 42 10000 1.5 250 23:33 10.02.2020
3136 Clear 18 1029 39 10000 1.5 0 22:58 10.02.2020
3137 Clear 18 1029 39 10000 1.5 0 22:38 10.02.2020
3138 Clear 18 1029 39 10000 1 0 22:20 10.02.2020
3139 Clear 20 1029 34 10000 1.5 80 21:43 10.02.2020
3140 Clear 20 1029 32 10000 1.5 170 21:25 10.02.2020
3141 Clear 20 1028 32 10000 0.5 0 20:58 10.02.2020
3142 Clear 20 1028 32 10000 0.5 0 20:38 10.02.2020
3143 Clear 21 1028 30 10000 2.1 280 20:20 10.02.2020
3144 Clear 22 1028 28 10000 3.1 280 19:58 10.02.2020
3145 Clear 22 1028 28 10000 3.1 280 19:38 10.02.2020
3146 Clear 23 1027 27 10000 2.6 280 19:19 10.02.2020
3147 Clear 25 1027 23 10000 1.5 280 18:58 10.02.2020
3148 Clear 25 1027 23 10000 1.5 280 18:40 10.02.2020
3149 Clouds 25 1027 22 10000 2.1 280 18:20 10.02.2020
3150 Clouds 26 1026 22 10000 1.5 240 17:57 10.02.2020
3151 Clouds 26 1026 22 10000 1.5 240 17:57 10.02.2020
3152 Clouds 26 1026 22 10000 1.5 0 17:37 10.02.2020
3153 Clouds 26 1026 22 10000 1.5 0 17:19 10.02.2020
3154 Clear 26 1026 21 10000 2.6 30 16:58 10.02.2020
3155 Clear 26 1026 21 10000 2.6 30 16:39 10.02.2020
3156 Clear 26 1027 22 10000 1 0 16:19 10.02.2020
3157 Clear 26 1027 22 10000 1.5 0 15:56 10.02.2020
3158 Clear 26 1027 22 10000 1.5 0 15:38 10.02.2020
3159 Clear 25 1027 23 10000 1.5 0 15:20 10.02.2020
3160 Clear 24 1028 25 10000 2.1 0 14:55 10.02.2020
3161 Clear 24 1028 25 10000 2.1 0 14:36 10.02.2020
3162 Clouds 23 1029 28 10000 2.6 30 14:18 10.02.2020
3163 Clouds 22 1029 33 10000 2.6 50 13:42 10.02.2020
3164 Clouds 22 1030 35 10000 2.6 50 13:23 10.02.2020
3165 Clouds 21 1030 37 10000 2.6 20 12:48 10.02.2020
3166 Clouds 19 1030 42 8000 2.1 50 12:26 10.02.2020
3167 Clouds 18 1030 45 8000 1.5 40 11:56 10.02.2020
3168 Clouds 18 1030 45 8000 1.5 40 11:38 10.02.2020
3169 Clear 17 1030 45 8000 1.5 50 11:19 10.02.2020
3170 Clear 15 1030 54 8000 1.5 90 10:46 10.02.2020
3171 Clear 13 1030 58 8000 2.1 80 10:27 10.02.2020
3172 Clear 12 1030 62 8000 1.5 80 09:47 10.02.2020
3173 Clear 9 1030 76 8000 1 0 09:26 10.02.2020
3174 Clear 8 1030 81 8000 1.2 53 08:56 10.02.2020
3175 Clear 9 1029 81 8000 0.5 0 08:37 10.02.2020
3176 Clear 9 1029 81 8000 0.5 0 08:18 10.02.2020
3177 Clear 8 1029 81 8000 1 0 07:47 10.02.2020
3178 Clear 10 1029 76 8000 1.5 110 07:26 10.02.2020
3179 Clear 9 1029 81 8000 0.5 0 06:19 10.02.2020
3180 Clear 12 1029 66 8000 1 0 04:27 10.02.2020
3181 Clear 11 1029 66 8000 2.1 100 03:34 10.02.2020
3182 Clear 11 1029 81 8000 2.6 110 02:54 10.02.2020
3183 Clear 13 1030 82 8000 2.1 60 01:38 10.02.2020
3184 Clear 14 1029 71 8000 2.1 80 00:48 10.02.2020
3185 Clear 14 1029 71 10000 1.5 60 00:30 10.02.2020
3186 Clear 15 1029 67 10000 2.6 40 23:45 09.02.2020
3187 Clear 16 1029 63 10000 3.1 30 23:26 09.02.2020
3188 Clear 17 1029 48 10000 2.6 30 22:59 09.02.2020
3189 Clear 17 1029 48 10000 2.6 30 22:38 09.02.2020
3190 Clear 15 1028 44 10000 2.1 90 22:19 09.02.2020
3191 Clear 16 1028 41 10000 2.1 70 21:41 09.02.2020
3192 Clear 18 1028 36 10000 2.6 50 21:23 09.02.2020
3193 Clear 18 1027 36 10000 2.6 50 20:48 09.02.2020
3194 Clear 19 1027 37 10000 2.6 50 20:23 09.02.2020
3195 Clear 21 1027 32 10000 2.6 30 19:58 09.02.2020
3196 Clear 21 1027 32 10000 2.6 30 19:39 09.02.2020
3197 Clear 22 1026 30 10000 2.6 30 19:20 09.02.2020
3198 Clear 22 1026 30 10000 2.6 40 18:54 09.02.2020
3199 Clear 22 1026 30 10000 2.6 40 18:36 09.02.2020
3200 Clear 23 1026 28 10000 3.1 0 18:18 09.02.2020
3201 Clear 23 1026 31 10000 2.6 40 17:39 09.02.2020
3202 Clear 23 1026 31 10000 3.6 30 17:21 09.02.2020
3203 Clear 23 1026 28 10000 4.1 40 16:44 09.02.2020
3204 Clear 23 1026 33 10000 3.1 340 16:24 09.02.2020
3205 Clear 23 1026 35 10000 3.1 30 15:59 09.02.2020
3206 Clear 23 1026 35 10000 3.1 30 15:41 09.02.2020
3207 Clear 23 1026 35 10000 3.1 30 15:41 09.02.2020
3208 Clear 22 1026 35 10000 2.6 0 15:22 09.02.2020
3209 Clear 22 1027 30 10000 3.1 50 14:57 09.02.2020
3210 Clear 22 1027 30 10000 3.1 50 14:39 09.02.2020
3211 Clouds 21 1027 37 10000 3.6 40 14:20 09.02.2020
3212 Clouds 21 1028 43 10000 3.1 30 13:44 09.02.2020
3213 Clouds 19 1028 48 8000 3.1 30 13:26 09.02.2020
3214 Clouds 18 1028 52 8000 2.6 30 12:56 09.02.2020
3215 Clouds 18 1028 52 8000 2.6 30 12:38 09.02.2020
3216 Clouds 17 1028 55 8000 2.1 30 12:18 09.02.2020
3217 Clouds 16 1028 59 8000 1.5 70 11:41 09.02.2020
3218 Clouds 14 1028 67 8000 2.6 40 11:22 09.02.2020
3219 Clouds 13 1028 71 8000 2.6 80 10:59 09.02.2020
3220 Clouds 13 1028 71 8000 2.6 80 10:40 09.02.2020
3221 Clouds 12 1028 71 8000 2.6 100 10:21 09.02.2020
3222 Clouds 11 1028 81 8000 1.5 80 09:45 09.02.2020
3223 Clouds 9 1027 87 8000 2.6 90 09:25 09.02.2020
3224 Clouds 10 1027 81 8000 1.5 80 08:45 09.02.2020
3225 Clouds 10 1027 81 6000 2.6 80 08:27 09.02.2020
3226 Clouds 10 1027 81 6000 2.1 110 07:58 09.02.2020
3227 Clouds 10 1027 81 6000 2.1 110 07:34 09.02.2020
3228 Clouds 9 1027 87 6000 1 0 06:46 09.02.2020
3229 Clouds 10 1027 81 6000 1 0 05:59 09.02.2020
3230 Clouds 10 1027 81 6000 1 0 05:37 09.02.2020
3231 Clouds 10 1027 81 6000 0.5 0 05:18 09.02.2020
3232 Clouds 12 1026 81 6000 0.5 0 03:52 09.02.2020
3233 Clouds 13 1027 66 6000 2.1 30 02:44 09.02.2020
3234 Clouds 12 1027 76 6000 1.5 50 02:24 09.02.2020
3235 Clouds 12 1027 71 6000 2.1 70 01:34 09.02.2020
3236 Clouds 13 1027 71 6000 2.1 80 00:41 09.02.2020
3237 Clouds 13 1027 76 6000 2.6 80 00:21 09.02.2020
3238 Clouds 14 1027 71 6000 3.6 90 23:42 08.02.2020
3239 Clear 15 1028 72 6000 3.6 70 23:20 08.02.2020
3240 Clear 15 1028 72 6000 3.6 70 23:20 08.02.2020
3241 Clear 15 1028 72 6000 4.1 40 22:42 08.02.2020
3242 Clear 16 1027 63 6000 4.1 30 22:21 08.02.2020
3243 Clear 17 1027 45 6000 2.6 40 21:58 08.02.2020
3244 Clear 17 1027 45 6000 2.6 40 21:40 08.02.2020
3245 Clear 18 1027 42 6000 3.1 40 21:19 08.02.2020
3246 Clear 18 1027 42 6000 3.1 30 20:55 08.02.2020
3247 Clear 18 1027 42 6000 3.1 30 20:37 08.02.2020
3248 Clouds 19 1026 42 6000 4.1 40 20:19 08.02.2020
3249 Clouds 19 1026 39 6000 3.6 40 19:54 08.02.2020
3250 Clouds 19 1026 39 6000 3.6 40 19:36 08.02.2020
3251 Clouds 20 1026 40 6000 4.1 30 19:18 08.02.2020
3252 Clouds 21 1025 37 6000 3.6 30 18:42 08.02.2020
3253 Clouds 21 1025 37 6000 3.1 20 18:22 08.02.2020
3254 Clouds 22 1025 37 6000 3.1 10 17:43 08.02.2020
3255 Clouds 22 1025 37 6000 3.6 360 17:21 08.02.2020
3256 Clouds 22 1025 37 6000 3.6 360 17:21 08.02.2020
3257 Clouds 22 1024 33 6000 2.6 0 16:58 08.02.2020
3258 Clouds 22 1024 33 6000 2.6 0 16:58 08.02.2020
3259 Clouds 22 1024 33 6000 2.6 0 16:38 08.02.2020
3260 Clouds 22 1024 30 6000 2.1 0 16:20 08.02.2020
3261 Clouds 22 1024 37 6000 2.1 0 15:42 08.02.2020
3262 Clouds 21 1025 43 6000 2.6 20 15:19 08.02.2020
3263 Clouds 21 1025 46 6000 2.6 30 14:58 08.02.2020
3264 Clouds 21 1025 46 6000 2.6 30 14:39 08.02.2020
3265 Clear 19 1026 52 6000 3.1 10 14:18 08.02.2020
3266 Clear 19 1026 52 6000 3.1 60 13:43 08.02.2020
3267 Clear 18 1027 55 6000 2.6 0 13:23 08.02.2020
3268 Clear 18 1027 55 6000 2.6 0 13:23 08.02.2020
3269 Clear 17 1027 59 6000 2.1 50 12:55 08.02.2020
3270 Clear 17 1027 59 6000 2.1 50 12:37 08.02.2020
3271 Clouds 16 1028 72 6000 2.1 60 12:19 08.02.2020
3272 Clouds 15 1028 67 6000 2.1 0 11:41 08.02.2020
3273 Clouds 14 1028 76 5000 1.5 30 11:21 08.02.2020
3274 Clouds 13 1028 71 5000 0.5 0 10:43 08.02.2020
3275 Clouds 12 1028 76 6000 1.5 180 10:25 08.02.2020
3276 Clouds 11 1028 76 6000 1 0 09:55 08.02.2020
3277 Clouds 8 1028 87 6000 1.5 240 09:36 08.02.2020
3278 Clouds 8 1028 87 6000 1.5 240 09:18 08.02.2020
3279 Clear 7 1028 87 8000 2.6 260 08:40 08.02.2020
3280 Clear 8 1027 87 8000 2.1 250 08:22 08.02.2020
3281 Clear 8 1027 87 8000 2.1 240 07:50 08.02.2020
3282 Clear 8 1026 87 8000 1 0 07:31 08.02.2020
3283 Clear 10 1026 81 8000 2.1 130 06:41 08.02.2020
3284 Clear 10 1025 81 8000 2.6 100 05:57 08.02.2020
3285 Clear 10 1025 87 8000 3.6 100 05:32 08.02.2020
3286 Clear 11 1025 87 8000 2.1 70 04:51 08.02.2020
3287 Clear 12 1025 81 8000 3.1 70 04:18 08.02.2020
3288 Clear 13 1026 71 8000 4.1 120 03:20 08.02.2020
3289 Clear 12 1026 81 8000 2.1 110 02:28 08.02.2020
3290 Clear 13 1026 82 8000 2.1 40 01:28 08.02.2020
3291 Clear 14 1026 71 8000 2.1 360 00:46 08.02.2020
3292 Clear 14 1026 71 10000 1.5 40 00:24 08.02.2020
3293 Clear 15 1026 67 10000 1 0 23:56 07.02.2020
3294 Clear 15 1026 67 10000 1.5 40 23:37 07.02.2020
3295 Clear 15 1026 67 10000 1.5 40 23:19 07.02.2020
3296 Clear 16 1026 63 10000 2.1 30 22:41 07.02.2020
3297 Clear 16 1026 59 10000 1 0 22:19 07.02.2020
3298 Clear 16 1026 55 10000 1.5 290 21:45 07.02.2020
3299 Clear 15 1026 58 10000 1.5 270 21:23 07.02.2020
3300 Clear 16 1025 55 10000 1.5 270 20:59 07.02.2020
3301 Clear 16 1025 55 10000 1.5 270 20:39 07.02.2020
3302 Clear 16 1025 55 10000 1.5 270 20:39 07.02.2020
3303 Clear 17 1025 51 10000 2.1 270 20:18 07.02.2020
3304 Clear 18 1025 48 10000 2.1 260 19:43 07.02.2020
3305 Clear 20 1025 42 10000 2.1 280 19:22 07.02.2020
3306 Clear 21 1024 43 10000 2.1 260 18:59 07.02.2020
3307 Clear 21 1024 43 10000 2.1 260 18:41 07.02.2020
3308 Clear 21 1025 40 10000 2.1 280 18:23 07.02.2020
3309 Clear 22 1025 33 10000 2.6 310 17:44 07.02.2020
3310 Clear 22 1024 33 10000 2.1 280 17:22 07.02.2020
3311 Clear 22 1024 33 10000 2.1 280 17:22 07.02.2020
3312 Clear 22 1024 35 10000 3.1 0 16:58 07.02.2020
3313 Clear 22 1024 35 10000 3.1 0 16:39 07.02.2020
3314 Clear 21 1025 43 10000 2.6 0 16:21 07.02.2020
3315 Clear 21 1025 43 10000 2.1 300 15:52 07.02.2020
3316 Clear 20 1025 42 10000 3.1 320 15:28 07.02.2020
3317 Clear 20 1025 49 8000 2.6 330 14:55 07.02.2020
3318 Clear 20 1025 49 8000 2.6 330 14:37 07.02.2020
3319 Clear 18 1025 55 8000 2.6 330 14:19 07.02.2020
3320 Clear 18 1026 63 8000 1.5 0 13:40 07.02.2020
3321 Clouds 17 1026 67 6000 1.5 0 13:22 07.02.2020
3322 Clouds 16 1026 82 6000 1 0 12:58 07.02.2020
3323 Clouds 16 1026 82 6000 1 0 12:40 07.02.2020
3324 Clouds 13 1027 93 6000 2.1 280 12:21 07.02.2020
3325 Mist 11 1027 100 4000 2.1 220 11:42 07.02.2020
3326 Mist 10 1026 93 4000 2.1 220 11:22 07.02.2020
3327 Mist 9 1026 100 4000 2.1 240 10:43 07.02.2020
3328 Mist 9 1026 100 2000 2.6 280 10:24 07.02.2020
3329 Fog 10 1025 93 100 2.1 280 09:59 07.02.2020
3330 Fog 10 1025 93 100 2.1 280 09:40 07.02.2020
3331 Fog 10 1025 100 100 0.5 0 09:21 07.02.2020
3332 Fog 10 1024 100 100 1 0 08:44 07.02.2020
3333 Fog 10 1024 100 100 1 0 08:44 07.02.2020
3334 Fog 11 1024 93 200 0.5 0 08:21 07.02.2020
3335 Mist 11 1024 93 3000 1.5 10 07:52 07.02.2020
3336 Clouds 10 1024 93 10000 1.5 30 07:30 07.02.2020
3337 Clouds 10 1023 100 10000 0.08 208 06:47 07.02.2020
3338 Clouds 11 1023 93 10000 2.1 180 06:27 07.02.2020
3339 Clouds 10 1023 100 10000 1 0 05:58 07.02.2020
3340 Clouds 10 1023 100 10000 1 0 05:36 07.02.2020
3341 Clouds 11 1024 66 10000 2.1 250 03:33 07.02.2020
3342 Clouds 13 1024 62 10000 2.1 250 01:51 07.02.2020
3343 Clouds 14 1024 58 10000 2.1 240 00:59 07.02.2020
3344 Clouds 14 1024 58 10000 2.1 250 00:26 07.02.2020
3345 Clouds 14 1024 58 10000 2.1 250 23:38 06.02.2020
3346 Clouds 15 1024 54 10000 2.6 240 23:19 06.02.2020
3347 Clouds 16 1023 51 10000 3.6 230 22:46 06.02.2020
3348 Clouds 17 1023 45 10000 4.1 230 22:26 06.02.2020
3349 Clouds 16 1023 44 10000 2.1 250 21:57 06.02.2020
3350 Clouds 16 1023 44 10000 2.1 250 21:36 06.02.2020
3351 Clouds 18 1022 39 10000 2.6 280 21:18 06.02.2020
3352 Clouds 20 1022 32 10000 3.6 300 20:55 06.02.2020
3353 Clouds 20 1022 32 10000 3.6 300 20:36 06.02.2020
3354 Clouds 21 1021 30 10000 3.1 300 20:18 06.02.2020
3355 Clouds 21 1021 28 10000 3.1 270 19:55 06.02.2020
3356 Clouds 21 1021 28 10000 3.1 270 19:36 06.02.2020
3357 Clouds 23 1020 25 10000 3.1 290 19:18 06.02.2020
3358 Clouds 25 1020 20 10000 3.6 290 18:40 06.02.2020
3359 Clouds 26 1020 21 10000 2.6 290 18:22 06.02.2020
3360 Clouds 26 1019 19 10000 2.6 300 17:57 06.02.2020
3361 Clouds 26 1019 19 10000 2.6 300 17:38 06.02.2020
3362 Clouds 26 1019 19 10000 2.6 300 17:19 06.02.2020
3363 Clouds 27 1019 18 10000 3.1 300 16:42 06.02.2020
3364 Clouds 27 1019 17 10000 3.6 320 16:23 06.02.2020
3365 Clouds 26 1020 19 10000 3.1 310 15:43 06.02.2020
3366 Clouds 26 1020 17 10000 2.6 320 15:23 06.02.2020
3367 Clouds 26 1020 17 10000 2.1 0 14:57 06.02.2020
3368 Clouds 26 1020 17 10000 2.1 0 14:39 06.02.2020
3369 Clouds 26 1020 21 10000 2.6 340 14:20 06.02.2020
3370 Clouds 25 1021 22 10000 1 0 13:41 06.02.2020
3371 Clouds 25 1021 22 10000 1 0 13:22 06.02.2020
3372 Clouds 23 1021 27 10000 1.5 10 12:44 06.02.2020
3373 Clouds 22 1021 30 10000 1.5 40 12:19 06.02.2020
3374 Clouds 22 1021 30 10000 1.5 40 12:19 06.02.2020
3375 Clouds 21 1021 28 10000 1.5 90 11:57 06.02.2020
3376 Clouds 21 1021 28 10000 1.5 90 11:39 06.02.2020
3377 Clouds 20 1021 30 10000 1.5 80 11:19 06.02.2020
3378 Clouds 17 1021 39 10000 1.5 110 10:56 06.02.2020
3379 Clouds 17 1021 39 10000 1.5 110 10:38 06.02.2020
3380 Clouds 15 1021 41 10000 2.1 90 10:20 06.02.2020
3381 Clouds 12 1021 54 10000 1.5 60 09:56 06.02.2020
3382 Clouds 12 1021 54 10000 1.5 60 09:36 06.02.2020
3383 Clouds 10 1020 57 10000 2.1 90 09:18 06.02.2020
3384 Clouds 8 1020 61 10000 1 0 08:41 06.02.2020
3385 Clouds 10 1020 53 10000 0.5 0 08:22 06.02.2020
3386 Clear 10 1020 53 10000 2.1 150 07:47 06.02.2020
3387 Clear 9 1019 57 10000 2.1 100 07:25 06.02.2020
3388 Clear 9 1019 57 10000 2.6 90 06:37 06.02.2020
3389 Clear 10 1019 53 10000 1.5 70 06:18 06.02.2020
3390 Clear 11 1020 50 10000 2.1 100 04:43 06.02.2020
3391 Clear 13 1020 40 10000 1 0 03:20 06.02.2020
3392 Clear 15 1021 40 10000 1.5 180 02:29 06.02.2020
3393 Clouds 14 1021 36 10000 1 0 01:35 06.02.2020
3394 Clouds 14 1021 41 10000 1.5 170 00:58 06.02.2020
3395 Clouds 15 1021 38 10000 1 0 00:26 06.02.2020
3396 Clouds 15 1021 38 10000 1 0 00:26 06.02.2020
3397 Clouds 17 1021 33 10000 1 0 23:45 05.02.2020
3398 Clouds 17 1021 33 10000 3.1 170 23:25 05.02.2020
3399 Clouds 18 1021 36 10000 1 0 22:57 05.02.2020
3400 Clouds 18 1021 36 10000 1 0 22:39 05.02.2020
3401 Clouds 18 1022 34 10000 1.5 190 22:21 05.02.2020
3402 Clouds 17 1021 33 10000 1 0 21:42 05.02.2020
3403 Clouds 19 1021 33 10000 2.1 290 21:24 05.02.2020
3404 Clouds 20 1021 28 10000 3.1 260 20:59 05.02.2020
3405 Clouds 20 1021 28 10000 3.1 260 20:38 05.02.2020
3406 Clouds 25 1020 21 10000 2.1 290 20:19 05.02.2020
3407 Clouds 25 1020 21 10000 2.1 290 19:56 05.02.2020
3408 Clouds 25 1020 21 10000 2.1 290 19:38 05.02.2020
3409 Clouds 25 1020 21 10000 2.1 290 19:19 05.02.2020
3410 Clouds 27 1020 15 10000 2.6 310 18:45 05.02.2020
3411 Clouds 27 1020 14 10000 3.1 310 18:21 05.02.2020
3412 Clouds 27 1020 14 10000 3.1 310 18:21 05.02.2020
3413 Clouds 28 1020 15 10000 3.1 330 17:58 05.02.2020
3414 Clouds 28 1020 15 10000 3.1 330 17:37 05.02.2020
3415 Clouds 28 1020 15 10000 3.1 290 17:18 05.02.2020
3416 Clouds 28 1020 15 10000 3.1 310 16:44 05.02.2020
3417 Clouds 28 1020 15 10000 3.6 320 16:25 05.02.2020
3418 Clouds 28 1020 15 10000 3.6 320 15:59 05.02.2020
3419 Clouds 28 1020 15 10000 3.6 320 15:41 05.02.2020
3420 Clouds 28 1021 15 10000 3.1 330 15:19 05.02.2020
3421 Clouds 28 1021 17 10000 3.6 300 14:55 05.02.2020
3422 Clouds 28 1021 17 10000 3.6 300 14:36 05.02.2020
3423 Clear 28 1021 17 10000 3.1 300 14:18 05.02.2020
3424 Clear 27 1022 22 10000 2.1 350 13:40 05.02.2020
3425 Clear 26 1023 22 10000 2.6 360 13:22 05.02.2020
3426 Clear 26 1023 22 10000 1 0 12:43 05.02.2020
3427 Clear 25 1023 22 10000 0.5 0 12:24 05.02.2020
3428 Clear 22 1024 26 10000 1 0 11:57 05.02.2020
3429 Clear 22 1024 26 10000 1 0 11:38 05.02.2020
3430 Clear 20 1024 32 10000 1 0 11:19 05.02.2020
3431 Clear 18 1024 36 10000 1 0 10:42 05.02.2020
3432 Clear 15 1023 44 10000 1 0 10:24 05.02.2020
3433 Clear 13 1023 50 10000 1.5 100 09:57 05.02.2020
3434 Clear 13 1023 50 10000 1.5 100 09:37 05.02.2020
3435 Clear 10 1023 57 10000 2.1 100 09:19 05.02.2020
3436 Clear 8 1023 61 10000 2.6 90 08:41 05.02.2020
3437 Clear 9 1023 27 10000 1.5 80 08:23 05.02.2020
3438 Clear 9 1023 34 10000 3.1 100 07:48 05.02.2020
3439 Clear 10 1023 53 10000 2.1 110 07:29 05.02.2020
3440 Clear 10 1022 34 10000 1 0 06:46 05.02.2020
3441 Clear 11 1022 50 10000 2.1 90 06:23 05.02.2020
3442 Clear 10 1022 53 10000 1.5 110 05:51 05.02.2020
3443 Clear 9 1023 57 10000 2.1 100 05:18 05.02.2020
3444 Clear 10 1023 53 10000 2.1 80 04:45 05.02.2020
3445 Clear 11 1023 50 10000 1.5 100 03:36 05.02.2020
3446 Clear 15 1023 33 10000 1.5 150 02:24 05.02.2020
3447 Clear 13 1023 35 10000 1.5 80 01:36 05.02.2020
3448 Clear 16 1024 37 10000 1.5 200 00:42 05.02.2020
3449 Clear 16 1025 36 10000 3.1 190 23:43 04.02.2020
3450 Clear 17 1025 33 10000 1 0 23:23 04.02.2020
3451 Clear 18 1025 31 10000 3.1 180 22:58 04.02.2020
3452 Clear 18 1025 31 10000 3.1 180 22:40 04.02.2020
3453 Clear 17 1025 33 10000 1 0 22:21 04.02.2020
3454 Clear 19 1024 29 10000 1 0 21:59 04.02.2020
3455 Clear 19 1024 29 10000 1 0 21:40 04.02.2020
3456 Clear 20 1025 24 10000 1 0 21:19 04.02.2020
3457 Clear 20 1025 24 10000 1 0 21:19 04.02.2020
3458 Clear 20 1025 34 10000 1.5 260 20:57 04.02.2020
3459 Clear 20 1025 34 10000 1.5 260 20:38 04.02.2020
3460 Clear 22 1025 26 10000 1.5 270 20:19 04.02.2020
3461 Clear 23 1025 26 10000 2.1 270 19:55 04.02.2020
3462 Clear 23 1025 26 10000 2.1 270 19:37 04.02.2020
3463 Clear 24 1025 26 10000 2.1 270 19:18 04.02.2020
3464 Clear 26 1024 16 10000 2.1 300 18:54 04.02.2020
3465 Clear 26 1024 16 10000 2.1 300 18:36 04.02.2020
3466 Clear 27 1024 14 10000 2.6 290 18:18 04.02.2020
3467 Clear 27 1025 14 10000 2.6 300 17:41 04.02.2020
3468 Clear 27 1025 15 10000 3.1 300 17:20 04.02.2020
3469 Clear 28 1025 17 10000 2.6 300 16:40 04.02.2020
3470 Clear 28 1025 15 10000 2.6 330 16:21 04.02.2020
3471 Clear 28 1025 15 10000 2.1 290 15:58 04.02.2020
3472 Clear 28 1025 15 10000 2.1 290 15:40 04.02.2020
3473 Clear 28 1025 15 10000 1.5 0 15:20 04.02.2020
3474 Clear 27 1026 15 10000 1.5 0 14:57 04.02.2020
3475 Clear 27 1026 15 10000 1.5 0 14:39 04.02.2020
3476 Clear 26 1026 16 10000 2.1 320 14:20 04.02.2020
3477 Clear 26 1027 19 10000 1 0 13:41 04.02.2020
3478 Clear 24 1028 16 10000 1 0 13:23 04.02.2020
3479 Clear 24 1028 16 10000 1 0 12:58 04.02.2020
3480 Clear 24 1028 16 10000 1 0 12:39 04.02.2020
3481 Clear 24 1028 23 10000 0.5 0 12:20 04.02.2020
3482 Clear 22 1028 28 10000 0.5 0 11:56 04.02.2020
3483 Clear 22 1028 28 10000 0.5 0 11:37 04.02.2020
3484 Clear 19 1028 34 10000 1 0 11:18 04.02.2020
3485 Clear 16 1028 41 10000 1 0 10:45 04.02.2020
3486 Clear 14 1028 47 10000 1 0 10:26 04.02.2020
3487 Clear 11 1027 53 10000 1 0 09:57 04.02.2020
3488 Clear 11 1027 53 10000 1 0 09:38 04.02.2020
3489 Clear 9 1027 57 10000 2.1 80 09:19 04.02.2020
3490 Clear 8 1027 61 10000 2.6 80 08:45 04.02.2020
3491 Clear 8 1027 61 10000 2.6 80 08:45 04.02.2020
3492 Clear 8 1027 29 10000 2.1 80 08:27 04.02.2020
3493 Clear 8 1027 61 10000 2.1 80 07:50 04.02.2020
3494 Clear 9 1026 57 10000 2.1 70 07:24 04.02.2020
3495 Clear 9 1026 57 10000 2.1 70 07:24 04.02.2020
3496 Clear 9 1027 34 10000 1.5 80 06:53 04.02.2020
3497 Clear 9 1027 34 10000 1.5 80 06:34 04.02.2020
3498 Clear 9 1027 34 10000 1 0 05:34 04.02.2020
3499 Clear 10 1027 34 10000 1 0 04:27 04.02.2020
3500 Clear 13 1027 37 10000 1 0 03:46 04.02.2020
3501 Clear 13 1028 37 10000 1 0 03:27 04.02.2020
3502 Clear 14 1028 35 10000 1 0 02:37 04.02.2020
3503 Clear 12 1028 46 10000 1.5 190 01:57 04.02.2020
3504 Clear 12 1028 46 10000 1.5 190 01:39 04.02.2020
3505 Clear 15 1028 31 10000 1 0 00:52 04.02.2020
3506 Clear 15 1028 38 10000 1.5 150 00:22 04.02.2020
3507 Clear 16 1028 36 10000 2.6 100 23:45 03.02.2020
3508 Clear 16 1028 36 10000 2.1 80 23:26 03.02.2020
3509 Clear 16 1028 36 10000 3.1 100 22:54 03.02.2020
3510 Clear 16 1028 36 10000 3.1 100 22:36 03.02.2020
3511 Clear 15 1028 29 10000 3.1 110 22:18 03.02.2020
3512 Clear 17 1028 29 10000 3.1 80 21:41 03.02.2020
3513 Clear 21 1027 22 10000 2.1 30 21:19 03.02.2020
3514 Clear 22 1027 21 10000 2.1 30 20:42 03.02.2020
3515 Clear 23 1027 18 10000 1 0 20:20 03.02.2020
3516 Clear 24 1026 17 10000 1.5 10 19:59 03.02.2020
3517 Clear 24 1026 17 10000 1.5 10 19:40 03.02.2020
3518 Clear 26 1026 14 10000 2.1 20 19:21 03.02.2020
3519 Clear 27 1026 19 10000 1 0 18:57 03.02.2020
3520 Clear 27 1026 19 10000 1 0 18:38 03.02.2020
3521 Clear 28 1026 19 10000 1.5 100 18:20 03.02.2020
3522 Clear 29 1026 19 10000 1 0 17:55 03.02.2020
3523 Clear 29 1026 19 10000 1 0 17:36 03.02.2020
3524 Clear 28 1026 15 10000 2.1 340 17:18 03.02.2020
3525 Clear 28 1026 15 10000 1.5 0 16:40 03.02.2020
3526 Clear 28 1026 15 10000 2.6 30 16:21 03.02.2020
3527 Clear 28 1026 15 10000 2.6 50 15:56 03.02.2020
3528 Clear 28 1026 15 10000 2.6 50 15:56 03.02.2020
3529 Clear 28 1026 15 10000 2.6 50 15:38 03.02.2020
3530 Clear 28 1026 12 10000 2.1 0 15:19 03.02.2020
3531 Clear 27 1027 12 10000 2.1 40 14:45 03.02.2020
3532 Clear 27 1028 18 10000 1.5 40 14:27 03.02.2020
3533 Clear 26 1028 21 10000 1 0 13:58 03.02.2020
3534 Clear 26 1028 21 10000 1 0 13:40 03.02.2020
3535 Clear 24 1029 25 10000 1.5 20 13:19 03.02.2020
3536 Clear 24 1029 25 10000 1.5 60 12:56 03.02.2020
3537 Clear 24 1029 25 10000 1.5 60 12:37 03.02.2020
3538 Clear 24 1029 25 10000 1.5 60 12:37 03.02.2020
3539 Clear 22 1029 30 10000 1 0 12:19 03.02.2020
3540 Clear 19 1029 37 10000 2.1 70 11:39 03.02.2020
3541 Clear 18 1029 39 10000 1.5 80 11:19 03.02.2020
3542 Clear 18 1029 39 10000 1.5 80 11:19 03.02.2020
3543 Clear 16 1029 44 10000 1.5 100 10:58 03.02.2020
3544 Clear 16 1029 44 10000 1.5 100 10:38 03.02.2020
3545 Clear 13 1029 50 10000 1.5 60 10:20 03.02.2020
3546 Clear 12 1029 54 10000 1 0 09:39 03.02.2020
3547 Clear 9 1029 61 10000 1 0 09:20 03.02.2020
3548 Clear 8 1029 61 10000 2.6 90 08:41 03.02.2020
3549 Clear 8 1029 61 10000 2.6 90 08:41 03.02.2020
3550 Clear 8 1028 61 10000 2.6 90 08:23 03.02.2020
3551 Clear 8 1028 61 10000 3.1 100 07:57 03.02.2020
3552 Clear 8 1028 61 10000 3.1 100 07:39 03.02.2020
3553 Clear 8 1028 61 10000 2.1 80 07:20 03.02.2020
3554 Clear 9 1028 57 10000 1.5 90 06:42 03.02.2020
3555 Clear 9 1027 57 10000 2.6 80 06:24 03.02.2020
3556 Clear 10 1027 32 10000 1.5 60 05:35 03.02.2020
3557 Clear 9 1027 57 10000 1.5 120 04:50 03.02.2020
3558 Clear 12 1028 30 10000 0.5 0 02:58 03.02.2020
3559 Clear 15 1028 33 10000 1 0 02:32 03.02.2020
3560 Clear 17 1028 29 10000 1.5 200 00:55 03.02.2020
3561 Clear 17 1028 29 10000 1.5 200 00:36 03.02.2020
3562 Clear 16 1028 29 10000 2.1 200 00:18 03.02.2020
3563 Clear 17 1028 29 10000 3.1 200 23:37 02.02.2020
3564 Clear 18 1028 27 10000 2.1 210 23:18 02.02.2020
3565 Clear 17 1027 33 10000 3.1 180 22:40 02.02.2020
3566 Clear 17 1027 33 10000 3.1 180 22:22 02.02.2020
3567 Clear 18 1027 31 10000 1.5 200 21:59 02.02.2020
3568 Clear 18 1027 31 10000 1.5 200 21:39 02.02.2020
3569 Clear 19 1027 30 10000 1 0 21:21 02.02.2020
3570 Clear 19 1027 30 10000 1.5 230 20:58 02.02.2020
3571 Clear 19 1027 30 10000 1.5 230 20:39 02.02.2020
3572 Clear 21 1026 21 10000 1.5 270 20:20 02.02.2020
3573 Clear 22 1026 21 10000 1 0 19:59 02.02.2020
3574 Clear 22 1026 21 10000 1 0 19:41 02.02.2020
3575 Clear 24 1026 19 10000 1 0 19:22 02.02.2020
3576 Clear 26 1025 21 10000 2.1 290 18:56 02.02.2020
3577 Clear 26 1025 16 10000 2.6 300 18:37 02.02.2020
3578 Clear 26 1025 16 10000 2.6 300 18:19 02.02.2020
3579 Clear 27 1025 15 10000 3.1 310 17:57 02.02.2020
3580 Clear 27 1025 15 10000 3.1 310 17:37 02.02.2020
3581 Clear 27 1025 14 10000 3.1 320 17:18 02.02.2020
3582 Clear 27 1025 15 10000 4.1 290 16:57 02.02.2020
3583 Clear 27 1025 15 10000 4.1 290 16:38 02.02.2020
3584 Clear 27 1025 15 10000 3.6 310 16:18 02.02.2020
3585 Clear 27 1025 12 10000 3.6 290 15:56 02.02.2020
3586 Clear 27 1025 12 10000 3.6 290 15:37 02.02.2020
3587 Clear 27 1025 12 10000 3.6 290 15:19 02.02.2020
3588 Clear 26 1026 22 10000 2.1 330 14:44 02.02.2020
3589 Clear 26 1026 22 10000 2.1 330 14:44 02.02.2020
3590 Clear 25 1026 25 10000 1 0 14:19 02.02.2020
3591 Clear 24 1027 25 10000 1.5 350 13:59 02.02.2020
3592 Clear 24 1027 25 10000 1.5 350 13:41 02.02.2020
3593 Clear 24 1027 25 10000 1.5 350 13:21 02.02.2020
3594 Clear 24 1027 25 10000 1.5 350 13:21 02.02.2020
3595 Clear 23 1027 28 10000 1 0 12:56 02.02.2020
3596 Clear 23 1027 28 10000 1 0 12:38 02.02.2020
3597 Clear 22 1027 28 10000 1 0 12:19 02.02.2020
3598 Clear 20 1027 34 10000 1 0 11:42 02.02.2020
3599 Clear 18 1027 42 10000 0.5 0 11:19 02.02.2020
3600 Clear 15 1027 51 10000 1 0 10:58 02.02.2020
3601 Clear 15 1027 51 10000 1 0 10:39 02.02.2020
3602 Clear 12 1027 54 10000 1.5 90 10:21 02.02.2020
3603 Clear 10 1026 61 10000 2.1 60 09:57 02.02.2020
3604 Clear 10 1026 61 10000 2.1 60 09:39 02.02.2020
3605 Clear 8 1026 65 10000 3.1 110 09:20 02.02.2020
3606 Clear 6 1026 75 10000 2.6 80 08:45 02.02.2020
3607 Clear 7 1025 70 10000 2.1 70 08:26 02.02.2020
3608 Clear 8 1025 65 10000 1.5 120 07:48 02.02.2020
3609 Clear 10 1025 53 10000 1.5 150 07:30 02.02.2020
3610 Clear 8 1025 65 10000 2.1 170 06:46 02.02.2020
3611 Clear 8 1025 65 10000 1.5 120 06:28 02.02.2020
3612 Clear 8 1025 65 10000 2.1 40 05:53 02.02.2020
3613 Clear 8 1025 70 10000 1 0 05:18 02.02.2020
3614 Clear 9 1025 61 10000 1.5 130 03:41 02.02.2020
3615 Clear 9 1025 61 10000 2.1 100 02:42 02.02.2020
3616 Clouds 13 1025 43 10000 1 0 01:57 02.02.2020
3617 Clouds 13 1025 43 10000 1 0 01:36 02.02.2020
3618 Clouds 14 1026 41 10000 2.1 180 00:49 02.02.2020
3619 Clouds 13 1026 47 10000 1.5 110 00:24 02.02.2020
3620 Clouds 14 1026 41 10000 0.5 0 23:55 01.02.2020
3621 Clouds 14 1026 41 10000 0.5 0 23:36 01.02.2020
3622 Clouds 14 1026 44 10000 1 0 23:18 01.02.2020
3623 Clouds 15 1025 38 10000 1.5 120 22:42 01.02.2020
3624 Clouds 15 1025 38 10000 1.5 120 22:42 01.02.2020
3625 Clouds 15 1025 38 10000 1.5 110 22:18 01.02.2020
3626 Clouds 15 1025 38 10000 2.1 120 21:40 01.02.2020
3627 Clouds 17 1025 33 10000 1.5 90 21:19 01.02.2020
3628 Clouds 18 1025 38 10000 2.1 70 20:43 01.02.2020
3629 Clouds 19 1025 30 10000 2.1 40 20:21 01.02.2020
3630 Clouds 20 1025 30 10000 2.6 50 19:58 01.02.2020
3631 Clouds 20 1025 30 10000 2.6 50 19:39 01.02.2020
3632 Clouds 22 1025 24 10000 3.6 30 19:20 01.02.2020
3633 Clouds 23 1024 23 10000 3.6 40 18:59 01.02.2020
3634 Clouds 23 1024 23 10000 3.6 40 18:41 01.02.2020
3635 Clouds 24 1024 30 10000 3.6 40 18:23 01.02.2020
3636 Clouds 25 1024 30 10000 4.1 60 17:58 01.02.2020
3637 Clouds 25 1024 30 10000 4.1 60 17:40 01.02.2020
3638 Clouds 25 1024 22 10000 3.6 30 17:20 01.02.2020
3639 Clouds 25 1024 23 10000 3.6 60 16:57 01.02.2020
3640 Clouds 25 1024 23 10000 2.6 40 16:38 01.02.2020
3641 Clouds 25 1024 23 10000 2.6 40 16:20 01.02.2020
3642 Clouds 25 1024 23 10000 2.6 30 15:42 01.02.2020
3643 Clouds 24 1025 25 10000 2.1 20 15:24 01.02.2020
3644 Clouds 24 1025 27 10000 3.1 40 14:58 01.02.2020
3645 Clouds 24 1025 27 10000 3.1 40 14:39 01.02.2020
3646 Clear 23 1025 28 10000 3.1 70 14:20 01.02.2020
3647 Clear 22 1026 30 10000 3.6 60 13:43 01.02.2020
3648 Clear 21 1026 30 10000 3.1 60 13:21 01.02.2020
3649 Clear 20 1026 32 10000 2.6 60 12:44 01.02.2020
3650 Clear 19 1026 34 10000 2.1 60 12:26 01.02.2020
3651 Clear 18 1026 39 10000 1.5 90 11:57 01.02.2020
3652 Clear 18 1026 39 10000 1.5 90 11:37 01.02.2020
3653 Clear 17 1026 42 10000 1.5 70 11:19 01.02.2020
3654 Clear 14 1026 50 10000 2.1 90 10:55 01.02.2020
3655 Clear 14 1026 50 10000 2.1 90 10:37 01.02.2020
3656 Clear 14 1026 50 10000 2.1 90 10:37 01.02.2020
3657 Clear 12 1026 58 10000 1.5 60 10:19 01.02.2020
3658 Clear 9 1025 66 10000 2.1 60 09:41 01.02.2020
3659 Clear 9 1025 66 10000 2.1 60 09:41 01.02.2020
3660 Clear 7 1025 70 10000 2.6 80 09:23 01.02.2020
3661 Clear 7 1025 70 10000 2.6 90 08:59 01.02.2020
3662 Clear 7 1025 70 10000 2.6 90 08:38 01.02.2020
3663 Clear 7 1025 70 10000 1.5 60 07:47 01.02.2020
3664 Clear 7 1025 75 10000 1.5 110 07:25 01.02.2020
3665 Clear 7 1025 70 10000 2.1 110 06:50 01.02.2020
3666 Clear 7 1025 70 10000 2.1 110 06:50 01.02.2020
3667 Clear 7 1025 75 10000 2.1 90 06:19 01.02.2020
3668 Clear 8 1025 70 10000 2.1 120 05:51 01.02.2020
3669 Clear 9 1025 66 10000 2.1 100 03:43 01.02.2020
3670 Clear 10 1025 61 10000 1 0 03:20 01.02.2020
3671 Clear 10 1026 66 10000 1 0 02:43 01.02.2020
3672 Clear 9 1026 70 10000 1.5 110 02:24 01.02.2020
3673 Clear 11 1026 57 10000 1 0 01:49 01.02.2020
3674 Clear 12 1026 54 10000 1 0 01:30 01.02.2020
3675 Clear 12 1026 58 10000 1 0 00:27 01.02.2020
3676 Clear 14 1026 47 10000 1 0 23:43 31.01.2020
3677 Clear 14 1026 47 10000 0.88 98 23:19 31.01.2020
3678 Clear 15 1026 44 10000 1 0 22:58 31.01.2020
3679 Clear 15 1026 44 10000 1 0 22:40 31.01.2020
3680 Clear 16 1026 41 10000 2.1 130 22:21 31.01.2020
3681 Clear 18 1026 36 10000 2.6 120 21:55 31.01.2020
3682 Clear 18 1026 36 10000 2.6 120 21:37 31.01.2020
3683 Clear 18 1026 36 10000 0.88 98 21:19 31.01.2020
3684 Clear 19 1026 32 10000 1 0 20:56 31.01.2020
3685 Clear 19 1026 32 10000 1 0 20:37 31.01.2020
3686 Clear 20 1025 30 10000 1 0 20:18 31.01.2020
3687 Clear 21 1025 28 10000 1.5 300 19:55 31.01.2020
3688 Clear 21 1025 28 10000 1.5 300 19:36 31.01.2020
3689 Clear 22 1025 24 10000 1.5 300 19:18 31.01.2020
3690 Clear 24 1025 22 10000 1 0 18:40 31.01.2020
3691 Clear 25 1024 20 10000 1 0 18:22 31.01.2020
3692 Clear 25 1024 20 10000 1 0 17:46 31.01.2020
3693 Clear 25 1024 20 10000 1.5 0 17:28 31.01.2020
3694 Clear 25 1024 20 10000 1.5 350 16:59 31.01.2020
3695 Clear 25 1024 20 10000 1.5 350 16:39 31.01.2020
3696 Clear 24 1025 22 10000 1.5 0 16:19 31.01.2020
3697 Clear 24 1025 25 10000 1 0 15:59 31.01.2020
3698 Clear 24 1025 25 10000 1 0 15:59 31.01.2020
3699 Clear 24 1025 25 10000 1 0 15:40 31.01.2020
3700 Clear 23 1025 27 10000 2.1 330 15:20 31.01.2020
3701 Clear 23 1025 28 10000 1.5 330 14:45 31.01.2020
3702 Clear 22 1026 33 10000 3.1 20 14:26 31.01.2020
3703 Clear 23 1026 28 10000 1 0 13:59 31.01.2020
3704 Clear 23 1026 28 10000 1 0 13:38 31.01.2020
3705 Clear 22 1026 33 10000 0.5 0 13:20 31.01.2020
3706 Clear 21 1027 32 10000 1.5 120 12:45 31.01.2020
3707 Clear 20 1028 34 10000 1 0 12:24 31.01.2020
3708 Clear 20 1028 34 10000 0.5 0 11:56 31.01.2020
3709 Clear 20 1028 34 10000 0.5 0 11:37 31.01.2020
3710 Clear 17 1028 45 10000 1 0 11:19 31.01.2020
3711 Clear 15 1028 51 10000 1 0 10:55 31.01.2020
3712 Clear 12 1027 62 10000 1 0 10:36 31.01.2020
3713 Clear 12 1027 62 10000 1 0 10:18 31.01.2020
3714 Clear 10 1027 66 10000 1.5 70 09:42 31.01.2020
3715 Clear 7 1026 75 10000 2.1 80 09:21 31.01.2020
3716 Clear 7 1026 70 10000 1.5 90 08:56 31.01.2020
3717 Clear 7 1026 70 10000 1.5 90 08:38 31.01.2020
3718 Clear 7 1026 75 10000 1 0 08:19 31.01.2020
3719 Clear 7 1026 70 10000 2.1 100 07:46 31.01.2020
3720 Clear 7 1026 70 10000 1.5 110 07:18 31.01.2020
3721 Clear 7 1026 75 10000 2.1 110 06:31 31.01.2020
3722 Clear 9 1026 61 10000 1.5 100 05:54 31.01.2020
3723 Clear 9 1026 61 10000 1.5 100 05:54 31.01.2020
3724 Clear 8 1026 65 10000 1 0 05:19 31.01.2020
3725 Clear 9 1027 61 10000 2.1 90 03:52 31.01.2020
3726 Clear 12 1027 46 10000 0.5 0 01:54 31.01.2020
3727 Clear 14 1028 41 10000 2.1 190 01:29 31.01.2020
3728 Clear 14 1028 44 10000 2.1 180 00:38 31.01.2020
3729 Clear 14 1028 44 10000 2.1 180 00:20 31.01.2020
3730 Clear 14 1028 44 10000 2.1 180 23:39 30.01.2020
3731 Clear 15 1028 41 10000 1.5 190 23:20 30.01.2020
3732 Clear 15 1028 44 10000 0.5 0 22:38 30.01.2020
3733 Clear 16 1028 41 10000 1.5 230 22:19 30.01.2020
3734 Clear 17 1027 39 10000 1.5 250 21:57 30.01.2020
3735 Clear 17 1027 39 10000 1.5 250 21:39 30.01.2020
3736 Clear 17 1027 39 10000 2.1 240 21:18 30.01.2020
3737 Clear 17 1027 39 10000 2.1 230 20:55 30.01.2020
3738 Clear 17 1027 39 10000 2.1 230 20:37 30.01.2020
3739 Clear 18 1027 34 10000 1.5 250 20:18 30.01.2020
3740 Clear 19 1026 34 10000 1.5 280 19:42 30.01.2020
3741 Clear 20 1026 32 10000 3.1 270 19:19 30.01.2020
3742 Clear 23 1026 25 10000 2.6 280 18:43 30.01.2020
3743 Clear 24 1026 22 10000 2.1 310 18:24 30.01.2020
3744 Clear 24 1026 22 10000 2.6 290 17:59 30.01.2020
3745 Clear 24 1026 24 10000 3.1 300 17:40 30.01.2020
3746 Clear 24 1026 16 10000 3.1 300 17:19 30.01.2020
3747 Clear 24 1026 22 10000 3.1 280 16:58 30.01.2020
3748 Clear 24 1026 22 10000 3.1 280 16:39 30.01.2020
3749 Clear 24 1026 23 10000 3.1 290 16:20 30.01.2020
3750 Clear 24 1026 22 10000 3.6 310 15:44 30.01.2020
3751 Clear 24 1026 27 10000 2.1 280 15:21 30.01.2020
3752 Clear 24 1026 25 10000 2.6 270 14:54 30.01.2020
3753 Clear 23 1027 27 10000 3.1 290 14:36 30.01.2020
3754 Clouds 23 1027 27 10000 3.1 290 14:18 30.01.2020
3755 Clouds 23 1027 27 10000 3.1 300 13:40 30.01.2020
3756 Clouds 21 1028 32 10000 2.1 330 13:22 30.01.2020
3757 Clouds 21 1028 30 10000 0.5 0 12:54 30.01.2020
3758 Clouds 21 1028 30 10000 0.5 0 12:36 30.01.2020
3759 Clouds 20 1028 32 10000 0.5 0 12:18 30.01.2020
3760 Clouds 18 1028 34 10000 1 0 11:40 30.01.2020
3761 Clouds 17 1028 36 10000 1 0 11:21 30.01.2020
3762 Clouds 18 1028 36 10000 0.6 87 10:57 30.01.2020
3763 Clouds 18 1028 36 10000 0.6 87 10:38 30.01.2020
3764 Clouds 14 1027 47 10000 0.6 87 10:19 30.01.2020
3765 Clouds 10 1027 61 10000 1.5 100 09:43 30.01.2020
3766 Clouds 7 1027 70 10000 2.1 120 09:22 30.01.2020
3767 Clouds 6 1026 70 10000 3.1 80 08:42 30.01.2020
3768 Clouds 8 1026 61 10000 1 0 08:22 30.01.2020
3769 Clouds 7 1025 65 10000 2.1 40 07:55 30.01.2020
3770 Clouds 7 1025 65 10000 2.1 40 07:37 30.01.2020
3771 Clouds 7 1025 65 10000 1.5 100 06:56 30.01.2020
3772 Clouds 7 1025 65 10000 1.5 60 06:33 30.01.2020
3773 Clouds 7 1025 65 10000 2.1 70 05:53 30.01.2020
3774 Clouds 7 1025 70 10000 2.1 70 05:28 30.01.2020
3775 Clouds 8 1026 61 10000 2.1 60 04:49 30.01.2020
3776 Clouds 8 1026 65 10000 2.1 80 03:47 30.01.2020
3777 Clouds 12 1026 40 10000 1.5 140 02:55 30.01.2020
3778 Clouds 13 1027 43 10000 1 180 00:57 30.01.2020
3779 Clouds 13 1027 43 10000 1.5 0 00:27 30.01.2020
3780 Clouds 13 1027 43 10000 2.6 170 23:55 29.01.2020
3781 Clouds 13 1027 43 10000 2.6 170 23:37 29.01.2020
3782 Clouds 14 1027 41 10000 1 0 23:19 29.01.2020
3783 Clouds 14 1027 41 10000 1 0 22:54 29.01.2020
3784 Clouds 14 1027 41 10000 1 0 22:36 29.01.2020
3785 Clouds 16 1027 38 0 1.5 200 22:18 29.01.2020
3786 Clouds 15 1027 38 10000 2.1 230 21:54 29.01.2020
3787 Clouds 15 1027 38 10000 2.1 230 21:36 29.01.2020
3788 Clouds 16 1027 37 10000 1 260 21:18 29.01.2020
3789 Clouds 17 1026 37 10000 1.5 240 20:40 29.01.2020
3790 Clouds 18 1026 26 10000 1.5 250 20:21 29.01.2020
3791 Clouds 18 1026 26 10000 1.5 250 20:21 29.01.2020
3792 Clouds 18 1026 26 10000 1.5 250 20:21 29.01.2020
3793 Clouds 18 1026 31 10000 1 260 19:58 29.01.2020
3794 Clouds 18 1026 31 10000 1 260 19:38 29.01.2020
3795 Clouds 20 1026 28 10000 2.6 260 19:20 29.01.2020
3796 Clouds 21 1025 26 10000 2.6 280 18:56 29.01.2020
3797 Clouds 21 1025 26 10000 2.6 280 18:37 29.01.2020
3798 Clouds 23 1025 20 10000 2.6 280 18:18 29.01.2020
3799 Clouds 23 1025 20 10000 2.1 270 17:40 29.01.2020
3800 Clouds 23 1025 17 10000 3.1 280 17:22 29.01.2020
3801 -273 0 0 0 0 0 17:22 29.01.2020
3802 Clouds 23 1025 26 10000 3.1 280 17:22 29.01.2020
3803 Clouds 23 1025 17 10000 3.1 280 17:22 29.01.2020
3804 Clouds 23 1025 18 10000 3.1 300 16:43 29.01.2020
3805 Clouds 23 1025 20 10000 3.6 300 16:23 29.01.2020
3806 Clouds 24 1024 17 10000 3.6 290 15:59 29.01.2020
3807 Clouds 24 1024 17 10000 3.6 290 15:38 29.01.2020
3808 Clouds 24 1025 19 10000 2.1 340 15:20 29.01.2020
3809 Clouds 24 1025 16 10000 0.5 0 14:45 29.01.2020
3810 Clouds 24 1025 19 10000 0.5 0 14:22 29.01.2020
3811 Clouds 24 1026 19 10000 1.87 290 13:56 29.01.2020
3812 Clouds 24 1026 19 10000 1.87 290 13:38 29.01.2020
3813 Clouds 22 1026 19 10000 1 0 13:19 29.01.2020
3814 Clouds 21 1027 19 10000 1 0 12:56 29.01.2020
3815 Clouds 21 1027 19 10000 1 0 12:37 29.01.2020
3816 Clouds 19 1027 25 10000 1 80 12:19 29.01.2020
3817 Clouds 17 1026 33 10000 1 90 11:45 29.01.2020
3818 Clouds 17 1026 33 10000 1 100 11:21 29.01.2020
3819 Clouds 14 1026 44 10000 1 100 10:47 29.01.2020
3820 Clouds 14 1026 44 10000 1 100 10:27 29.01.2020
3821 Clouds 7 1025 65 10000 2.1 80 09:58 29.01.2020
3822 Clouds 7 1025 65 10000 2.1 80 09:40 29.01.2020
3823 Clouds 7 1025 65 10000 2.1 80 09:20 29.01.2020
3824 Clouds 7 1025 65 10000 2.1 80 09:20 29.01.2020
3825 Clouds 5 1025 34 10000 2.1 100 08:56 29.01.2020
3826 Clouds 5 1025 34 10000 2.1 100 08:37 29.01.2020
3827 Clear 5 1025 37 10000 2.1 100 08:18 29.01.2020
3828 Clear 6 1024 70 10000 1 0 07:43 29.01.2020
3829 Clear 6 1024 70 10000 1 0 07:23 29.01.2020
3830 Clear 6 1024 70 10000 1 0 06:38 29.01.2020
3831 Clear 6 1024 37 10000 1.22 89 06:20 29.01.2020
3832 Clear 9 1024 37 0 1.22 89 05:52 29.01.2020
3833 Clear 9 1024 37 0 1.22 89 05:52 29.01.2020
3834 Clear 9 1024 37 0 1.22 89 05:34 29.01.2020
3835 Clear 10 1024 40 0 0.65 158 04:39 29.01.2020
3836 Clear 10 1024 40 0 0.65 158 03:59 29.01.2020
3837 Clear 10 1024 40 0 0.65 158 02:39 29.01.2020
3838 Clear 10 1025 37 10000 1.4 250 01:27 29.01.2020
3839 Clear 11 1025 37 0 1.23 250 00:39 29.01.2020
3840 Clear 12 1026 37 10000 1.5 190 00:21 29.01.2020
3841 Clear 12 1026 46 10000 2.1 180 23:40 28.01.2020
3842 Clear 13 1026 43 10000 1.5 0 23:20 28.01.2020
3843 Clear 13 1026 43 10000 1.5 0 23:20 28.01.2020
3844 Clear 13 1026 35 10000 0.5 0 22:56 28.01.2020
3845 Clear 13 1026 35 10000 0.5 0 22:36 28.01.2020
3846 Clear 14 1025 35 10000 2.1 260 22:18 28.01.2020
3847 Clear 14 1025 35 10000 2.1 260 21:39 28.01.2020
3848 Clear 15 1025 35 10000 1 0 21:20 28.01.2020
3849 Clear 16 1025 35 10000 1 0 20:46 28.01.2020
3850 Clear 18 1025 35 10000 1.5 310 20:27 28.01.2020
3851 Clear 19 1024 24 10000 1 0 19:58 28.01.2020
3852 Clear 19 1024 24 10000 1 0 19:38 28.01.2020
3853 Clear 21 1024 19 10000 0.5 0 19:19 28.01.2020
3854 Clear 22 1024 18 10000 1.5 10 18:54 28.01.2020
3855 Clear 23 1024 17 10000 1 0 18:36 28.01.2020
3856 Clear 22 1024 18 10000 1.5 10 18:36 28.01.2020
3857 Clear 23 1024 17 10000 1 0 18:18 28.01.2020
3858 Clear 23 1024 17 10000 0.5 0 17:55 28.01.2020
3859 Clear 23 1024 17 10000 0.5 0 17:36 28.01.2020
3860 Clear 23 1024 16 10000 2.1 320 17:18 28.01.2020
3861 Clear 23 1024 16 10000 2.1 320 16:44 28.01.2020
3862 Clear 23 1024 16 10000 1 0 16:26 28.01.2020
3863 Clear 23 1024 20 10000 1.5 0 15:59 28.01.2020
3864 Clear 23 1024 20 10000 1.5 0 15:40 28.01.2020
3865 Clear 22 1025 16 10000 1.5 0 15:18 28.01.2020
3866 Clear 22 1025 16 10000 2.1 10 14:44 28.01.2020
3867 Clear 21 1025 26 10000 2.1 50 14:20 28.01.2020
3868 Clear 20 1026 30 10000 2.1 10 13:43 28.01.2020
3869 Clear 20 1026 32 10000 1.5 40 13:25 28.01.2020
3870 Clear 18 1026 39 10000 1.5 30 12:56 28.01.2020
3871 Clear 18 1026 39 10000 1.5 30 12:38 28.01.2020
3872 Clear 17 1026 39 10000 1.5 30 12:20 28.01.2020
3873 Clear 16 1026 41 10000 1 0 11:41 28.01.2020
3874 Clear 13 1026 50 10000 1.5 50 11:22 28.01.2020
3875 Clear 12 1026 54 10000 1.5 80 10:55 28.01.2020
3876 Clear 12 1026 54 10000 1.5 80 10:36 28.01.2020
3877 Clear 10 1025 61 10000 2.1 90 10:18 28.01.2020
3878 Clear 8 1025 75 10000 1.5 70 09:41 28.01.2020
3879 Clear 6 1025 75 10000 1.5 80 09:20 28.01.2020
3880 Clear 5 1025 80 10000 2.6 80 08:46 28.01.2020
3881 Clear 5 1025 80 10000 2.1 80 08:26 28.01.2020
3882 Clouds 5 1025 80 10000 2.1 80 07:56 28.01.2020
3883 Clouds 6 1025 81 10000 1 0 07:34 28.01.2020
3884 Clouds 5 1025 80 10000 2.1 120 06:48 28.01.2020
3885 Clouds 9 1025 46 0 1.25 101 06:25 28.01.2020
3886 Clouds 9 1025 46 0 1.25 101 05:40 28.01.2020
3887 Clouds 9 1025 50 0 1.21 97 05:21 28.01.2020
3888 Clouds 6 1025 81 10000 2.6 90 03:49 28.01.2020
3889 Clouds 8 1025 75 10000 2.1 80 02:46 28.01.2020
3890 Clouds 8 1025 75 10000 2.1 80 02:46 28.01.2020
3891 Clouds 8 1025 75 10000 2.1 70 02:25 28.01.2020
3892 Clouds 8 1025 75 10000 2.1 90 01:55 28.01.2020
3893 Clouds 8 1026 75 10000 1.5 100 01:20 28.01.2020
3894 Clouds 9 1026 70 10000 2.1 70 00:43 28.01.2020
3895 Clouds 10 1026 71 10000 1.5 100 00:19 28.01.2020
3896 Clouds 12 1026 62 10000 1.5 120 23:43 27.01.2020
3897 Clouds 11 1026 66 10000 2.6 120 23:19 27.01.2020
3898 Clouds 11 1026 66 10000 2.6 90 22:45 27.01.2020
3899 Clouds 13 1026 58 10000 2.6 100 22:20 27.01.2020
3900 Clouds 13 1026 58 10000 2.6 100 22:20 27.01.2020
3901 Clouds 13 1026 58 10000 2.6 100 22:20 27.01.2020
3902 Clouds 14 1026 50 10000 1.5 60 21:57 27.01.2020
3903 Clouds 14 1026 50 10000 1.5 60 21:57 27.01.2020
3904 Clouds 14 1026 50 10000 1.5 60 21:39 27.01.2020
3905 Clouds 15 1026 47 10000 2.1 30 21:19 27.01.2020
3906 Clouds 17 1025 42 10000 1.5 20 20:57 27.01.2020
3907 Clouds 17 1025 42 10000 1.5 20 20:37 27.01.2020
3908 Clear 17 1025 39 10000 2.1 320 20:19 27.01.2020
3909 Clear 17 1025 39 10000 1 0 19:56 27.01.2020
3910 Clear 19 1024 34 10000 1.5 300 19:38 27.01.2020
3911 Clear 19 1024 34 10000 1.5 300 19:19 27.01.2020
3912 Clear 20 1024 32 10000 2.1 340 18:39 27.01.2020
3913 Clear 21 1024 32 10000 2.1 330 18:21 27.01.2020
3914 Clear 21 1024 32 10000 1 0 17:58 27.01.2020
3915 Clear 21 1024 32 10000 1 0 17:38 27.01.2020
3916 Clear 21 1023 32 10000 1 0 17:19 27.01.2020
3917 Clear 21 1024 35 10000 1.5 0 16:56 27.01.2020
3918 Clear 21 1024 35 10000 1 0 16:37 27.01.2020
3919 Clear 21 1024 35 10000 1 0 16:19 27.01.2020
3920 Clear 20 1024 37 10000 1 0 15:41 27.01.2020
3921 Clear 20 1024 40 10000 1 0 15:20 27.01.2020
3922 Clear 19 1025 42 10000 1 0 14:57 27.01.2020
3923 Clear 19 1025 42 10000 1 0 14:39 27.01.2020
3924 Clouds 18 1025 48 10000 1.5 0 14:20 27.01.2020
3925 Clouds 18 1025 52 10000 2.1 0 13:42 27.01.2020
3926 Clouds 17 1026 51 10000 2.1 40 13:22 27.01.2020
3927 Clouds 16 1026 59 8000 2.1 40 12:57 27.01.2020
3928 Clouds 16 1026 59 8000 2.1 40 12:57 27.01.2020
3929 Clouds 16 1026 59 8000 2.1 40 12:39 27.01.2020
3930 Clouds 15 1026 58 8000 1.5 0 12:20 27.01.2020
3931 Clouds 14 1026 62 8000 1.5 50 11:42 27.01.2020
3932 Clouds 13 1026 66 8000 1.5 80 11:22 27.01.2020
3933 Clouds 11 1026 71 8000 1.5 50 10:56 27.01.2020
3934 Clouds 11 1026 71 8000 1.5 50 10:37 27.01.2020
3935 Clouds 11 1026 76 8000 0.5 0 10:18 27.01.2020
3936 Clouds 9 1026 81 10000 2.1 140 09:39 27.01.2020
3937 Clouds 5 1025 93 10000 2.1 80 09:19 27.01.2020
3938 Clouds 4 1025 93 10000 1.5 70 08:48 27.01.2020
3939 Clouds 6 1025 87 10000 1.5 150 08:23 27.01.2020
3940 Clear 7 1024 77 0 1.61 104 07:56 27.01.2020
3941 Clear 7 1024 77 0 1.61 104 07:37 27.01.2020
3942 Clear 7 1025 87 10000 1.5 160 07:19 27.01.2020
3943 Clear 6 1025 87 10000 0.5 0 06:37 27.01.2020
3944 Clear 6 1025 93 10000 0.5 0 05:38 27.01.2020
3945 Clear 6 1025 93 10000 0.5 0 05:38 27.01.2020
3946 Clear 8 1025 73 0 1.89 95 04:37 27.01.2020
3947 Clear 8 1025 81 10000 2.1 170 03:35 27.01.2020
3948 Clear 9 1025 76 10000 1 0 01:47 27.01.2020
3949 Clear 8 1025 81 10000 1 0 01:22 27.01.2020
3950 Clear 9 1025 81 10000 1 0 00:40 27.01.2020
3951 Clear 10 1025 76 10000 1.5 90 00:21 27.01.2020
3952 Clear 9 1025 81 10000 1.5 100 23:43 26.01.2020
3953 Clear 10 1025 76 10000 2.1 100 23:22 26.01.2020
3954 Clouds 11 1025 71 10000 2.6 100 22:58 26.01.2020
3955 Clouds 11 1025 71 10000 2.6 100 22:38 26.01.2020
3956 Clouds 11 1025 71 10000 1.5 70 22:20 26.01.2020
3957 Clouds 12 1024 66 10000 2.1 50 21:57 26.01.2020
3958 Clouds 12 1024 66 10000 2.1 50 21:39 26.01.2020
3959 Clouds 13 1024 62 10000 2.6 40 21:20 26.01.2020
3960 Clouds 13 1024 62 10000 2.1 40 20:57 26.01.2020
3961 Clouds 13 1024 62 10000 2.1 40 20:38 26.01.2020
3962 Clouds 13 1024 62 10000 2.1 40 20:38 26.01.2020
3963 Clouds 14 1024 54 10000 3.1 40 20:19 26.01.2020
3964 Clouds 14 1024 54 10000 3.1 40 20:19 26.01.2020
3965 Clouds 15 1024 51 10000 3.6 40 19:57 26.01.2020
3966 Clouds 15 1024 51 10000 3.6 40 19:38 26.01.2020
3967 Clouds 16 1023 51 10000 3.6 30 19:19 26.01.2020
3968 Clouds 16 1023 51 10000 3.6 30 19:19 26.01.2020
3969 Clouds 16 1023 51 10000 3.1 50 18:54 26.01.2020
3970 Clouds 16 1023 51 10000 3.1 50 18:54 26.01.2020
3971 Clouds 16 1023 51 10000 3.1 50 18:36 26.01.2020
3972 Clouds 17 1023 48 10000 3.1 40 18:18 26.01.2020
3973 Clouds 17 1023 48 10000 3.1 40 18:18 26.01.2020
3974 Clouds 18 1023 45 10000 3.6 30 17:54 26.01.2020
3975 Clouds 18 1023 45 10000 3.6 30 17:36 26.01.2020
3976 Clouds 18 1023 45 10000 2.6 30 17:18 26.01.2020
3977 Clouds 18 1023 45 10000 2.6 30 16:54 26.01.2020
3978 Clouds 18 1023 45 10000 2.6 30 16:36 26.01.2020
3979 Clouds 18 1023 42 10000 3.6 30 16:18 26.01.2020
3980 Clouds 17 1024 48 10000 3.6 50 15:41 26.01.2020
3981 Clouds 16 1025 55 10000 3.6 40 15:19 26.01.2020
3982 Clouds 16 1025 55 10000 3.6 40 14:41 26.01.2020
3983 Clouds 16 1025 55 10000 3.6 40 14:23 26.01.2020
3984 Clear 14 1025 54 0 3.21 52 13:59 26.01.2020
3985 Clear 14 1025 54 0 3.21 52 13:59 26.01.2020
3986 Clear 14 1025 54 0 3.21 52 13:38 26.01.2020
3987 Clear 14 1025 53 0 3.11 52 13:18 26.01.2020
3988 Clear 14 1025 53 0 3.11 52 12:43 26.01.2020
3989 Clear 14 1025 53 0 3.11 52 12:24 26.01.2020
3990 Clear 14 1025 53 0 3.11 52 11:58 26.01.2020
3991 Clear 14 1025 53 0 3.11 52 11:40 26.01.2020
3992 Clear 10 1026 81 8000 0.5 0 11:19 26.01.2020
3993 Clear 10 1026 81 8000 0.5 0 10:59 26.01.2020
3994 Clear 10 1026 81 8000 0.5 0 10:39 26.01.2020
3995 Clear 10 1026 81 8000 0.5 0 10:21 26.01.2020
3996 Clear 8 1026 87 8000 1 0 09:58 26.01.2020
3997 Clear 8 1026 87 8000 1 0 09:40 26.01.2020
3998 Clear 6 1026 93 8000 1.5 110 09:21 26.01.2020
3999 Clear 5 1025 93 8000 1.5 100 08:45 26.01.2020
4000 Clouds 5 1025 93 8000 1.5 120 08:23 26.01.2020
4001 Clouds 6 1025 93 8000 1 0 07:58 26.01.2020
4002 Clouds 6 1025 93 8000 1 0 07:40 26.01.2020
4003 Clouds 6 1024 93 8000 1 0 07:22 26.01.2020
4004 Clear 6 1024 93 8000 1.5 250 06:32 26.01.2020
4005 Clear 7 1024 93 8000 1 0 05:35 26.01.2020
4006 Clear 7 1024 93 0 2.1 100 04:52 26.01.2020
4007 Clear 8 1024 93 8000 0.5 0 02:59 26.01.2020
4008 Clouds 8 1025 93 8000 1.5 150 01:59 26.01.2020
4009 Clouds 8 1025 93 8000 1.5 150 01:38 26.01.2020
4010 Clouds 9 1025 87 8000 1 0 01:19 26.01.2020
4011 Clouds 10 1025 87 8000 1 0 00:39 26.01.2020
4012 Clouds 11 1025 81 8000 1.5 180 00:20 26.01.2020
4013 Clouds 11 1025 81 8000 1.5 180 00:20 26.01.2020
4014 Clouds 11 1025 81 8000 1.5 180 00:20 26.01.2020
4015 Clouds 9 1025 89 0 0.2 304 23:37 25.01.2020
4016 Clouds 11 1024 76 0 2.02 288 23:19 25.01.2020
4017 Clouds 11 1024 76 0 2.02 288 22:43 25.01.2020
4018 Clouds 11 1024 76 0 2.02 288 22:20 25.01.2020
4019 Clouds 11 1024 76 0 2.02 288 21:57 25.01.2020
4020 Clouds 11 1024 76 0 2.02 288 21:39 25.01.2020
4021 Clouds 11 1024 76 0 2.02 288 21:21 25.01.2020
4022 Clouds 11 1024 76 0 2.02 288 20:45 25.01.2020
4023 Clouds 11 1024 76 0 2.02 288 20:26 25.01.2020
4024 Rain 13 1022 55 0 4.91 293 19:56 25.01.2020
4025 Clouds 13 1022 55 0 4.57 294 19:38 25.01.2020
4026 Clouds 13 1022 55 0 4.57 294 19:19 25.01.2020
4027 Clouds 13 1022 55 0 4.57 294 18:55 25.01.2020
4028 Clouds 13 1022 55 0 4.57 294 18:37 25.01.2020
4029 Rain 13 1022 55 0 4.91 293 18:18 25.01.2020
4030 Rain 13 1022 55 0 4.91 293 18:18 25.01.2020
4031 Rain 13 1022 55 0 4.91 293 17:39 25.01.2020
4032 Clear 17 1019 38 0 6.04 276 17:19 25.01.2020
4033 Clouds 16 1021 59 10000 5.7 290 16:56 25.01.2020
4034 Clouds 16 1021 59 10000 5.7 290 16:38 25.01.2020
4035 Clouds 16 1021 59 10000 5.7 290 16:19 25.01.2020
4036 Clear 17 1019 38 0 6.04 276 15:42 25.01.2020
4037 Clear 17 1019 38 0 6.04 276 15:24 25.01.2020
4038 Clear 17 1019 38 0 6.04 276 14:57 25.01.2020
4039 Clear 17 1019 38 0 6.04 276 14:39 25.01.2020
4040 Clear 15 1021 44 0 2.59 336 14:18 25.01.2020
4041 Clear 15 1021 44 0 2.59 336 13:40 25.01.2020
4042 Clear 15 1022 44 0 2.59 338 13:22 25.01.2020
4043 Clouds 13 1023 66 8000 2.1 280 12:43 25.01.2020
4044 Clouds 13 1023 66 8000 2.1 280 12:43 25.01.2020
4045 Clouds 13 1023 66 8000 2.1 280 12:21 25.01.2020
4046 Clouds 13 1023 66 8000 2.1 280 11:45 25.01.2020
4047 Clouds 13 1023 66 8000 2.1 280 11:45 25.01.2020
4048 Clouds 12 1022 71 8000 1.5 0 11:21 25.01.2020
4049 Clouds 12 1022 71 8000 1.5 0 11:21 25.01.2020
4050 Clouds 11 1022 76 8000 2.1 110 10:57 25.01.2020
4051 Clouds 11 1022 76 8000 2.1 110 10:39 25.01.2020
4052 Clouds 11 1021 76 8000 1 0 10:19 25.01.2020
4053 Clouds 10 1021 81 8000 1.5 80 09:40 25.01.2020
4054 Clouds 7 1020 87 8000 2.1 100 09:21 25.01.2020
4055 Clouds 7 1020 87 8000 2.1 80 08:43 25.01.2020
4056 Clear 7 1019 87 8000 1.5 130 08:21 25.01.2020
4057 Clear 8 1019 87 8000 0.5 0 07:42 25.01.2020
4058 Clear 8 1019 87 8000 0.5 0 07:42 25.01.2020
4059 Clear 9 1018 81 8000 1.5 210 06:45 25.01.2020
4060 Clouds 9 1018 81 8000 1.5 120 06:25 25.01.2020
4061 Clouds 10 1018 76 8000 3.1 120 05:45 25.01.2020
4062 Clouds 10 1019 81 8000 4.1 130 04:26 25.01.2020
4063 Clouds 10 1019 81 8000 4.1 130 03:50 25.01.2020
4064 Clouds 10 1019 81 8000 3.6 120 02:53 25.01.2020
4065 Clouds 9 1020 87 8000 2.6 110 01:59 25.01.2020
4066 Clouds 9 1020 87 8000 2.6 110 01:59 25.01.2020
4067 Clouds 9 1020 87 8000 2.6 110 01:37 25.01.2020
4068 Clouds 9 1020 81 8000 1.5 60 00:42 25.01.2020
4069 Clouds 11 1020 76 8000 1.5 20 00:23 25.01.2020
4070 Clouds 10 1019 81 8000 1.5 20 23:56 24.01.2020
4071 Clouds 10 1019 81 8000 1.5 40 23:38 24.01.2020
4072 Clouds 10 1019 81 8000 1.5 20 23:38 24.01.2020
4073 Clouds 10 1019 81 8000 1.5 40 23:19 24.01.2020
4074 Clouds 12 1019 71 8000 1 0 22:42 24.01.2020
4075 Clouds 12 1019 71 8000 1 0 22:23 24.01.2020
4076 Clouds 12 1020 71 8000 1 0 21:41 24.01.2020
4077 Clouds 13 1019 62 8000 2.1 320 21:20 24.01.2020
4078 Clouds 13 1019 62 0 2.1 330 20:55 24.01.2020
4079 Clouds 13 1019 62 0 2.1 330 20:37 24.01.2020
4080 Clear 14 1019 58 0 3.1 330 20:18 24.01.2020
4081 Clouds 14 1018 58 10000 3.6 330 19:55 24.01.2020
4082 Clouds 14 1018 58 10000 3.6 330 19:37 24.01.2020
4083 Clouds 15 1018 58 10000 5.7 320 19:19 24.01.2020
4084 Clouds 15 1018 58 10000 5.7 320 19:19 24.01.2020
4085 Clouds 17 1018 42 10000 3.1 320 18:42 24.01.2020
4086 Clouds 19 1017 34 10000 2.1 300 18:22 24.01.2020
4087 Clouds 19 1017 34 10000 3.1 310 17:45 24.01.2020
4088 Clouds 19 1017 34 10000 3.1 310 17:45 24.01.2020
4089 Clouds 19 1017 34 10000 3.1 320 17:22 24.01.2020
4090 Clouds 20 1017 32 10000 1 0 16:58 24.01.2020
4091 Clouds 20 1017 32 10000 1 0 16:38 24.01.2020
4092 Clouds 20 1017 32 10000 1.5 0 16:19 24.01.2020
4093 Clouds 20 1018 34 10000 2.1 340 15:42 24.01.2020
4094 Clouds 19 1018 37 10000 2.6 350 15:21 24.01.2020
4095 Clouds 18 1018 45 10000 2.1 20 14:55 24.01.2020
4096 Clouds 18 1018 45 10000 2.1 20 14:37 24.01.2020
4097 Clouds 17 1019 45 10000 2.1 30 14:19 24.01.2020
4098 Clouds 17 1019 48 10000 3.1 30 13:41 24.01.2020
4099 Clouds 16 1020 51 10000 2.1 10 13:22 24.01.2020
4100 Clouds 16 1020 51 10000 2.1 20 12:43 24.01.2020
4101 Clear 15 1020 54 10000 2.1 90 12:21 24.01.2020
4102 Clear 14 1020 58 10000 1.5 90 11:45 24.01.2020
4103 Clear 14 1020 58 10000 0.5 0 11:19 24.01.2020
4104 Clear 12 1020 66 10000 1 0 10:58 24.01.2020
4105 Clear 12 1020 66 10000 1 0 10:40 24.01.2020
4106 Clear 10 1019 76 10000 1 0 10:19 24.01.2020
4107 Clear 9 1019 81 10000 1.21 222 09:41 24.01.2020
4108 Clear 6 1019 87 10000 0.5 0 09:23 24.01.2020
4109 Clear 5 1019 93 10000 2.1 100 08:41 24.01.2020
4110 Clear 5 1018 93 10000 2.1 90 08:21 24.01.2020
4111 Clouds 4 1018 93 8000 2.1 90 07:59 24.01.2020
4112 Clouds 4 1018 93 8000 2.1 90 07:39 24.01.2020
4113 Clouds 6 1018 93 8000 1.5 80 06:55 24.01.2020
4114 Clouds 6 1018 93 8000 1.5 80 06:35 24.01.2020
4115 Clouds 6 1018 87 8000 2.6 100 05:59 24.01.2020
4116 Clouds 7 1019 87 8000 0.5 0 05:18 24.01.2020
4117 Clouds 8 1019 87 8000 3.1 80 02:54 24.01.2020
4118 Clouds 8 1019 87 8000 2.6 70 02:27 24.01.2020
4119 Clouds 9 1020 81 8000 2.1 110 01:56 24.01.2020
4120 Clouds 9 1020 81 8000 2.1 110 01:35 24.01.2020
4121 Clouds 9 1020 87 8000 3.1 90 00:33 24.01.2020
4122 Clouds 11 1020 76 8000 3.1 120 23:58 23.01.2020
4123 Clouds 11 1020 76 8000 3.1 120 23:40 23.01.2020
4124 Clouds 11 1020 76 8000 1.5 100 23:20 23.01.2020
4125 Clouds 11 1020 76 8000 1.5 50 22:39 23.01.2020
4126 Clouds 12 1019 71 8000 1 0 22:20 23.01.2020
4127 Clouds 13 1019 66 8000 1 0 21:58 23.01.2020
4128 Clouds 13 1019 66 8000 1 0 21:58 23.01.2020
4129 Clouds 13 1019 66 8000 1 0 21:40 23.01.2020
4130 Clouds 13 1019 66 8000 1.5 330 21:21 23.01.2020
4131 Clouds 14 1018 62 8000 2.1 330 20:59 23.01.2020
4132 Clouds 14 1018 62 8000 2.1 330 20:39 23.01.2020
4133 Clouds 14 1018 62 8000 2.6 310 20:21 23.01.2020
4134 Clouds 15 1018 54 8000 5.1 280 19:56 23.01.2020
4135 Clouds 15 1018 54 8000 5.1 280 19:38 23.01.2020
4136 Clouds 15 1017 54 8000 5.1 270 19:20 23.01.2020
4137 Clouds 16 1017 55 8000 1 0 18:56 23.01.2020
4138 Clouds 16 1017 55 8000 1 0 18:37 23.01.2020
4139 Clouds 16 1017 51 8000 2.1 340 18:19 23.01.2020
4140 Clouds 16 1017 51 8000 2.6 340 17:43 23.01.2020
4141 Clouds 17 1016 51 8000 1 0 17:20 23.01.2020
4142 Clouds 17 1016 51 8000 2.6 250 16:58 23.01.2020
4143 Clouds 16 1016 55 8000 3.1 270 16:37 23.01.2020
4144 Clouds 16 1016 55 8000 3.1 270 16:18 23.01.2020
4145 Clouds 16 1016 55 8000 5.1 250 15:57 23.01.2020
4146 Clouds 16 1016 51 8000 3.1 260 15:37 23.01.2020
4147 Clouds 16 1016 51 8000 3.1 260 15:18 23.01.2020
4148 Clouds 16 1017 51 8000 3.1 320 14:56 23.01.2020
4149 Clouds 16 1017 51 8000 3.1 320 14:38 23.01.2020
4150 Clouds 16 1017 51 8000 1 0 14:20 23.01.2020
4151 Clouds 16 1017 55 8000 1.5 90 13:43 23.01.2020
4152 Clouds 15 1018 58 8000 3.1 80 13:20 23.01.2020
4153 Clouds 14 1018 62 8000 3.1 90 12:54 23.01.2020
4154 Clouds 14 1018 62 8000 3.1 90 12:36 23.01.2020
4155 Clouds 13 1018 66 8000 3.1 100 12:18 23.01.2020
4156 Clouds 13 1018 71 8000 2.6 80 11:42 23.01.2020
4157 Clouds 12 1018 76 8000 3.1 100 11:23 23.01.2020
4158 Clouds 11 1018 81 8000 3.6 100 10:56 23.01.2020
4159 Clouds 11 1018 81 8000 3.6 100 10:38 23.01.2020
4160 Clouds 10 1018 81 8000 2.6 130 10:18 23.01.2020
4161 Clouds 9 1017 87 8000 2.6 110 09:40 23.01.2020
4162 Clouds 9 1017 87 8000 2.6 130 09:21 23.01.2020
4163 Clouds 8 1017 87 8000 1 0 08:43 23.01.2020
4164 Clouds 7 1016 93 8000 2.1 80 08:25 23.01.2020
4165 Clouds 7 1016 93 8000 2.1 80 07:51 23.01.2020
4166 Clouds 7 1016 93 8000 1.5 70 07:27 23.01.2020
4167 Clouds 7 1016 93 8000 1.5 80 06:55 23.01.2020
4168 Clouds 7 1016 87 8000 2.6 100 06:25 23.01.2020
4169 Clouds 7 1016 87 8000 1.5 70 05:59 23.01.2020
4170 Clouds 7 1016 93 8000 1.5 80 04:25 23.01.2020
4171 Clouds 8 1017 93 8000 1 0 02:50 23.01.2020
4172 Clear 8 1017 93 8000 1 0 01:51 23.01.2020
4173 Clear 9 1017 87 8000 1 0 00:41 23.01.2020
4174 Clear 9 1017 87 8000 1 0 00:20 23.01.2020
4175 Clouds 10 1017 87 10000 1 0 23:45 22.01.2020
4176 Clouds 10 1017 87 10000 1 0 23:27 22.01.2020
4177 Rain 11 1017 81 8000 2.1 250 22:43 22.01.2020
4178 Rain 11 1017 81 8000 2.1 250 22:43 22.01.2020
4179 Rain 11 1017 81 8000 2.1 270 22:24 22.01.2020
4180 Rain 12 1017 76 8000 2.6 240 21:58 22.01.2020
4181 Clouds 12 1016 71 10000 1.5 260 21:36 22.01.2020
4182 Clouds 12 1016 71 10000 1.5 260 21:36 22.01.2020
4183 Clouds 12 1016 71 10000 1.5 260 21:18 22.01.2020
4184 Clouds 13 1016 66 10000 2.1 270 20:41 22.01.2020
4185 Clouds 13 1016 66 10000 1.5 290 20:23 22.01.2020
4186 Clouds 14 1016 62 10000 1.5 260 19:58 22.01.2020
4187 Clouds 14 1016 62 10000 1.5 260 19:58 22.01.2020
4188 Clouds 14 1016 62 10000 1.5 260 19:40 22.01.2020
4189 Clouds 14 1016 62 10000 2.1 290 19:20 22.01.2020
4190 Clouds 15 1015 54 10000 1.5 260 18:58 22.01.2020
4191 Clouds 15 1015 54 10000 1.5 260 18:39 22.01.2020
4192 Clouds 15 1015 54 10000 2.1 260 18:20 22.01.2020
4193 Clouds 15 1015 54 10000 2.6 310 17:56 22.01.2020
4194 Clouds 15 1015 54 10000 2.6 310 17:38 22.01.2020
4195 Clouds 15 1015 54 10000 2.1 0 17:19 22.01.2020
4196 Clouds 16 1015 51 10000 3.1 280 16:44 22.01.2020
4197 Clouds 15 1015 51 10000 3.1 0 16:24 22.01.2020
4198 Clouds 15 1015 51 10000 4.1 240 15:59 22.01.2020
4199 Clouds 15 1015 51 10000 4.1 240 15:41 22.01.2020
4200 Clouds 15 1016 54 10000 4.6 280 15:23 22.01.2020
4201 Clouds 15 1016 54 10000 4.6 280 14:58 22.01.2020
4202 Clouds 15 1016 54 10000 4.1 270 14:37 22.01.2020
4203 Clouds 15 1016 54 10000 4.1 270 14:19 22.01.2020
4204 Clouds 14 1017 58 10000 5.1 280 13:55 22.01.2020
4205 Clouds 14 1017 58 10000 5.1 280 13:36 22.01.2020
4206 Clouds 14 1017 58 10000 3.1 280 13:18 22.01.2020
4207 Clouds 14 1017 58 10000 2.1 310 12:56 22.01.2020
4208 Clouds 14 1017 58 10000 2.1 310 12:37 22.01.2020
4209 Clouds 14 1017 62 10000 1 0 12:18 22.01.2020
4210 Clouds 13 1017 66 10000 1 0 11:56 22.01.2020
4211 Clouds 13 1017 66 10000 1 0 11:37 22.01.2020
4212 Clouds 12 1017 71 10000 1.5 170 11:18 22.01.2020
4213 Clouds 10 1016 76 10000 2.1 160 10:44 22.01.2020
4214 Clouds 9 1016 81 8000 1 0 10:21 22.01.2020
4215 Clouds 8 1016 81 8000 1.5 150 09:44 22.01.2020
4216 Clouds 7 1016 87 8000 1 0 09:26 22.01.2020
4217 Clouds 6 1016 93 8000 1 0 08:59 22.01.2020
4218 Clouds 6 1016 93 8000 1 0 08:40 22.01.2020
4219 Clouds 7 1015 87 8000 1 0 08:21 22.01.2020
4220 Clouds 6 1015 93 8000 1 0 07:58 22.01.2020
4221 Clouds 6 1015 93 8000 1 0 07:58 22.01.2020
4222 Clouds 6 1015 93 8000 1 0 07:40 22.01.2020
4223 Clouds 6 1015 93 8000 1.5 140 07:21 22.01.2020
4224 Clouds 7 1014 87 8000 3.6 170 06:31 22.01.2020
4225 Clouds 7 1014 93 8000 2.6 160 05:41 22.01.2020
4226 Clouds 8 1014 87 8000 2.1 220 04:20 22.01.2020
4227 Clouds 8 1014 87 8000 3.1 220 03:23 22.01.2020
4228 Clouds 8 1014 87 8000 3.1 220 03:23 22.01.2020
4229 Clouds 8 1014 87 6000 2.6 180 02:27 22.01.2020
4230 Clouds 9 1015 87 6000 2.6 180 00:45 22.01.2020
4231 Clouds 8 1014 93 6000 1 0 00:26 22.01.2020
4232 Rain 8 1014 93 5000 3.1 280 23:39 21.01.2020
4233 Rain 8 1015 93 5000 2.6 240 23:21 21.01.2020
4234 Rain 9 1015 87 5000 5.7 230 22:59 21.01.2020
4235 Rain 9 1015 87 5000 5.7 230 22:39 21.01.2020
4236 Rain 10 1014 87 3000 4.1 240 22:20 21.01.2020
4237 Rain 10 1014 81 3000 3.1 280 21:56 21.01.2020
4238 Rain 10 1014 81 3000 3.1 280 21:37 21.01.2020
4239 Clouds 12 1013 66 8000 3.1 290 21:19 21.01.2020
4240 Clouds 12 1013 66 8000 3.1 290 20:55 21.01.2020
4241 Clouds 12 1013 66 8000 3.1 290 20:37 21.01.2020
4242 Clouds 12 1013 66 8000 2.6 290 20:18 21.01.2020
4243 Clouds 12 1013 66 8000 2.6 290 20:18 21.01.2020
4244 Clouds 12 1012 71 8000 1.5 270 19:55 21.01.2020
4245 Clouds 12 1012 71 8000 1.5 270 19:37 21.01.2020
4246 Clouds 12 1012 71 8000 1.5 270 19:37 21.01.2020
4247 Clouds 12 1012 66 8000 1.5 280 19:18 21.01.2020
4248 Clouds 13 1012 58 8000 3.1 290 18:55 21.01.2020
4249 Clouds 13 1012 58 8000 3.1 290 18:36 21.01.2020
4250 Clouds 14 1012 54 8000 2.6 290 18:18 21.01.2020
4251 Clouds 14 1012 54 8000 2.1 310 17:42 21.01.2020
4252 Clouds 14 1012 54 8000 3.6 330 17:19 21.01.2020
4253 Clouds 14 1012 54 8000 2.6 320 16:57 21.01.2020
4254 Clouds 14 1012 54 8000 2.6 320 16:36 21.01.2020
4255 Clouds 15 1011 51 8000 2.6 290 16:18 21.01.2020
4256 Clouds 14 1012 54 8000 3.6 260 15:40 21.01.2020
4257 Clouds 14 1012 54 8000 3.1 0 15:20 21.01.2020
4258 Clouds 15 1012 54 8000 1.5 0 14:57 21.01.2020
4259 Clouds 15 1012 54 8000 1.5 0 14:37 21.01.2020
4260 Clouds 13 1012 62 8000 2.6 310 14:18 21.01.2020
4261 Clouds 13 1013 62 8000 2.6 250 13:39 21.01.2020
4262 Clouds 13 1013 62 8000 2.6 250 13:18 21.01.2020
4263 Clouds 13 1013 62 8000 2.6 260 12:43 21.01.2020
4264 Clouds 13 1013 66 8000 1 0 12:25 21.01.2020
4265 Clouds 13 1013 71 8000 0.5 0 11:57 21.01.2020
4266 Clouds 13 1013 71 8000 0.5 0 11:38 21.01.2020
4267 Clouds 10 1013 81 8000 1.5 120 11:19 21.01.2020
4268 Clouds 9 1013 87 8000 1 0 10:44 21.01.2020
4269 Clouds 8 1013 87 8000 1 0 10:23 21.01.2020
4270 Clouds 7 1012 93 8000 0.5 0 09:58 21.01.2020
4271 Clouds 7 1012 93 8000 0.5 0 09:40 21.01.2020
4272 Clouds 6 1012 93 8000 0.5 0 09:21 21.01.2020
4273 Clear 6 1012 93 8000 2.1 180 08:47 21.01.2020
4274 Clear 7 1011 93 8000 3.1 180 08:27 21.01.2020
4275 Clouds 7 1011 93 6000 2.6 180 07:56 21.01.2020
4276 Clouds 7 1011 93 6000 2.6 180 07:37 21.01.2020
4277 Clouds 6 1011 93 8000 2.1 170 07:19 21.01.2020
4278 Clouds 7 1011 87 8000 2.1 170 06:44 21.01.2020
4279 Clouds 8 1011 87 8000 1 0 06:23 21.01.2020
4280 Clouds 7 1011 93 8000 1 0 05:41 21.01.2020
4281 Clouds 7 1011 93 8000 0.5 0 04:39 21.01.2020
4282 Clear 6 1011 93 8000 1 0 02:34 21.01.2020
4283 Clouds 8 1011 87 8000 2.6 210 01:37 21.01.2020
4284 Clouds 8 1011 87 8000 2.6 240 00:52 21.01.2020
4285 Clouds 8 1012 87 8000 2.6 230 00:29 21.01.2020
4286 Clouds 8 1011 87 8000 2.6 240 23:56 20.01.2020
4287 Clouds 8 1011 87 8000 2.6 240 23:36 20.01.2020
4288 Clouds 8 1011 93 8000 2.1 230 23:36 20.01.2020
4289 Clouds 8 1011 93 8000 2.1 230 23:18 20.01.2020
4290 Clouds 9 1011 87 8000 2.6 220 22:54 20.01.2020
4291 Clouds 9 1011 87 8000 2.6 220 22:36 20.01.2020
4292 Clouds 9 1011 87 10000 2.1 210 22:18 20.01.2020
4293 Clouds 9 1011 87 10000 1.5 230 21:54 20.01.2020
4294 Clouds 9 1011 87 10000 1.5 230 21:36 20.01.2020
4295 Clouds 9 1011 81 10000 2.6 300 21:18 20.01.2020
4296 Clouds 10 1011 81 10000 3.6 300 20:42 20.01.2020
4297 Clouds 10 1011 76 10000 3.1 290 20:20 20.01.2020
4298 Clouds 11 1010 66 10000 3.1 300 19:59 20.01.2020
4299 Clouds 11 1010 66 10000 3.1 300 19:40 20.01.2020
4300 Clouds 11 1010 66 10000 3.1 310 19:19 20.01.2020
4301 Clouds 11 1010 66 10000 4.1 300 18:56 20.01.2020
4302 Clouds 11 1010 66 10000 4.1 300 18:38 20.01.2020
4303 Clouds 12 1010 62 10000 3.1 290 18:19 20.01.2020
4304 Clouds 13 1010 62 10000 3.1 260 17:38 20.01.2020
4305 Clouds 13 1010 62 10000 2.6 280 17:19 20.01.2020
4306 Clouds 12 1010 62 10000 3.6 300 16:47 20.01.2020
4307 Clouds 12 1010 66 10000 3.6 290 16:26 20.01.2020
4308 Clouds 12 1010 62 10000 3.6 310 15:59 20.01.2020
4309 Clouds 12 1010 62 10000 3.6 310 15:40 20.01.2020
4310 Clouds 13 1010 58 10000 2.6 270 15:22 20.01.2020
4311 Clouds 12 1011 66 10000 3.1 280 14:59 20.01.2020
4312 Clouds 12 1011 66 10000 3.1 280 14:40 20.01.2020
4313 Clouds 12 1011 66 10000 2.1 290 14:21 20.01.2020
4314 Clouds 11 1012 71 10000 2.6 290 13:56 20.01.2020
4315 Clouds 11 1012 71 10000 2.6 290 13:38 20.01.2020
4316 Clouds 10 1012 81 10000 4.1 300 13:18 20.01.2020
4317 Clouds 10 1012 81 10000 3.6 290 12:42 20.01.2020
4318 Clouds 10 1012 81 8000 3.6 280 12:23 20.01.2020
4319 Clouds 9 1013 87 8000 3.6 260 11:55 20.01.2020
4320 Clouds 9 1013 87 8000 3.6 260 11:36 20.01.2020
4321 Clouds 9 1012 93 8000 4.1 250 11:18 20.01.2020
4322 Clouds 8 1012 100 8000 3.6 250 10:41 20.01.2020
4323 Clouds 8 1012 100 8000 3.6 260 10:20 20.01.2020
4324 -273 0 0 0 0 0 09:42 20.01.2020
4325 Clouds 8 1012 93 8000 2.6 240 09:24 20.01.2020
4326 Clouds 8 1012 93 7000 4.1 270 08:55 20.01.2020
4327 Clouds 8 1012 100 7000 4.1 260 08:34 20.01.2020
4328 Clouds 9 1012 93 7000 5.1 270 07:56 20.01.2020
4329 Clouds 9 1012 93 7000 5.1 270 07:38 20.01.2020
4330 Clouds 9 1012 93 7000 4.1 280 07:19 20.01.2020
4331 Clouds 9 1012 93 7000 3.6 250 06:42 20.01.2020
4332 Clouds 9 1012 93 7000 3.1 270 06:21 20.01.2020
4333 Rain 9 1013 93 10000 4.1 230 05:38 20.01.2020
4334 Rain 9 1013 93 10000 4.1 230 05:19 20.01.2020
4335 Rain 9 1014 93 3000 3.1 290 03:55 20.01.2020
4336 Rain 9 1016 93 7000 3.6 250 01:58 20.01.2020
4337 Rain 9 1016 93 7000 3.6 250 01:39 20.01.2020
4338 Clouds 10 1017 87 10000 3.6 260 00:56 20.01.2020
4339 Clouds 10 1017 87 10000 3.6 260 00:38 20.01.2020
4340 Clouds 11 1018 81 10000 3.1 270 00:20 20.01.2020
4341 Clouds 11 1019 76 10000 3.1 250 23:38 19.01.2020
4342 Clouds 11 1019 76 10000 3.1 250 23:18 19.01.2020
4343 Clouds 11 1019 76 10000 3.1 310 22:55 19.01.2020
4344 Clouds 11 1019 76 10000 3.1 310 22:37 19.01.2020
4345 Clouds 12 1019 71 10000 3.1 330 22:19 19.01.2020
4346 Clouds 12 1019 66 10000 3.1 300 21:56 19.01.2020
4347 Clouds 12 1019 66 10000 3.1 300 21:37 19.01.2020
4348 Clouds 13 1020 66 10000 2.6 290 21:19 19.01.2020
4349 Clouds 13 1020 66 10000 4.1 330 20:56 19.01.2020
4350 Clouds 13 1020 66 10000 4.1 330 20:38 19.01.2020
4351 Clouds 13 1020 71 10000 4.1 330 20:19 19.01.2020
4352 Clouds 13 1019 76 10000 4.6 340 19:55 19.01.2020
4353 Clouds 13 1019 76 10000 4.6 340 19:37 19.01.2020
4354 Clouds 14 1019 71 10000 4.1 330 19:19 19.01.2020
4355 Clouds 14 1020 71 10000 5.1 320 18:55 19.01.2020
4356 Clouds 14 1020 71 10000 5.1 320 18:37 19.01.2020
4357 Clouds 14 1020 76 10000 5.1 340 18:19 19.01.2020
4358 Clouds 16 1020 72 10000 5.1 300 17:57 19.01.2020
4359 Clouds 16 1020 72 10000 5.1 300 17:38 19.01.2020
4360 Clouds 17 1020 67 10000 5.1 300 17:20 19.01.2020
4361 Clouds 18 1020 59 10000 5.1 290 16:57 19.01.2020
4362 Clouds 18 1020 59 10000 5.1 290 16:37 19.01.2020
4363 Clouds 18 1020 59 10000 5.1 290 16:37 19.01.2020
4364 Clouds 18 1020 59 10000 5.1 300 16:19 19.01.2020
4365 Clouds 19 1021 52 10000 4.1 280 15:56 19.01.2020
4366 Clouds 19 1021 52 10000 4.1 280 15:37 19.01.2020
4367 Clouds 20 1021 49 10000 4.1 270 15:18 19.01.2020
4368 Clouds 18 1022 52 10000 3.1 280 14:56 19.01.2020
4369 Clouds 18 1022 52 10000 3.1 280 14:37 19.01.2020
4370 Clouds 18 1023 52 10000 2.6 310 14:18 19.01.2020
4371 Clouds 18 1023 52 10000 2.6 310 14:18 19.01.2020
4372 Clouds 17 1024 51 10000 3.1 290 13:54 19.01.2020
4373 Clouds 17 1024 51 10000 3.1 290 13:36 19.01.2020
4374 Clouds 17 1025 45 10000 2.6 270 13:18 19.01.2020
4375 Clouds 17 1026 39 8000 2.6 210 12:42 19.01.2020
4376 Clouds 15 1026 41 8000 3.1 210 12:23 19.01.2020
4377 Clouds 14 1026 41 8000 2.1 210 11:57 19.01.2020
4378 Clouds 14 1026 41 8000 2.1 210 11:39 19.01.2020
4379 Clear 13 1025 37 0 1.48 165 11:18 19.01.2020
4380 Clear 12 1027 40 0 2.1 160 10:54 19.01.2020
4381 Clear 12 1027 40 0 2.1 160 10:36 19.01.2020
4382 Clear 10 1027 37 0 1.5 60 10:18 19.01.2020
4383 Clear 9 1026 49 0 2.6 160 09:41 19.01.2020
4384 Clear 7 1026 52 8000 1 0 09:23 19.01.2020
4385 Clear 6 1026 56 8000 0.5 0 08:56 19.01.2020
4386 Clear 6 1026 56 8000 0.5 0 08:38 19.01.2020
4387 Clear 8 1026 49 8000 2.6 10 08:19 19.01.2020
4388 Clear 9 1026 42 8000 1.5 200 07:30 19.01.2020
4389 Clear 9 1026 42 8000 2.1 170 06:56 19.01.2020
4390 Clear 8 1027 45 8000 2.6 170 06:25 19.01.2020
4391 Clear 7 1028 48 8000 1 0 04:39 19.01.2020
4392 Clear 11 1029 37 8000 1.5 140 02:36 19.01.2020
4393 Clouds 11 1029 37 8000 2.6 170 01:58 19.01.2020
4394 Clouds 10 1029 39 8000 2.1 160 01:24 19.01.2020
4395 Clouds 11 1029 37 8000 1 0 00:45 19.01.2020
4396 Clouds 12 1029 34 8000 1 0 00:26 19.01.2020
4397 Clouds 14 1030 33 8000 1 0 23:55 18.01.2020
4398 Clouds 14 1030 33 8000 1 0 23:36 18.01.2020
4399 Clouds 14 1029 33 10000 2.1 220 23:18 18.01.2020
4400 Clouds 14 1030 33 10000 1 0 22:54 18.01.2020
4401 Clouds 14 1030 33 10000 1 0 22:54 18.01.2020
4402 Clouds 14 1030 33 10000 1 0 22:54 18.01.2020
4403 Clouds 14 1030 33 10000 1 0 22:36 18.01.2020
4404 Clouds 14 1030 33 10000 1 0 22:36 18.01.2020
4405 Clouds 14 1030 33 10000 1.5 170 22:18 18.01.2020
4406 Clouds 14 1030 33 10000 1.5 200 21:55 18.01.2020
4407 Clouds 14 1030 33 10000 1.5 200 21:36 18.01.2020
4408 Clouds 15 1030 30 10000 1.5 260 21:18 18.01.2020
4409 Clouds 16 1030 29 10000 2.1 250 20:41 18.01.2020
4410 Clear 17 1030 27 10000 2.1 270 20:19 18.01.2020
4411 Clear 18 1029 27 10000 1.5 260 19:44 18.01.2020
4412 Clear 18 1029 27 10000 1.5 260 19:44 18.01.2020
4413 Clear 19 1029 24 10000 2.6 280 19:25 18.01.2020
4414 Clear 19 1029 24 10000 2.6 280 19:25 18.01.2020
4415 Clear 22 1029 21 10000 2.1 300 18:56 18.01.2020
4416 Clear 22 1029 21 10000 2.1 300 18:37 18.01.2020
4417 Clear 23 1029 15 10000 1.5 330 18:19 18.01.2020
4418 Clear 23 1029 16 10000 1.5 350 17:41 18.01.2020
4419 Clear 24 1030 17 10000 1.5 330 17:21 18.01.2020
4420 Clear 23 1030 16 10000 1.5 320 16:57 18.01.2020
4421 Clear 23 1030 16 10000 1.5 320 16:38 18.01.2020
4422 Clear 24 1030 15 10000 2.1 340 16:20 18.01.2020
4423 Clear 23 1030 16 10000 2.1 360 15:56 18.01.2020
4424 Clear 23 1030 16 10000 2.1 360 15:38 18.01.2020
4425 Clear 23 1030 16 10000 1.5 0 15:20 18.01.2020
4426 Clear 22 1030 18 10000 2.1 360 14:41 18.01.2020
4427 Clear 22 1031 21 10000 1.5 0 14:20 18.01.2020
4428 Clear 21 1031 21 10000 2.1 350 13:57 18.01.2020
4429 Clear 20 1032 20 10000 1.5 360 13:37 18.01.2020
4430 Clear 20 1032 20 10000 1.5 360 13:18 18.01.2020
4431 Clear 19 1032 20 10000 1 0 12:43 18.01.2020
4432 Clear 18 1032 20 10000 1 0 12:22 18.01.2020
4433 Clear 18 1032 20 10000 1 0 12:22 18.01.2020
4434 Clear 17 1033 20 10000 1 0 11:58 18.01.2020
4435 Clear 17 1033 20 10000 1 0 11:40 18.01.2020
4436 Clear 15 1033 36 10000 0.5 0 11:20 18.01.2020
4437 Clear 12 1032 40 10000 1.5 80 10:43 18.01.2020
4438 Clear 10 1032 46 10000 1 0 10:21 18.01.2020
4439 Clear 4 1032 64 10000 2.1 100 09:56 18.01.2020
4440 Clear 4 1032 64 10000 2.1 100 09:38 18.01.2020
4441 Clear 4 1032 64 10000 2.1 100 09:18 18.01.2020
4442 Clear 4 1032 64 10000 2.1 110 08:42 18.01.2020
4443 Clear 4 1031 64 10000 2.1 90 08:20 18.01.2020
4444 Clear 4 1031 64 10000 2.1 90 08:20 18.01.2020
4445 Clear 3 1031 64 10000 2.1 90 07:58 18.01.2020
4446 Clear 3 1031 64 10000 2.1 90 07:37 18.01.2020
4447 Clear 4 1031 60 10000 2.6 80 06:50 18.01.2020
4448 Clear 5 1031 60 10000 2.6 80 06:27 18.01.2020
4449 Clear 5 1031 56 10000 2.6 90 05:49 18.01.2020
4450 Clear 7 1031 48 10000 1.5 120 04:24 18.01.2020
4451 Clear 11 1031 34 10000 1 0 02:34 18.01.2020
4452 Clear 11 1031 34 10000 2.1 150 01:40 18.01.2020
4453 Clear 10 1032 37 10000 2.6 170 00:39 18.01.2020
4454 Clear 10 1032 37 10000 2.6 170 00:39 18.01.2020
4455 Clear 11 1031 34 10000 1.5 160 00:19 18.01.2020
4456 Clear 10 1031 37 10000 0.5 0 23:58 17.01.2020
4457 Clear 10 1031 37 10000 0.5 0 23:38 17.01.2020
4458 Clear 12 1031 32 10000 1 0 23:18 17.01.2020
4459 Clear 12 1031 32 10000 1 0 22:41 17.01.2020
4460 Clear 12 1031 30 10000 1.5 130 22:19 17.01.2020
4461 Clear 12 1031 30 10000 3.1 120 21:54 17.01.2020
4462 Clear 12 1031 30 10000 3.1 120 21:36 17.01.2020
4463 Clear 13 1030 28 10000 2.6 100 21:18 17.01.2020
4464 Clear 16 1030 21 10000 1 0 20:41 17.01.2020
4465 Clouds 17 1030 21 8000 2.1 40 20:21 17.01.2020
4466 Clouds 17 1030 21 8000 2.1 40 20:21 17.01.2020
4467 Clouds 17 1030 21 8000 2.1 40 19:57 17.01.2020
4468 Clouds 17 1030 21 8000 2.1 40 19:38 17.01.2020
4469 Clouds 19 1029 20 8000 2.6 30 19:20 17.01.2020
4470 -273 0 0 0 0 0 18:58 17.01.2020
4471 Clouds 22 1029 17 8000 2.1 60 18:58 17.01.2020
4472 Clouds 22 1029 17 8000 2.1 60 18:38 17.01.2020
4473 Clouds 22 1029 17 8000 2.1 60 18:20 17.01.2020
4474 Clouds 22 1029 17 8000 2.1 60 17:40 17.01.2020
4475 Clouds 23 1029 16 8000 1.5 0 17:21 17.01.2020
4476 Clouds 22 1028 18 8000 2.6 60 16:57 17.01.2020
4477 Clouds 22 1028 18 8000 2.6 60 16:57 17.01.2020
4478 Clouds 22 1028 18 8000 2.6 60 16:38 17.01.2020
4479 Clouds 22 1028 18 8000 2.6 60 16:18 17.01.2020
4480 Clouds 21 1028 21 8000 2.6 50 15:44 17.01.2020
4481 Clouds 20 1029 24 8000 3.6 40 15:26 17.01.2020
4482 Clouds 20 1029 24 8000 4.1 60 14:44 17.01.2020
4483 Clouds 19 1030 25 8000 4.1 70 14:26 17.01.2020
4484 Clear 18 1030 24 8000 4.1 60 13:58 17.01.2020
4485 Clear 18 1030 24 8000 4.1 60 13:37 17.01.2020
4486 Clear 18 1031 24 8000 4.1 60 13:19 17.01.2020
4487 Clear 16 1032 24 8000 4.1 80 12:44 17.01.2020
4488 Clear 15 1032 38 8000 2.1 60 12:21 17.01.2020
4489 Clear 14 1032 41 8000 2.1 80 11:38 17.01.2020
4490 Clear 13 1032 43 8000 2.1 70 11:18 17.01.2020
4491 Clear 11 1032 50 8000 1.5 40 10:44 17.01.2020
4492 Clear 9 1032 34 8000 1.5 50 10:23 17.01.2020
4493 Clear 6 1031 34 8000 1.5 80 09:58 17.01.2020
4494 Clear 6 1031 34 8000 1.5 80 09:40 17.01.2020
4495 Clear 4 1031 69 8000 2.1 90 09:20 17.01.2020
4496 Clear 4 1031 69 8000 1.5 90 08:45 17.01.2020
4497 Clear 4 1031 69 8000 1.5 100 08:25 17.01.2020
4498 Clear 4 1030 64 8000 2.6 110 07:55 17.01.2020
4499 Clear 4 1030 69 8000 1.5 90 07:32 17.01.2020
4500 Clear 4 1030 69 8000 1.5 90 07:32 17.01.2020
4501 Clear 5 1030 65 8000 1 0 06:59 17.01.2020
4502 Clear 5 1030 65 8000 1 0 06:41 17.01.2020
4503 Clear 7 1030 52 8000 1 0 05:56 17.01.2020
4504 Clouds 6 1030 41 10000 0.5 0 03:39 17.01.2020
4505 Clouds 9 1030 49 10000 1.5 160 02:53 17.01.2020
4506 Clear 9 1030 49 10000 1.5 160 01:47 17.01.2020
4507 Clear 9 1030 37 10000 1 0 01:29 17.01.2020
4508 Clear 9 1029 36 0 0.39 65 00:50 17.01.2020
4509 Clear 12 1030 40 10000 2.1 120 00:26 17.01.2020
4510 Clear 12 1030 40 10000 2.1 120 23:44 16.01.2020
4511 Clear 12 1030 40 10000 2.1 120 23:26 16.01.2020
4512 Clear 11 1030 43 10000 1.5 70 22:58 16.01.2020
4513 Clear 11 1030 43 10000 1.5 70 22:40 16.01.2020
4514 Clear 10 1030 43 10000 1 0 22:20 16.01.2020
4515 Clear 12 1029 40 10000 1 0 21:55 16.01.2020
4516 Clear 12 1029 40 10000 1 0 21:37 16.01.2020
4517 Clear 13 1029 37 10000 1 0 21:18 16.01.2020
4518 Clear 14 1029 35 10000 1 0 20:41 16.01.2020
4519 Clear 15 1029 33 10000 1.5 220 20:21 16.01.2020
4520 Clear 15 1029 33 10000 1.5 220 19:59 16.01.2020
4521 Clear 15 1029 33 10000 1.5 220 19:41 16.01.2020
4522 Clear 16 1029 31 10000 1.5 230 19:22 16.01.2020
4523 Clear 18 1029 23 10000 1.5 320 18:57 16.01.2020
4524 Clear 18 1029 23 10000 1.5 320 18:39 16.01.2020
4525 Clear 19 1028 24 10000 1 0 18:20 16.01.2020
4526 Clear 20 1028 24 10000 2.6 290 17:59 16.01.2020
4527 Clear 20 1028 24 10000 2.6 290 17:40 16.01.2020
4528 Clear 20 1028 24 10000 2.1 340 17:20 16.01.2020
4529 Clear 20 1028 22 10000 2.6 320 16:43 16.01.2020
4530 Clear 20 1027 22 10000 2.6 310 16:25 16.01.2020
4531 Clear 20 1027 24 10000 3.1 300 15:59 16.01.2020
4532 Clear 20 1027 24 10000 3.1 300 15:40 16.01.2020
4533 Clear 20 1028 24 10000 3.1 300 15:21 16.01.2020
4534 Clear 20 1028 24 10000 3.1 300 15:21 16.01.2020
4535 Clear 18 1028 27 10000 3.1 310 14:45 16.01.2020
4536 Clear 18 1028 27 10000 3.1 310 14:24 16.01.2020
4537 Clouds 18 1028 20 10000 2.6 340 13:56 16.01.2020
4538 Clouds 17 1029 20 10000 1.5 0 13:37 16.01.2020
4539 Clouds 18 1028 20 10000 2.6 340 13:37 16.01.2020
4540 Clouds 17 1029 20 10000 1.5 0 13:19 16.01.2020
4541 Clouds 17 1029 20 10000 1.5 0 12:43 16.01.2020
4542 Clouds 17 1029 20 10000 1 0 12:25 16.01.2020
4543 Clouds 16 1029 31 10000 1 0 11:54 16.01.2020
4544 Clouds 16 1029 31 10000 1 0 11:36 16.01.2020
4545 Clouds 14 1029 35 10000 1 0 11:18 16.01.2020
4546 Clouds 13 1029 33 10000 0.5 0 10:38 16.01.2020
4547 Clouds 10 1028 33 10000 0.5 0 10:20 16.01.2020
4548 Clouds 7 1028 33 10000 1 0 09:56 16.01.2020
4549 Clouds 7 1028 33 10000 1 0 09:37 16.01.2020
4550 Clouds 4 1028 69 10000 2.1 90 09:19 16.01.2020
4551 Clouds 4 1027 64 10000 1 0 08:49 16.01.2020
4552 Clouds 4 1027 69 10000 0.5 0 08:29 16.01.2020
4553 Clear 4 1027 64 10000 1 0 07:57 16.01.2020
4554 Clear 4 1027 64 10000 1 0 07:37 16.01.2020
4555 Clear 4 1026 64 10000 1 0 07:18 16.01.2020
4556 Clear 4 1026 69 10000 2.1 90 06:42 16.01.2020
4557 Clear 6 1026 56 10000 2.6 100 05:58 16.01.2020
4558 Clear 6 1026 56 10000 2.6 100 05:40 16.01.2020
4559 Clear 8 1026 49 10000 3.1 180 04:37 16.01.2020
4560 Clear 8 1026 49 10000 3.1 180 04:37 16.01.2020
4561 Clear 7 1026 52 10000 1 0 03:28 16.01.2020
4562 Clear 7 1026 56 10000 1 0 02:42 16.01.2020
4563 Clear 9 1026 49 10000 0.5 0 00:53 16.01.2020
4564 Clear 8 1026 52 10000 1.5 150 00:24 16.01.2020
4565 Clear 10 1026 46 10000 1.5 70 23:48 15.01.2020
4566 Clear 10 1026 46 10000 2.1 100 23:23 15.01.2020
4567 Clear 10 1026 46 10000 2.1 100 23:23 15.01.2020
4568 Clear 10 1026 43 10000 2.6 120 22:57 15.01.2020
4569 Clear 10 1026 43 10000 2.6 120 22:39 15.01.2020
4570 Clear 10 1026 43 10000 2.6 110 22:19 15.01.2020
4571 Clear 11 1026 40 10000 2.1 90 21:57 15.01.2020
4572 Clear 11 1026 40 10000 2.1 90 21:57 15.01.2020
4573 Clear 11 1026 40 10000 2.1 90 21:38 15.01.2020
4574 Clear 12 1026 37 10000 2.6 70 21:20 15.01.2020
4575 Clear 14 1026 33 10000 2.6 60 20:58 15.01.2020
4576 Clear 14 1026 33 10000 2.6 60 20:58 15.01.2020
4577 Clear 14 1026 33 10000 2.6 60 20:40 15.01.2020
4578 Clear 15 1026 30 10000 2.6 60 20:20 15.01.2020
4579 Clear 16 1026 31 10000 3.1 50 19:55 15.01.2020
4580 Clear 16 1026 31 10000 3.1 50 19:37 15.01.2020
4581 Clear 17 1025 29 10000 2.6 30 19:19 15.01.2020
4582 Clear 18 1025 27 10000 2.1 10 18:56 15.01.2020
4583 Clear 18 1025 27 10000 2.1 10 18:56 15.01.2020
4584 Clear 18 1025 27 10000 2.1 10 18:38 15.01.2020
4585 Clear 19 1025 24 10000 2.1 10 18:19 15.01.2020
4586 Clear 19 1025 24 10000 2.1 70 17:57 15.01.2020
4587 Clear 19 1025 24 10000 2.1 70 17:38 15.01.2020
4588 Clear 19 1024 24 10000 3.1 30 17:19 15.01.2020
4589 Clear 19 1024 24 10000 2.6 40 16:41 15.01.2020
4590 Clear 19 1025 24 10000 2.1 340 16:22 15.01.2020
4591 Clear 19 1025 24 10000 2.6 0 15:58 15.01.2020
4592 Clear 19 1025 24 10000 2.6 0 15:39 15.01.2020
4593 Clear 19 1025 25 10000 2.6 0 15:20 15.01.2020
4594 Clear 19 1025 25 10000 2.1 0 14:43 15.01.2020
4595 Clear 18 1026 27 10000 2.1 30 14:20 15.01.2020
4596 Clear 18 1026 25 10000 2.1 40 13:46 15.01.2020
4597 Clear 18 1027 25 8000 1 0 13:27 15.01.2020
4598 Clear 17 1027 33 8000 1.5 70 12:59 15.01.2020
4599 Clear 17 1027 33 8000 1.5 70 12:40 15.01.2020
4600 Clear 15 1028 38 8000 1.5 40 12:20 15.01.2020
4601 Clear 14 1028 41 8000 1 0 11:58 15.01.2020
4602 Clear 12 1028 46 10000 1 0 11:37 15.01.2020
4603 Clear 12 1028 46 10000 1 0 11:19 15.01.2020
4604 Clear 10 1027 53 10000 1 0 10:46 15.01.2020
4605 Clear 8 1027 37 10000 1.5 80 10:27 15.01.2020
4606 Clear 5 1027 37 10000 2.1 60 09:46 15.01.2020
4607 Clear 3 1026 74 10000 2.1 60 09:26 15.01.2020
4608 Clouds 3 1026 74 10000 2.1 90 08:59 15.01.2020
4609 Clouds 3 1026 74 10000 2.1 90 08:59 15.01.2020
4610 Clouds 3 1026 74 10000 2.1 90 08:41 15.01.2020
4611 Clouds 3 1026 74 10000 2.6 100 08:22 15.01.2020
4612 Clouds 4 1026 69 10000 2.6 100 07:52 15.01.2020
4613 Clouds 3 1026 69 10000 2.1 80 07:32 15.01.2020
4614 Clouds 4 1025 64 10000 2.1 90 06:46 15.01.2020
4615 Clouds 4 1025 64 10000 2.1 40 06:20 15.01.2020
4616 Clouds 7 1025 56 10000 4.1 170 04:45 15.01.2020
4617 Clouds 7 1025 56 10000 2.1 160 02:39 15.01.2020
4618 Clouds 7 1025 56 10000 0.5 0 01:28 15.01.2020
4619 Clouds 7 1025 56 10000 2.6 270 00:47 15.01.2020
4620 Clouds 9 1025 49 10000 1 0 00:27 15.01.2020
4621 Clouds 9 1025 49 10000 1 0 23:57 14.01.2020
4622 Clouds 9 1025 49 10000 1 0 23:38 14.01.2020
4623 Clouds 10 1025 41 10000 1.5 160 23:19 14.01.2020
4624 Clouds 11 1025 41 10000 2.6 150 22:41 14.01.2020
4625 Clouds 11 1025 41 10000 0.5 0 22:19 14.01.2020
4626 Clouds 12 1025 41 10000 1 0 21:59 14.01.2020
4627 Clouds 11 1025 41 10000 1.5 150 21:40 14.01.2020
4628 Clouds 11 1025 41 10000 1.5 150 21:21 14.01.2020
4629 Clouds 11 1025 41 10000 1.5 150 21:21 14.01.2020
4630 Clouds 12 1025 46 10000 2.1 120 20:59 14.01.2020
4631 Clouds 12 1025 46 10000 2.1 120 20:40 14.01.2020
4632 Clouds 14 1025 33 8000 1.5 90 20:20 14.01.2020
4633 Clouds 14 1025 33 8000 1.5 90 19:56 14.01.2020
4634 Clouds 14 1025 33 8000 1.5 90 19:38 14.01.2020
4635 Clouds 15 1025 33 8000 1 0 19:18 14.01.2020
4636 Clouds 16 1024 33 8000 1 0 18:56 14.01.2020
4637 Clouds 16 1024 33 8000 1 0 18:37 14.01.2020
4638 Clouds 16 1024 33 8000 1 0 18:18 14.01.2020
4639 Clouds 16 1024 33 8000 1 0 17:38 14.01.2020
4640 Clouds 17 1024 23 8000 1 0 17:19 14.01.2020
4641 Clouds 17 1024 23 8000 1 0 16:55 14.01.2020
4642 Clouds 17 1024 33 8000 1 0 16:37 14.01.2020
4643 Clouds 17 1024 33 8000 1 0 16:19 14.01.2020
4644 Clouds 18 1024 34 8000 1.5 0 15:43 14.01.2020
4645 Clouds 16 1024 36 8000 1.5 0 15:19 14.01.2020
4646 Clouds 16 1024 38 8000 1.5 10 14:47 14.01.2020
4647 Clouds 16 1024 38 8000 1.5 10 14:47 14.01.2020
4648 Clouds 15 1025 41 8000 1.5 20 14:23 14.01.2020
4649 Clouds 14 1025 47 8000 1.5 20 13:59 14.01.2020
4650 Clouds 14 1025 47 8000 1.5 20 13:41 14.01.2020
4651 Clouds 14 1025 44 8000 1.5 40 13:19 14.01.2020
4652 Clouds 14 1026 47 10000 2.1 50 12:42 14.01.2020
4653 Clouds 14 1026 47 10000 1 0 12:24 14.01.2020
4654 Clouds 14 1026 44 10000 1 0 11:58 14.01.2020
4655 Clouds 14 1026 44 10000 1 0 11:40 14.01.2020
4656 Clouds 12 1026 46 10000 0.5 0 11:22 14.01.2020
4657 Clouds 10 1026 53 10000 2.1 160 10:56 14.01.2020
4658 Clouds 10 1026 53 10000 2.1 160 10:37 14.01.2020
4659 Clouds 9 1026 42 10000 2.6 170 10:19 14.01.2020
4660 Clouds 8 1025 42 10000 1 0 09:43 14.01.2020
4661 Clouds 7 1025 42 10000 1.5 150 09:24 14.01.2020
4662 Clouds 3 1025 74 10000 0.5 0 08:58 14.01.2020
4663 Clouds 3 1025 74 10000 0.5 0 08:39 14.01.2020
4664 Clouds 5 1025 51 10000 0.5 0 08:20 14.01.2020
4665 Clouds 4 1024 69 10000 1.5 100 07:46 14.01.2020
4666 Clouds 5 1024 51 10000 0.5 0 07:18 14.01.2020
4667 Clouds 4 1024 69 10000 1.5 90 06:42 14.01.2020
4668 Clouds 6 1024 51 10000 0.5 0 05:57 14.01.2020
4669 Clouds 6 1024 51 10000 1.5 110 04:49 14.01.2020
4670 Clouds 6 1024 60 10000 1 0 03:45 14.01.2020
4671 Clouds 8 1024 52 10000 0.5 0 02:32 14.01.2020
4672 Clouds 10 1024 47 10000 1 0 01:19 14.01.2020
4673 Clouds 10 1024 46 10000 1 0 00:47 14.01.2020
4674 Clouds 10 1025 47 10000 0.5 0 00:21 14.01.2020
4675 Clouds 10 1025 47 10000 0.5 0 00:21 14.01.2020
4676 Clouds 11 1025 47 10000 2.6 180 23:42 13.01.2020
4677 Clouds 11 1025 41 10000 3.1 180 23:19 13.01.2020
4678 Clouds 11 1025 41 10000 2.1 180 22:56 13.01.2020
4679 Clouds 11 1025 41 10000 2.1 180 22:37 13.01.2020
4680 Clouds 12 1025 41 10000 1.5 210 22:19 13.01.2020
4681 Clouds 14 1025 41 10000 2.6 220 21:55 13.01.2020
4682 Clouds 14 1025 41 10000 2.6 220 21:36 13.01.2020
4683 Clouds 13 1025 41 10000 2.1 230 21:18 13.01.2020
4684 Clouds 14 1025 41 10000 1.5 230 20:55 13.01.2020
4685 Clouds 14 1025 41 10000 1.5 230 20:37 13.01.2020
4686 Clouds 13 1025 34 10000 1.5 230 20:18 13.01.2020
4687 Clouds 14 1025 34 10000 1.5 240 19:41 13.01.2020
4688 Clouds 16 1025 34 10000 1 0 19:20 13.01.2020
4689 Clouds 17 1025 34 10000 2.1 300 18:58 13.01.2020
4690 Clouds 17 1025 34 10000 2.1 300 18:58 13.01.2020
4691 Clouds 17 1025 34 10000 2.1 300 18:38 13.01.2020
4692 Clouds 17 1025 34 10000 2.1 300 18:38 13.01.2020
4693 Clouds 18 1025 27 10000 2.6 280 18:19 13.01.2020
4694 Clouds 18 1025 27 10000 2.6 280 18:19 13.01.2020
4695 Clouds 18 1025 25 10000 3.6 280 17:58 13.01.2020
4696 Clouds 18 1025 25 10000 3.6 280 17:38 13.01.2020
4697 Clear 18 1025 27 10000 4.1 300 17:20 13.01.2020
4698 Clear 19 1025 25 10000 4.1 290 16:42 13.01.2020
4699 Clear 19 1025 23 8000 4.6 290 16:23 13.01.2020
4700 Clear 17 1024 23 0 4.46 303 15:58 13.01.2020
4701 Clear 17 1024 23 0 4.46 303 15:40 13.01.2020
4702 Clear 17 1024 23 0 4.46 303 15:20 13.01.2020
4703 Clear 17 1024 23 0 4.46 303 14:43 13.01.2020
4704 Clear 17 1024 23 0 4.46 303 14:24 13.01.2020
4705 Clouds 16 1027 22 0 2.6 284 13:59 13.01.2020
4706 Clouds 16 1027 22 0 2.6 284 13:40 13.01.2020
4707 Clouds 16 1027 22 0 2.6 284 13:40 13.01.2020
4708 Clouds 17 1026 23 0 2.36 292 13:22 13.01.2020
4709 Clouds 15 1027 44 10000 1.5 350 12:57 13.01.2020
4710 Clouds 15 1027 44 10000 1.5 350 12:39 13.01.2020
4711 Clouds 15 1027 44 10000 1.5 350 12:21 13.01.2020
4712 Clouds 15 1027 44 10000 1.5 350 11:40 13.01.2020
4713 Clear 14 1026 47 10000 1 0 11:20 13.01.2020
4714 Clear 14 1026 47 10000 1 0 11:20 13.01.2020
4715 Clear 11 1026 53 10000 2.1 70 10:58 13.01.2020
4716 Clear 11 1026 53 10000 2.1 70 10:39 13.01.2020
4717 Clear 9 1026 61 10000 2.1 80 10:20 13.01.2020
4718 Clear 9 1026 61 10000 2.1 80 10:20 13.01.2020
4719 Clear 6 1026 75 10000 1.5 70 09:58 13.01.2020
4720 Clear 4 1025 80 10000 2.1 70 09:38 13.01.2020
4721 Clear 4 1025 80 10000 2.1 70 09:19 13.01.2020
4722 Clear 4 1025 80 10000 2.6 90 08:41 13.01.2020
4723 Clear 4 1025 80 8000 1.5 110 08:20 13.01.2020
4724 Clear 4 1026 47 8000 1.5 110 07:48 13.01.2020
4725 Clear 4 1026 47 8000 1 0 07:27 13.01.2020
4726 Clear 4 1025 80 8000 1.5 120 06:43 13.01.2020
4727 Clear 4 1025 80 8000 2.1 110 06:21 13.01.2020
4728 Clear 5 1025 75 8000 1 0 05:27 13.01.2020
4729 Clear 6 1026 70 8000 1.5 90 03:55 13.01.2020
4730 Clear 6 1026 70 8000 2.1 100 03:25 13.01.2020
4731 Clear 7 1026 65 8000 2.1 50 02:47 13.01.2020
4732 Clear 10 1026 57 8000 1.5 140 02:28 13.01.2020
4733 Clear 10 1026 57 8000 3.6 190 01:21 13.01.2020
4734 Clear 10 1027 57 8000 3.1 180 00:41 13.01.2020
4735 Clear 10 1027 57 8000 1.5 0 00:23 13.01.2020
4736 Clear 11 1027 53 8000 4.1 180 23:54 12.01.2020
4737 Clear 11 1027 53 8000 3.6 180 23:36 12.01.2020
4738 Clear 11 1027 53 8000 3.6 180 23:18 12.01.2020
4739 Clear 11 1027 53 8000 3.1 180 22:42 12.01.2020
4740 Clear 11 1027 53 8000 2.1 0 22:23 12.01.2020
4741 Clear 12 1027 54 8000 2.1 170 21:56 12.01.2020
4742 Clear 12 1027 54 8000 2.1 170 21:38 12.01.2020
4743 Clear 13 1027 50 8000 1 0 21:19 12.01.2020
4744 Clear 14 1027 47 8000 2.1 230 20:56 12.01.2020
4745 Clear 14 1027 47 8000 2.1 230 20:38 12.01.2020
4746 Clear 14 1027 47 8000 2.1 230 20:20 12.01.2020
4747 Clear 14 1027 47 10000 2.6 230 19:56 12.01.2020
4748 Clear 14 1027 47 10000 2.6 230 19:37 12.01.2020
4749 Clear 15 1027 44 10000 2.6 240 19:18 12.01.2020
4750 Clear 16 1026 41 10000 3.1 260 18:57 12.01.2020
4751 Clear 16 1026 41 10000 3.1 260 18:39 12.01.2020
4752 Clear 17 1026 39 10000 3.1 250 18:21 12.01.2020
4753 Clear 18 1026 34 10000 3.1 290 17:43 12.01.2020
4754 Clear 18 1026 36 10000 2.6 320 17:23 12.01.2020
4755 Clear 18 1026 36 10000 2.6 320 17:23 12.01.2020
4756 Clear 18 1026 36 10000 3.6 320 16:59 12.01.2020
4757 Clear 18 1026 36 10000 3.6 320 16:40 12.01.2020
4758 Clear 18 1025 36 10000 3.6 300 16:21 12.01.2020
4759 Clear 18 1025 36 10000 3.6 300 16:21 12.01.2020
4760 Clear 18 1025 36 10000 4.6 280 15:58 12.01.2020
4761 Clear 18 1025 36 10000 4.6 280 15:39 12.01.2020
4762 Clear 18 1025 36 10000 4.1 280 15:21 12.01.2020
4763 Clear 18 1026 39 10000 2.6 310 14:44 12.01.2020
4764 Clear 17 1026 45 10000 2.6 310 14:25 12.01.2020
4765 Clear 16 1026 48 10000 2.1 330 13:57 12.01.2020
4766 Clear 15 1027 51 10000 2.6 10 13:39 12.01.2020
4767 Clear 15 1027 51 10000 2.6 10 13:20 12.01.2020
4768 Clear 15 1027 51 8000 1.5 350 12:57 12.01.2020
4769 Clear 15 1027 51 8000 1.5 350 12:38 12.01.2020
4770 Clear 14 1027 54 8000 1.5 350 12:19 12.01.2020
4771 Clear 14 1028 54 8000 0.5 0 11:42 12.01.2020
4772 Clear 10 1027 66 6000 0.5 0 11:22 12.01.2020
4773 Clear 10 1027 66 6000 0.5 0 10:58 12.01.2020
4774 Clear 10 1027 66 6000 0.5 0 10:40 12.01.2020
4775 Clear 8 1027 75 6000 1 0 10:20 12.01.2020
4776 Clear 5 1026 86 8000 1.5 90 09:43 12.01.2020
4777 Clear 3 1026 86 8000 2.1 90 09:24 12.01.2020
4778 Clear 3 1026 86 10000 1 0 08:48 12.01.2020
4779 Clear 3 1025 86 10000 2.1 90 08:25 12.01.2020
4780 Clear 3 1025 86 10000 0.5 0 07:58 12.01.2020
4781 Clear 3 1025 86 10000 0.5 0 07:38 12.01.2020
4782 Clear 3 1025 86 10000 1 0 07:19 12.01.2020
4783 Clear 4 1024 86 10000 0.5 0 06:40 12.01.2020
4784 Clear 4 1024 86 10000 1.5 80 05:58 12.01.2020
4785 Clear 5 1024 80 10000 2.1 90 05:18 12.01.2020
4786 Clear 5 1025 80 10000 1 0 03:44 12.01.2020
4787 Clear 8 1024 75 10000 2.6 160 02:52 12.01.2020
4788 Clear 6 1024 81 10000 1.5 150 02:27 12.01.2020
4789 Clear 7 1024 75 10000 1 0 01:35 12.01.2020
4790 Clear 7 1024 75 10000 1 0 00:57 12.01.2020
4791 Clear 7 1024 75 10000 2.1 100 00:37 12.01.2020
4792 Clear 7 1024 75 10000 2.1 100 00:18 12.01.2020
4793 Clear 8 1024 70 10000 1.5 80 23:41 11.01.2020
4794 Clear 9 1024 70 10000 1.5 110 23:19 11.01.2020
4795 Clear 8 1024 70 10000 2.6 100 22:57 11.01.2020
4796 Clear 8 1024 70 10000 2.6 100 22:38 11.01.2020
4797 Clear 9 1024 66 10000 3.1 90 22:20 11.01.2020
4798 Clear 10 1024 61 10000 2.1 90 21:54 11.01.2020
4799 Clear 10 1024 61 10000 2.1 90 21:36 11.01.2020
4800 Clear 11 1024 57 10000 2.1 60 21:18 11.01.2020
4801 Clear 12 1024 54 10000 3.6 40 20:39 11.01.2020
4802 Clear 12 1023 58 10000 3.1 50 20:20 11.01.2020
4803 Clear 13 1023 50 10000 2.6 30 19:58 11.01.2020
4804 Clear 13 1023 50 10000 2.6 30 19:38 11.01.2020
4805 Clear 13 1023 54 10000 2.6 40 19:20 11.01.2020
4806 Clear 14 1023 50 10000 2.1 70 18:56 11.01.2020
4807 Clear 14 1023 50 10000 2.1 70 18:37 11.01.2020
4808 Clear 15 1023 47 10000 3.1 40 18:19 11.01.2020
4809 Clear 15 1023 47 10000 3.1 40 18:19 11.01.2020
4810 Clear 15 1023 51 10000 3.1 70 17:57 11.01.2020
4811 Clear 15 1023 51 10000 3.1 70 17:39 11.01.2020
4812 Clouds 15 1023 51 10000 2.1 60 17:18 11.01.2020
4813 Clouds 15 1023 54 10000 1.5 50 16:44 11.01.2020
4814 Clouds 15 1023 54 10000 2.1 80 16:25 11.01.2020
4815 Clouds 14 1023 58 8000 2.6 360 15:57 11.01.2020
4816 Clouds 14 1023 58 8000 2.6 360 15:39 11.01.2020
4817 Clouds 15 1023 58 8000 1 0 15:20 11.01.2020
4818 Clouds 13 1023 62 8000 2.6 80 14:46 11.01.2020
4819 Clouds 13 1023 62 8000 2.6 80 14:46 11.01.2020
4820 Clouds 13 1024 62 8000 2.6 100 14:25 11.01.2020
4821 Clouds 13 1024 62 8000 2.6 100 14:25 11.01.2020
4822 Clouds 12 1024 71 7000 2.6 80 13:58 11.01.2020
4823 Clouds 12 1024 71 7000 2.6 80 13:38 11.01.2020
4824 Clouds 12 1025 66 8000 3.1 80 13:20 11.01.2020
4825 Clouds 12 1025 71 7000 2.6 110 12:56 11.01.2020
4826 Clouds 12 1025 71 7000 2.6 110 12:37 11.01.2020
4827 Clouds 11 1026 76 7000 3.1 100 12:19 11.01.2020
4828 Clouds 11 1026 81 7000 3.1 100 11:42 11.01.2020
4829 Clouds 11 1026 81 7000 3.1 100 11:24 11.01.2020
4830 Clouds 10 1026 87 6000 3.6 100 10:46 11.01.2020
4831 Clouds 10 1025 87 6000 2.6 80 10:25 11.01.2020
4832 Clouds 10 1025 87 6000 2.6 70 09:43 11.01.2020
4833 Clouds 10 1025 81 6000 2.1 60 09:21 11.01.2020
4834 Clouds 10 1025 81 6000 2.1 60 09:21 11.01.2020
4835 Clouds 10 1025 81 6000 2.6 50 08:43 11.01.2020
4836 Clouds 10 1025 81 6000 2.6 50 08:24 11.01.2020
4837 Clouds 10 1025 87 8000 2.1 80 07:59 11.01.2020
4838 Clouds 10 1025 87 8000 2.1 80 07:41 11.01.2020
4839 Clouds 10 1025 87 8000 2.1 50 07:22 11.01.2020
4840 Clouds 10 1025 87 8000 2.1 30 06:42 11.01.2020
4841 Clouds 10 1025 87 6000 1.5 20 05:22 11.01.2020
4842 Clouds 9 1025 93 6000 1.54 31 04:38 11.01.2020
4843 Clouds 9 1025 93 6000 0.5 0 04:20 11.01.2020
4844 Clouds 9 1025 87 6000 1 0 02:46 11.01.2020
4845 Clear 9 1026 93 8000 2.1 90 01:45 11.01.2020
4846 Clear 9 1026 87 8000 2.1 70 01:25 11.01.2020
4847 Clear 10 1026 87 8000 3.1 60 00:52 11.01.2020
4848 Clear 11 1026 81 8000 3.6 60 00:24 11.01.2020
4849 Clear 11 1026 81 8000 2.6 70 23:58 10.01.2020
4850 Clear 11 1026 81 8000 2.6 70 23:38 10.01.2020
4851 Clear 11 1026 81 8000 2.6 70 23:38 10.01.2020
4852 Clear 12 1026 81 10000 3.1 50 23:20 10.01.2020
4853 Clear 12 1026 81 10000 4.1 40 22:41 10.01.2020
4854 Clear 13 1026 76 10000 3.6 50 22:22 10.01.2020
4855 Clear 13 1026 76 10000 3.6 30 21:58 10.01.2020
4856 Clear 13 1026 76 10000 3.6 30 21:40 10.01.2020
4857 Clear 14 1026 54 10000 2.6 60 21:20 10.01.2020
4858 Clear 14 1026 54 10000 2.6 60 21:20 10.01.2020
4859 Clear 13 1026 54 10000 2.1 70 20:56 10.01.2020
4860 Clear 13 1026 54 10000 2.1 70 20:38 10.01.2020
4861 Clear 14 1025 50 10000 2.6 70 20:19 10.01.2020
4862 Clear 16 1025 48 10000 2.6 40 19:40 10.01.2020
4863 Clear 16 1025 48 10000 2.6 40 19:40 10.01.2020
4864 Clear 17 1025 39 10000 3.6 20 19:20 10.01.2020
4865 Clear 18 1024 39 10000 3.6 30 18:55 10.01.2020
4866 Clear 18 1024 39 10000 3.6 30 18:36 10.01.2020
4867 Clear 18 1024 39 10000 3.1 350 18:18 10.01.2020
4868 Clear 18 1024 39 10000 3.1 350 18:18 10.01.2020
4869 Clear 19 1024 39 10000 3.6 10 17:56 10.01.2020
4870 Clear 19 1024 39 10000 3.6 10 17:37 10.01.2020
4871 Clear 20 1024 34 10000 3.6 350 17:19 10.01.2020
4872 Clear 21 1024 30 10000 3.1 320 16:41 10.01.2020
4873 Clear 21 1024 35 10000 3.6 330 16:21 10.01.2020
4874 Clear 20 1024 37 10000 3.1 350 15:56 10.01.2020
4875 Clear 20 1024 37 10000 3.1 350 15:56 10.01.2020
4876 Clear 20 1024 37 10000 3.1 350 15:37 10.01.2020
4877 Clear 19 1025 39 10000 2.6 360 15:19 10.01.2020
4878 Clear 20 1025 34 10000 1.5 0 14:57 10.01.2020
4879 Clear 20 1025 34 10000 1.5 0 14:39 10.01.2020
4880 Clear 18 1025 39 10000 2.1 120 14:19 10.01.2020
4881 Clear 17 1026 48 10000 2.1 120 13:54 10.01.2020
4882 Clear 17 1026 48 10000 2.1 120 13:36 10.01.2020
4883 Clear 16 1027 55 8000 1.5 90 13:18 10.01.2020
4884 Clear 15 1028 62 8000 2.1 110 12:54 10.01.2020
4885 Clear 15 1028 62 8000 2.1 110 12:36 10.01.2020
4886 Clear 13 1029 71 6000 5.1 120 12:18 10.01.2020
4887 Clear 13 1029 71 6000 5.1 120 11:42 10.01.2020
4888 Clear 13 1029 71 6000 5.1 120 11:42 10.01.2020
4889 Clear 13 1029 71 6000 5.1 120 11:42 10.01.2020
4890 Clear 13 1029 71 6000 5.1 120 11:42 10.01.2020
4891 Clear 13 1029 71 6000 5.1 120 11:42 10.01.2020
4892 Clear 11 1030 81 6000 4.6 110 11:22 10.01.2020
4893 Clear 10 1030 81 6000 4.6 100 10:59 10.01.2020
4894 Clear 10 1030 81 6000 4.6 100 10:38 10.01.2020
4895 Clear 9 1029 81 6000 5.1 110 10:19 10.01.2020
4896 Clouds 8 1029 81 6000 4.6 100 09:48 10.01.2020
4897 Clouds 6 1028 87 6000 2.6 100 09:27 10.01.2020
4898 Clear 5 1028 86 6000 2.1 60 08:59 10.01.2020
4899 Clear 5 1028 86 6000 2.1 60 08:38 10.01.2020
4900 Clear 6 1028 87 8000 2.1 110 08:20 10.01.2020
4901 Clear 5 1028 86 8000 3.1 120 07:41 10.01.2020
4902 Clear 5 1027 80 8000 3.1 110 07:22 10.01.2020
4903 Clear 6 1027 81 8000 2.1 60 06:43 10.01.2020
4904 Clear 6 1027 81 8000 2.6 100 06:24 10.01.2020
4905 Clear 8 1027 81 8000 2.1 40 05:33 10.01.2020
4906 Clear 8 1027 87 8000 1.5 90 03:34 10.01.2020
4907 Clear 8 1027 87 8000 1.5 90 03:34 10.01.2020
4908 Clear 8 1027 87 8000 2.6 120 02:57 10.01.2020
4909 Clear 8 1027 87 8000 2.6 120 02:36 10.01.2020
4910 Clear 10 1028 81 8000 1 0 01:34 10.01.2020
4911 Clear 10 1028 81 8000 1.5 50 00:56 10.01.2020
4912 Clear 10 1028 81 8000 1.5 50 00:38 10.01.2020
4913 Clear 12 1028 76 8000 2.6 50 23:57 09.01.2020
4914 Clear 12 1028 76 8000 2.6 50 23:37 09.01.2020
4915 Clear 12 1028 71 8000 1.5 60 23:19 09.01.2020
4916 Clear 12 1028 71 8000 1.5 60 23:19 09.01.2020
4917 Clear 12 1028 71 8000 1.5 50 22:56 09.01.2020
4918 Clear 12 1028 71 8000 1.5 50 22:37 09.01.2020
4919 Clear 12 1028 71 8000 1.5 50 22:37 09.01.2020
4920 Clear 13 1027 66 8000 3.1 50 22:18 09.01.2020
4921 Clear 14 1027 62 8000 2.6 30 21:56 09.01.2020
4922 Clear 14 1027 62 8000 2.6 30 21:37 09.01.2020
4923 Clear 14 1027 44 8000 1.5 30 21:18 09.01.2020
4924 Clear 15 1027 41 8000 2.1 30 20:55 09.01.2020
4925 Clear 15 1027 41 8000 2.1 30 20:37 09.01.2020
4926 Clear 15 1026 47 8000 2.6 10 20:19 09.01.2020
4927 Clear 16 1026 44 8000 2.6 360 19:54 09.01.2020
4928 Clear 17 1026 39 8000 1.5 10 19:36 09.01.2020
4929 Clear 17 1026 39 8000 1.5 10 19:18 09.01.2020
4930 Clear 19 1025 32 8000 3.1 10 18:41 09.01.2020
4931 Clear 19 1025 32 8000 3.1 10 18:22 09.01.2020
4932 Clear 19 1025 32 8000 3.1 340 17:58 09.01.2020
4933 Clear 19 1025 32 8000 2.6 320 17:40 09.01.2020
4934 Clear 19 1025 32 8000 2.6 320 17:18 09.01.2020
4935 Clear 19 1025 32 8000 2.6 320 17:18 09.01.2020
4936 Clear 19 1025 37 8000 3.1 330 16:46 09.01.2020
4937 Clear 19 1025 32 8000 2.6 10 16:22 09.01.2020
4938 Clear 19 1025 32 8000 1.5 0 15:44 09.01.2020
4939 Clear 19 1025 34 8000 1.5 0 15:25 09.01.2020
4940 Clear 19 1025 34 8000 1 0 14:59 09.01.2020
4941 Clear 19 1025 34 8000 1 0 14:41 09.01.2020
4942 Clear 18 1026 39 8000 1.5 0 14:19 09.01.2020
4943 Clear 17 1026 42 8000 1.5 350 13:57 09.01.2020
4944 Clear 16 1027 44 8000 1.5 20 13:38 09.01.2020
4945 Clear 16 1027 44 8000 1.5 20 13:19 09.01.2020
4946 Clear 16 1027 41 8000 1.5 0 12:57 09.01.2020
4947 Clear 14 1027 47 8000 2.1 110 12:38 09.01.2020
4948 Clear 14 1027 47 8000 2.1 110 12:18 09.01.2020
4949 Clear 14 1027 50 8000 1 0 11:43 09.01.2020
4950 Clear 13 1027 50 8000 1 0 11:25 09.01.2020
4951 Clear 11 1027 57 8000 1 0 10:59 09.01.2020
4952 Clear 6 1026 75 8000 1.5 120 10:41 09.01.2020
4953 Clear 6 1026 75 8000 1.5 120 10:21 09.01.2020
4954 Clear 6 1026 75 8000 1.5 120 09:49 09.01.2020
4955 Clear 4 1026 42 8000 1 0 09:25 09.01.2020
4956 Clear 4 1026 80 10000 1 0 08:59 09.01.2020
4957 Clear 5 1026 75 8000 1 0 08:40 09.01.2020
4958 Clear 5 1026 75 8000 1 0 08:21 09.01.2020
4959 Clear 5 1026 75 8000 0.5 0 07:53 09.01.2020
4960 Clear 5 1026 75 8000 1 0 07:33 09.01.2020
4961 Clear 6 1026 70 8000 1 0 06:52 09.01.2020
4962 Clear 6 1026 75 8000 2.1 150 06:32 09.01.2020
4963 Clear 6 1026 70 8000 0.5 0 05:52 09.01.2020
4964 Clear 5 1026 75 8000 1 0 05:26 09.01.2020
4965 Clear 6 1026 70 8000 1.5 290 04:40 09.01.2020
4966 Clear 6 1027 70 8000 1 0 03:28 09.01.2020
4967 Clear 8 1025 50 0 0.68 120 02:47 09.01.2020
4968 Clear 9 1026 47 0 0.42 326 01:42 09.01.2020
4969 Clear 9 1027 57 8000 1 0 01:18 09.01.2020
4970 Clear 9 1027 57 8000 1 0 01:18 09.01.2020
4971 Clear 9 1027 57 8000 1 0 00:38 09.01.2020
4972 Clear 9 1027 57 8000 1 0 00:19 09.01.2020
4973 Clear 10 1027 53 8000 0.5 0 00:19 09.01.2020
4974 Clear 10 1027 53 8000 1 0 23:40 08.01.2020
4975 Clear 10 1027 53 8000 1 0 23:22 08.01.2020
4976 Clear 11 1027 50 8000 0.5 0 22:56 08.01.2020
4977 Clear 11 1027 50 8000 0.5 0 22:56 08.01.2020
4978 Clear 13 1027 47 8000 0.5 0 22:37 08.01.2020
4979 Clear 13 1027 47 8000 0.5 0 22:18 08.01.2020
4980 Clear 13 1027 43 8000 2.1 130 21:55 08.01.2020
4981 Clear 14 1027 44 8000 1 0 21:37 08.01.2020
4982 Clear 14 1027 44 8000 1 0 21:18 08.01.2020
4983 Clear 14 1027 41 8000 1 0 20:41 08.01.2020
4984 Clear 15 1026 38 8000 1.5 20 20:21 08.01.2020
4985 Clear 16 1026 36 8000 1.5 20 19:59 08.01.2020
4986 Clear 17 1026 33 8000 1.5 20 19:38 08.01.2020
4987 Clear 17 1026 33 8000 1.5 20 19:20 08.01.2020
4988 Clear 18 1026 31 8000 2.1 10 18:58 08.01.2020
4989 Clear 19 1026 32 8000 2.1 350 18:39 08.01.2020
4990 Clear 19 1026 32 8000 2.1 350 18:19 08.01.2020
4991 Clear 19 1026 32 8000 2.1 350 18:19 08.01.2020
4992 Clear 19 1025 34 8000 1.5 0 17:57 08.01.2020
4993 Clear 19 1025 37 8000 1 0 17:38 08.01.2020
4994 Clear 19 1025 37 8000 1 0 17:19 08.01.2020
4995 Clear 19 1025 37 8000 1 0 17:19 08.01.2020
4996 Clear 20 1025 34 8000 1 0 16:56 08.01.2020
4997 Clear 20 1025 34 8000 1 0 16:38 08.01.2020
4998 Clear 20 1025 34 8000 1 0 16:18 08.01.2020
4999 Clear 19 1025 34 8000 1.5 350 15:45 08.01.2020
5000 Clear 19 1026 32 8000 1.5 330 15:21 08.01.2020
5001 Clear 19 1026 34 6000 1.5 0 14:59 08.01.2020
5002 Clear 18 1026 36 6000 1.5 20 14:40 08.01.2020
5003 Clear 18 1026 36 6000 1.5 20 14:40 08.01.2020
5004 Clear 18 1026 36 6000 1.5 20 14:21 08.01.2020
5005 Clear 18 1027 42 6000 1.5 0 13:41 08.01.2020
5006 Clear 16 1027 44 6000 1.5 40 13:22 08.01.2020
5007 Clear 16 1027 44 6000 1.5 40 13:22 08.01.2020
5008 Clear 16 1028 48 6000 1 0 12:55 08.01.2020
5009 Clear 16 1028 48 6000 0.5 0 12:37 08.01.2020
5010 Clear 16 1028 48 6000 0.5 0 12:18 08.01.2020
5011 Clear 14 1028 50 6000 1 0 11:48 08.01.2020
5012 Clear 14 1028 50 6000 1 0 11:48 08.01.2020
5013 Clear 12 1028 58 6000 1.5 100 11:19 08.01.2020
5014 Clear 10 1028 66 6000 1.5 90 10:59 08.01.2020
5015 Clear 10 1028 66 6000 1.5 90 10:59 08.01.2020
5016 Clear 9 1028 70 6000 1.5 50 10:40 08.01.2020
5017 Clear 9 1028 70 6000 1.5 50 10:21 08.01.2020
5018 Clear 9 1028 70 6000 1.5 50 10:21 08.01.2020
5019 Clear 6 1027 81 6000 1.5 110 09:43 08.01.2020
5020 Clear 4 1027 86 6000 2.1 90 09:20 08.01.2020
5021 Clear 5 1026 80 7000 1 0 08:59 08.01.2020
5022 Clear 5 1026 80 8000 0.5 0 08:40 08.01.2020
5023 Clear 5 1026 80 8000 0.5 0 08:21 08.01.2020
5024 Clear 5 1026 80 8000 0.5 0 07:52 08.01.2020
5025 Clear 5 1026 80 8000 1 0 07:33 08.01.2020
5026 Clear 5 1026 80 8000 2.1 100 06:58 08.01.2020
5027 Clear 5 1026 80 10000 1 0 06:40 08.01.2020
5028 Clear 6 1026 75 10000 0.5 0 05:55 08.01.2020
5029 Clear 6 1026 81 10000 1.5 60 05:25 08.01.2020
5030 Clear 6 1026 75 10000 2.1 90 04:36 08.01.2020
5031 Clear 7 1026 70 10000 1.5 90 02:46 08.01.2020
5032 Clear 7 1026 70 10000 1 0 02:28 08.01.2020
5033 Clear 9 1027 66 10000 0.5 0 01:54 08.01.2020
5034 Clear 9 1027 66 10000 2.1 170 01:29 08.01.2020
5035 Clear 9 1027 61 10000 1 0 00:42 08.01.2020
5036 Clear 10 1027 57 10000 1 0 00:21 08.01.2020
5037 Clear 10 1027 61 10000 0.5 0 23:45 07.01.2020
5038 Clear 11 1027 57 10000 1 0 23:20 07.01.2020
5039 Clear 11 1027 57 10000 1 0 22:41 07.01.2020
5040 Clear 12 1027 50 10000 1 0 22:21 07.01.2020
5041 Clear 12 1027 50 10000 1.5 220 21:58 07.01.2020
5042 Clear 13 1027 50 10000 1.5 230 21:40 07.01.2020
5043 Clear 13 1027 50 10000 1.5 230 21:21 07.01.2020
5044 Clear 13 1027 50 10000 1.5 240 20:57 07.01.2020
5045 Clear 13 1027 50 10000 1.5 250 20:39 07.01.2020
5046 Clear 13 1027 50 10000 1.5 250 20:21 07.01.2020
5047 Clear 14 1026 47 10000 1.5 260 19:56 07.01.2020
5048 Clear 15 1026 44 10000 2.1 250 19:37 07.01.2020
5049 Clear 15 1026 44 10000 2.1 250 19:18 07.01.2020
5050 Clear 15 1026 44 10000 2.1 250 19:18 07.01.2020
5051 Clear 16 1026 41 10000 2.6 260 18:55 07.01.2020
5052 Clear 17 1026 39 10000 2.1 260 18:37 07.01.2020
5053 Clear 17 1026 39 10000 2.1 260 18:18 07.01.2020
5054 Clear 17 1026 39 10000 2.1 260 18:18 07.01.2020
5055 Clear 17 1026 39 10000 2.1 260 18:18 07.01.2020
5056 Clear 18 1025 36 10000 2.6 340 17:41 07.01.2020
5057 Clear 18 1025 36 10000 2.6 340 17:22 07.01.2020
5058 Clear 18 1025 36 8000 2.6 290 16:58 07.01.2020
5059 Clear 18 1025 36 8000 2.1 290 16:38 07.01.2020
5060 Clear 18 1025 36 8000 2.1 290 16:19 07.01.2020
5061 Clear 18 1025 39 8000 2.1 0 15:59 07.01.2020
5062 Clear 18 1025 39 8000 2.1 0 15:41 07.01.2020
5063 Clear 18 1025 45 8000 2.1 270 15:23 07.01.2020
5064 Clear 18 1026 45 8000 2.6 290 14:56 07.01.2020
5065 Clear 17 1026 51 8000 2.1 310 14:37 07.01.2020
5066 Clear 17 1026 51 8000 2.1 310 14:19 07.01.2020
5067 Clear 16 1027 59 8000 2.1 330 13:40 07.01.2020
5068 Clear 16 1027 59 8000 2.1 330 13:19 07.01.2020
5069 Clear 15 1028 62 8000 1 0 12:42 07.01.2020
5070 Clear 14 1028 62 6000 1.5 0 12:21 07.01.2020
5071 Clear 13 1028 66 6000 1.5 310 11:59 07.01.2020
5072 Clear 12 1028 66 6000 1 0 11:40 07.01.2020
5073 Clear 12 1028 66 6000 1 0 11:21 07.01.2020
5074 Clear 12 1028 62 6000 1 0 10:42 07.01.2020
5075 Clear 10 1028 71 7000 0.5 0 10:24 07.01.2020
5076 Clear 7 1027 87 7000 0.5 0 09:59 07.01.2020
5077 Clear 6 1027 81 7000 1.5 100 09:38 07.01.2020
5078 Clear 6 1027 81 7000 1.5 100 09:20 07.01.2020
5079 Clear 6 1026 87 7000 1 0 08:46 07.01.2020
5080 Clear 7 1026 81 8000 1 0 08:27 07.01.2020
5081 Clouds 7 1026 81 8000 2.6 160 07:54 07.01.2020
5082 Clouds 6 1026 87 8000 1.5 200 07:34 07.01.2020
5083 Clouds 6 1025 87 8000 1.5 240 06:54 07.01.2020
5084 Clouds 6 1025 87 8000 1 0 06:35 07.01.2020
5085 Clouds 6 1025 81 8000 1.5 260 05:57 07.01.2020
5086 Clouds 6 1025 87 8000 0.5 0 05:38 07.01.2020
5087 Clouds 7 1026 81 8000 1 0 03:44 07.01.2020
5088 Clouds 9 1026 76 8000 1 0 02:25 07.01.2020
5089 Clouds 9 1026 76 8000 0.5 0 01:57 07.01.2020
5090 Clouds 10 1026 76 8000 2.1 180 01:34 07.01.2020
5091 Clouds 11 1026 66 8000 1.5 170 00:40 07.01.2020
5092 Clouds 11 1026 66 8000 1.5 170 00:20 07.01.2020
5093 Clouds 10 1026 71 10000 1.5 170 23:55 06.01.2020
5094 Clouds 10 1026 71 10000 0.5 0 23:36 06.01.2020
5095 Clear 10 1026 71 10000 0.5 0 23:18 06.01.2020
5096 Clear 11 1026 66 10000 1 0 22:43 06.01.2020
5097 Clear 11 1026 66 10000 1 0 22:23 06.01.2020
5098 Clear 12 1026 62 10000 1.5 100 21:57 06.01.2020
5099 Clear 12 1025 62 10000 1.5 70 21:39 06.01.2020
5100 Clear 12 1025 62 10000 1.5 70 21:20 06.01.2020
5101 Clear 12 1025 62 10000 1.5 70 21:20 06.01.2020
5102 Clear 12 1025 62 10000 1.5 70 21:20 06.01.2020
5103 Clear 12 1025 62 10000 2.1 90 20:57 06.01.2020
5104 Clear 13 1025 58 8000 2.6 70 20:38 06.01.2020
5105 Clear 13 1025 58 8000 2.6 70 20:20 06.01.2020
5106 Clear 15 1025 51 8000 3.1 70 19:56 06.01.2020
5107 Clouds 16 1024 51 8000 5.1 40 19:38 06.01.2020
5108 Clouds 16 1024 51 8000 5.1 40 19:19 06.01.2020
5109 Clouds 17 1024 48 8000 3.1 40 18:47 06.01.2020
5110 Clouds 17 1024 48 8000 3.1 40 18:47 06.01.2020
5111 Clouds 17 1023 48 8000 4.1 40 18:21 06.01.2020
5112 Clouds 17 1023 51 8000 3.6 30 17:58 06.01.2020
5113 Clouds 17 1023 51 8000 3.1 40 17:38 06.01.2020
5114 Clouds 17 1023 51 8000 3.1 40 17:18 06.01.2020
5115 Clouds 17 1023 55 8000 2.6 50 16:44 06.01.2020
5116 Clear 17 1023 55 8000 2.6 40 16:25 06.01.2020
5117 Clear 17 1023 59 8000 1.5 40 15:59 06.01.2020
5118 Clear 17 1024 55 6000 2.1 40 15:39 06.01.2020
5119 Clear 17 1024 55 6000 2.1 40 15:19 06.01.2020
5120 Clear 16 1024 59 6000 2.6 50 14:57 06.01.2020
5121 Clear 16 1025 59 6000 3.1 50 14:39 06.01.2020
5122 Clear 16 1025 59 6000 3.1 50 14:18 06.01.2020
5123 Clear 15 1025 62 6000 2.6 20 13:41 06.01.2020
5124 Clear 14 1026 67 6000 1.5 0 13:22 06.01.2020
5125 Clear 14 1026 71 6000 1.5 350 12:59 06.01.2020
5126 Clear 14 1026 71 6000 1.5 350 12:41 06.01.2020
5127 Clear 13 1026 76 6000 1 0 12:20 06.01.2020
5128 Clouds 12 1027 76 6000 1.5 40 11:56 06.01.2020
5129 Clouds 12 1027 81 6000 0.5 0 11:38 06.01.2020
5130 Clouds 12 1027 81 6000 0.5 0 11:20 06.01.2020
5131 Clouds 11 1027 81 6000 0.5 0 10:42 06.01.2020
5132 Clouds 11 1027 81 6000 0.5 0 10:42 06.01.2020
5133 Clouds 10 1027 81 6000 0.5 0 10:21 06.01.2020
5134 Clouds 7 1027 93 8000 0.5 0 09:42 06.01.2020
5135 Clouds 5 1026 93 8000 1 0 09:24 06.01.2020
5136 Clouds 6 1026 87 8000 1 0 08:58 06.01.2020
5137 Clouds 6 1026 93 8000 1 0 08:39 06.01.2020
5138 Clouds 6 1026 93 8000 1 0 08:21 06.01.2020
5139 Clouds 6 1026 93 8000 1 0 08:21 06.01.2020
5140 Clouds 5 1026 93 8000 1 0 07:46 06.01.2020
5141 Clear 6 1025 93 8000 1 0 07:21 06.01.2020
5142 Clear 6 1025 93 8000 1 0 07:21 06.01.2020
5143 Clear 7 1025 87 8000 0.5 0 06:41 06.01.2020
5144 Clear 7 1025 93 8000 0.5 0 05:51 06.01.2020
5145 Clear 7 1025 87 8000 2.1 220 05:29 06.01.2020
5146 Clear 8 1025 87 8000 2.1 230 04:25 06.01.2020
5147 Clear 9 1025 87 8000 2.6 230 03:52 06.01.2020
5148 Clear 8 1025 87 8000 2.6 250 02:32 06.01.2020
5149 Clouds 8 1025 87 8000 2.6 250 01:55 06.01.2020
5150 Clouds 8 1025 87 8000 2.6 240 01:32 06.01.2020
5151 Clouds 10 1025 81 8000 3.1 230 00:48 06.01.2020
5152 Clouds 10 1025 81 8000 3.1 230 00:29 06.01.2020
5153 Clouds 10 1025 76 8000 3.1 240 23:59 05.01.2020
5154 Clouds 10 1025 81 8000 2.6 240 23:40 05.01.2020
5155 Clouds 10 1025 81 8000 2.6 240 23:21 05.01.2020
5156 Clouds 9 1025 81 8000 2.6 250 22:40 05.01.2020
5157 Clouds 9 1025 81 8000 2.6 250 22:21 05.01.2020
5158 Clouds 11 1025 76 8000 2.1 260 21:59 05.01.2020
5159 Clouds 11 1025 76 8000 3.1 280 21:40 05.01.2020
5160 Clouds 11 1025 76 8000 3.1 280 21:20 05.01.2020
5161 Clouds 12 1025 71 8000 2.1 260 20:58 05.01.2020
5162 Clouds 12 1024 71 8000 1.5 250 20:39 05.01.2020
5163 Clouds 12 1024 71 8000 1.5 250 20:19 05.01.2020
5164 Clouds 13 1024 66 8000 1.5 270 19:59 05.01.2020
5165 Clouds 14 1024 62 8000 2.1 280 19:39 05.01.2020
5166 Clouds 14 1024 62 8000 2.1 280 19:20 05.01.2020
5167 Clouds 15 1024 62 8000 3.1 270 18:56 05.01.2020
5168 Clouds 16 1024 59 8000 2.6 270 18:38 05.01.2020
5169 Clouds 16 1024 59 8000 2.6 270 18:19 05.01.2020
5170 Clouds 17 1024 55 8000 1.5 0 17:58 05.01.2020
5171 Clouds 17 1024 55 8000 2.1 0 17:39 05.01.2020
5172 Clouds 17 1024 55 8000 2.1 0 17:20 05.01.2020
5173 Clouds 17 1024 55 8000 1.5 330 16:56 05.01.2020
5174 Clouds 17 1024 55 8000 1.5 330 16:56 05.01.2020
5175 Clouds 18 1024 52 8000 1.5 0 16:38 05.01.2020
5176 Clouds 18 1024 52 8000 1.5 0 16:19 05.01.2020
5177 Clouds 17 1024 55 8000 1 0 15:39 05.01.2020
5178 Clouds 17 1024 55 8000 1 0 15:20 05.01.2020
5179 Clouds 17 1024 59 8000 1.5 300 14:56 05.01.2020
5180 Clouds 17 1025 59 8000 1.5 0 14:38 05.01.2020
5181 Clear 17 1025 59 8000 1.5 0 14:20 05.01.2020
5182 Clear 16 1025 59 10000 1.5 0 13:56 05.01.2020
5183 Clear 15 1026 62 8000 1 0 13:38 05.01.2020
5184 Clear 15 1026 62 8000 1 0 13:19 05.01.2020
5185 Clear 15 1026 62 8000 1 0 13:19 05.01.2020
5186 Clear 15 1026 62 8000 1 0 12:55 05.01.2020
5187 Clear 15 1026 62 8000 1 0 12:55 05.01.2020
5188 Clear 14 1027 67 6000 1 0 12:37 05.01.2020
5189 Clear 14 1027 67 6000 1 0 12:18 05.01.2020
5190 Clear 13 1027 66 6000 0.5 0 11:43 05.01.2020
5191 Clear 12 1027 76 6000 0.5 0 11:20 05.01.2020
5192 Clear 10 1027 81 6000 1 0 10:58 05.01.2020
5193 Clear 9 1027 81 6000 1 0 10:39 05.01.2020
5194 Clear 9 1027 81 6000 1 0 10:19 05.01.2020
5195 Clear 7 1026 87 8000 1 0 09:42 05.01.2020
5196 Clear 6 1026 87 8000 1.5 90 09:22 05.01.2020
5197 Clear 6 1026 87 7000 1 0 08:50 05.01.2020
5198 Clear 6 1026 87 10000 1 0 08:31 05.01.2020
5199 Clear 7 1026 87 10000 1.5 260 07:59 05.01.2020
5200 Clear 6 1026 87 10000 1.5 260 07:39 05.01.2020
5201 Clear 6 1026 87 10000 1.5 260 07:20 05.01.2020
5202 Clear 7 1026 87 10000 1 0 06:21 05.01.2020
5203 Clear 6 1026 87 10000 1 0 05:34 05.01.2020
5204 Clear 7 1027 87 10000 0.5 0 04:48 05.01.2020
5205 Clear 8 1027 81 10000 1.5 240 04:18 05.01.2020
5206 Clear 8 1027 81 10000 1.5 240 04:18 05.01.2020
5207 Clear 8 1027 87 10000 0.5 0 02:50 05.01.2020
5208 Clear 9 1027 81 10000 0.5 0 02:32 05.01.2020
5209 Clear 9 1027 81 10000 0.5 0 01:49 05.01.2020
5210 Clear 10 1027 76 10000 1 0 01:19 05.01.2020
5211 Clear 9 1027 87 10000 0.5 0 00:55 05.01.2020
5212 Clear 10 1028 81 10000 1 0 00:36 05.01.2020
5213 Clear 10 1028 81 10000 1 0 00:18 05.01.2020
5214 Clear 12 1028 76 10000 1 0 23:40 04.01.2020
5215 Clear 12 1028 76 10000 1 0 23:20 04.01.2020
5216 Clear 13 1027 71 10000 1 0 22:40 04.01.2020
5217 Clear 13 1027 71 10000 1 0 22:22 04.01.2020
5218 Clear 13 1027 71 8000 1 0 21:58 04.01.2020
5219 Clear 13 1027 71 8000 1.5 280 21:40 04.01.2020
5220 Clear 13 1027 71 8000 1.5 280 21:22 04.01.2020
5221 Clear 13 1027 71 8000 1.5 280 20:59 04.01.2020
5222 Clear 14 1027 67 8000 2.1 280 20:40 04.01.2020
5223 Clear 14 1027 67 8000 2.1 280 20:22 04.01.2020
5224 Clear 14 1027 67 8000 2.1 270 19:57 04.01.2020
5225 Clear 15 1027 62 8000 2.1 260 19:38 04.01.2020
5226 Clear 15 1027 62 8000 2.1 260 19:20 04.01.2020
5227 Clear 17 1027 55 8000 2.1 280 18:56 04.01.2020
5228 Clear 18 1027 55 8000 1.5 300 18:37 04.01.2020
5229 Clear 18 1027 55 8000 1.5 300 18:19 04.01.2020
5230 Clear 18 1027 52 8000 1.5 320 17:41 04.01.2020
5231 Clear 18 1027 55 8000 2.1 0 17:23 04.01.2020
5232 Clear 18 1027 55 8000 2.6 320 16:59 04.01.2020
5233 Clear 18 1027 55 8000 2.1 310 16:40 04.01.2020
5234 Clear 18 1027 55 8000 2.1 310 16:21 04.01.2020
5235 Clear 18 1027 52 8000 2.1 340 15:56 04.01.2020
5236 Clear 17 1027 55 8000 2.6 310 15:38 04.01.2020
5237 Clear 17 1027 55 8000 2.6 310 15:18 04.01.2020
5238 Clear 18 1028 55 8000 1.5 320 14:42 04.01.2020
5239 Clear 18 1028 55 8000 1.5 320 14:42 04.01.2020
5240 Clouds 17 1028 59 8000 1.5 0 14:20 04.01.2020
5241 Clouds 16 1029 63 8000 1.5 320 13:59 04.01.2020
5242 Clouds 16 1029 63 8000 1.5 280 13:38 04.01.2020
5243 Clouds 16 1029 63 8000 1.5 280 13:19 04.01.2020
5244 Clouds 15 1030 62 8000 1 0 12:57 04.01.2020
5245 Clouds 14 1030 71 8000 1 0 12:39 04.01.2020
5246 Clouds 14 1030 71 8000 1 0 12:19 04.01.2020
5247 Clouds 14 1030 71 8000 1 0 11:57 04.01.2020
5248 Clouds 14 1030 71 8000 1 0 11:57 04.01.2020
5249 Clouds 12 1031 81 8000 1 0 11:38 04.01.2020
5250 Clouds 12 1031 81 8000 1 0 11:38 04.01.2020
5251 Clouds 12 1031 81 8000 1 0 11:18 04.01.2020
5252 Clouds 11 1030 71 8000 0.5 0 10:41 04.01.2020
5253 Clouds 11 1030 71 8000 0.5 0 10:22 04.01.2020
5254 Clouds 9 1030 81 8000 0.33 313 09:48 04.01.2020
5255 Clouds 6 1030 87 8000 0.5 0 09:26 04.01.2020
5256 Clouds 6 1030 81 8000 0.5 0 08:49 04.01.2020
5257 Clouds 7 1030 81 8000 0.5 0 08:29 04.01.2020
5258 Clouds 6 1029 87 8000 1 0 07:59 04.01.2020
5259 Clouds 7 1029 81 8000 1 0 07:40 04.01.2020
5260 Clouds 7 1029 87 8000 0.5 0 06:46 04.01.2020
5261 Clouds 7 1029 81 8000 1.5 30 05:59 04.01.2020
5262 Clouds 7 1029 87 8000 1 0 04:53 04.01.2020
5263 Clouds 8 1029 81 8000 1 0 04:32 04.01.2020
5264 Clouds 9 1030 76 8000 1 0 03:37 04.01.2020
5265 Clouds 9 1030 76 8000 1 0 03:18 04.01.2020
5266 Clouds 10 1030 76 8000 2.6 170 02:18 04.01.2020
5267 Clouds 9 1030 81 8000 0.5 0 01:51 04.01.2020
5268 Clouds 9 1031 81 8000 1 0 01:30 04.01.2020
5269 Clouds 11 1031 76 8000 1.5 240 00:29 04.01.2020
5270 Clouds 12 1031 71 8000 2.1 220 23:59 03.01.2020
5271 Clouds 12 1031 71 8000 2.1 230 23:37 03.01.2020
5272 Clouds 12 1031 71 8000 2.1 230 23:19 03.01.2020
5273 Clouds 13 1031 66 8000 2.6 230 22:41 03.01.2020
5274 Clouds 13 1031 66 8000 2.6 230 22:19 03.01.2020
5275 Clouds 13 1031 66 8000 2.1 230 21:58 03.01.2020
5276 Clouds 13 1031 66 10000 2.1 230 21:38 03.01.2020
5277 Clouds 13 1031 66 10000 2.1 230 21:38 03.01.2020
5278 Clouds 13 1031 66 10000 2.1 230 21:19 03.01.2020
5279 Clouds 13 1031 66 10000 2.1 230 21:19 03.01.2020
5280 Clouds 12 1031 71 10000 2.1 240 20:56 03.01.2020
5281 Clouds 14 1031 67 10000 2.1 260 20:38 03.01.2020
5282 Clouds 14 1031 67 10000 2.1 260 20:18 03.01.2020
5283 Clouds 14 1030 67 10000 2.1 280 19:55 03.01.2020
5284 Clouds 15 1030 62 10000 2.6 280 19:37 03.01.2020
5285 Clouds 15 1030 62 10000 2.6 280 19:18 03.01.2020
5286 Clouds 18 1030 48 10000 1.5 300 18:40 03.01.2020
5287 Clouds 18 1030 48 10000 1.5 300 18:21 03.01.2020
5288 Clouds 19 1030 45 10000 1.5 300 17:54 03.01.2020
5289 Clouds 20 1030 42 10000 1.5 330 17:36 03.01.2020
5290 Clouds 20 1030 42 10000 1.5 330 17:18 03.01.2020
5291 Clouds 19 1030 42 10000 2.1 270 16:42 03.01.2020
5292 Clouds 19 1030 45 8000 1.5 290 16:22 03.01.2020
5293 Clouds 19 1030 45 8000 1.5 290 15:43 03.01.2020
5294 Clouds 19 1030 45 8000 1 0 15:19 03.01.2020
5295 Clouds 19 1030 45 8000 1 0 15:19 03.01.2020
5296 Clouds 19 1030 45 8000 1.5 330 14:56 03.01.2020
5297 Clouds 18 1031 48 8000 1.5 340 14:37 03.01.2020
5298 Clouds 18 1031 48 8000 1.5 340 14:19 03.01.2020
5299 Clouds 17 1031 51 8000 1.5 10 13:41 03.01.2020
5300 Clouds 16 1032 51 8000 1.5 330 13:23 03.01.2020
5301 Clouds 16 1032 51 8000 1.5 300 12:56 03.01.2020
5302 Clouds 16 1032 48 8000 0.5 0 12:38 03.01.2020
5303 Clouds 16 1032 48 8000 0.5 0 12:19 03.01.2020
5304 Clouds 15 1033 51 8000 1 0 11:42 03.01.2020
5305 Clouds 13 1033 58 8000 1 0 11:18 03.01.2020
5306 Clouds 11 1032 62 8000 2.1 100 10:43 03.01.2020
5307 Clouds 10 1032 66 8000 1.5 90 10:24 03.01.2020
5308 Clouds 8 1031 75 8000 1 0 09:57 03.01.2020
5309 Clouds 7 1031 75 8000 0.5 0 09:38 03.01.2020
5310 Clouds 7 1031 75 8000 0.5 0 09:20 03.01.2020
5311 Clouds 6 1031 81 8000 1.5 90 08:54 03.01.2020
5312 Clouds 5 1030 80 8000 2.1 90 08:36 03.01.2020
5313 Clouds 5 1030 80 8000 2.1 90 08:18 03.01.2020
5314 Clouds 7 1030 75 8000 1.5 100 07:39 03.01.2020
5315 Clouds 7 1030 75 8000 1.5 100 07:18 03.01.2020
5316 Clouds 7 1030 81 10000 0.5 0 06:42 03.01.2020
5317 Clouds 7 1030 75 10000 1 0 06:23 03.01.2020
5318 Clouds 7 1030 75 10000 0.5 0 05:20 03.01.2020
5319 Clouds 10 1030 76 10000 2.6 210 03:45 03.01.2020
5320 Clouds 9 1030 81 10000 2.1 230 02:54 03.01.2020
5321 Clouds 10 1030 81 10000 3.1 230 01:54 03.01.2020
5322 Clouds 10 1030 76 10000 3.1 230 01:36 03.01.2020
5323 Clouds 10 1030 76 10000 3.1 230 01:36 03.01.2020
5324 Clouds 11 1030 71 10000 3.6 230 00:46 03.01.2020
5325 Clouds 10 1031 71 10000 3.1 240 00:26 03.01.2020
5326 Clouds 11 1030 53 10000 2.1 240 23:39 02.01.2020
5327 Clear 11 1030 53 10000 2.1 240 23:21 02.01.2020
5328 Clear 12 1030 50 10000 2.1 250 22:59 02.01.2020
5329 Clear 12 1030 50 10000 2.1 250 22:41 02.01.2020
5330 Clear 14 1030 44 10000 3.1 220 22:20 02.01.2020
5331 Clear 12 1030 50 10000 2.1 240 21:57 02.01.2020
5332 Clear 12 1030 50 10000 2.1 240 21:38 02.01.2020
5333 Clear 12 1030 50 10000 2.1 240 21:19 02.01.2020
5334 Clear 14 1030 44 10000 2.1 260 20:56 02.01.2020
5335 Clear 14 1029 44 10000 1.5 260 20:37 02.01.2020
5336 Clouds 14 1029 44 10000 1.5 260 20:19 02.01.2020
5337 Clouds 15 1029 41 10000 2.1 270 19:54 02.01.2020
5338 Clouds 15 1029 41 10000 2.1 270 19:54 02.01.2020
5339 Clouds 16 1029 38 10000 2.6 270 19:36 02.01.2020
5340 Clouds 16 1029 38 10000 2.6 270 19:18 02.01.2020
5341 Clouds 16 1029 38 10000 2.6 270 19:18 02.01.2020
5342 Clouds 17 1029 36 10000 3.1 270 18:43 02.01.2020
5343 Clouds 19 1028 32 10000 2.1 300 18:25 02.01.2020
5344 Clouds 20 1028 30 10000 2.1 300 17:59 02.01.2020
5345 Clouds 20 1028 32 10000 1.5 0 17:39 02.01.2020
5346 Clear 20 1028 32 10000 1.5 0 17:21 02.01.2020
5347 Clear 20 1028 32 10000 1.5 350 16:59 02.01.2020
5348 Clear 20 1028 32 10000 1.5 330 16:41 02.01.2020
5349 Clear 20 1028 32 10000 1.5 330 16:20 02.01.2020
5350 Clear 20 1028 30 10000 1.5 0 15:58 02.01.2020
5351 Clear 20 1029 32 10000 1 0 15:40 02.01.2020
5352 Clear 20 1029 32 10000 1 0 15:22 02.01.2020
5353 Clear 19 1029 34 10000 2.1 350 14:57 02.01.2020
5354 Clear 19 1030 37 10000 1 0 14:36 02.01.2020
5355 Clear 19 1030 37 10000 1 0 14:18 02.01.2020
5356 Clear 18 1030 39 10000 1 0 13:50 02.01.2020
5357 Clear 17 1030 42 10000 1.5 10 13:31 02.01.2020
5358 Clear 17 1031 42 10000 1.5 60 12:46 02.01.2020
5359 Clear 16 1031 44 10000 1 0 12:28 02.01.2020
5360 Clear 16 1031 48 10000 0.5 0 11:59 02.01.2020
5361 Clear 16 1031 48 10000 0.5 0 11:40 02.01.2020
5362 Clear 16 1031 48 10000 0.5 0 11:20 02.01.2020
5363 Clear 13 1031 50 10000 1 0 10:45 02.01.2020
5364 Clear 10 1031 61 10000 1 0 10:26 02.01.2020
5365 Clear 9 1031 61 10000 1 0 09:52 02.01.2020
5366 Clear 7 1030 65 10000 1 0 09:33 02.01.2020
5367 Clear 7 1030 65 10000 1 0 08:48 02.01.2020
5368 Clear 8 1030 61 10000 2.6 160 08:27 02.01.2020
5369 Clear 8 1030 61 10000 2.6 170 07:54 02.01.2020
5370 Clear 6 1029 70 10000 1.5 130 07:31 02.01.2020
5371 Clear 6 1029 70 10000 0.5 0 06:55 02.01.2020
5372 Clear 6 1029 63 10000 0.5 0 06:36 02.01.2020
5373 Clear 6 1029 63 10000 0.5 0 06:36 02.01.2020
5374 Clear 8 1029 63 10000 2.1 180 05:36 02.01.2020
5375 Clear 8 1029 61 10000 1.5 160 04:33 02.01.2020
5376 Clear 9 1029 57 10000 1 0 02:55 02.01.2020
5377 Clear 8 1029 65 10000 2.1 110 02:20 02.01.2020
5378 Clear 9 1029 61 10000 1 0 01:46 02.01.2020
5379 Clear 10 1029 53 10000 0.5 0 01:19 02.01.2020
5380 Clear 12 1030 46 10000 1 0 00:34 02.01.2020
5381 Clear 11 1030 50 10000 0.5 0 23:58 01.01.2020
5382 Clear 12 1030 46 10000 3.1 180 23:40 01.01.2020
5383 Clear 12 1030 46 10000 3.1 180 23:19 01.01.2020
5384 Clear 12 1030 46 10000 1 0 22:38 01.01.2020
5385 Clear 12 1030 46 10000 1 0 22:20 01.01.2020
5386 Clear 12 1030 46 10000 1 0 22:20 01.01.2020
5387 Clear 12 1030 46 10000 1 0 22:20 01.01.2020
5388 Clear 12 1030 46 10000 1 0 21:56 01.01.2020
5389 Clear 13 1030 43 10000 1 0 21:38 01.01.2020
5390 Clear 13 1030 43 10000 1 0 21:19 01.01.2020
5391 Clear 14 1030 41 10000 2.1 270 20:55 01.01.2020
5392 Clear 15 1030 38 10000 2.6 270 20:37 01.01.2020
5393 Clear 15 1030 38 10000 2.6 270 20:19 01.01.2020
5394 Clear 17 1030 33 10000 2.6 260 19:55 01.01.2020
5395 Clear 17 1030 33 10000 2.6 260 19:55 01.01.2020
5396 Clear 17 1030 33 10000 2.6 260 19:37 01.01.2020
5397 Clear 17 1030 33 10000 2.6 260 19:19 01.01.2020
5398 Clear 18 1030 31 10000 2.1 270 18:55 01.01.2020
5399 Clear 19 1030 31 10000 3.1 280 18:36 01.01.2020
5400 Clear 19 1030 31 10000 3.1 280 18:36 01.01.2020
5401 Clear 19 1030 31 10000 3.1 280 18:36 01.01.2020
5402 Clear 19 1030 31 10000 3.1 280 18:18 01.01.2020
5403 Clear 20 1030 31 10000 3.6 290 17:56 01.01.2020
5404 Clear 20 1030 31 10000 3.6 290 17:56 01.01.2020
5405 Clear 21 1030 26 10000 3.1 280 17:37 01.01.2020
5406 Clear 21 1030 26 10000 3.1 280 17:18 01.01.2020
5407 Clear 21 1030 19 10000 3.6 300 16:40 01.01.2020
5408 Clear 21 1030 19 10000 3.6 300 16:22 01.01.2020
5409 Clear 21 1030 26 10000 3.1 320 15:58 01.01.2020
5410 Clear 21 1030 26 10000 3.1 300 15:39 01.01.2020
5411 Clear 21 1030 26 10000 3.1 300 15:21 01.01.2020
5412 Clear 21 1030 19 10000 2.6 310 14:58 01.01.2020
5413 Clear 21 1030 28 10000 2.6 300 14:40 01.01.2020
5414 Clear 21 1030 28 10000 2.6 300 14:21 01.01.2020
5415 Clear 21 1030 28 10000 2.6 300 14:21 01.01.2020
5416 Clear 20 1031 30 10000 1.5 0 13:56 01.01.2020
5417 Clear 20 1031 32 10000 1.5 0 13:37 01.01.2020
5418 Clear 20 1031 32 10000 1.5 0 13:37 01.01.2020
5419 Clear 20 1031 32 10000 1.5 0 13:37 01.01.2020
5420 Clear 20 1031 32 10000 1.5 0 13:18 01.01.2020
5421 Clear 19 1032 32 10000 1.5 290 12:55 01.01.2020
5422 Clear 19 1032 34 10000 1 0 12:37 01.01.2020
5423 Clear 19 1032 34 10000 1 0 12:18 01.01.2020
5424 Clear 19 1032 32 10000 0.5 0 11:43 01.01.2020
5425 Clear 17 1032 42 10000 0.5 0 11:22 01.01.2020
5426 Clear 14 1032 50 10000 1 0 10:59 01.01.2020
5427 Clear 11 1031 57 10000 1.5 100 10:40 01.01.2020
5428 Clear 11 1031 57 10000 1.5 100 10:20 01.01.2020
5429 Clear 11 1031 57 10000 1.5 100 10:20 01.01.2020
5430 Clear 9 1031 66 10000 2.6 90 09:56 01.01.2020
5431 Clear 6 1030 75 10000 2.6 90 09:37 01.01.2020
5432 Clear 6 1030 75 10000 2.6 90 09:18 01.01.2020
5433 Clear 7 1030 70 10000 1.5 80 08:55 01.01.2020
5434 Clear 7 1030 65 10000 1 0 08:36 01.01.2020
5435 Clear 7 1030 65 10000 1 0 08:36 01.01.2020
5436 Clear 7 1030 65 10000 1 0 08:36 01.01.2020
5437 Clear 7 1030 65 10000 1 0 08:36 01.01.2020
5438 Clear 7 1030 65 10000 1 0 08:18 01.01.2020
5439 Clear 8 1030 61 10000 2.1 130 07:48 01.01.2020
5440 Clear 8 1029 65 10000 1 0 07:30 01.01.2020
5441 Clear 7 1029 70 10000 1 0 06:44 01.01.2020
5442 Clear 7 1029 70 10000 2.1 90 06:20 01.01.2020
5443 Clear 8 1029 61 10000 1 0 04:44 01.01.2020
5444 Clear 10 1029 53 10000 1 0 03:43 01.01.2020
5445 Clear 9 1028 57 10000 2.6 180 03:22 01.01.2020
5446 Clear 11 1028 50 10000 3.6 180 02:55 01.01.2020
5447 Clear 11 1029 50 10000 2.1 190 02:32 01.01.2020
5448 Clear 11 1029 53 10000 1.5 200 01:45 01.01.2020
5449 Clear 11 1029 53 10000 1 0 01:24 01.01.2020
5450 Clear 10 1029 57 10000 1 0 00:57 01.01.2020
5451 Clear 11 1029 53 10000 1 0 00:37 01.01.2020
5452 Clear 11 1029 53 10000 1 0 00:19 01.01.2020
5453 Clear 13 1029 47 10000 1 0 23:40 31.12.2019
5454 Clear 13 1029 47 10000 1 0 23:21 31.12.2019
5455 Clear 13 1028 50 10000 1 0 22:57 31.12.2019
5456 Clear 13 1028 47 10000 1.5 230 22:38 31.12.2019
5457 Clear 13 1028 47 10000 1.5 230 22:18 31.12.2019
5458 Clear 14 1028 44 10000 1.5 240 21:54 31.12.2019
5459 Clear 15 1028 41 10000 1 0 21:36 31.12.2019
5460 Clear 15 1028 41 10000 1 0 21:18 31.12.2019
5461 Clear 16 1028 38 10000 1.5 240 20:40 31.12.2019
5462 Clear 16 1028 38 10000 1.5 240 20:21 31.12.2019
5463 Clear 17 1027 36 10000 1.5 250 19:59 31.12.2019
5464 Clear 17 1027 36 10000 1.5 250 19:40 31.12.2019
5465 Clear 17 1027 36 10000 1.5 250 19:22 31.12.2019
5466 Clear 18 1027 34 10000 2.6 280 18:57 31.12.2019
5467 Clear 20 1027 28 10000 2.6 290 18:39 31.12.2019
5468 Clear 20 1027 28 10000 2.6 290 18:19 31.12.2019
5469 Clear 21 1027 26 10000 2.6 310 17:56 31.12.2019
5470 Clear 21 1026 32 10000 3.1 290 17:37 31.12.2019
5471 Clear 21 1026 22 10000 3.1 290 17:19 31.12.2019
5472 Clear 21 1026 26 10000 3.6 310 16:56 31.12.2019
5473 Clear 21 1026 26 10000 3.1 320 16:37 31.12.2019
5474 Clear 21 1026 26 10000 3.1 320 16:19 31.12.2019
5475 Clear 21 1026 26 10000 3.6 300 15:56 31.12.2019
5476 Clear 21 1026 26 10000 4.1 290 15:38 31.12.2019
5477 Clear 21 1026 26 10000 4.1 290 15:20 31.12.2019
5478 Clear 21 1027 26 10000 5.1 280 14:56 31.12.2019
5479 Clear 21 1027 30 10000 3.6 280 14:37 31.12.2019
5480 Clear 21 1027 30 10000 3.6 280 14:19 31.12.2019
5481 Clear 20 1027 37 10000 2.6 290 13:56 31.12.2019
5482 Clear 19 1028 37 10000 2.6 270 13:38 31.12.2019
5483 Clear 19 1028 37 10000 2.6 270 13:20 31.12.2019
5484 Clear 18 1028 42 10000 2.1 270 12:56 31.12.2019
5485 Clear 17 1028 45 10000 2.6 280 12:38 31.12.2019
5486 Clear 17 1028 45 10000 2.6 280 12:19 31.12.2019
5487 Clear 17 1029 45 10000 2.6 290 11:55 31.12.2019
5488 Clear 16 1029 44 10000 2.6 260 11:37 31.12.2019
5489 Clear 16 1029 44 10000 2.6 260 11:37 31.12.2019
5490 Clear 16 1029 44 10000 2.6 260 11:19 31.12.2019
5491 Clear 15 1028 41 10000 0.5 0 10:56 31.12.2019
5492 Clear 13 1028 47 10000 0.5 0 10:37 31.12.2019
5493 Clear 13 1028 47 10000 0.5 0 10:19 31.12.2019
5494 Clear 9 1028 61 10000 1 0 09:58 31.12.2019
5495 Clear 7 1027 34 10000 1 0 09:38 31.12.2019
5496 Clear 7 1027 34 10000 1 0 09:19 31.12.2019
5497 Clear 7 1027 56 10000 1 0 08:43 31.12.2019
5498 Clear 9 1027 49 10000 1 0 08:23 31.12.2019
5499 Clear 9 1026 42 10000 1.5 160 07:58 31.12.2019
5500 Clear 7 1026 42 10000 1 0 07:40 31.12.2019
5501 Clear 7 1026 42 10000 1 0 07:19 31.12.2019
5502 Clear 9 1025 57 8000 2.6 180 06:41 31.12.2019
5503 Clear 7 1025 70 8000 1 0 05:45 31.12.2019
5504 Clear 8 1025 61 8000 1.5 170 04:27 31.12.2019
5505 Clear 9 1025 57 8000 1.5 240 03:24 31.12.2019
5506 Clear 9 1025 57 8000 1 0 02:36 31.12.2019
5507 Clear 10 1025 53 8000 1 0 01:53 31.12.2019
5508 Clear 10 1025 53 8000 1 0 01:32 31.12.2019
5509 Clear 11 1025 53 8000 1.5 160 00:56 31.12.2019
5510 Clear 12 1025 46 8000 0.5 0 00:37 31.12.2019
5511 Clear 12 1025 46 8000 0.5 0 00:18 31.12.2019
5512 Clear 12 1025 46 8000 0.5 0 00:18 31.12.2019
5513 Clear 13 1025 43 8000 1 0 23:55 30.12.2019
5514 Clear 14 1025 41 8000 1 0 23:36 30.12.2019
5515 Clear 14 1025 41 8000 1 0 23:18 30.12.2019
5516 Clear 13 1025 47 10000 0.5 0 22:55 30.12.2019
5517 Clear 13 1025 47 10000 0.5 0 22:55 30.12.2019
5518 Clear 14 1025 47 10000 1 0 22:36 30.12.2019
5519 Clear 14 1025 47 10000 1 0 22:18 30.12.2019
5520 Clear 14 1025 44 10000 0.5 0 21:55 30.12.2019
5521 Clear 14 1025 44 10000 0.5 0 21:55 30.12.2019
5522 Clear 14 1025 44 10000 0.5 0 21:55 30.12.2019
5523 Clear 15 1024 41 10000 0.5 0 21:37 30.12.2019
5524 Clear 15 1024 41 10000 0.5 0 21:18 30.12.2019
5525 Clear 15 1024 44 10000 1 0 20:54 30.12.2019
5526 Clear 17 1024 36 10000 0.5 0 20:36 30.12.2019
5527 Clear 17 1024 36 10000 0.5 0 20:18 30.12.2019
5528 Clear 19 1024 32 10000 1 0 19:55 30.12.2019
5529 Clear 20 1024 30 10000 2.1 290 19:36 30.12.2019
5530 Clear 20 1024 30 10000 2.1 290 19:18 30.12.2019
5531 Clear 20 1024 30 10000 2.1 290 19:18 30.12.2019
5532 Clear 23 1024 26 10000 1 0 18:41 30.12.2019
5533 Clear 24 1024 26 10000 0.5 0 18:21 30.12.2019
5534 Clear 25 1024 17 10000 0.5 0 17:59 30.12.2019
5535 Clear 25 1024 16 8000 1 0 17:41 30.12.2019
5536 Clear 25 1024 16 8000 1 0 17:20 30.12.2019
5537 Clear 25 1024 17 8000 1 0 16:59 30.12.2019
5538 Clear 24 1024 19 8000 2.1 350 16:40 30.12.2019
5539 Clear 24 1024 19 8000 2.1 350 16:20 30.12.2019
5540 Clear 24 1024 19 8000 1.5 350 15:57 30.12.2019
5541 Clear 24 1024 19 8000 1.5 0 15:38 30.12.2019
5542 Clear 24 1024 19 8000 1.5 0 15:19 30.12.2019
5543 Clear 24 1024 22 8000 1.5 0 14:55 30.12.2019
5544 Clear 23 1024 15 8000 1.5 20 14:37 30.12.2019
5545 Clear 23 1024 17 8000 1.5 20 14:18 30.12.2019
5546 Clear 22 1025 21 6000 1 0 13:42 30.12.2019
5547 Clear 22 1025 21 6000 1 0 13:23 30.12.2019
5548 Clear 21 1026 17 6000 0.5 0 12:58 30.12.2019
5549 Clear 20 1026 28 6000 0.5 0 12:40 30.12.2019
5550 Clear 20 1026 28 6000 0.5 0 12:19 30.12.2019
5551 Clear 18 1026 34 6000 0.5 0 11:56 30.12.2019
5552 Clear 16 1026 38 6000 1 0 11:37 30.12.2019
5553 Clear 16 1026 38 6000 1 0 11:18 30.12.2019
5554 Clear 14 1026 50 6000 1 0 10:42 30.12.2019
5555 Clear 14 1026 50 6000 1 0 10:42 30.12.2019
5556 Clear 11 1026 57 8000 1.5 80 10:20 30.12.2019
5557 Clear 8 1026 65 8000 1.5 90 09:44 30.12.2019
5558 Clear 6 1025 70 8000 2.1 50 09:22 30.12.2019
5559 Clear 6 1025 70 8000 1.5 100 08:58 30.12.2019
5560 Clear 5 1025 75 8000 2.6 90 08:39 30.12.2019
5561 Clear 5 1025 75 8000 2.6 90 08:21 30.12.2019
5562 Clear 6 1025 70 8000 1 0 07:49 30.12.2019
5563 Clear 6 1025 70 8000 2.6 90 07:25 30.12.2019
5564 Clear 7 1024 65 8000 1 0 06:39 30.12.2019
5565 Clear 7 1025 70 8000 1.5 90 04:32 30.12.2019
5566 Clear 8 1025 61 8000 1 0 03:51 30.12.2019
5567 Clear 8 1025 61 8000 2.1 160 02:47 30.12.2019
5568 Clear 9 1026 61 8000 0.5 0 02:29 30.12.2019
5569 Clear 9 1026 61 8000 2.1 100 01:43 30.12.2019
5570 Clear 9 1026 61 8000 2.6 100 01:19 30.12.2019
5571 Clear 10 1026 53 8000 2.1 90 00:42 30.12.2019
5572 Clear 14 1026 35 8000 1 0 23:58 29.12.2019
5573 Clear 15 1025 35 8000 3.1 190 23:38 29.12.2019
5574 Clear 15 1025 34 8000 3.1 190 23:19 29.12.2019
5575 Clear 14 1025 41 8000 1.5 160 22:41 29.12.2019
5576 Clear 14 1025 41 8000 1.5 160 22:22 29.12.2019
5577 Clear 15 1025 38 8000 1 0 21:56 29.12.2019
5578 Clear 16 1025 36 8000 1 0 21:38 29.12.2019
5579 Clear 16 1025 36 8000 1 0 21:19 29.12.2019
5580 Clear 17 1025 33 8000 1.5 250 20:56 29.12.2019
5581 Clear 18 1024 31 8000 2.6 250 20:38 29.12.2019
5582 Clear 18 1024 31 8000 2.6 250 20:18 29.12.2019
5583 Clear 19 1024 23 8000 1.5 260 19:56 29.12.2019
5584 Clear 20 1024 24 8000 1.5 280 19:38 29.12.2019
5585 Clear 20 1024 24 8000 1.5 280 19:19 29.12.2019
5586 Clear 22 1024 19 8000 1.5 270 18:55 29.12.2019
5587 Clear 24 1024 19 8000 1.5 260 18:37 29.12.2019
5588 Clear 24 1024 19 8000 1.5 260 18:18 29.12.2019
5589 Clear 25 1023 17 8000 1 0 17:56 29.12.2019
5590 Clear 26 1023 15 8000 1 0 17:38 29.12.2019
5591 Clear 26 1023 15 8000 1 0 17:19 29.12.2019
5592 Clear 25 1023 15 8000 1.5 360 16:56 29.12.2019
5593 Clear 25 1023 17 8000 1.5 360 16:36 29.12.2019
5594 Clear 25 1023 17 8000 1.5 360 16:18 29.12.2019
5595 Clear 26 1023 13 8000 0.5 0 15:56 29.12.2019
5596 Clear 26 1023 13 8000 0.5 0 15:56 29.12.2019
5597 Clear 25 1024 13 8000 1 0 15:38 29.12.2019
5598 Clear 25 1024 13 8000 1 0 15:18 29.12.2019
5599 Clear 24 1024 23 8000 1.5 330 14:55 29.12.2019
5600 Clear 24 1024 23 8000 1 0 14:37 29.12.2019
5601 Clear 24 1024 23 8000 1 0 14:18 29.12.2019
5602 Clear 22 1025 28 8000 1.5 20 13:41 29.12.2019
5603 Clear 23 1024 25 8000 2.1 360 13:41 29.12.2019
5604 Clear 22 1025 28 8000 1.5 20 13:22 29.12.2019
5605 Clear 21 1025 28 8000 1 0 12:59 29.12.2019
5606 Clear 19 1026 34 8000 1.5 100 12:41 29.12.2019
5607 Clear 19 1026 34 8000 1.5 100 12:22 29.12.2019
5608 Clear 17 1026 36 8000 1.5 80 11:54 29.12.2019
5609 Clear 16 1026 38 8000 1 0 11:36 29.12.2019
5610 Clear 16 1026 38 8000 1 0 11:18 29.12.2019
5611 Clear 13 1026 50 8000 1.5 50 10:41 29.12.2019
5612 Clear 12 1025 54 8000 1 0 10:20 29.12.2019
5613 Clear 8 1025 65 8000 2.1 70 09:54 29.12.2019
5614 Clear 7 1025 65 10000 1 0 09:36 29.12.2019
5615 Clear 7 1025 65 10000 1 0 09:18 29.12.2019
5616 Clear 6 1025 70 10000 2.1 100 08:44 29.12.2019
5617 Clear 6 1025 70 10000 2.1 100 08:24 29.12.2019
5618 Clear 7 1025 70 10000 2.6 110 07:54 29.12.2019
5619 Clear 6 1024 75 10000 2.6 60 07:27 29.12.2019
5620 Clear 7 1024 65 10000 1.5 100 06:53 29.12.2019
5621 Clear 7 1024 65 10000 1.5 100 06:23 29.12.2019
5622 Clear 7 1024 70 10000 1 0 05:48 29.12.2019
5623 Clear 7 1024 65 10000 2.6 110 04:34 29.12.2019
5624 Clear 12 1023 46 10000 1.5 150 03:40 29.12.2019
5625 Clear 9 1023 61 10000 1 0 02:49 29.12.2019
5626 Clear 8 1023 70 10000 2.1 110 02:19 29.12.2019
5627 Clear 9 1024 61 10000 1.5 100 01:31 29.12.2019
5628 Clear 9 1024 61 10000 1.5 100 01:31 29.12.2019
5629 Clear 10 1024 57 10000 0.5 0 00:51 29.12.2019
5630 Clear 13 1024 43 10000 0.5 0 00:25 29.12.2019
5631 Clear 13 1024 47 10000 1.5 150 23:56 28.12.2019
5632 Clear 13 1024 47 10000 0.5 0 23:37 28.12.2019
5633 Clear 13 1024 47 10000 0.5 0 23:18 28.12.2019
5634 Clear 15 1023 38 8000 1 0 22:38 28.12.2019
5635 Clear 15 1023 38 8000 1 0 22:38 28.12.2019
5636 Clear 15 1023 38 8000 1 0 22:19 28.12.2019
5637 Clear 15 1023 38 8000 0.5 0 21:57 28.12.2019
5638 Clear 15 1023 38 8000 0.5 0 21:57 28.12.2019
5639 Clear 17 1023 33 8000 2.1 120 21:38 28.12.2019
5640 Clear 17 1023 33 8000 2.1 120 21:38 28.12.2019
5641 Clear 17 1023 33 8000 2.1 120 21:20 28.12.2019
5642 Clear 18 1023 31 8000 1.5 100 20:55 28.12.2019
5643 Clear 18 1023 31 8000 1.5 100 20:55 28.12.2019
5644 Clear 19 1023 34 8000 1 0 20:36 28.12.2019
5645 Clear 19 1023 25 8000 1 0 20:18 28.12.2019
5646 Clear 20 1023 25 8000 1 0 19:54 28.12.2019
5647 Clear 22 1022 21 8000 1.5 20 19:36 28.12.2019
5648 Clear 22 1022 21 8000 1.5 20 19:18 28.12.2019
5649 Clear 23 1022 20 8000 1.5 30 18:42 28.12.2019
5650 Clear 25 1022 17 8000 1.5 10 18:20 28.12.2019
5651 Clear 27 1022 18 8000 0.5 0 17:59 28.12.2019
5652 Clear 27 1022 18 8000 1 0 17:40 28.12.2019
5653 Clear 27 1022 18 8000 1 0 17:21 28.12.2019
5654 Clear 27 1022 18 8000 0.5 0 16:51 28.12.2019
5655 Clear 26 1022 14 8000 1.5 40 16:27 28.12.2019
5656 Clear 26 1022 16 8000 2.1 20 15:58 28.12.2019
5657 Clear 25 1022 14 8000 2.1 10 15:39 28.12.2019
5658 Clear 25 1022 14 8000 2.1 10 15:21 28.12.2019
5659 Clear 25 1022 14 8000 2.1 10 15:21 28.12.2019
5660 Clear 25 1022 14 8000 2.1 10 15:21 28.12.2019
5661 Clear 25 1022 14 8000 2.1 10 15:21 28.12.2019
5662 Clear 25 1022 14 8000 1.5 350 14:47 28.12.2019
5663 Clear 24 1022 23 8000 1.5 350 14:26 28.12.2019
5664 Clear 23 1023 27 8000 2.1 20 13:58 28.12.2019
5665 Clear 22 1023 30 8000 2.1 40 13:39 28.12.2019
5666 Clear 22 1023 30 8000 2.1 40 13:20 28.12.2019
5667 Clear 22 1024 33 8000 2.1 40 12:56 28.12.2019
5668 Clear 20 1024 37 8000 2.1 50 12:37 28.12.2019
5669 Clear 20 1024 37 8000 2.1 50 12:19 28.12.2019
5670 Clear 16 1025 44 8000 2.1 90 11:40 28.12.2019
5671 Clear 16 1025 44 8000 2.1 90 11:21 28.12.2019
5672 Clear 14 1025 54 10000 2.1 80 10:55 28.12.2019
5673 Clear 11 1024 62 10000 1.5 70 10:36 28.12.2019
5674 Clear 11 1024 62 10000 1.5 70 10:18 28.12.2019
5675 Clear 9 1024 70 10000 2.1 90 09:45 28.12.2019
5676 Clear 7 1024 70 10000 1.5 80 09:23 28.12.2019
5677 Clear 7 1024 70 10000 2.1 90 08:57 28.12.2019
5678 Clear 7 1023 70 10000 1.5 140 08:38 28.12.2019
5679 Clear 7 1023 70 10000 1.5 140 08:19 28.12.2019
5680 Clear 12 1024 31 0 0.24 144 07:41 28.12.2019
5681 Clear 12 1024 31 0 0.24 144 06:55 28.12.2019
5682 Clear 12 1024 31 0 0.24 144 05:40 28.12.2019
5683 Clear 13 1023 33 0 0.69 117 03:48 28.12.2019
5684 Clear 11 1023 57 10000 1 0 02:50 28.12.2019
5685 Clear 11 1023 57 10000 1 0 02:19 28.12.2019
5686 Clear 11 1023 57 10000 1 0 01:50 28.12.2019
5687 Clear 14 1023 44 10000 2.6 180 01:21 28.12.2019
5688 Clear 12 1023 58 10000 2.1 130 00:42 28.12.2019
5689 Clear 10 1024 66 10000 1.5 60 00:23 28.12.2019
5690 Clear 12 1023 54 10000 1.5 110 23:45 27.12.2019
5691 Clouds 11 1023 62 10000 1.5 140 23:21 27.12.2019
5692 Clouds 13 1023 50 10000 1 0 22:59 27.12.2019
5693 Clouds 16 1023 38 10000 1.5 150 22:39 27.12.2019
5694 Clouds 16 1023 38 10000 1.5 150 22:21 27.12.2019
5695 Clouds 16 1023 38 10000 2.1 180 21:59 27.12.2019
5696 Clouds 16 1023 34 10000 1 0 21:40 27.12.2019
5697 Clouds 16 1023 34 10000 1 0 21:22 27.12.2019
5698 Clouds 18 1023 36 10000 1.5 170 20:42 27.12.2019
5699 Clear 18 1023 36 10000 1.5 170 20:24 27.12.2019
5700 Clouds 19 1023 32 10000 1.5 200 19:55 27.12.2019
5701 Clouds 20 1022 32 10000 2.6 230 19:36 27.12.2019
5702 Clouds 20 1022 32 10000 2.6 230 19:18 27.12.2019
5703 Clouds 23 1022 23 10000 2.6 260 18:42 27.12.2019
5704 Clouds 23 1022 23 10000 2.6 260 18:24 27.12.2019
5705 Clouds 24 1022 28 10000 2.6 290 18:00 27.12.2019
5706 Clouds 24 1022 28 10000 2.6 290 17:41 27.12.2019
5707 Clouds 24 1021 23 10000 2.6 310 17:20 27.12.2019
5708 Clouds 24 1021 23 10000 3.1 310 16:59 27.12.2019
5709 Clouds 24 1021 23 10000 3.1 310 16:59 27.12.2019
5710 Clouds 25 1021 22 10000 3.6 290 16:41 27.12.2019
5711 Clouds 25 1021 22 10000 3.6 290 16:22 27.12.2019
5712 Clouds 24 1021 31 10000 2.1 330 15:56 27.12.2019
5713 Clouds 23 1021 33 10000 1.5 340 15:37 27.12.2019
5714 Clouds 23 1021 33 10000 1.5 340 15:18 27.12.2019
5715 Clouds 23 1021 33 10000 1 0 14:55 27.12.2019
5716 Clouds 23 1021 33 10000 1 0 14:36 27.12.2019
5717 Clouds 23 1021 33 10000 1 0 14:18 27.12.2019
5718 Clouds 23 1022 31 10000 1 0 13:43 27.12.2019
5719 Clouds 22 1022 33 10000 1 0 13:22 27.12.2019
5720 Clouds 21 1023 35 10000 0.5 0 12:48 27.12.2019
5721 Clouds 20 1023 42 10000 1 0 12:29 27.12.2019
5722 Clouds 20 1023 37 10000 0.5 0 11:59 27.12.2019
5723 Clouds 20 1023 37 10000 0.5 0 11:41 27.12.2019
5724 Clouds 19 1023 45 10000 0.5 0 11:20 27.12.2019
5725 Clouds 15 1023 58 10000 1 0 10:46 27.12.2019
5726 Clouds 14 1023 62 10000 1 0 10:24 27.12.2019
5727 Clouds 9 1022 76 10000 1.5 90 09:55 27.12.2019
5728 Clouds 8 1022 75 10000 2.6 80 09:37 27.12.2019
5729 Clouds 8 1022 75 10000 2.6 80 09:19 27.12.2019
5730 Clouds 8 1022 75 10000 2.6 80 09:19 27.12.2019
5731 Clouds 9 1022 76 10000 1.5 110 08:43 27.12.2019
5732 Clouds 8 1022 81 10000 2.1 110 08:25 27.12.2019
5733 Clouds 10 1021 76 10000 2.6 110 07:38 27.12.2019
5734 Clouds 10 1021 76 10000 2.6 110 07:19 27.12.2019
5735 Clouds 10 1021 76 10000 1 0 06:25 27.12.2019
5736 Clouds 11 1022 71 10000 1 0 04:39 27.12.2019
5737 Clouds 12 1022 71 8000 1.5 100 02:28 27.12.2019
5738 Clouds 11 1022 76 8000 1.5 70 01:44 27.12.2019
5739 Clouds 12 1022 71 8000 2.1 110 01:21 27.12.2019
5740 Clouds 12 1022 71 8000 1.5 100 00:47 27.12.2019
5741 Clouds 13 1022 71 8000 0.5 0 00:25 27.12.2019
5742 Clouds 12 1022 76 8000 1.5 80 23:56 26.12.2019
5743 Clouds 13 1022 66 8000 1 0 23:37 26.12.2019
5744 Clouds 13 1022 66 8000 1 0 23:19 26.12.2019
5745 Clouds 13 1022 71 8000 1.5 120 22:40 26.12.2019
5746 Clouds 13 1022 71 8000 1.5 120 22:18 26.12.2019
5747 Clouds 17 1022 59 6000 2.1 160 21:40 26.12.2019
5748 Clouds 17 1022 59 6000 2.1 160 21:21 26.12.2019
5749 Clouds 16 1022 59 6000 1 0 20:58 26.12.2019
5750 Clouds 17 1022 55 10000 1 0 20:39 26.12.2019
5751 Clouds 17 1022 55 10000 1 0 20:21 26.12.2019
5752 Clouds 18 1022 52 10000 0.5 0 19:56 26.12.2019
5753 Clouds 19 1022 45 10000 1 0 19:38 26.12.2019
5754 Clouds 19 1022 45 10000 1 0 19:19 26.12.2019
5755 Clouds 21 1022 40 10000 1.5 340 18:56 26.12.2019
5756 Clouds 22 1022 37 10000 1.5 310 18:36 26.12.2019
5757 Clouds 22 1022 37 10000 1.5 310 18:18 26.12.2019
5758 Clouds 23 1021 35 8000 1 0 17:41 26.12.2019
5759 Clouds 23 1022 35 10000 1 0 17:41 26.12.2019
5760 Clouds 23 1021 35 8000 1 0 17:21 26.12.2019
5761 Clouds 24 1021 33 8000 1 0 16:50 26.12.2019
5762 Clouds 23 1021 33 8000 1 0 16:27 26.12.2019
5763 Clouds 23 1021 33 7000 1 0 15:57 26.12.2019
5764 Clouds 23 1021 33 7000 1 0 15:38 26.12.2019
5765 Clouds 23 1021 33 7000 1 0 15:19 26.12.2019
5766 Clouds 22 1021 35 7000 1.5 320 14:41 26.12.2019
5767 Clouds 22 1022 35 7000 1 0 14:23 26.12.2019
5768 Clouds 21 1022 37 7000 1 0 13:55 26.12.2019
5769 Clouds 20 1023 40 8000 1 0 13:36 26.12.2019
5770 Clouds 20 1023 40 8000 1 0 13:18 26.12.2019
5771 Clouds 20 1023 40 8000 1 0 13:18 26.12.2019
5772 Clouds 19 1023 39 8000 1 0 12:44 26.12.2019
5773 Clouds 19 1023 42 8000 1 0 12:24 26.12.2019
5774 Clouds 17 1023 48 8000 1 0 11:59 26.12.2019
5775 Clouds 15 1023 54 8000 0.5 0 11:40 26.12.2019
5776 Clouds 15 1023 54 8000 0.5 0 11:40 26.12.2019
5777 Clouds 15 1023 54 8000 0.5 0 11:21 26.12.2019
5778 Clouds 13 1023 66 8000 1 0 10:50 26.12.2019
5779 Clouds 11 1023 71 8000 1 0 10:26 26.12.2019
5780 Clouds 11 1023 66 8000 1.5 50 09:55 26.12.2019
5781 Clouds 10 1023 71 10000 0.5 0 09:33 26.12.2019
5782 Clouds 11 1022 66 10000 0.5 0 08:59 26.12.2019
5783 Clouds 11 1022 66 10000 0.5 0 08:39 26.12.2019
5784 Clouds 11 1022 66 10000 0.5 0 08:20 26.12.2019
5785 Clouds 10 1022 71 10000 1 0 07:38 26.12.2019
5786 Clouds 10 1022 71 10000 1 0 07:19 26.12.2019
5787 Clouds 10 1021 66 10000 1 0 06:37 26.12.2019
5788 Clouds 10 1021 66 10000 1 0 06:19 26.12.2019
5789 Clouds 11 1022 66 10000 3.1 110 05:41 26.12.2019
5790 Clouds 10 1022 71 10000 2.1 90 04:33 26.12.2019
5791 Clouds 10 1022 76 10000 1.5 120 03:31 26.12.2019
5792 Clouds 10 1022 76 10000 2.1 120 02:46 26.12.2019
5793 Clouds 10 1023 71 10000 2.6 90 02:27 26.12.2019
5794 Clouds 10 1023 71 10000 2.1 110 01:44 26.12.2019
5795 Clouds 12 1023 66 10000 1 0 01:24 26.12.2019
5796 Clouds 12 1023 62 10000 2.1 50 00:44 26.12.2019
5797 Clouds 12 1023 66 10000 2.6 90 00:23 26.12.2019
5798 Clouds 12 1023 66 10000 2.6 90 00:23 26.12.2019
5799 Clouds 13 1024 58 8000 1.5 90 23:57 25.12.2019
5800 Clouds 15 1024 51 8000 1 0 23:37 25.12.2019
5801 Clouds 15 1024 51 8000 1 0 23:18 25.12.2019
5802 Clouds 16 1024 48 8000 3.1 180 22:56 25.12.2019
5803 Clouds 16 1025 48 8000 2.6 190 22:37 25.12.2019
5804 Clouds 16 1025 48 8000 2.6 190 22:18 25.12.2019
5805 Clouds 17 1025 45 8000 0.5 0 21:55 25.12.2019
5806 Clouds 19 1025 39 8000 3.1 210 21:37 25.12.2019
5807 Clouds 19 1025 39 8000 3.1 210 21:18 25.12.2019
5808 Clouds 18 1025 45 8000 2.6 230 20:40 25.12.2019
5809 Clear 18 1025 45 8000 2.6 230 20:20 25.12.2019
5810 Clear 20 1024 37 8000 3.1 230 19:57 25.12.2019
5811 Clear 20 1024 40 8000 2.1 220 19:39 25.12.2019
5812 Clear 20 1024 40 8000 2.1 220 19:21 25.12.2019
5813 Clear 22 1024 37 10000 4.1 260 18:39 25.12.2019
5814 Clear 22 1024 37 10000 4.1 260 18:20 25.12.2019
5815 Clear 22 1024 37 10000 4.1 260 18:20 25.12.2019
5816 Clear 24 1024 33 10000 4.1 270 17:57 25.12.2019
5817 Clear 24 1024 29 10000 4.6 280 17:36 25.12.2019
5818 Clear 24 1024 29 10000 4.6 280 17:18 25.12.2019
5819 Clear 26 1023 24 10000 4.6 280 16:39 25.12.2019
5820 Clear 26 1023 24 10000 4.6 280 16:20 25.12.2019
5821 Clear 25 1023 23 10000 5.1 280 15:58 25.12.2019
5822 Clear 25 1023 27 10000 4.1 280 15:40 25.12.2019
5823 Clear 25 1023 27 10000 4.1 280 15:21 25.12.2019
5824 Clear 25 1023 31 10000 3.1 290 14:59 25.12.2019
5825 Clear 25 1024 27 8000 3.6 270 14:40 25.12.2019
5826 Clear 25 1024 27 8000 3.6 270 14:40 25.12.2019
5827 Clouds 25 1024 27 8000 3.6 270 14:21 25.12.2019
5828 Clouds 25 1024 31 8000 2.1 0 13:57 25.12.2019
5829 Clouds 23 1025 35 8000 2.1 320 13:38 25.12.2019
5830 Clouds 23 1025 35 8000 2.1 320 13:19 25.12.2019
5831 Clouds 22 1025 40 6000 1 0 12:42 25.12.2019
5832 Clouds 22 1025 40 6000 1 0 12:21 25.12.2019
5833 Clouds 19 1025 48 6000 2.1 100 11:57 25.12.2019
5834 Clouds 18 1025 48 6000 1 0 11:39 25.12.2019
5835 Clouds 18 1025 48 6000 1 0 11:18 25.12.2019
5836 Clouds 14 1024 62 6000 1 0 10:38 25.12.2019
5837 Clouds 14 1024 62 6000 1 0 10:20 25.12.2019
5838 Clouds 11 1024 76 6000 1.5 90 09:51 25.12.2019
5839 Clouds 10 1024 71 8000 1.5 70 09:32 25.12.2019
5840 Clouds 9 1024 76 8000 2.6 80 08:51 25.12.2019
5841 Clouds 9 1023 76 8000 2.1 90 08:31 25.12.2019
5842 Clouds 9 1023 76 8000 2.1 90 08:31 25.12.2019
5843 Clouds 12 1023 58 8000 1 0 07:53 25.12.2019
5844 Clouds 11 1023 66 8000 1 0 07:34 25.12.2019
5845 Clouds 12 1023 62 8000 2.1 180 06:58 25.12.2019
5846 Clouds 11 1023 66 8000 2.1 0 06:23 25.12.2019
5847 Clouds 10 1023 76 8000 0.5 0 05:31 25.12.2019
5848 Clouds 10 1023 76 8000 1.5 100 04:39 25.12.2019
5849 Clouds 10 1023 76 8000 1.5 100 04:20 25.12.2019
5850 Clouds 10 1023 81 8000 2.1 100 03:43 25.12.2019
5851 Clouds 13 1023 62 8000 1 0 02:56 25.12.2019
5852 Clouds 12 1023 71 8000 1.5 150 02:27 25.12.2019
5853 Clouds 12 1023 71 8000 0.5 0 01:26 25.12.2019
5854 Clouds 12 1023 76 8000 1 0 00:56 25.12.2019
5855 Clouds 12 1024 76 8000 1.5 100 00:33 25.12.2019
5856 Clouds 13 1024 71 8000 1 0 23:58 24.12.2019
5857 Clouds 13 1024 71 8000 2.1 90 23:39 24.12.2019
5858 Clouds 13 1024 71 8000 2.1 90 23:20 24.12.2019
5859 Clouds 16 1024 51 8000 1 0 22:41 24.12.2019
5860 Clouds 16 1024 59 8000 1 0 22:23 24.12.2019
5861 Clouds 16 1024 59 8000 1.5 160 21:45 24.12.2019
5862 Clouds 16 1024 59 8000 2.1 160 21:24 24.12.2019
5863 Clouds 18 1024 52 8000 1 0 20:59 24.12.2019
5864 Clouds 18 1024 52 8000 1 0 20:41 24.12.2019
5865 Clouds 19 1024 48 8000 1 0 20:19 24.12.2019
5866 Clouds 18 1023 55 8000 2.1 170 19:45 24.12.2019
5867 Clouds 19 1023 52 8000 1 0 19:22 24.12.2019
5868 Clouds 22 1023 43 8000 1.94 10 18:58 24.12.2019
5869 Clouds 23 1023 40 8000 0.5 0 18:40 24.12.2019
5870 Clouds 23 1023 40 8000 0.5 0 18:18 24.12.2019
5871 Clouds 23 1023 35 8000 0.5 0 17:42 24.12.2019
5872 Clouds 24 1023 31 8000 1.5 320 17:21 24.12.2019
5873 Clouds 26 1023 29 8000 1.5 320 16:57 24.12.2019
5874 Clouds 26 1023 29 8000 1.5 320 16:38 24.12.2019
5875 Clouds 26 1023 29 8000 1.5 320 16:20 24.12.2019
5876 Clouds 26 1023 29 8000 2.6 290 15:56 24.12.2019
5877 Clouds 26 1023 27 8000 2.6 320 15:36 24.12.2019
5878 Clouds 26 1023 27 8000 2.6 320 15:18 24.12.2019
5879 Clouds 26 1024 29 8000 2.6 310 14:56 24.12.2019
5880 Clouds 25 1024 36 8000 1.5 340 14:38 24.12.2019
5881 Clouds 25 1024 36 8000 1.5 340 14:20 24.12.2019
5882 Clouds 24 1024 36 10000 1 0 13:55 24.12.2019
5883 Clouds 24 1024 36 10000 1 0 13:55 24.12.2019
5884 Clouds 24 1025 38 8000 1.5 50 13:37 24.12.2019
5885 Clouds 24 1025 38 8000 1.5 50 13:19 24.12.2019
5886 Clouds 24 1025 38 8000 1.5 50 13:19 24.12.2019
5887 Clouds 22 1025 40 8000 1 0 12:55 24.12.2019
5888 Clouds 21 1025 46 8000 1.5 70 12:36 24.12.2019
5889 Clouds 21 1025 46 8000 1.5 70 12:18 24.12.2019
5890 Clouds 19 1025 52 8000 1.5 80 11:55 24.12.2019
5891 Clouds 17 1025 55 8000 2.1 80 11:36 24.12.2019
5892 Clouds 17 1025 55 8000 2.1 80 11:18 24.12.2019
5893 Clouds 15 1025 62 8000 2.1 90 10:55 24.12.2019
5894 Clouds 13 1025 66 8000 2.1 80 10:37 24.12.2019
5895 Clouds 13 1025 66 8000 2.1 80 10:19 24.12.2019
5896 Clouds 11 1025 76 8000 2.1 60 09:54 24.12.2019
5897 Clouds 9 1025 81 8000 2.1 80 09:36 24.12.2019
5898 Clouds 18 1026 35 0 1.03 168 09:18 24.12.2019
5899 Clouds 9 1024 87 10000 2.1 100 08:43 24.12.2019
5900 Clouds 9 1024 81 10000 2.1 90 08:20 24.12.2019
5901 Clouds 12 1024 76 10000 2.1 130 07:45 24.12.2019
5902 Clouds 10 1024 81 10000 2.1 100 07:25 24.12.2019
5903 Clouds 11 1024 81 10000 3.1 100 06:57 24.12.2019
5904 Clouds 13 1025 48 0 0.66 148 06:38 24.12.2019
5905 Clouds 10 1024 81 10000 2.1 90 06:18 24.12.2019
5906 Clouds 12 1024 71 10000 1 0 05:20 24.12.2019
5907 Clouds 11 1024 76 10000 2.1 80 04:44 24.12.2019
5908 Clouds 13 1024 66 10000 0.5 0 03:50 24.12.2019
5909 Clouds 13 1025 66 10000 1 0 02:59 24.12.2019
5910 Clouds 14 1025 62 10000 1 0 02:21 24.12.2019
5911 Clouds 15 1025 58 10000 1.5 190 01:42 24.12.2019
5912 Clouds 15 1025 58 10000 1.5 180 01:20 24.12.2019
5913 Clouds 15 1025 58 10000 0.5 0 00:43 24.12.2019
5914 Clouds 15 1025 58 10000 1 0 00:23 24.12.2019
5915 Clouds 16 1025 55 10000 0.5 0 23:55 23.12.2019
5916 Clouds 16 1025 55 10000 0.5 0 23:37 23.12.2019
5917 Clouds 16 1025 55 10000 0.5 0 23:19 23.12.2019
5918 Clouds 16 1025 55 10000 0.5 0 23:19 23.12.2019
5919 Clouds 15 1025 58 10000 1 0 22:55 23.12.2019
5920 Clouds 15 1025 58 10000 1 0 22:55 23.12.2019
5921 Clouds 16 1025 55 8000 1.5 170 22:36 23.12.2019
5922 Clouds 16 1025 55 8000 1.5 170 22:36 23.12.2019
5923 Clouds 16 1025 55 8000 1.5 170 22:18 23.12.2019
5924 Clouds 17 1026 49 0 1.58 240 21:55 23.12.2019
5925 Clouds 17 1026 49 0 1.58 240 21:36 23.12.2019
5926 Clouds 17 1026 49 0 1.58 240 21:18 23.12.2019
5927 Clouds 17 1026 49 0 1.58 240 20:56 23.12.2019
5928 Clouds 17 1026 49 0 1.58 240 20:38 23.12.2019
5929 Clouds 18 1025 47 0 1.42 265 20:18 23.12.2019
5930 Clouds 21 1024 43 8000 3.6 260 19:54 23.12.2019
5931 Clouds 21 1024 43 8000 3.6 260 19:36 23.12.2019
5932 Clouds 21 1024 43 8000 3.6 260 19:18 23.12.2019
5933 Clouds 22 1024 43 8000 3.6 260 18:55 23.12.2019
5934 Clouds 23 1024 43 8000 4.1 260 18:36 23.12.2019
5935 Clouds 23 1024 43 8000 4.1 260 18:18 23.12.2019
5936 Clouds 24 1024 41 8000 4.1 240 17:55 23.12.2019
5937 Clouds 18 1025 47 0 1.42 265 17:37 23.12.2019
5938 Clouds 18 1025 47 0 1.42 265 17:37 23.12.2019
5939 Clouds 24 1024 41 8000 3.6 250 17:18 23.12.2019
5940 Clouds 24 1024 44 8000 3.1 260 16:42 23.12.2019
5941 Clouds 24 1024 44 8000 3.1 260 16:19 23.12.2019
5942 Clouds 24 1024 44 8000 3.1 260 16:19 23.12.2019
5943 Clouds 24 1024 44 8000 2.6 260 15:58 23.12.2019
5944 Clouds 24 1024 44 8000 2.6 260 15:38 23.12.2019
5945 Clouds 24 1024 44 8000 2.6 260 15:19 23.12.2019
5946 Clouds 23 1024 46 8000 3.1 280 14:58 23.12.2019
5947 Clouds 23 1025 49 8000 1.5 0 14:39 23.12.2019
5948 Clouds 23 1025 49 8000 1.5 0 14:21 23.12.2019
5949 Clouds 21 1025 56 8000 2.1 340 13:58 23.12.2019
5950 Clouds 20 1025 56 8000 2.1 360 13:40 23.12.2019
5951 Clouds 20 1025 56 8000 2.1 360 13:21 23.12.2019
5952 Clouds 21 1026 52 8000 3.1 310 12:55 23.12.2019
5953 Clouds 20 1026 56 8000 2.6 260 12:37 23.12.2019
5954 Clouds 20 1026 56 8000 2.6 260 12:19 23.12.2019
5955 Clouds 19 1026 55 8000 3.1 220 11:44 23.12.2019
5956 Clouds 18 1026 59 8000 1.5 190 11:25 23.12.2019
5957 Clouds 16 1026 63 8000 2.1 150 10:56 23.12.2019
5958 Clouds 15 1026 72 8000 1 0 10:38 23.12.2019
5959 Clouds 15 1026 72 8000 1 0 10:20 23.12.2019
5960 Clouds 12 1026 87 10000 0.5 0 09:59 23.12.2019
5961 Clouds 9 1026 93 10000 0.5 0 09:39 23.12.2019
5962 Clouds 9 1026 93 10000 0.5 0 09:20 23.12.2019
5963 Clouds 9 1025 93 10000 1.5 80 08:55 23.12.2019
5964 Clouds 17 1026 47 0 0.44 50 08:37 23.12.2019
5965 Clouds 9 1025 93 10000 1.5 80 08:18 23.12.2019
5966 Clouds 9 1025 93 10000 1.5 80 07:43 23.12.2019
5967 Clouds 9 1025 93 10000 1.5 80 07:20 23.12.2019
5968 Clouds 10 1024 87 10000 1 0 06:51 23.12.2019
5969 Clouds 9 1024 93 10000 1.5 110 06:24 23.12.2019
5970 Clouds 9 1024 93 10000 1.5 90 05:49 23.12.2019
5971 Clouds 10 1024 93 10000 1 0 05:22 23.12.2019
5972 Clouds 10 1024 93 10000 2.1 100 04:20 23.12.2019
5973 Clouds 11 1025 93 10000 2.1 130 02:55 23.12.2019
5974 Clouds 11 1025 87 10000 2.1 80 02:28 23.12.2019
5975 Clouds 11 1025 87 10000 2.1 70 01:55 23.12.2019
5976 Clouds 12 1026 93 10000 2.1 110 01:36 23.12.2019
5977 Clouds 12 1026 93 10000 2.1 110 01:18 23.12.2019
5978 Clouds 12 1026 87 10000 1.5 70 00:35 23.12.2019
5979 Clouds 13 1026 87 10000 2.1 50 23:58 22.12.2019
5980 Clouds 14 1026 82 10000 1 0 23:39 22.12.2019
5981 Clouds 14 1026 82 10000 1 0 23:20 22.12.2019
5982 Clouds 14 1026 82 10000 2.1 110 22:58 22.12.2019
5983 Clouds 15 1026 82 10000 1.5 80 22:38 22.12.2019
5984 Clouds 15 1026 82 10000 1.5 80 22:19 22.12.2019
5985 Clouds 15 1026 87 10000 2.6 90 21:57 22.12.2019
5986 Clouds 16 1026 82 10000 2.6 70 21:39 22.12.2019
5987 Clouds 16 1026 82 10000 2.6 70 21:20 22.12.2019
5988 Clouds 18 1025 68 8000 2.6 50 20:56 22.12.2019
5989 Clouds 18 1025 68 8000 2.6 50 20:38 22.12.2019
5990 Clouds 18 1025 68 8000 2.6 50 20:18 22.12.2019
5991 Clouds 18 1025 68 8000 2.6 40 19:41 22.12.2019
5992 Clouds 18 1025 68 8000 2.6 40 19:21 22.12.2019
5993 Clouds 20 1025 60 10000 3.1 50 18:58 22.12.2019
5994 Clouds 21 1025 52 10000 4.6 40 18:38 22.12.2019
5995 Clouds 21 1025 52 10000 4.6 40 18:19 22.12.2019
5996 Clouds 23 1025 46 10000 4.1 50 17:55 22.12.2019
5997 Clouds 23 1025 46 10000 4.1 50 17:37 22.12.2019
5998 Clouds 23 1025 46 10000 4.1 50 17:18 22.12.2019
5999 Clouds 23 1025 46 10000 4.1 70 16:56 22.12.2019
6000 Clouds 23 1025 46 10000 4.1 70 16:56 22.12.2019
6001 Clouds 23 1025 46 10000 4.1 70 16:37 22.12.2019
6002 Clouds 23 1025 46 10000 4.1 70 16:19 22.12.2019
6003 Clouds 23 1025 46 10000 3.1 40 15:54 22.12.2019
6004 Clouds 23 1025 46 10000 2.6 40 15:36 22.12.2019
6005 Clouds 23 1025 46 10000 2.6 40 15:18 22.12.2019
6006 Clouds 21 1026 56 10000 3.1 60 14:39 22.12.2019
6007 Clear 21 1026 56 10000 3.1 60 14:19 22.12.2019
6008 Clear 20 1026 60 10000 3.1 40 13:56 22.12.2019
6009 Clear 19 1026 59 10000 3.6 30 13:38 22.12.2019
6010 Clear 19 1026 59 10000 3.6 30 13:20 22.12.2019
6011 Clear 19 1027 59 10000 2.6 40 12:57 22.12.2019
6012 Clear 18 1027 63 10000 2.1 40 12:39 22.12.2019
6013 Clear 18 1027 63 10000 2.1 40 12:20 22.12.2019
6014 Clear 18 1027 63 10000 2.1 40 12:20 22.12.2019
6015 Clear 16 1027 67 10000 2.6 40 11:59 22.12.2019
6016 Clear 16 1027 67 10000 1.5 30 11:39 22.12.2019
6017 Clear 16 1027 67 10000 1.5 30 11:20 22.12.2019
6018 Clear 14 1026 76 10000 2.6 90 10:58 22.12.2019
6019 Clear 13 1026 82 10000 2.6 90 10:40 22.12.2019
6020 Clear 13 1026 82 10000 2.6 90 10:40 22.12.2019
6021 Clear 13 1026 82 10000 2.6 90 10:20 22.12.2019
6022 Clear 11 1026 87 10000 1.5 50 09:58 22.12.2019
6023 Clear 10 1026 93 10000 2.1 50 09:40 22.12.2019
6024 Clear 10 1026 93 10000 2.1 50 09:21 22.12.2019
6025 Clear 9 1025 93 10000 2.1 110 08:45 22.12.2019
6026 Clear 9 1025 93 10000 2.1 110 08:23 22.12.2019
6027 Clear 10 1025 87 10000 2.1 30 07:52 22.12.2019
6028 Clear 9 1025 93 10000 0.5 0 07:22 22.12.2019
6029 Clear 9 1025 93 10000 1.5 70 06:57 22.12.2019
6030 Clear 9 1025 93 10000 1.5 90 06:30 22.12.2019
6031 Clear 9 1025 93 10000 2.1 80 05:43 22.12.2019
6032 Clouds 10 1025 87 10000 1.5 80 05:21 22.12.2019
6033 Clouds 10 1025 93 10000 1.5 100 04:27 22.12.2019
6034 Clouds 10 1025 93 10000 1.5 50 03:28 22.12.2019
6035 Clouds 11 1025 87 10000 2.1 100 02:35 22.12.2019
6036 Clear 11 1026 87 10000 1.5 100 01:33 22.12.2019
6037 Clear 12 1026 87 10000 1.5 40 00:59 22.12.2019
6038 Clear 12 1026 87 10000 1.5 40 00:41 22.12.2019
6039 Clear 12 1027 87 10000 1.5 100 00:21 22.12.2019
6040 Clear 12 1027 87 10000 1 0 23:42 21.12.2019
6041 Clear 13 1027 82 10000 1.5 120 23:24 21.12.2019
6042 Clear 14 1027 82 8000 1 0 22:58 21.12.2019
6043 Clear 13 1027 87 8000 2.1 160 22:39 21.12.2019
6044 Clear 13 1027 87 8000 2.1 160 22:19 21.12.2019
6045 Clear 15 1027 77 8000 0.5 0 21:56 21.12.2019
6046 Clear 14 1026 82 8000 1.14 73 21:37 21.12.2019
6047 Clear 14 1026 82 8000 1.14 73 21:19 21.12.2019
6048 Clear 15 1026 77 8000 1 0 20:57 21.12.2019
6049 Clear 16 1026 72 10000 1 0 20:38 21.12.2019
6050 Clear 16 1026 72 10000 1 0 20:20 21.12.2019
6051 Clear 16 1025 72 10000 1.5 300 19:57 21.12.2019
6052 Clear 16 1025 72 10000 1.5 300 19:57 21.12.2019
6053 Clear 17 1025 67 10000 1.5 320 19:39 21.12.2019
6054 Clear 17 1025 67 10000 1.5 320 19:19 21.12.2019
6055 Clear 19 1024 59 10000 2.1 300 18:42 21.12.2019
6056 Clear 19 1024 59 10000 2.1 300 18:23 21.12.2019
6057 Clear 19 1024 59 10000 2.1 300 17:57 21.12.2019
6058 Clear 20 1024 56 10000 1 0 17:39 21.12.2019
6059 Clear 20 1024 56 10000 1 0 17:20 21.12.2019
6060 Clear 20 1024 56 10000 1 0 16:57 21.12.2019
6061 Clear 20 1024 56 10000 1 0 16:57 21.12.2019
6062 Clear 20 1024 60 10000 1.5 280 16:39 21.12.2019
6063 Clear 20 1024 60 10000 1.5 280 16:18 21.12.2019
6064 Clear 19 1024 59 10000 2.6 0 15:56 21.12.2019
6065 Clear 20 1024 60 10000 1 0 15:37 21.12.2019
6066 Clear 20 1024 60 10000 1 0 15:19 21.12.2019
6067 Clear 18 1024 63 10000 2.1 350 14:44 21.12.2019
6068 Clear 18 1024 63 10000 2.1 350 14:25 21.12.2019
6069 Clouds 18 1024 63 10000 2.6 360 13:59 21.12.2019
6070 Clouds 18 1024 63 10000 2.1 330 13:40 21.12.2019
6071 Clouds 18 1024 63 10000 2.1 330 13:20 21.12.2019
6072 Clouds 20 1025 56 10000 1 0 12:57 21.12.2019
6073 Clouds 18 1025 63 10000 1 0 12:39 21.12.2019
6074 Clouds 18 1025 63 10000 1 0 12:21 21.12.2019
6075 Clouds 16 1025 67 10000 2.1 130 11:57 21.12.2019
6076 Clouds 16 1026 67 10000 1 0 11:39 21.12.2019
6077 Clouds 16 1026 67 10000 1 0 11:21 21.12.2019
6078 Clouds 12 1025 87 8000 2.1 110 10:42 21.12.2019
6079 Clouds 12 1025 87 8000 2.1 110 10:23 21.12.2019
6080 Clouds 11 1025 87 8000 2.1 100 09:59 21.12.2019
6081 Clouds 9 1024 87 8000 1.5 80 09:41 21.12.2019
6082 Clouds 9 1024 87 8000 1.5 80 09:20 21.12.2019
6083 Clouds 9 1024 87 8000 0.5 0 08:53 21.12.2019
6084 Clouds 10 1023 87 8000 0.5 0 08:27 21.12.2019
6085 Clouds 11 1023 87 8000 3.6 170 07:59 21.12.2019
6086 Clouds 11 1023 87 8000 3.6 170 07:41 21.12.2019
6087 Clouds 11 1023 87 8000 3.6 170 07:21 21.12.2019
6088 Clouds 9 1023 93 8000 0.5 0 06:42 21.12.2019
6089 Clouds 9 1023 93 8000 0.5 0 06:42 21.12.2019
6090 Clouds 9 1023 93 8000 0.5 0 06:24 21.12.2019
6091 Clouds 9 1023 93 8000 0.5 0 05:43 21.12.2019
6092 Clouds 9 1023 93 8000 1.5 260 04:56 21.12.2019
6093 Clouds 11 1022 87 8000 0.5 0 03:56 21.12.2019
6094 Clouds 12 1023 87 8000 1 0 02:39 21.12.2019
6095 Clouds 11 1023 87 8000 1.5 120 01:53 21.12.2019
6096 Clouds 11 1023 87 8000 1.5 110 01:27 21.12.2019
6097 Clouds 12 1023 87 8000 1.5 120 00:50 21.12.2019
6098 Clouds 13 1023 82 8000 1 0 00:28 21.12.2019
6099 Clouds 14 1023 82 8000 2.1 180 23:55 20.12.2019
6100 Clouds 14 1023 76 8000 1.5 200 23:36 20.12.2019
6101 Clouds 14 1023 76 8000 1.5 200 23:18 20.12.2019
6102 Clouds 15 1023 77 8000 1 0 22:40 20.12.2019
6103 Clouds 15 1023 77 8000 1 0 22:21 20.12.2019
6104 Clouds 15 1023 77 8000 2.6 200 21:57 20.12.2019
6105 Clouds 15 1023 77 10000 2.1 210 21:39 20.12.2019
6106 Clouds 15 1023 77 10000 2.1 210 21:39 20.12.2019
6107 Clouds 15 1023 77 10000 2.1 210 21:18 20.12.2019
6108 Clouds 15 1023 77 10000 2.6 290 20:39 20.12.2019
6109 Clouds 15 1023 77 10000 2.6 290 20:19 20.12.2019
6110 Clouds 16 1022 77 10000 1.5 310 19:57 20.12.2019
6111 Clouds 16 1022 77 10000 1.5 310 19:39 20.12.2019
6112 Clouds 16 1022 77 10000 1.5 310 19:19 20.12.2019
6113 Clouds 17 1022 72 10000 2.6 290 18:42 20.12.2019
6114 Clouds 17 1022 72 10000 2.6 290 18:24 20.12.2019
6115 Clouds 18 1022 68 10000 3.1 290 17:58 20.12.2019
6116 Clouds 19 1021 59 10000 3.1 270 17:40 20.12.2019
6117 Clouds 19 1021 59 10000 3.1 270 17:21 20.12.2019
6118 Clouds 19 1021 59 10000 3.1 270 17:21 20.12.2019
6119 Clouds 19 1022 59 10000 3.1 280 16:59 20.12.2019
6120 Clouds 19 1022 59 10000 3.1 280 16:39 20.12.2019
6121 Clouds 19 1022 59 10000 3.6 280 16:20 20.12.2019
6122 Clouds 19 1021 59 10000 3.1 290 15:56 20.12.2019
6123 Clouds 18 1022 63 10000 4.6 280 15:38 20.12.2019
6124 Clouds 18 1022 63 10000 4.6 280 15:19 20.12.2019
6125 Clouds 18 1022 63 10000 5.1 290 14:43 20.12.2019
6126 Clouds 18 1022 63 10000 3.6 300 14:25 20.12.2019
6127 Clouds 17 1022 63 10000 3.6 310 13:59 20.12.2019
6128 Clouds 17 1022 63 10000 3.6 310 13:41 20.12.2019
6129 Clouds 17 1022 67 8000 1 0 13:20 20.12.2019
6130 Clouds 17 1022 67 8000 1 0 12:57 20.12.2019
6131 Clouds 17 1022 67 8000 1 0 12:37 20.12.2019
6132 Clouds 15 1022 77 8000 1 0 12:19 20.12.2019
6133 Clouds 15 1023 77 8000 1 0 11:58 20.12.2019
6134 Clouds 15 1023 77 8000 1 0 11:39 20.12.2019
6135 Clouds 13 1023 82 8000 1 0 11:19 20.12.2019
6136 Clouds 13 1023 82 8000 1 0 10:57 20.12.2019
6137 Clouds 13 1023 82 8000 1 0 10:39 20.12.2019
6138 Clouds 12 1023 87 6000 1 0 10:20 20.12.2019
6139 Clouds 10 1022 93 6000 1.5 110 09:44 20.12.2019
6140 Clouds 10 1022 93 6000 1.5 110 09:44 20.12.2019
6141 Clouds 9 1022 100 6000 1.5 50 09:22 20.12.2019
6142 Clouds 9 1022 100 6000 1.5 30 08:59 20.12.2019
6143 Clouds 9 1022 100 6000 1.5 30 08:41 20.12.2019
6144 Clouds 9 1021 93 10000 2.1 80 08:22 20.12.2019
6145 Clouds 10 1022 93 10000 1 0 07:58 20.12.2019
6146 Clouds 10 1022 93 10000 1 0 07:39 20.12.2019
6147 Clouds 10 1022 93 10000 1 0 07:18 20.12.2019
6148 Clouds 10 1022 93 10000 1 0 06:48 20.12.2019
6149 Clouds 11 1022 93 10000 2.1 150 06:30 20.12.2019
6150 Clouds 10 1022 100 10000 2.1 180 05:49 20.12.2019
6151 Clouds 10 1022 93 10000 1 0 05:25 20.12.2019
6152 Clouds 11 1022 93 10000 0.5 0 03:50 20.12.2019
6153 Clouds 11 1022 93 10000 1 0 03:29 20.12.2019
6154 Clouds 12 1022 87 10000 0.5 0 02:38 20.12.2019
6155 Clouds 13 1022 87 10000 1.5 160 01:36 20.12.2019
6156 Clouds 13 1023 87 10000 2.1 230 00:59 20.12.2019
6157 Clouds 13 1023 87 10000 2.1 230 00:40 20.12.2019
6158 Clouds 13 1023 87 10000 0.5 0 00:19 20.12.2019
6159 Clouds 14 1023 87 10000 2.1 230 23:42 19.12.2019
6160 Clouds 13 1023 93 10000 1 0 23:23 19.12.2019
6161 Clouds 14 1023 87 10000 2.1 240 22:56 19.12.2019
6162 Clouds 14 1023 87 10000 2.1 240 22:36 19.12.2019
6163 Clouds 15 1023 82 10000 1 0 22:18 19.12.2019
6164 Clouds 15 1022 82 10000 1.5 240 21:42 19.12.2019
6165 Clouds 15 1022 82 10000 1.5 260 21:20 19.12.2019
6166 Clouds 15 1022 82 10000 2.1 280 20:59 19.12.2019
6167 Clouds 15 1022 82 10000 2.1 280 20:39 19.12.2019
6168 Clouds 16 1022 77 10000 1.5 250 20:21 19.12.2019
6169 Clouds 17 1021 72 10000 2.1 300 19:59 19.12.2019
6170 Clouds 17 1021 72 10000 2.1 300 19:40 19.12.2019
6171 Clouds 17 1021 72 10000 3.1 320 19:20 19.12.2019
6172 Clouds 19 1020 59 10000 3.6 320 19:00 19.12.2019
6173 Clouds 19 1020 59 10000 3.6 320 18:41 19.12.2019
6174 Clouds 20 1020 56 10000 2.1 320 18:21 19.12.2019
6175 Clouds 21 1020 52 10000 1.5 310 17:57 19.12.2019
6176 Clouds 21 1020 52 10000 1.5 310 17:39 19.12.2019
6177 Clouds 22 1019 49 10000 1.5 40 17:19 19.12.2019
6178 Clouds 21 1019 52 10000 2.1 40 16:57 19.12.2019
6179 Clouds 21 1019 52 10000 2.1 40 16:38 19.12.2019
6180 Clouds 21 1019 49 10000 2.1 340 16:20 19.12.2019
6181 Clouds 21 1019 49 10000 2.1 40 15:58 19.12.2019
6182 Clouds 21 1019 49 10000 2.1 40 15:39 19.12.2019
6183 Clouds 20 1019 56 8000 3.6 100 15:19 19.12.2019
6184 Clouds 19 1020 63 8000 2.1 0 14:58 19.12.2019
6185 Clouds 19 1020 63 8000 2.1 0 14:40 19.12.2019
6186 Clouds 19 1021 63 6000 2.6 120 14:18 19.12.2019
6187 Clouds 18 1022 68 6000 2.1 140 13:54 19.12.2019
6188 Clouds 17 1023 72 6000 1.5 140 13:36 19.12.2019
6189 Clear 17 1023 72 6000 1.5 140 13:18 19.12.2019
6190 Clear 17 1024 72 6000 1 0 12:54 19.12.2019
6191 Clear 17 1024 72 6000 1 0 12:36 19.12.2019
6192 Clear 15 1024 77 6000 1.5 300 12:18 19.12.2019
6193 Clear 15 1024 77 6000 1.5 300 12:18 19.12.2019
6194 Clear 15 1024 77 6000 1.5 300 12:18 19.12.2019
6195 Clear 15 1024 77 6000 1.5 300 12:18 19.12.2019
6196 Clear 15 1024 77 6000 1.5 300 12:18 19.12.2019
6197 Clear 15 1024 77 6000 1 0 11:42 19.12.2019
6198 Clear 14 1023 76 6000 1 0 11:20 19.12.2019
6199 Clear 13 1023 82 6000 1.5 320 10:59 19.12.2019
6200 Clear 13 1023 82 6000 1.5 320 10:38 19.12.2019
6201 Clear 11 1022 93 6000 1.5 60 10:20 19.12.2019
6202 Clear 10 1022 93 6000 1.5 70 09:57 19.12.2019
6203 Clear 10 1022 93 6000 1.5 70 09:38 19.12.2019
6204 Clear 9 1021 93 6000 2.1 120 09:19 19.12.2019
6205 Clear 9 1022 100 8000 1.5 50 08:55 19.12.2019
6206 Clear 9 1022 100 8000 1.5 50 08:37 19.12.2019
6207 Clouds 9 1021 93 10000 2.6 90 08:18 19.12.2019
6208 Clouds 10 1021 93 8000 3.6 150 07:54 19.12.2019
6209 Clouds 10 1021 93 8000 3.6 150 07:36 19.12.2019
6210 Clouds 9 1022 93 8000 1 0 07:18 19.12.2019
6211 Clouds 10 1022 93 8000 1.5 150 06:42 19.12.2019
6212 Clouds 9 1022 93 8000 1 0 06:24 19.12.2019
6213 Clouds 9 1022 100 8000 0.5 0 05:47 19.12.2019
6214 Clouds 9 1022 100 8000 0.5 0 05:27 19.12.2019
6215 Clouds 9 1022 100 8000 0.5 0 03:58 19.12.2019
6216 Clouds 10 1022 93 8000 1.5 290 02:30 19.12.2019
6217 Clouds 11 1022 93 8000 1.5 120 01:27 19.12.2019
6218 Clouds 12 1022 87 10000 1 0 00:59 19.12.2019
6219 Clouds 12 1022 87 10000 1 0 00:39 19.12.2019
6220 Clouds 12 1022 87 10000 1 0 00:39 19.12.2019
6221 Clouds 12 1023 93 10000 3.6 170 00:19 19.12.2019
6222 Clouds 12 1023 93 10000 3.6 170 00:19 19.12.2019
6223 Clouds 13 1023 87 10000 3.1 180 23:45 18.12.2019
6224 Clouds 13 1023 87 10000 2.6 180 23:19 18.12.2019
6225 Clouds 13 1023 87 10000 2.1 190 22:58 18.12.2019
6226 Clouds 13 1023 87 10000 2.1 190 22:40 18.12.2019
6227 Clouds 13 1023 87 10000 2.1 190 22:40 18.12.2019
6228 Clouds 13 1023 93 10000 1.5 180 22:22 18.12.2019
6229 Clouds 13 1023 93 10000 1.5 180 21:59 18.12.2019
6230 Clouds 13 1023 93 10000 1.5 180 21:41 18.12.2019
6231 Clouds 13 1023 93 10000 1.5 210 21:21 18.12.2019
6232 Clouds 13 1023 93 10000 1.5 210 21:21 18.12.2019
6233 Clouds 13 1022 87 10000 2.1 240 20:57 18.12.2019
6234 Clouds 13 1022 87 10000 2.1 240 20:39 18.12.2019
6235 Clouds 13 1022 93 10000 1.5 260 20:20 18.12.2019
6236 Clouds 14 1022 87 10000 3.1 290 19:57 18.12.2019
6237 Clouds 14 1022 87 10000 3.1 290 19:39 18.12.2019
6238 Clouds 15 1021 82 10000 3.6 280 19:19 18.12.2019
6239 Clouds 16 1021 77 10000 3.1 290 18:56 18.12.2019
6240 Clouds 16 1021 77 10000 3.1 290 18:38 18.12.2019
6241 Clouds 17 1021 72 10000 2.6 280 18:20 18.12.2019
6242 Clouds 18 1021 63 10000 1.5 310 17:55 18.12.2019
6243 Clouds 18 1021 63 10000 1.5 310 17:55 18.12.2019
6244 Clouds 18 1020 63 10000 1.5 0 17:37 18.12.2019
6245 Clouds 18 1020 63 10000 1.5 0 17:19 18.12.2019
6246 Clouds 19 1020 59 10000 2.1 310 16:42 18.12.2019
6247 Clouds 19 1020 59 10000 1.5 350 16:24 18.12.2019
6248 Clouds 18 1020 59 10000 1.5 0 15:59 18.12.2019
6249 Clouds 18 1020 59 10000 1.5 280 15:39 18.12.2019
6250 Clouds 18 1020 59 10000 1.5 280 15:21 18.12.2019
6251 Clouds 18 1020 55 10000 2.1 290 14:57 18.12.2019
6252 Clear 18 1020 49 0 3.51 298 14:39 18.12.2019
6253 Clear 16 1021 46 0 1.95 289 14:19 18.12.2019
6254 Clouds 16 1022 63 10000 2.1 240 13:55 18.12.2019
6255 Clouds 16 1022 63 10000 2.1 240 13:37 18.12.2019
6256 Clouds 16 1022 63 10000 2.1 240 13:19 18.12.2019
6257 Clear 14 1022 67 8000 1.5 340 12:54 18.12.2019
6258 Clear 14 1022 67 8000 1.5 340 12:36 18.12.2019
6259 Clear 14 1022 67 8000 1.5 340 12:18 18.12.2019
6260 Clear 14 1022 67 8000 2.1 350 11:54 18.12.2019
6261 Clear 17 1021 43 0 1.58 301 11:36 18.12.2019
6262 Clear 13 1021 51 0 0.63 157 11:18 18.12.2019
6263 Clear 13 1021 51 0 0.63 157 10:54 18.12.2019
6264 Clear 13 1021 51 0 0.63 157 10:36 18.12.2019
6265 Clear 6 1020 93 0 1.5 80 10:18 18.12.2019
6266 Clear 6 1020 93 0 1.5 80 09:21 18.12.2019
6267 Clear 5 1020 93 10000 2.1 90 08:57 18.12.2019
6268 Clear 5 1020 93 10000 2.1 90 08:57 18.12.2019
6269 Clear 5 1020 93 10000 2.1 90 08:39 18.12.2019
6270 Clear 5 1020 93 10000 2.1 90 08:20 18.12.2019
6271 Clear 5 1019 93 10000 2.1 80 07:42 18.12.2019
6272 Clear 5 1019 93 10000 2.1 80 07:21 18.12.2019
6273 Clear 6 1018 87 10000 2.1 80 06:53 18.12.2019
6274 Clear 6 1018 87 10000 2.1 80 06:26 18.12.2019
6275 Clear 6 1019 87 10000 2.6 80 05:43 18.12.2019
6276 Clear 6 1019 93 10000 1.5 60 04:37 18.12.2019
6277 Clear 7 1019 87 10000 1.5 70 02:50 18.12.2019
6278 Clear 7 1019 87 10000 1.5 70 02:30 18.12.2019
6279 Clouds 7 1020 93 10000 2.1 80 01:47 18.12.2019
6280 Clouds 7 1020 93 10000 2.1 80 01:29 18.12.2019
6281 Clouds 7 1020 93 10000 2.1 90 00:59 18.12.2019
6282 Clouds 8 1020 87 10000 1.5 100 00:40 18.12.2019
6283 Clouds 8 1020 87 10000 1.5 100 00:21 18.12.2019
6284 Clouds 8 1020 87 10000 2.1 110 23:54 17.12.2019
6285 Clouds 9 1020 81 10000 1 0 23:36 17.12.2019
6286 Clouds 9 1020 81 10000 1 0 23:18 17.12.2019
6287 Clouds 10 1020 81 10000 1.5 170 22:54 17.12.2019
6288 Clouds 10 1019 81 10000 1.5 160 22:36 17.12.2019
6289 Clouds 10 1019 81 10000 1.5 160 22:18 17.12.2019
6290 Clouds 10 1019 81 10000 0.5 0 21:55 17.12.2019
6291 Clouds 10 1019 76 10000 0.5 0 21:36 17.12.2019
6292 Clouds 10 1019 76 10000 0.5 0 21:18 17.12.2019
6293 Clouds 12 1019 71 0 2.1 220 20:40 17.12.2019
6294 Clouds 12 1019 71 0 2.1 220 20:19 17.12.2019
6295 Clouds 12 1019 71 0 1.5 230 19:59 17.12.2019
6296 Clouds 13 1019 66 0 2.1 0 19:41 17.12.2019
6297 Clouds 13 1019 66 0 2.1 0 19:20 17.12.2019
6298 Clouds 13 1018 66 0 3.1 210 18:58 17.12.2019
6299 Clouds 13 1018 66 0 3.1 200 18:39 17.12.2019
6300 Clouds 13 1018 66 0 3.1 200 18:21 17.12.2019
6301 Clouds 13 1018 66 0 3.1 210 17:56 17.12.2019
6302 Clouds 13 1018 62 0 4.6 250 17:38 17.12.2019
6303 Clouds 13 1018 62 0 4.6 250 17:18 17.12.2019
6304 Clouds 14 1017 58 10000 5.1 230 16:55 17.12.2019
6305 Clouds 14 1017 58 10000 6.2 220 16:37 17.12.2019
6306 Clouds 14 1017 58 10000 6.2 220 16:37 17.12.2019
6307 Clouds 14 1017 58 10000 6.2 220 16:18 17.12.2019
6308 Clouds 13 1016 62 10000 5.7 210 15:54 17.12.2019
6309 Clouds 13 1016 62 10000 5.1 210 15:36 17.12.2019
6310 Clouds 13 1016 62 10000 5.1 210 15:18 17.12.2019
6311 Clouds 14 1016 62 10000 4.6 230 14:54 17.12.2019
6312 Clouds 13 1016 66 10000 4.6 240 14:36 17.12.2019
6313 Clouds 13 1016 66 10000 4.6 240 14:18 17.12.2019
6314 Clouds 13 1017 71 10000 4.1 230 13:41 17.12.2019
6315 Clouds 13 1017 71 10000 4.1 230 13:19 17.12.2019
6316 Clouds 12 1017 76 8000 4.6 220 12:59 17.12.2019
6317 Clouds 12 1017 76 8000 4.6 220 12:59 17.12.2019
6318 Clouds 11 1017 81 8000 5.7 230 12:39 17.12.2019
6319 Clouds 11 1017 81 8000 5.7 230 12:18 17.12.2019
6320 Clouds 10 1017 87 8000 6.2 230 11:58 17.12.2019
6321 Clouds 9 1016 87 8000 4.6 220 11:37 17.12.2019
6322 Clouds 9 1016 87 8000 4.6 220 11:18 17.12.2019
6323 Clouds 8 1016 93 8000 4.6 220 10:58 17.12.2019
6324 Clouds 8 1015 93 8000 3.6 220 10:39 17.12.2019
6325 Clouds 8 1015 93 8000 3.6 220 10:20 17.12.2019
6326 Rain 7 1014 93 8000 3.1 220 09:58 17.12.2019
6327 Rain 7 1014 93 8000 3.1 220 09:40 17.12.2019
6328 Rain 7 1014 93 8000 3.1 220 09:19 17.12.2019
6329 Rain 7 1014 93 8000 1.5 270 08:55 17.12.2019
6330 Rain 7 1013 93 8000 1.5 250 08:37 17.12.2019
6331 Rain 7 1013 93 8000 1.5 250 08:19 17.12.2019
6332 Rain 7 1013 93 8000 4.6 230 07:45 17.12.2019
6333 Rain 7 1012 93 8000 5.7 220 07:24 17.12.2019
6334 Rain 7 1011 87 8000 5.7 220 06:55 17.12.2019
6335 Rain 7 1011 93 8000 4.6 220 06:32 17.12.2019
6336 Rain 7 1011 87 8000 6.7 240 05:52 17.12.2019
6337 Rain 7 1011 87 8000 6.7 240 05:32 17.12.2019
6338 Rain 7 1010 87 8000 7.7 230 04:25 17.12.2019
6339 Clouds 7 1010 93 8000 6.7 220 02:33 17.12.2019
6340 Clouds 7 1010 93 8000 5.7 220 01:50 17.12.2019
6341 Clouds 7 1010 87 8000 6.2 220 00:56 17.12.2019
6342 Rain 7 1010 93 8000 9.3 270 00:36 17.12.2019
6343 Rain 7 1010 93 8000 9.3 270 00:18 17.12.2019
6344 Clouds 9 1009 76 8000 8.2 280 23:40 16.12.2019
6345 Clouds 9 1009 76 8000 8.2 280 23:19 16.12.2019
6346 Clouds 10 1009 71 8000 8.2 240 22:55 16.12.2019
6347 Clouds 10 1008 66 8000 9.8 240 22:37 16.12.2019
6348 Clouds 10 1008 66 8000 9.8 240 22:19 16.12.2019
6349 Clouds 9 1008 76 8000 10.3 240 21:54 16.12.2019
6350 Clouds 9 1008 76 8000 15.9 240 21:36 16.12.2019
6351 Clouds 9 1008 76 8000 15.9 240 21:36 16.12.2019
6352 Clouds 9 1008 76 8000 15.9 240 21:18 16.12.2019
6353 Clouds 9 1008 81 8000 10.8 270 20:56 16.12.2019
6354 Clouds 10 1008 81 8000 8.2 280 20:37 16.12.2019
6355 Clouds 10 1008 81 8000 8.2 280 20:19 16.12.2019
6356 Rain 10 1008 93 8000 8.2 250 19:55 16.12.2019
6357 Rain 11 1007 87 8000 7.7 260 19:36 16.12.2019
6358 Rain 11 1007 87 8000 7.7 260 19:18 16.12.2019
6359 Rain 11 1007 81 8000 6.2 260 18:55 16.12.2019
6360 Rain 11 1006 81 8000 10.3 250 18:37 16.12.2019
6361 Rain 11 1006 81 8000 10.3 250 18:18 16.12.2019
6362 Rain 10 1006 73 0 12.39 258 17:56 16.12.2019
6363 Clouds 13 1004 66 5000 16.5 270 17:37 16.12.2019
6364 Clouds 13 1004 66 5000 16.5 270 17:19 16.12.2019
6365 Sand 18 1001 39 600 12.3 280 16:54 16.12.2019
6366 Sand 17 1002 48 3000 7.7 300 16:36 16.12.2019
6367 Sand 17 1002 48 3000 7.7 300 16:18 16.12.2019
6368 Sand 16 1002 55 1200 9.3 300 15:55 16.12.2019
6369 Sand 16 1002 55 1200 9.3 300 15:55 16.12.2019
6370 Sand 17 1002 51 1200 8.7 310 15:37 16.12.2019
6371 Sand 17 1002 51 1200 8.7 310 15:37 16.12.2019
6372 Sand 17 1002 51 1200 8.7 310 15:19 16.12.2019
6373 Clouds 22 1002 24 6000 3.1 340 14:54 16.12.2019
6374 Sand 21 1002 30 3000 3.6 330 14:36 16.12.2019
6375 Sand 21 1002 30 3000 3.6 330 14:18 16.12.2019
6376 Sand 21 1002 30 3000 3.6 330 14:18 16.12.2019
6377 Clouds 19 1005 42 10000 5.1 310 13:38 16.12.2019
6378 Clouds 19 1005 42 10000 5.1 310 13:20 16.12.2019
6379 Clouds 18 1006 42 10000 5.7 300 12:59 16.12.2019
6380 Clouds 18 1006 36 10000 6.2 300 12:40 16.12.2019
6381 Clouds 18 1006 36 10000 6.2 300 12:20 16.12.2019
6382 Clouds 21 1006 22 10000 9.3 220 11:59 16.12.2019
6383 Clouds 21 1006 22 10000 9.3 220 11:59 16.12.2019
6384 Clouds 22 1005 15 10000 8.2 200 11:41 16.12.2019
6385 Clouds 22 1005 15 10000 8.2 200 11:22 16.12.2019
6386 Clouds 22 1005 14 8000 8.2 200 10:59 16.12.2019
6387 Clouds 21 1005 15 8000 7.7 190 10:40 16.12.2019
6388 Clouds 21 1005 15 8000 7.7 190 10:40 16.12.2019
6389 Clouds 21 1005 15 8000 7.7 190 10:20 16.12.2019
6390 Clouds 21 1006 15 8000 9.3 190 09:46 16.12.2019
6391 Clouds 21 1006 15 8000 8.2 200 09:28 16.12.2019
6392 Clouds 21 1006 16 8000 8.2 190 08:58 16.12.2019
6393 Clouds 20 1006 18 10000 8.2 190 08:38 16.12.2019
6394 Clouds 20 1006 18 10000 8.2 190 08:19 16.12.2019
6395 Clouds 21 1007 18 10000 6.2 200 07:49 16.12.2019
6396 Clouds 20 1007 19 10000 5.7 200 07:30 16.12.2019
6397 Clouds 12 1008 66 10000 2.1 100 06:46 16.12.2019
6398 Clouds 12 1008 66 10000 2.1 100 06:26 16.12.2019
6399 Clouds 12 1008 66 10000 2.1 90 05:56 16.12.2019
6400 Clouds 12 1009 66 10000 2.6 60 05:35 16.12.2019
6401 Clouds 13 1009 66 10000 2.6 100 04:33 16.12.2019
6402 Clouds 12 1011 71 10000 2.1 90 02:49 16.12.2019
6403 Clouds 12 1012 71 10000 0.5 0 01:45 16.12.2019
6404 Clouds 14 1013 62 10000 1 0 00:55 16.12.2019
6405 Clouds 14 1013 62 10000 0.5 0 00:36 16.12.2019
6406 Clouds 14 1013 62 10000 0.5 0 00:18 16.12.2019
6407 Clouds 14 1013 62 10000 1 0 23:40 15.12.2019
6408 Clouds 14 1013 62 10000 1 0 23:22 15.12.2019
6409 Clouds 14 1013 58 10000 0.5 0 22:56 15.12.2019
6410 Clouds 15 1013 54 10000 1.5 200 22:38 15.12.2019
6411 Clouds 15 1013 54 10000 1.5 200 22:19 15.12.2019
6412 Clouds 15 1013 51 10000 1 0 21:57 15.12.2019
6413 Clouds 16 1013 48 8000 1 0 21:38 15.12.2019
6414 Clouds 16 1013 48 8000 1 0 21:19 15.12.2019
6415 Clouds 17 1013 45 10000 1.5 280 20:57 15.12.2019
6416 Clouds 18 1014 42 10000 1.5 310 20:38 15.12.2019
6417 Clouds 18 1014 42 10000 1.5 310 20:19 15.12.2019
6418 Clouds 18 1014 42 10000 1.5 300 19:57 15.12.2019
6419 Clouds 20 1014 37 10000 2.1 300 19:39 15.12.2019
6420 Clouds 20 1014 37 10000 2.1 300 19:39 15.12.2019
6421 Clouds 20 1014 37 10000 2.1 300 19:19 15.12.2019
6422 Clouds 20 1014 37 10000 2.1 300 18:57 15.12.2019
6423 Clouds 22 1014 35 10000 1 0 18:38 15.12.2019
6424 Clouds 22 1014 35 10000 1.5 340 18:18 15.12.2019
6425 Clouds 22 1014 35 10000 1.5 340 17:56 15.12.2019
6426 Clouds 23 1014 31 10000 1.5 360 17:37 15.12.2019
6427 Clouds 23 1014 31 10000 1.5 360 17:19 15.12.2019
6428 Clouds 23 1014 31 10000 2.1 40 16:56 15.12.2019
6429 Clouds 23 1014 31 10000 1.5 50 16:38 15.12.2019
6430 Clouds 23 1014 31 10000 1.5 50 16:20 15.12.2019
6431 Clouds 23 1014 31 10000 1 0 15:55 15.12.2019
6432 Clouds 23 1014 31 10000 1 0 15:55 15.12.2019
6433 Clouds 23 1015 31 8000 1 0 15:37 15.12.2019
6434 Clouds 23 1015 31 8000 1 0 15:18 15.12.2019
6435 Clouds 23 1015 33 8000 1 0 14:55 15.12.2019
6436 Clouds 22 1016 40 8000 1 0 14:36 15.12.2019
6437 Clear 22 1016 40 8000 1 0 14:18 15.12.2019
6438 Clear 20 1016 42 8000 1.5 310 13:54 15.12.2019
6439 Clear 20 1017 49 8000 1.5 0 13:36 15.12.2019
6440 Clear 20 1017 49 8000 1.5 0 13:18 15.12.2019
6441 Clear 20 1017 49 8000 1.5 0 13:18 15.12.2019
6442 Clear 20 1017 49 8000 1.5 0 12:55 15.12.2019
6443 Clear 18 1018 52 8000 1.5 60 12:37 15.12.2019
6444 Clear 18 1018 52 8000 1.5 60 12:37 15.12.2019
6445 Clear 18 1018 52 8000 1.5 60 12:19 15.12.2019
6446 Clear 15 1019 58 8000 2.6 90 11:38 15.12.2019
6447 Clear 15 1019 58 8000 2.6 90 11:19 15.12.2019
6448 Clear 14 1019 58 8000 2.6 100 10:58 15.12.2019
6449 Clear 12 1019 66 8000 1 0 10:39 15.12.2019
6450 Clear 12 1019 66 8000 1 0 10:19 15.12.2019
6451 Clear 10 1019 71 8000 1.5 90 09:58 15.12.2019
6452 Clear 8 1018 81 8000 2.1 80 09:37 15.12.2019
6453 Clear 8 1018 81 8000 2.1 80 09:19 15.12.2019
6454 Clear 8 1018 75 8000 2.6 80 08:55 15.12.2019
6455 Clear 7 1018 81 8000 2.6 90 08:36 15.12.2019
6456 Clear 7 1018 81 8000 2.6 90 08:18 15.12.2019
6457 Clear 9 1019 76 8000 2.1 50 07:47 15.12.2019
6458 Clear 8 1018 81 8000 2.6 90 07:28 15.12.2019
6459 Clear 9 1019 76 8000 2.1 90 06:26 15.12.2019
6460 Clear 8 1019 81 8000 1.5 110 05:42 15.12.2019
6461 Clear 8 1019 81 8000 1.5 110 05:21 15.12.2019
6462 Clear 9 1019 81 8000 2.1 110 04:21 15.12.2019
6463 Clear 9 1020 81 8000 1.5 80 02:55 15.12.2019
6464 Clear 10 1020 76 8000 1 0 02:32 15.12.2019
6465 Clouds 13 1020 62 8000 1.5 200 01:41 15.12.2019
6466 Clouds 13 1020 62 8000 1.5 200 01:19 15.12.2019
6467 Clouds 14 1021 62 8000 2.1 190 00:49 15.12.2019
6468 Clouds 15 1021 62 8000 3.6 220 00:31 15.12.2019
6469 Clouds 14 1021 71 8000 3.6 220 23:54 14.12.2019
6470 Clouds 12 1020 76 8000 2.6 250 23:36 14.12.2019
6471 Clouds 12 1020 76 8000 2.6 250 23:18 14.12.2019
6472 Clouds 13 1020 71 8000 1 0 22:41 14.12.2019
6473 Clouds 13 1020 71 8000 1 0 22:22 14.12.2019
6474 Clouds 14 1020 67 8000 0.5 0 21:58 14.12.2019
6475 Clouds 16 1020 59 8000 0.5 0 21:40 14.12.2019
6476 Clouds 16 1020 59 8000 0.5 0 21:20 14.12.2019
6477 Clouds 16 1020 59 8000 1.5 180 20:59 14.12.2019
6478 Clouds 17 1020 55 8000 0.5 0 20:41 14.12.2019
6479 Clouds 17 1020 55 8000 0.5 0 20:20 14.12.2019
6480 Clouds 18 1020 55 10000 1 0 19:59 14.12.2019
6481 Clouds 18 1020 52 10000 1 0 19:39 14.12.2019
6482 Clouds 18 1020 52 10000 1 0 19:39 14.12.2019
6483 Clouds 18 1020 52 10000 1 0 19:20 14.12.2019
6484 Clouds 20 1020 45 10000 1.5 310 18:56 14.12.2019
6485 Clouds 21 1020 43 10000 1.5 300 18:38 14.12.2019
6486 Clouds 21 1020 43 10000 1.5 300 18:20 14.12.2019
6487 Clouds 22 1020 40 0 3.1 270 17:44 14.12.2019
6488 Clouds 22 1020 40 0 3.1 270 17:24 14.12.2019
6489 Clear 22 1020 40 10000 3.6 270 16:59 14.12.2019
6490 Clear 22 1020 40 10000 3.6 270 16:40 14.12.2019
6491 Clear 22 1020 40 10000 3.6 270 16:19 14.12.2019
6492 Clear 22 1020 40 10000 3.1 260 15:54 14.12.2019
6493 Clear 22 1020 43 10000 2.6 310 15:36 14.12.2019
6494 Clear 22 1020 43 10000 2.6 310 15:36 14.12.2019
6495 Clear 22 1020 43 10000 2.6 310 15:18 14.12.2019
6496 Clear 20 1021 45 10000 1.5 350 14:40 14.12.2019
6497 Clear 20 1021 45 10000 1.5 350 14:21 14.12.2019
6498 Clear 21 1021 43 10000 1 0 13:59 14.12.2019
6499 Clear 19 1022 52 10000 1.5 320 13:41 14.12.2019
6500 Clear 19 1022 52 10000 1.5 320 13:19 14.12.2019
6501 Clear 19 1022 52 10000 1 0 12:56 14.12.2019
6502 Clear 17 1023 55 10000 1 0 12:37 14.12.2019
6503 Clear 17 1023 55 10000 1 0 12:19 14.12.2019
6504 Clear 16 1023 55 10000 1.5 40 11:56 14.12.2019
6505 Clear 15 1023 58 10000 1 0 11:37 14.12.2019
6506 Clear 15 1023 58 10000 1 0 11:18 14.12.2019
6507 Clear 14 1023 58 10000 1 0 10:56 14.12.2019
6508 Clear 13 1023 62 10000 1 0 10:38 14.12.2019
6509 Clear 13 1023 62 10000 1 0 10:19 14.12.2019
6510 Clear 10 1023 76 10000 0.5 0 09:43 14.12.2019
6511 Clear 9 1023 76 10000 0.5 0 09:21 14.12.2019
6512 Clear 8 1022 81 10000 1 0 08:56 14.12.2019
6513 Clear 7 1022 87 10000 1.5 130 08:38 14.12.2019
6514 Clear 7 1022 87 10000 1.5 130 08:19 14.12.2019
6515 Clouds 8 1022 81 8000 1.5 90 07:40 14.12.2019
6516 Clouds 8 1022 81 8000 1.5 90 07:21 14.12.2019
6517 Clouds 8 1022 81 8000 0.5 0 06:45 14.12.2019
6518 Clouds 8 1022 81 8000 1 0 06:22 14.12.2019
6519 Clouds 8 1022 81 8000 1 0 05:43 14.12.2019
6520 Clouds 10 1023 71 8000 2.1 230 03:44 14.12.2019
6521 Clear 12 1023 66 10000 0.5 0 02:23 14.12.2019
6522 Clear 12 1023 62 10000 1 0 01:44 14.12.2019
6523 Clear 10 1023 66 10000 1 0 01:20 14.12.2019
6524 Clear 12 1023 62 10000 0.5 0 00:41 14.12.2019
6525 Clear 12 1023 62 10000 0.5 0 00:20 14.12.2019
6526 Clear 14 1023 50 10000 1 0 23:41 13.12.2019
6527 Clear 14 1023 50 10000 1 0 23:19 13.12.2019
6528 Clear 14 1023 50 10000 0.5 0 22:57 13.12.2019
6529 Clear 14 1023 50 10000 1 0 22:38 13.12.2019
6530 Clear 14 1023 50 10000 1 0 22:18 13.12.2019
6531 Clear 15 1023 51 10000 2.6 90 21:44 13.12.2019
6532 Clear 15 1023 51 10000 2.6 90 21:22 13.12.2019
6533 Clear 15 1023 47 10000 2.6 80 20:59 13.12.2019
6534 Clear 16 1023 48 10000 2.6 70 20:40 13.12.2019
6535 Clear 16 1023 48 10000 2.6 70 20:20 13.12.2019
6536 Clear 17 1023 42 10000 2.1 60 19:56 13.12.2019
6537 Clear 17 1023 42 10000 2.1 60 19:38 13.12.2019
6538 Clear 18 1023 39 10000 2.6 80 19:19 13.12.2019
6539 Clear 19 1023 37 10000 3.1 70 18:55 13.12.2019
6540 Clear 19 1023 37 10000 3.1 70 18:36 13.12.2019
6541 Clear 21 1023 30 10000 4.1 60 18:18 13.12.2019
6542 Clear 22 1023 24 10000 3.6 70 17:40 13.12.2019
6543 Clear 23 1023 17 10000 4.6 50 17:19 13.12.2019
6544 Clear 23 1023 16 10000 4.1 50 16:57 13.12.2019
6545 Clear 23 1023 16 10000 4.1 50 16:57 13.12.2019
6546 Clear 23 1023 17 10000 3.6 70 16:38 13.12.2019
6547 Clear 23 1023 17 10000 3.6 70 16:20 13.12.2019
6548 Clear 22 1023 33 10000 4.1 50 15:43 13.12.2019
6549 Clear 22 1023 33 10000 4.1 50 15:22 13.12.2019
6550 Clear 20 1024 40 10000 4.1 70 14:57 13.12.2019
6551 Clear 21 1025 40 10000 4.1 80 14:38 13.12.2019
6552 Clear 21 1025 40 10000 4.1 80 14:19 13.12.2019
6553 Clear 19 1025 48 10000 4.1 90 13:44 13.12.2019
6554 Clear 18 1026 52 10000 4.6 70 13:26 13.12.2019
6555 Clear 16 1027 63 10000 4.1 50 12:58 13.12.2019
6556 Clear 16 1027 63 10000 4.1 50 12:40 13.12.2019
6557 Clear 15 1027 62 10000 4.1 70 12:19 13.12.2019
6558 Clear 14 1027 67 10000 4.1 70 11:45 13.12.2019
6559 Clear 12 1027 76 10000 3.6 70 11:26 13.12.2019
6560 Clear 11 1027 76 10000 4.1 90 10:57 13.12.2019
6561 Clear 11 1027 76 10000 4.1 90 10:39 13.12.2019
6562 Clear 10 1027 76 10000 4.1 110 10:21 13.12.2019
6563 Clear 9 1027 81 10000 4.1 100 09:42 13.12.2019
6564 Clear 8 1027 87 10000 3.1 80 09:21 13.12.2019
6565 Clear 7 1027 87 10000 3.1 90 08:55 13.12.2019
6566 Clear 7 1027 87 10000 3.1 90 08:36 13.12.2019
6567 Clear 7 1027 87 10000 3.6 90 08:18 13.12.2019
6568 Clear 7 1027 87 10000 2.6 90 07:42 13.12.2019
6569 Clear 7 1027 87 10000 2.1 70 07:19 13.12.2019
6570 Clear 7 1026 93 10000 2.1 90 06:39 13.12.2019
6571 Clear 8 1026 87 10000 2.6 70 06:20 13.12.2019
6572 Clear 8 1026 87 10000 3.1 90 05:37 13.12.2019
6573 Clear 8 1027 87 10000 3.1 90 05:19 13.12.2019
6574 Clear 8 1027 87 10000 2.6 100 03:55 13.12.2019
6575 Clear 9 1027 81 10000 3.1 90 02:48 13.12.2019
6576 Clear 9 1027 87 10000 3.1 80 02:30 13.12.2019
6577 Clear 9 1027 81 10000 2.6 60 01:34 13.12.2019
6578 Clear 9 1027 87 10000 2.1 70 00:50 13.12.2019
6579 Clear 10 1028 81 10000 2.6 90 00:28 13.12.2019
6580 Clear 11 1028 76 10000 3.1 70 23:43 12.12.2019
6581 Clear 12 1028 71 10000 4.1 60 23:25 12.12.2019
6582 Clear 12 1028 71 10000 4.1 70 22:56 12.12.2019
6583 Clear 12 1028 71 10000 4.1 70 22:38 12.12.2019
6584 Clear 12 1028 71 10000 4.1 70 22:38 12.12.2019
6585 Clear 12 1028 71 10000 3.1 70 22:20 12.12.2019
6586 Clear 13 1028 66 10000 4.6 60 21:56 12.12.2019
6587 Clear 13 1028 66 10000 4.6 60 21:37 12.12.2019
6588 Clear 14 1028 62 10000 5.7 50 21:19 12.12.2019
6589 Clear 15 1027 62 10000 4.6 40 20:58 12.12.2019
6590 Clear 15 1027 62 10000 4.6 40 20:40 12.12.2019
6591 Clear 15 1025 52 0 4.93 25 20:21 12.12.2019
6592 Clear 17 1026 55 10000 3.1 50 19:56 12.12.2019
6593 Clear 17 1026 55 10000 3.1 50 19:37 12.12.2019
6594 Clear 17 1026 55 10000 3.1 50 19:18 12.12.2019
6595 Clear 17 1026 55 10000 3.1 50 19:18 12.12.2019
6596 Clear 17 1026 55 10000 3.1 50 18:55 12.12.2019
6597 Clear 17 1026 55 10000 3.1 50 18:37 12.12.2019
6598 Clear 18 1026 52 10000 3.6 50 18:19 12.12.2019
6599 Clear 18 1026 52 10000 4.1 40 17:56 12.12.2019
6600 Clear 18 1026 52 10000 4.1 40 17:38 12.12.2019
6601 Clear 19 1026 48 10000 4.1 60 17:19 12.12.2019
6602 Clear 19 1026 48 10000 3.6 30 16:54 12.12.2019
6603 Clear 19 1026 48 10000 3.6 30 16:36 12.12.2019
6604 Clear 19 1026 45 10000 3.6 30 16:18 12.12.2019
6605 Clear 19 1026 48 10000 4.1 20 15:42 12.12.2019
6606 Clear 19 1026 52 10000 3.1 20 15:20 12.12.2019
6607 Clear 18 1026 55 10000 2.1 40 14:57 12.12.2019
6608 Clear 18 1026 55 10000 2.1 40 14:57 12.12.2019
6609 Clear 18 1026 55 10000 2.1 40 14:37 12.12.2019
6610 Clouds 17 1026 59 10000 2.6 40 14:19 12.12.2019
6611 Clouds 17 1026 59 10000 3.1 30 13:55 12.12.2019
6612 Clouds 17 1026 59 10000 3.1 30 13:37 12.12.2019
6613 Clear 16 1027 63 10000 3.1 20 13:18 12.12.2019
6614 Clear 16 1028 63 10000 2.1 30 12:55 12.12.2019
6615 Clear 16 1028 63 10000 2.1 30 12:36 12.12.2019
6616 Clear 15 1028 67 10000 2.6 40 12:18 12.12.2019
6617 Clear 14 1028 67 10000 2.6 110 11:40 12.12.2019
6618 Clear 13 1028 71 10000 2.1 90 11:22 12.12.2019
6619 Clear 12 1028 76 10000 2.6 70 10:59 12.12.2019
6620 Clear 12 1028 76 10000 2.6 70 10:59 12.12.2019
6621 Clear 12 1028 76 10000 2.6 70 10:41 12.12.2019
6622 Clear 11 1028 81 10000 2.6 50 10:22 12.12.2019
6623 Clear 10 1028 81 10000 2.1 40 09:57 12.12.2019
6624 Clear 10 1028 81 10000 2.1 40 09:39 12.12.2019
6625 Clear 9 1027 87 10000 1.5 100 09:20 12.12.2019
6626 Clear 7 1027 93 10000 2.1 120 08:50 12.12.2019
6627 Clear 8 1027 87 10000 1.5 110 08:29 12.12.2019
6628 Clear 8 1027 87 10000 1.5 110 07:59 12.12.2019
6629 Clear 8 1027 87 10000 1.5 110 07:39 12.12.2019
6630 Clear 9 1027 87 10000 1.5 40 07:21 12.12.2019
6631 Clear 8 1027 87 10000 1 0 06:42 12.12.2019
6632 Clear 9 1027 87 10000 0.5 0 06:23 12.12.2019
6633 Clear 9 1027 87 10000 1 0 05:34 12.12.2019
6634 Clear 9 1027 87 10000 2.1 100 04:48 12.12.2019
6635 Clear 10 1027 87 10000 2.1 80 02:44 12.12.2019
6636 Clear 10 1027 81 10000 2.6 90 02:25 12.12.2019
6637 Clear 11 1027 76 10000 2.1 40 01:59 12.12.2019
6638 Clear 12 1027 71 10000 1.5 30 01:36 12.12.2019
6639 Clear 13 1027 71 10000 2.1 30 00:50 12.12.2019
6640 Clear 12 1027 76 10000 2.6 60 00:22 12.12.2019
6641 Clear 11 1027 81 10000 1 0 23:58 11.12.2019
6642 Clear 11 1027 81 10000 1 0 23:39 11.12.2019
6643 Clear 12 1027 76 10000 2.1 80 23:19 11.12.2019
6644 Clear 13 1026 66 10000 2.1 80 22:56 11.12.2019
6645 Clear 13 1026 66 10000 2.1 80 22:38 11.12.2019
6646 Clear 13 1026 66 10000 3.1 110 22:19 11.12.2019
6647 Clear 14 1027 67 10000 3.1 100 21:55 11.12.2019
6648 Clear 14 1027 67 10000 3.1 100 21:36 11.12.2019
6649 Clear 15 1026 58 10000 2.6 80 21:18 11.12.2019
6650 Clear 16 1026 55 10000 2.6 60 20:55 11.12.2019
6651 Clear 16 1026 55 10000 2.6 60 20:37 11.12.2019
6652 Clear 18 1026 48 10000 2.6 40 20:18 11.12.2019
6653 Clear 18 1026 48 10000 2.6 40 19:43 11.12.2019
6654 Clear 18 1026 45 10000 2.1 20 19:23 11.12.2019
6655 Clear 19 1026 45 10000 1.5 30 18:59 11.12.2019
6656 Clear 19 1026 45 10000 1.5 30 18:40 11.12.2019
6657 Clear 21 1026 40 10000 1.5 20 18:20 11.12.2019
6658 Clear 21 1026 43 10000 1 0 17:57 11.12.2019
6659 Clear 21 1026 43 10000 1 0 17:38 11.12.2019
6660 Clear 21 1026 46 10000 1.5 320 17:18 11.12.2019
6661 Clear 22 1026 43 10000 1 0 16:56 11.12.2019
6662 Clear 22 1026 43 10000 1 0 16:37 11.12.2019
6663 Clear 21 1026 46 10000 2.1 340 16:19 11.12.2019
6664 Clear 21 1026 49 10000 2.1 0 15:57 11.12.2019
6665 Clear 21 1026 49 10000 2.1 0 15:37 11.12.2019
6666 Clear 21 1026 49 10000 1.5 0 15:19 11.12.2019
6667 Clear 20 1026 52 10000 1 0 14:55 11.12.2019
6668 Clear 20 1026 52 10000 1 0 14:55 11.12.2019
6669 Clear 20 1026 52 10000 1 0 14:37 11.12.2019
6670 Clear 20 1026 52 10000 1 0 14:37 11.12.2019
6671 Clear 19 1027 52 10000 2.1 330 14:18 11.12.2019
6672 Clear 19 1027 55 10000 2.1 350 13:44 11.12.2019
6673 Clear 18 1027 39 0 2.16 358 13:23 11.12.2019
6674 Clear 18 1027 39 0 2.27 2 12:59 11.12.2019
6675 Clear 18 1027 39 0 2.27 2 12:39 11.12.2019
6676 Clear 18 1027 39 0 2.27 2 12:21 11.12.2019
6677 Clear 18 1027 39 0 2.27 2 11:58 11.12.2019
6678 Clear 18 1027 39 0 2.27 2 11:39 11.12.2019
6679 Clear 15 1027 48 0 0.99 49 11:19 11.12.2019
6680 Clear 11 1028 87 10000 0.5 0 10:59 11.12.2019
6681 Clear 11 1028 87 10000 0.5 0 10:39 11.12.2019
6682 Clear 11 1028 87 10000 0.5 0 10:21 11.12.2019
6683 Clear 11 1028 87 10000 0.5 0 09:56 11.12.2019
6684 Clear 11 1028 87 10000 0.5 0 09:38 11.12.2019
6685 Clear 8 1028 93 10000 0.5 0 09:19 11.12.2019
6686 Clear 7 1027 93 10000 0.5 0 08:55 11.12.2019
6687 Clear 8 1027 87 10000 0.5 0 08:36 11.12.2019
6688 Clear 8 1027 87 10000 0.5 0 08:18 11.12.2019
6689 Clear 7 1026 93 10000 1 0 07:42 11.12.2019
6690 Clear 7 1026 93 10000 1 0 07:23 11.12.2019
6691 Clear 8 1026 93 10000 1.5 90 06:46 11.12.2019
6692 Clear 9 1026 87 10000 2.1 90 06:24 11.12.2019
6693 Clear 8 1026 87 10000 2.1 120 05:54 11.12.2019
6694 Clear 9 1026 87 10000 1 0 05:33 11.12.2019
6695 Clear 9 1026 87 10000 1 0 04:49 11.12.2019
6696 Clear 11 1026 81 10000 1 0 03:19 11.12.2019
6697 Clear 12 1026 76 10000 2.1 180 02:35 11.12.2019
6698 Clear 11 1026 81 10000 0.5 0 01:22 11.12.2019
6699 Clear 12 1026 76 10000 1 0 00:37 11.12.2019
6700 Clear 13 1026 76 10000 1 0 00:18 11.12.2019
6701 Clear 12 1026 81 10000 1 0 23:43 10.12.2019
6702 Clear 13 1026 76 10000 2.1 90 23:23 10.12.2019
6703 Clear 14 1026 71 10000 3.1 100 22:56 10.12.2019
6704 Clear 13 1026 82 10000 2.6 90 22:38 10.12.2019
6705 Clear 13 1026 82 10000 2.6 90 22:20 10.12.2019
6706 Clear 14 1026 76 0 2.6 100 21:54 10.12.2019
6707 Clear 14 1026 76 0 2.6 100 21:54 10.12.2019
6708 Clear 14 1026 76 0 2.6 100 21:36 10.12.2019
6709 Clear 15 1026 72 10000 2.1 70 21:18 10.12.2019
6710 Clear 16 1026 63 10000 2.1 60 20:55 10.12.2019
6711 Clear 16 1026 63 10000 2.1 60 20:55 10.12.2019
6712 Clear 16 1026 63 10000 2.1 60 20:36 10.12.2019
6713 Clear 17 1025 63 10000 2.6 50 20:18 10.12.2019
6714 Clear 18 1025 55 10000 2.1 40 19:42 10.12.2019
6715 Clear 19 1025 52 10000 2.1 20 19:24 10.12.2019
6716 Clear 20 1025 49 10000 0.5 0 18:57 10.12.2019
6717 Clear 20 1025 49 10000 0.5 0 18:38 10.12.2019
6718 Clear 21 1025 49 10000 1 0 18:19 10.12.2019
6719 Clear 22 1024 43 10000 1.5 50 17:54 10.12.2019
6720 Clear 22 1024 43 10000 1.5 50 17:36 10.12.2019
6721 Clear 23 1024 43 10000 1 0 17:18 10.12.2019
6722 Clear 22 1024 46 10000 1 0 16:41 10.12.2019
6723 Clear 22 1025 46 10000 1 0 16:20 10.12.2019
6724 Clear 21 1025 49 10000 2.1 0 15:40 10.12.2019
6725 Clear 21 1025 43 10000 2.6 10 15:19 10.12.2019